<?xml version="1.0" encoding="UTF-8" standalone="no" ?><gpx xmlns="http://www.topografix.com/GPX/1/1" xmlns:gpxx="http://www.garmin.com/xmlschemas/GpxExtensions/v3" xmlns:wptx1="http://www.garmin.com/xmlschemas/WaypointExtension/v1" xmlns:gpxtpx="http://www.garmin.com/xmlschemas/TrackPointExtension/v1" creator="GuideVTT.com" version="1.1" xmlns:xsi="http://www.w3.org/2001/XMLSchema-instance" xsi:schemaLocation="http://www.topografix.com/GPX/1/1 http://www.topografix.com/GPX/1/1/gpx.xsd http://www.garmin.com/xmlschemas/GpxExtensions/v3 http://www8.garmin.com/xmlschemas/GpxExtensionsv3.xsd http://www.garmin.com/xmlschemas/WaypointExtension/v1 http://www8.garmin.com/xmlschemas/WaypointExtensionv1.xsd http://www.garmin.com/xmlschemas/TrackPointExtension/v1 http://www.garmin.com/xmlschemas/TrackPointExtensionv1.xsd">
<metadata><link href="http://www.garmin.com"><text>Garmin International</text></link><time>2013-06-22T15:13:50Z</time></metadata>
<trk><name>2023rp7.gpx</name><extensions><gpxx:TrackExtension><gpxx:DisplayColor>Cyan</gpxx:DisplayColor></gpxx:TrackExtension></extensions><trkseg>
<trkpt lat="46.51382" lon="6.63071"><ele>473.6</ele><time>2023-06-07T16:25:33Z</time></trkpt>
<trkpt lat="46.5138" lon="6.63078"><ele>473.6</ele><time>2023-06-07T16:25:34Z</time></trkpt>
<trkpt lat="46.51376" lon="6.63078"><ele>473.6</ele><time>2023-06-07T16:25:35Z</time></trkpt>
<trkpt lat="46.51372" lon="6.63082"><ele>473.6</ele><time>2023-06-07T16:25:37Z</time></trkpt>
<trkpt lat="46.51371" lon="6.63085"><ele>473.4</ele><time>2023-06-07T16:25:40Z</time></trkpt>
<trkpt lat="46.5137" lon="6.63091"><ele>473.6</ele><time>2023-06-07T16:25:42Z</time></trkpt>
<trkpt lat="46.51367" lon="6.6311"><ele>473.6</ele><time>2023-06-07T16:25:46Z</time></trkpt>
<trkpt lat="46.51365" lon="6.6312"><ele>474</ele><time>2023-06-07T16:25:48Z</time></trkpt>
<trkpt lat="46.51356" lon="6.63142"><ele>475</ele><time>2023-06-07T16:25:53Z</time></trkpt>
<trkpt lat="46.51354" lon="6.63146"><ele>475</ele><time>2023-06-07T16:25:54Z</time></trkpt>
<trkpt lat="46.5134" lon="6.63178"><ele>476</ele><time>2023-06-07T16:26:02Z</time></trkpt>
<trkpt lat="46.51338" lon="6.63181"><ele>476.2</ele><time>2023-06-07T16:26:03Z</time></trkpt>
<trkpt lat="46.51326" lon="6.63202"><ele>477</ele><time>2023-06-07T16:26:09Z</time></trkpt>
<trkpt lat="46.51323" lon="6.63211"><ele>477.2</ele><time>2023-06-07T16:26:11Z</time></trkpt>
<trkpt lat="46.51311" lon="6.63239"><ele>478.2</ele><time>2023-06-07T16:26:18Z</time></trkpt>
<trkpt lat="46.51304" lon="6.63251"><ele>478.6</ele><time>2023-06-07T16:26:21Z</time></trkpt>
<trkpt lat="46.51295" lon="6.63272"><ele>479.2</ele><time>2023-06-07T16:26:26Z</time></trkpt>
<trkpt lat="46.51287" lon="6.63296"><ele>479.4</ele><time>2023-06-07T16:26:31Z</time></trkpt>
<trkpt lat="46.51279" lon="6.63322"><ele>480.2</ele><time>2023-06-07T16:26:36Z</time></trkpt>
<trkpt lat="46.51269" lon="6.6335"><ele>480.2</ele><time>2023-06-07T16:26:41Z</time></trkpt>
<trkpt lat="46.51265" lon="6.63363"><ele>480.2</ele><time>2023-06-07T16:26:43Z</time></trkpt>
<trkpt lat="46.51266" lon="6.63377"><ele>480.4</ele><time>2023-06-07T16:26:45Z</time></trkpt>
<trkpt lat="46.51269" lon="6.63395"><ele>480.4</ele><time>2023-06-07T16:26:49Z</time></trkpt>
<trkpt lat="46.5126" lon="6.63412"><ele>480.4</ele><time>2023-06-07T16:26:53Z</time></trkpt>
<trkpt lat="46.51252" lon="6.63423"><ele>480.2</ele><time>2023-06-07T16:26:55Z</time></trkpt>
<trkpt lat="46.51244" lon="6.63437"><ele>479.8</ele><time>2023-06-07T16:26:57Z</time></trkpt>
<trkpt lat="46.5124" lon="6.63445"><ele>479.4</ele><time>2023-06-07T16:26:58Z</time></trkpt>
<trkpt lat="46.51237" lon="6.63452"><ele>479</ele><time>2023-06-07T16:26:59Z</time></trkpt>
<trkpt lat="46.51229" lon="6.63467"><ele>478.6</ele><time>2023-06-07T16:27:01Z</time></trkpt>
<trkpt lat="46.51217" lon="6.63489"><ele>478.2</ele><time>2023-06-07T16:27:04Z</time></trkpt>
<trkpt lat="46.51212" lon="6.63497"><ele>478</ele><time>2023-06-07T16:27:05Z</time></trkpt>
<trkpt lat="46.5118" lon="6.63553"><ele>477</ele><time>2023-06-07T16:27:12Z</time></trkpt>
<trkpt lat="46.51175" lon="6.63562"><ele>476.8</ele><time>2023-06-07T16:27:13Z</time></trkpt>
<trkpt lat="46.51144" lon="6.63618"><ele>475.8</ele><time>2023-06-07T16:27:20Z</time></trkpt>
<trkpt lat="46.5114" lon="6.63626"><ele>475.8</ele><time>2023-06-07T16:27:21Z</time></trkpt>
<trkpt lat="46.51136" lon="6.63634"><ele>475.8</ele><time>2023-06-07T16:27:22Z</time></trkpt>
<trkpt lat="46.51132" lon="6.63641"><ele>475.6</ele><time>2023-06-07T16:27:23Z</time></trkpt>
<trkpt lat="46.51128" lon="6.63648"><ele>475.4</ele><time>2023-06-07T16:27:24Z</time></trkpt>
<trkpt lat="46.51125" lon="6.63653"><ele>475.4</ele><time>2023-06-07T16:27:25Z</time></trkpt>
<trkpt lat="46.51122" lon="6.63658"><ele>475.4</ele><time>2023-06-07T16:27:26Z</time></trkpt>
<trkpt lat="46.51102" lon="6.63683"><ele>475.4</ele><time>2023-06-07T16:27:32Z</time></trkpt>
<trkpt lat="46.51098" lon="6.63697"><ele>475.2</ele><time>2023-06-07T16:27:34Z</time></trkpt>
<trkpt lat="46.51097" lon="6.63704"><ele>475.2</ele><time>2023-06-07T16:27:35Z</time></trkpt>
<trkpt lat="46.51097" lon="6.63712"><ele>475.4</ele><time>2023-06-07T16:27:36Z</time></trkpt>
<trkpt lat="46.511" lon="6.63726"><ele>475.4</ele><time>2023-06-07T16:27:38Z</time></trkpt>
<trkpt lat="46.51115" lon="6.63745"><ele>475.4</ele><time>2023-06-07T16:27:42Z</time></trkpt>
<trkpt lat="46.51137" lon="6.63784"><ele>476</ele><time>2023-06-07T16:27:49Z</time></trkpt>
<trkpt lat="46.51155" lon="6.63807"><ele>477</ele><time>2023-06-07T16:27:54Z</time></trkpt>
<trkpt lat="46.51166" lon="6.6382"><ele>477.2</ele><time>2023-06-07T16:27:57Z</time></trkpt>
<trkpt lat="46.5119" lon="6.63847"><ele>477.6</ele><time>2023-06-07T16:28:04Z</time></trkpt>
<trkpt lat="46.51204" lon="6.63867"><ele>478</ele><time>2023-06-07T16:28:10Z</time></trkpt>
<trkpt lat="46.51216" lon="6.63886"><ele>479.2</ele><time>2023-06-07T16:28:16Z</time></trkpt>
<trkpt lat="46.51218" lon="6.6389"><ele>479.8</ele><time>2023-06-07T16:28:18Z</time></trkpt>
<trkpt lat="46.5122" lon="6.63893"><ele>480.2</ele><time>2023-06-07T16:28:20Z</time></trkpt>
<trkpt lat="46.51226" lon="6.63902"><ele>481</ele><time>2023-06-07T16:28:24Z</time></trkpt>
<trkpt lat="46.51229" lon="6.63907"><ele>481.4</ele><time>2023-06-07T16:28:26Z</time></trkpt>
<trkpt lat="46.51234" lon="6.63917"><ele>482.4</ele><time>2023-06-07T16:28:30Z</time></trkpt>
<trkpt lat="46.51236" lon="6.63923"><ele>483</ele><time>2023-06-07T16:28:32Z</time></trkpt>
<trkpt lat="46.51237" lon="6.63935"><ele>483.6</ele><time>2023-06-07T16:28:35Z</time></trkpt>
<trkpt lat="46.51237" lon="6.63949"><ele>483.6</ele><time>2023-06-07T16:28:38Z</time></trkpt>
<trkpt lat="46.51237" lon="6.63962"><ele>483.6</ele><time>2023-06-07T16:28:40Z</time></trkpt>
<trkpt lat="46.51236" lon="6.63968"><ele>483.6</ele><time>2023-06-07T16:28:41Z</time></trkpt>
<trkpt lat="46.51235" lon="6.63975"><ele>483.4</ele><time>2023-06-07T16:28:42Z</time></trkpt>
<trkpt lat="46.51235" lon="6.63983"><ele>483.4</ele><time>2023-06-07T16:28:43Z</time></trkpt>
<trkpt lat="46.51234" lon="6.6399"><ele>483.4</ele><time>2023-06-07T16:28:44Z</time></trkpt>
<trkpt lat="46.51233" lon="6.63997"><ele>483.2</ele><time>2023-06-07T16:28:45Z</time></trkpt>
<trkpt lat="46.51232" lon="6.64004"><ele>483</ele><time>2023-06-07T16:28:46Z</time></trkpt>
<trkpt lat="46.51229" lon="6.64033"><ele>482.6</ele><time>2023-06-07T16:28:50Z</time></trkpt>
<trkpt lat="46.51228" lon="6.64049"><ele>482.2</ele><time>2023-06-07T16:28:52Z</time></trkpt>
<trkpt lat="46.51227" lon="6.64095"><ele>481.4</ele><time>2023-06-07T16:28:58Z</time></trkpt>
<trkpt lat="46.51227" lon="6.6411"><ele>481.4</ele><time>2023-06-07T16:29:00Z</time></trkpt>
<trkpt lat="46.51227" lon="6.64177"><ele>481.4</ele><time>2023-06-07T16:29:08Z</time></trkpt>
<trkpt lat="46.51227" lon="6.64251"><ele>481</ele><time>2023-06-07T16:29:17Z</time></trkpt>
<trkpt lat="46.51227" lon="6.64259"><ele>480.8</ele><time>2023-06-07T16:29:18Z</time></trkpt>
<trkpt lat="46.51227" lon="6.64267"><ele>480.8</ele><time>2023-06-07T16:29:19Z</time></trkpt>
<trkpt lat="46.51228" lon="6.64318"><ele>480.4</ele><time>2023-06-07T16:29:25Z</time></trkpt>
<trkpt lat="46.51228" lon="6.64342"><ele>480.4</ele><time>2023-06-07T16:29:28Z</time></trkpt>
<trkpt lat="46.5123" lon="6.64362"><ele>480.4</ele><time>2023-06-07T16:29:31Z</time></trkpt>
<trkpt lat="46.51233" lon="6.64366"><ele>480.4</ele><time>2023-06-07T16:29:32Z</time></trkpt>
<trkpt lat="46.51244" lon="6.64379"><ele>481.2</ele><time>2023-06-07T16:29:36Z</time></trkpt>
<trkpt lat="46.51246" lon="6.64386"><ele>481.6</ele><time>2023-06-07T16:29:38Z</time></trkpt>
<trkpt lat="46.51247" lon="6.64393"><ele>482.6</ele><time>2023-06-07T16:29:41Z</time></trkpt>
<trkpt lat="46.51247" lon="6.644"><ele>482.8</ele><time>2023-06-07T16:29:43Z</time></trkpt>
<trkpt lat="46.51244" lon="6.64416"><ele>483</ele><time>2023-06-07T16:29:47Z</time></trkpt>
<trkpt lat="46.51242" lon="6.64424"><ele>483.2</ele><time>2023-06-07T16:29:50Z</time></trkpt>
<trkpt lat="46.51241" lon="6.64432"><ele>483.4</ele><time>2023-06-07T16:29:53Z</time></trkpt>
<trkpt lat="46.5124" lon="6.64446"><ele>483.8</ele><time>2023-06-07T16:29:57Z</time></trkpt>
<trkpt lat="46.51237" lon="6.64459"><ele>484.2</ele><time>2023-06-07T16:30:01Z</time></trkpt>
<trkpt lat="46.51236" lon="6.64471"><ele>485</ele><time>2023-06-07T16:30:05Z</time></trkpt>
<trkpt lat="46.51237" lon="6.64482"><ele>485.8</ele><time>2023-06-07T16:30:09Z</time></trkpt>
<trkpt lat="46.51239" lon="6.64484"><ele>485.8</ele><time>2023-06-07T16:30:10Z</time></trkpt>
<trkpt lat="46.51249" lon="6.64495"><ele>485.6</ele><time>2023-06-07T16:30:14Z</time></trkpt>
<trkpt lat="46.51261" lon="6.64507"><ele>485.4</ele><time>2023-06-07T16:30:17Z</time></trkpt>
<trkpt lat="46.51265" lon="6.64515"><ele>485.2</ele><time>2023-06-07T16:30:19Z</time></trkpt>
<trkpt lat="46.51265" lon="6.64526"><ele>485.2</ele><time>2023-06-07T16:30:22Z</time></trkpt>
<trkpt lat="46.51263" lon="6.64529"><ele>485</ele><time>2023-06-07T16:30:23Z</time></trkpt>
<trkpt lat="46.5126" lon="6.6453"><ele>485</ele><time>2023-06-07T16:30:24Z</time></trkpt>
<trkpt lat="46.51252" lon="6.64535"><ele>485</ele><time>2023-06-07T16:30:27Z</time></trkpt>
<trkpt lat="46.51248" lon="6.64542"><ele>485.6</ele><time>2023-06-07T16:30:30Z</time></trkpt>
<trkpt lat="46.51244" lon="6.6455"><ele>486</ele><time>2023-06-07T16:30:33Z</time></trkpt>
<trkpt lat="46.51237" lon="6.64572"><ele>486.8</ele><time>2023-06-07T16:30:40Z</time></trkpt>
<trkpt lat="46.51237" lon="6.64575"><ele>487.2</ele><time>2023-06-07T16:30:41Z</time></trkpt>
<trkpt lat="46.51233" lon="6.64598"><ele>488.2</ele><time>2023-06-07T16:30:48Z</time></trkpt>
<trkpt lat="46.51229" lon="6.64616"><ele>489.4</ele><time>2023-06-07T16:30:54Z</time></trkpt>
<trkpt lat="46.51229" lon="6.64619"><ele>489.4</ele><time>2023-06-07T16:30:55Z</time></trkpt>
<trkpt lat="46.51226" lon="6.64641"><ele>490.4</ele><time>2023-06-07T16:31:02Z</time></trkpt>
<trkpt lat="46.51225" lon="6.64647"><ele>490.6</ele><time>2023-06-07T16:31:04Z</time></trkpt>
<trkpt lat="46.51222" lon="6.64665"><ele>491.4</ele><time>2023-06-07T16:31:10Z</time></trkpt>
<trkpt lat="46.51222" lon="6.64668"><ele>491.8</ele><time>2023-06-07T16:31:11Z</time></trkpt>
<trkpt lat="46.5122" lon="6.64681"><ele>492.6</ele><time>2023-06-07T16:31:15Z</time></trkpt>
<trkpt lat="46.51218" lon="6.64692"><ele>493.4</ele><time>2023-06-07T16:31:19Z</time></trkpt>
<trkpt lat="46.51218" lon="6.64695"><ele>493.6</ele><time>2023-06-07T16:31:20Z</time></trkpt>
<trkpt lat="46.51217" lon="6.64704"><ele>494.2</ele><time>2023-06-07T16:31:23Z</time></trkpt>
<trkpt lat="46.51216" lon="6.64712"><ele>494.8</ele><time>2023-06-07T16:31:26Z</time></trkpt>
<trkpt lat="46.51215" lon="6.64716"><ele>495.4</ele><time>2023-06-07T16:31:28Z</time></trkpt>
<trkpt lat="46.51215" lon="6.64718"><ele>495.8</ele><time>2023-06-07T16:31:29Z</time></trkpt>
<trkpt lat="46.51214" lon="6.64727"><ele>496.6</ele><time>2023-06-07T16:31:33Z</time></trkpt>
<trkpt lat="46.51213" lon="6.6473"><ele>496.8</ele><time>2023-06-07T16:31:34Z</time></trkpt>
<trkpt lat="46.51212" lon="6.64736"><ele>497.4</ele><time>2023-06-07T16:31:37Z</time></trkpt>
<trkpt lat="46.51212" lon="6.6474"><ele>498</ele><time>2023-06-07T16:31:39Z</time></trkpt>
<trkpt lat="46.51213" lon="6.64751"><ele>499</ele><time>2023-06-07T16:31:44Z</time></trkpt>
<trkpt lat="46.51213" lon="6.64756"><ele>499.4</ele><time>2023-06-07T16:31:46Z</time></trkpt>
<trkpt lat="46.51215" lon="6.64764"><ele>500.2</ele><time>2023-06-07T16:31:50Z</time></trkpt>
<trkpt lat="46.51219" lon="6.64776"><ele>501.4</ele><time>2023-06-07T16:31:55Z</time></trkpt>
<trkpt lat="46.5122" lon="6.64778"><ele>501.6</ele><time>2023-06-07T16:31:56Z</time></trkpt>
<trkpt lat="46.51224" lon="6.64792"><ele>502.6</ele><time>2023-06-07T16:32:02Z</time></trkpt>
<trkpt lat="46.51226" lon="6.64798"><ele>503.2</ele><time>2023-06-07T16:32:05Z</time></trkpt>
<trkpt lat="46.5123" lon="6.64805"><ele>503.6</ele><time>2023-06-07T16:32:08Z</time></trkpt>
<trkpt lat="46.51235" lon="6.64816"><ele>504.2</ele><time>2023-06-07T16:32:12Z</time></trkpt>
<trkpt lat="46.5124" lon="6.64848"><ele>504.6</ele><time>2023-06-07T16:32:20Z</time></trkpt>
<trkpt lat="46.5124" lon="6.64853"><ele>504.8</ele><time>2023-06-07T16:32:21Z</time></trkpt>
<trkpt lat="46.5124" lon="6.64876"><ele>505</ele><time>2023-06-07T16:32:26Z</time></trkpt>
<trkpt lat="46.51243" lon="6.64911"><ele>505.2</ele><time>2023-06-07T16:32:32Z</time></trkpt>
<trkpt lat="46.51253" lon="6.64955"><ele>505.6</ele><time>2023-06-07T16:32:39Z</time></trkpt>
<trkpt lat="46.51254" lon="6.64974"><ele>505.8</ele><time>2023-06-07T16:32:42Z</time></trkpt>
<trkpt lat="46.51257" lon="6.64996"><ele>506.6</ele><time>2023-06-07T16:32:46Z</time></trkpt>
<trkpt lat="46.51258" lon="6.65002"><ele>506.8</ele><time>2023-06-07T16:32:47Z</time></trkpt>
<trkpt lat="46.51265" lon="6.65029"><ele>507.8</ele><time>2023-06-07T16:32:53Z</time></trkpt>
<trkpt lat="46.51267" lon="6.65033"><ele>508.2</ele><time>2023-06-07T16:32:54Z</time></trkpt>
<trkpt lat="46.51271" lon="6.65048"><ele>509.2</ele><time>2023-06-07T16:32:58Z</time></trkpt>
<trkpt lat="46.51275" lon="6.65064"><ele>510.2</ele><time>2023-06-07T16:33:02Z</time></trkpt>
<trkpt lat="46.51276" lon="6.65068"><ele>510.4</ele><time>2023-06-07T16:33:03Z</time></trkpt>
<trkpt lat="46.51278" lon="6.65081"><ele>511.2</ele><time>2023-06-07T16:33:06Z</time></trkpt>
<trkpt lat="46.5128" lon="6.65104"><ele>511.8</ele><time>2023-06-07T16:33:11Z</time></trkpt>
<trkpt lat="46.51287" lon="6.6514"><ele>512</ele><time>2023-06-07T16:33:17Z</time></trkpt>
<trkpt lat="46.51289" lon="6.65154"><ele>511.8</ele><time>2023-06-07T16:33:19Z</time></trkpt>
<trkpt lat="46.51289" lon="6.6517"><ele>511.4</ele><time>2023-06-07T16:33:21Z</time></trkpt>
<trkpt lat="46.51291" lon="6.65186"><ele>511.4</ele><time>2023-06-07T16:33:23Z</time></trkpt>
<trkpt lat="46.51294" lon="6.65245"><ele>511.4</ele><time>2023-06-07T16:33:31Z</time></trkpt>
<trkpt lat="46.51298" lon="6.65278"><ele>512</ele><time>2023-06-07T16:33:36Z</time></trkpt>
<trkpt lat="46.51298" lon="6.65285"><ele>512</ele><time>2023-06-07T16:33:37Z</time></trkpt>
<trkpt lat="46.51297" lon="6.65305"><ele>512.4</ele><time>2023-06-07T16:33:40Z</time></trkpt>
<trkpt lat="46.51296" lon="6.65332"><ele>512.6</ele><time>2023-06-07T16:33:44Z</time></trkpt>
<trkpt lat="46.51297" lon="6.65339"><ele>512.6</ele><time>2023-06-07T16:33:45Z</time></trkpt>
<trkpt lat="46.51301" lon="6.65368"><ele>512.8</ele><time>2023-06-07T16:33:49Z</time></trkpt>
<trkpt lat="46.51307" lon="6.6538"><ele>512.8</ele><time>2023-06-07T16:33:51Z</time></trkpt>
<trkpt lat="46.51314" lon="6.6539"><ele>512.8</ele><time>2023-06-07T16:33:53Z</time></trkpt>
<trkpt lat="46.51324" lon="6.65398"><ele>512.8</ele><time>2023-06-07T16:33:55Z</time></trkpt>
<trkpt lat="46.51352" lon="6.65421"><ele>512.8</ele><time>2023-06-07T16:34:02Z</time></trkpt>
<trkpt lat="46.51361" lon="6.65433"><ele>513</ele><time>2023-06-07T16:34:05Z</time></trkpt>
<trkpt lat="46.51364" lon="6.6544"><ele>513</ele><time>2023-06-07T16:34:07Z</time></trkpt>
<trkpt lat="46.51365" lon="6.65446"><ele>512.8</ele><time>2023-06-07T16:34:11Z</time></trkpt>
<trkpt lat="46.51364" lon="6.65453"><ele>512.6</ele><time>2023-06-07T16:34:16Z</time></trkpt>
<trkpt lat="46.51366" lon="6.65462"><ele>512.4</ele><time>2023-06-07T16:34:18Z</time></trkpt>
<trkpt lat="46.51369" lon="6.65475"><ele>512.4</ele><time>2023-06-07T16:34:20Z</time></trkpt>
<trkpt lat="46.51368" lon="6.65501"><ele>512.8</ele><time>2023-06-07T16:34:24Z</time></trkpt>
<trkpt lat="46.51369" lon="6.65515"><ele>513.6</ele><time>2023-06-07T16:34:27Z</time></trkpt>
<trkpt lat="46.51369" lon="6.65526"><ele>514.2</ele><time>2023-06-07T16:34:30Z</time></trkpt>
<trkpt lat="46.5137" lon="6.65535"><ele>514.6</ele><time>2023-06-07T16:34:32Z</time></trkpt>
<trkpt lat="46.5137" lon="6.65557"><ele>515.4</ele><time>2023-06-07T16:34:37Z</time></trkpt>
<trkpt lat="46.5137" lon="6.65566"><ele>515.6</ele><time>2023-06-07T16:34:39Z</time></trkpt>
<trkpt lat="46.5137" lon="6.65571"><ele>515.6</ele><time>2023-06-07T16:34:40Z</time></trkpt>
<trkpt lat="46.51367" lon="6.65616"><ele>516.4</ele><time>2023-06-07T16:34:49Z</time></trkpt>
<trkpt lat="46.51367" lon="6.65643"><ele>516.8</ele><time>2023-06-07T16:34:54Z</time></trkpt>
<trkpt lat="46.51369" lon="6.65663"><ele>516.4</ele><time>2023-06-07T16:34:57Z</time></trkpt>
<trkpt lat="46.51371" lon="6.65674"><ele>515.6</ele><time>2023-06-07T16:34:59Z</time></trkpt>
<trkpt lat="46.51369" lon="6.65687"><ele>514.6</ele><time>2023-06-07T16:35:01Z</time></trkpt>
<trkpt lat="46.51367" lon="6.65693"><ele>514</ele><time>2023-06-07T16:35:02Z</time></trkpt>
<trkpt lat="46.51363" lon="6.65699"><ele>513.6</ele><time>2023-06-07T16:35:03Z</time></trkpt>
<trkpt lat="46.51353" lon="6.65712"><ele>512.6</ele><time>2023-06-07T16:35:05Z</time></trkpt>
<trkpt lat="46.51346" lon="6.65719"><ele>512</ele><time>2023-06-07T16:35:06Z</time></trkpt>
<trkpt lat="46.5134" lon="6.65725"><ele>511.2</ele><time>2023-06-07T16:35:07Z</time></trkpt>
<trkpt lat="46.51329" lon="6.65739"><ele>509.2</ele><time>2023-06-07T16:35:09Z</time></trkpt>
<trkpt lat="46.51327" lon="6.65759"><ele>507.8</ele><time>2023-06-07T16:35:11Z</time></trkpt>
<trkpt lat="46.51328" lon="6.65779"><ele>506.4</ele><time>2023-06-07T16:35:13Z</time></trkpt>
<trkpt lat="46.51329" lon="6.65811"><ele>505.2</ele><time>2023-06-07T16:35:16Z</time></trkpt>
<trkpt lat="46.51328" lon="6.65838"><ele>504.2</ele><time>2023-06-07T16:35:19Z</time></trkpt>
<trkpt lat="46.51328" lon="6.65852"><ele>503.8</ele><time>2023-06-07T16:35:21Z</time></trkpt>
<trkpt lat="46.51331" lon="6.65902"><ele>503.8</ele><time>2023-06-07T16:35:29Z</time></trkpt>
<trkpt lat="46.51333" lon="6.65949"><ele>505.2</ele><time>2023-06-07T16:35:37Z</time></trkpt>
<trkpt lat="46.51334" lon="6.65961"><ele>505.2</ele><time>2023-06-07T16:35:39Z</time></trkpt>
<trkpt lat="46.51335" lon="6.66016"><ele>505</ele><time>2023-06-07T16:35:46Z</time></trkpt>
<trkpt lat="46.51334" lon="6.66049"><ele>504.4</ele><time>2023-06-07T16:35:50Z</time></trkpt>
<trkpt lat="46.51331" lon="6.66065"><ele>504</ele><time>2023-06-07T16:35:52Z</time></trkpt>
<trkpt lat="46.51317" lon="6.66119"><ele>503.2</ele><time>2023-06-07T16:35:59Z</time></trkpt>
<trkpt lat="46.51316" lon="6.66127"><ele>503.2</ele><time>2023-06-07T16:36:00Z</time></trkpt>
<trkpt lat="46.51315" lon="6.66135"><ele>503.2</ele><time>2023-06-07T16:36:01Z</time></trkpt>
<trkpt lat="46.51313" lon="6.6618"><ele>504</ele><time>2023-06-07T16:36:07Z</time></trkpt>
<trkpt lat="46.51313" lon="6.66187"><ele>504.2</ele><time>2023-06-07T16:36:08Z</time></trkpt>
<trkpt lat="46.51314" lon="6.66229"><ele>505.4</ele><time>2023-06-07T16:36:14Z</time></trkpt>
<trkpt lat="46.51314" lon="6.66252"><ele>505.6</ele><time>2023-06-07T16:36:17Z</time></trkpt>
<trkpt lat="46.51314" lon="6.6629"><ele>505.8</ele><time>2023-06-07T16:36:22Z</time></trkpt>
<trkpt lat="46.51314" lon="6.66331"><ele>505.8</ele><time>2023-06-07T16:36:27Z</time></trkpt>
<trkpt lat="46.51314" lon="6.66338"><ele>506</ele><time>2023-06-07T16:36:28Z</time></trkpt>
<trkpt lat="46.5131" lon="6.66374"><ele>505.2</ele><time>2023-06-07T16:36:34Z</time></trkpt>
<trkpt lat="46.51307" lon="6.66379"><ele>504.8</ele><time>2023-06-07T16:36:35Z</time></trkpt>
<trkpt lat="46.51301" lon="6.6639"><ele>504</ele><time>2023-06-07T16:36:37Z</time></trkpt>
<trkpt lat="46.51298" lon="6.66398"><ele>503.6</ele><time>2023-06-07T16:36:38Z</time></trkpt>
<trkpt lat="46.51294" lon="6.66415"><ele>502.8</ele><time>2023-06-07T16:36:40Z</time></trkpt>
<trkpt lat="46.51292" lon="6.66422"><ele>502.6</ele><time>2023-06-07T16:36:41Z</time></trkpt>
<trkpt lat="46.51277" lon="6.66469"><ele>503.4</ele><time>2023-06-07T16:36:48Z</time></trkpt>
<trkpt lat="46.51258" lon="6.66509"><ele>502.6</ele><time>2023-06-07T16:36:53Z</time></trkpt>
<trkpt lat="46.51244" lon="6.66535"><ele>501.4</ele><time>2023-06-07T16:36:56Z</time></trkpt>
<trkpt lat="46.51217" lon="6.66585"><ele>500.8</ele><time>2023-06-07T16:37:02Z</time></trkpt>
<trkpt lat="46.512" lon="6.66619"><ele>500.4</ele><time>2023-06-07T16:37:06Z</time></trkpt>
<trkpt lat="46.51187" lon="6.66655"><ele>500.2</ele><time>2023-06-07T16:37:10Z</time></trkpt>
<trkpt lat="46.51183" lon="6.66682"><ele>500.2</ele><time>2023-06-07T16:37:13Z</time></trkpt>
<trkpt lat="46.51182" lon="6.66698"><ele>500.2</ele><time>2023-06-07T16:37:15Z</time></trkpt>
<trkpt lat="46.5118" lon="6.66732"><ele>501.4</ele><time>2023-06-07T16:37:20Z</time></trkpt>
<trkpt lat="46.5118" lon="6.66746"><ele>501.8</ele><time>2023-06-07T16:37:22Z</time></trkpt>
<trkpt lat="46.51179" lon="6.66775"><ele>502.6</ele><time>2023-06-07T16:37:27Z</time></trkpt>
<trkpt lat="46.51177" lon="6.66803"><ele>503.8</ele><time>2023-06-07T16:37:32Z</time></trkpt>
<trkpt lat="46.51175" lon="6.66845"><ele>504</ele><time>2023-06-07T16:37:38Z</time></trkpt>
<trkpt lat="46.51174" lon="6.66854"><ele>504</ele><time>2023-06-07T16:37:39Z</time></trkpt>
<trkpt lat="46.51172" lon="6.66918"><ele>503</ele><time>2023-06-07T16:37:46Z</time></trkpt>
<trkpt lat="46.51172" lon="6.66927"><ele>502.6</ele><time>2023-06-07T16:37:47Z</time></trkpt>
<trkpt lat="46.51176" lon="6.66996"><ele>501.6</ele><time>2023-06-07T16:37:54Z</time></trkpt>
<trkpt lat="46.51185" lon="6.67043"><ele>500.8</ele><time>2023-06-07T16:37:59Z</time></trkpt>
<trkpt lat="46.51188" lon="6.67052"><ele>500.6</ele><time>2023-06-07T16:38:00Z</time></trkpt>
<trkpt lat="46.51199" lon="6.67074"><ele>500.6</ele><time>2023-06-07T16:38:03Z</time></trkpt>
<trkpt lat="46.51223" lon="6.67103"><ele>500.8</ele><time>2023-06-07T16:38:08Z</time></trkpt>
<trkpt lat="46.51257" lon="6.67121"><ele>500.8</ele><time>2023-06-07T16:38:14Z</time></trkpt>
<trkpt lat="46.51269" lon="6.67129"><ele>500.6</ele><time>2023-06-07T16:38:16Z</time></trkpt>
<trkpt lat="46.5128" lon="6.67141"><ele>500.6</ele><time>2023-06-07T16:38:18Z</time></trkpt>
<trkpt lat="46.51289" lon="6.67156"><ele>500.6</ele><time>2023-06-07T16:38:20Z</time></trkpt>
<trkpt lat="46.51296" lon="6.67173"><ele>500.6</ele><time>2023-06-07T16:38:22Z</time></trkpt>
<trkpt lat="46.51315" lon="6.67234"><ele>499.4</ele><time>2023-06-07T16:38:28Z</time></trkpt>
<trkpt lat="46.51322" lon="6.67269"><ele>498.2</ele><time>2023-06-07T16:38:31Z</time></trkpt>
<trkpt lat="46.51327" lon="6.67292"><ele>497.2</ele><time>2023-06-07T16:38:33Z</time></trkpt>
<trkpt lat="46.51335" lon="6.67314"><ele>496.2</ele><time>2023-06-07T16:38:35Z</time></trkpt>
<trkpt lat="46.5134" lon="6.67324"><ele>495.8</ele><time>2023-06-07T16:38:36Z</time></trkpt>
<trkpt lat="46.51346" lon="6.67333"><ele>495.4</ele><time>2023-06-07T16:38:37Z</time></trkpt>
<trkpt lat="46.51361" lon="6.67349"><ele>494.6</ele><time>2023-06-07T16:38:39Z</time></trkpt>
<trkpt lat="46.51384" lon="6.67368"><ele>493.8</ele><time>2023-06-07T16:38:42Z</time></trkpt>
<trkpt lat="46.5139" lon="6.67375"><ele>493.6</ele><time>2023-06-07T16:38:43Z</time></trkpt>
<trkpt lat="46.51393" lon="6.67383"><ele>493.4</ele><time>2023-06-07T16:38:44Z</time></trkpt>
<trkpt lat="46.51395" lon="6.67392"><ele>493.6</ele><time>2023-06-07T16:38:45Z</time></trkpt>
<trkpt lat="46.51393" lon="6.67399"><ele>494</ele><time>2023-06-07T16:38:46Z</time></trkpt>
<trkpt lat="46.51392" lon="6.67405"><ele>494.2</ele><time>2023-06-07T16:38:47Z</time></trkpt>
<trkpt lat="46.51387" lon="6.67411"><ele>494.4</ele><time>2023-06-07T16:38:49Z</time></trkpt>
<trkpt lat="46.51384" lon="6.67412"><ele>494.6</ele><time>2023-06-07T16:38:50Z</time></trkpt>
<trkpt lat="46.51375" lon="6.67419"><ele>495.4</ele><time>2023-06-07T16:38:54Z</time></trkpt>
<trkpt lat="46.51373" lon="6.67421"><ele>495.6</ele><time>2023-06-07T16:38:55Z</time></trkpt>
<trkpt lat="46.51359" lon="6.67433"><ele>496.4</ele><time>2023-06-07T16:39:01Z</time></trkpt>
<trkpt lat="46.51342" lon="6.67442"><ele>496.6</ele><time>2023-06-07T16:39:07Z</time></trkpt>
<trkpt lat="46.51338" lon="6.67442"><ele>496.6</ele><time>2023-06-07T16:39:08Z</time></trkpt>
<trkpt lat="46.51328" lon="6.67434"><ele>496.4</ele><time>2023-06-07T16:39:11Z</time></trkpt>
<trkpt lat="46.51317" lon="6.67418"><ele>496</ele><time>2023-06-07T16:39:14Z</time></trkpt>
<trkpt lat="46.51306" lon="6.67412"><ele>495.4</ele><time>2023-06-07T16:39:16Z</time></trkpt>
<trkpt lat="46.51284" lon="6.67401"><ele>494.8</ele><time>2023-06-07T16:39:21Z</time></trkpt>
<trkpt lat="46.51271" lon="6.67396"><ele>495.6</ele><time>2023-06-07T16:39:26Z</time></trkpt>
<trkpt lat="46.51268" lon="6.67393"><ele>496.2</ele><time>2023-06-07T16:39:29Z</time></trkpt>
<trkpt lat="46.51265" lon="6.67392"><ele>496.8</ele><time>2023-06-07T16:39:32Z</time></trkpt>
<trkpt lat="46.51263" lon="6.67391"><ele>497</ele><time>2023-06-07T16:39:33Z</time></trkpt>
<trkpt lat="46.51257" lon="6.67391"><ele>497.8</ele><time>2023-06-07T16:39:38Z</time></trkpt>
<trkpt lat="46.51254" lon="6.67393"><ele>498.4</ele><time>2023-06-07T16:39:41Z</time></trkpt>
<trkpt lat="46.51249" lon="6.67394"><ele>499</ele><time>2023-06-07T16:39:46Z</time></trkpt>
<trkpt lat="46.51245" lon="6.67394"><ele>499.4</ele><time>2023-06-07T16:39:49Z</time></trkpt>
<trkpt lat="46.5124" lon="6.67396"><ele>500</ele><time>2023-06-07T16:39:54Z</time></trkpt>
<trkpt lat="46.5124" lon="6.67396"><ele>500.2</ele><time>2023-06-07T16:39:55Z</time></trkpt>
<trkpt lat="46.51237" lon="6.67397"><ele>500.6</ele><time>2023-06-07T16:39:57Z</time></trkpt>
<trkpt lat="46.51234" lon="6.67399"><ele>501</ele><time>2023-06-07T16:40:00Z</time></trkpt>
<trkpt lat="46.51233" lon="6.67399"><ele>501.2</ele><time>2023-06-07T16:40:01Z</time></trkpt>
<trkpt lat="46.5123" lon="6.67398"><ele>501.6</ele><time>2023-06-07T16:40:03Z</time></trkpt>
<trkpt lat="46.51224" lon="6.67401"><ele>502.2</ele><time>2023-06-07T16:40:07Z</time></trkpt>
<trkpt lat="46.51223" lon="6.67401"><ele>502.4</ele><time>2023-06-07T16:40:08Z</time></trkpt>
<trkpt lat="46.5122" lon="6.674"><ele>502.8</ele><time>2023-06-07T16:40:10Z</time></trkpt>
<trkpt lat="46.51214" lon="6.674"><ele>503.6</ele><time>2023-06-07T16:40:14Z</time></trkpt>
<trkpt lat="46.51209" lon="6.674"><ele>504.2</ele><time>2023-06-07T16:40:18Z</time></trkpt>
<trkpt lat="46.51208" lon="6.674"><ele>504.4</ele><time>2023-06-07T16:40:19Z</time></trkpt>
<trkpt lat="46.51207" lon="6.674"><ele>504.6</ele><time>2023-06-07T16:40:20Z</time></trkpt>
<trkpt lat="46.51203" lon="6.674"><ele>505.4</ele><time>2023-06-07T16:40:23Z</time></trkpt>
<trkpt lat="46.512" lon="6.674"><ele>505.8</ele><time>2023-06-07T16:40:26Z</time></trkpt>
<trkpt lat="46.51193" lon="6.674"><ele>506.8</ele><time>2023-06-07T16:40:31Z</time></trkpt>
<trkpt lat="46.51192" lon="6.674"><ele>507</ele><time>2023-06-07T16:40:32Z</time></trkpt>
<trkpt lat="46.51187" lon="6.67403"><ele>508</ele><time>2023-06-07T16:40:39Z</time></trkpt>
<trkpt lat="46.51186" lon="6.67403"><ele>508.2</ele><time>2023-06-07T16:40:40Z</time></trkpt>
<trkpt lat="46.51181" lon="6.67406"><ele>509</ele><time>2023-06-07T16:40:45Z</time></trkpt>
<trkpt lat="46.51178" lon="6.67407"><ele>509.6</ele><time>2023-06-07T16:40:48Z</time></trkpt>
<trkpt lat="46.51176" lon="6.67407"><ele>510</ele><time>2023-06-07T16:40:51Z</time></trkpt>
<trkpt lat="46.51173" lon="6.67408"><ele>511</ele><time>2023-06-07T16:40:56Z</time></trkpt>
<trkpt lat="46.51172" lon="6.67408"><ele>511.2</ele><time>2023-06-07T16:40:57Z</time></trkpt>
<trkpt lat="46.51169" lon="6.67408"><ele>512</ele><time>2023-06-07T16:41:02Z</time></trkpt>
<trkpt lat="46.51169" lon="6.67408"><ele>512.4</ele><time>2023-06-07T16:41:03Z</time></trkpt>
<trkpt lat="46.51168" lon="6.67408"><ele>512.8</ele><time>2023-06-07T16:41:05Z</time></trkpt>
<trkpt lat="46.51163" lon="6.67407"><ele>513.4</ele><time>2023-06-07T16:41:09Z</time></trkpt>
<trkpt lat="46.5116" lon="6.67405"><ele>513.6</ele><time>2023-06-07T16:41:11Z</time></trkpt>
<trkpt lat="46.51154" lon="6.67405"><ele>514.6</ele><time>2023-06-07T16:41:16Z</time></trkpt>
<trkpt lat="46.51151" lon="6.67404"><ele>514.8</ele><time>2023-06-07T16:41:18Z</time></trkpt>
<trkpt lat="46.51149" lon="6.67401"><ele>514.8</ele><time>2023-06-07T16:41:19Z</time></trkpt>
<trkpt lat="46.51149" lon="6.6739"><ele>514.8</ele><time>2023-06-07T16:41:21Z</time></trkpt>
<trkpt lat="46.51149" lon="6.67364"><ele>514</ele><time>2023-06-07T16:41:24Z</time></trkpt>
<trkpt lat="46.51146" lon="6.67354"><ele>513.4</ele><time>2023-06-07T16:41:25Z</time></trkpt>
<trkpt lat="46.51141" lon="6.67344"><ele>512.8</ele><time>2023-06-07T16:41:26Z</time></trkpt>
<trkpt lat="46.51133" lon="6.67335"><ele>512.2</ele><time>2023-06-07T16:41:27Z</time></trkpt>
<trkpt lat="46.51125" lon="6.67329"><ele>511.2</ele><time>2023-06-07T16:41:28Z</time></trkpt>
<trkpt lat="46.51116" lon="6.67323"><ele>510</ele><time>2023-06-07T16:41:29Z</time></trkpt>
<trkpt lat="46.51098" lon="6.67313"><ele>507.6</ele><time>2023-06-07T16:41:31Z</time></trkpt>
<trkpt lat="46.51089" lon="6.67306"><ele>506.2</ele><time>2023-06-07T16:41:32Z</time></trkpt>
<trkpt lat="46.51072" lon="6.67297"><ele>503.4</ele><time>2023-06-07T16:41:34Z</time></trkpt>
<trkpt lat="46.51064" lon="6.67295"><ele>502.2</ele><time>2023-06-07T16:41:35Z</time></trkpt>
<trkpt lat="46.51058" lon="6.67297"><ele>501.2</ele><time>2023-06-07T16:41:36Z</time></trkpt>
<trkpt lat="46.51053" lon="6.67302"><ele>500.6</ele><time>2023-06-07T16:41:37Z</time></trkpt>
<trkpt lat="46.51048" lon="6.67315"><ele>500.2</ele><time>2023-06-07T16:41:39Z</time></trkpt>
<trkpt lat="46.51035" lon="6.67344"><ele>500.4</ele><time>2023-06-07T16:41:44Z</time></trkpt>
<trkpt lat="46.5103" lon="6.67355"><ele>500.4</ele><time>2023-06-07T16:41:46Z</time></trkpt>
<trkpt lat="46.51025" lon="6.67367"><ele>500.6</ele><time>2023-06-07T16:41:48Z</time></trkpt>
<trkpt lat="46.51014" lon="6.6739"><ele>501</ele><time>2023-06-07T16:41:52Z</time></trkpt>
<trkpt lat="46.50991" lon="6.6743"><ele>501.6</ele><time>2023-06-07T16:42:00Z</time></trkpt>
<trkpt lat="46.50986" lon="6.67438"><ele>501.8</ele><time>2023-06-07T16:42:02Z</time></trkpt>
<trkpt lat="46.50976" lon="6.67455"><ele>502.4</ele><time>2023-06-07T16:42:06Z</time></trkpt>
<trkpt lat="46.50974" lon="6.6746"><ele>502.6</ele><time>2023-06-07T16:42:07Z</time></trkpt>
<trkpt lat="46.5097" lon="6.67469"><ele>502.8</ele><time>2023-06-07T16:42:09Z</time></trkpt>
<trkpt lat="46.50958" lon="6.6749"><ele>502.6</ele><time>2023-06-07T16:42:13Z</time></trkpt>
<trkpt lat="46.50953" lon="6.67493"><ele>502.6</ele><time>2023-06-07T16:42:14Z</time></trkpt>
<trkpt lat="46.50946" lon="6.67496"><ele>502.2</ele><time>2023-06-07T16:42:15Z</time></trkpt>
<trkpt lat="46.50939" lon="6.67499"><ele>501.6</ele><time>2023-06-07T16:42:16Z</time></trkpt>
<trkpt lat="46.50932" lon="6.67506"><ele>501.2</ele><time>2023-06-07T16:42:17Z</time></trkpt>
<trkpt lat="46.50929" lon="6.67515"><ele>501</ele><time>2023-06-07T16:42:18Z</time></trkpt>
<trkpt lat="46.50926" lon="6.67526"><ele>500.6</ele><time>2023-06-07T16:42:19Z</time></trkpt>
<trkpt lat="46.50926" lon="6.67537"><ele>500.4</ele><time>2023-06-07T16:42:20Z</time></trkpt>
<trkpt lat="46.50925" lon="6.67549"><ele>500</ele><time>2023-06-07T16:42:21Z</time></trkpt>
<trkpt lat="46.50924" lon="6.67574"><ele>499.2</ele><time>2023-06-07T16:42:23Z</time></trkpt>
<trkpt lat="46.50921" lon="6.67595"><ele>498.6</ele><time>2023-06-07T16:42:25Z</time></trkpt>
<trkpt lat="46.50917" lon="6.67602"><ele>498.2</ele><time>2023-06-07T16:42:26Z</time></trkpt>
<trkpt lat="46.50912" lon="6.67606"><ele>497.8</ele><time>2023-06-07T16:42:27Z</time></trkpt>
<trkpt lat="46.50902" lon="6.67604"><ele>497.6</ele><time>2023-06-07T16:42:29Z</time></trkpt>
<trkpt lat="46.50885" lon="6.67601"><ele>497.2</ele><time>2023-06-07T16:42:32Z</time></trkpt>
<trkpt lat="46.50879" lon="6.67601"><ele>497</ele><time>2023-06-07T16:42:33Z</time></trkpt>
<trkpt lat="46.50873" lon="6.67603"><ele>496.8</ele><time>2023-06-07T16:42:34Z</time></trkpt>
<trkpt lat="46.50855" lon="6.67613"><ele>495.6</ele><time>2023-06-07T16:42:37Z</time></trkpt>
<trkpt lat="46.50849" lon="6.67619"><ele>495</ele><time>2023-06-07T16:42:38Z</time></trkpt>
<trkpt lat="46.50843" lon="6.67626"><ele>494.6</ele><time>2023-06-07T16:42:39Z</time></trkpt>
<trkpt lat="46.50838" lon="6.67633"><ele>494.2</ele><time>2023-06-07T16:42:40Z</time></trkpt>
<trkpt lat="46.50826" lon="6.67659"><ele>493.4</ele><time>2023-06-07T16:42:43Z</time></trkpt>
<trkpt lat="46.50818" lon="6.67676"><ele>492.8</ele><time>2023-06-07T16:42:45Z</time></trkpt>
<trkpt lat="46.50814" lon="6.67685"><ele>492.4</ele><time>2023-06-07T16:42:46Z</time></trkpt>
<trkpt lat="46.50802" lon="6.67712"><ele>491.6</ele><time>2023-06-07T16:42:49Z</time></trkpt>
<trkpt lat="46.50797" lon="6.67721"><ele>491</ele><time>2023-06-07T16:42:50Z</time></trkpt>
<trkpt lat="46.50793" lon="6.67731"><ele>490.8</ele><time>2023-06-07T16:42:51Z</time></trkpt>
<trkpt lat="46.50785" lon="6.67751"><ele>490</ele><time>2023-06-07T16:42:53Z</time></trkpt>
<trkpt lat="46.50775" lon="6.6777"><ele>489.2</ele><time>2023-06-07T16:42:55Z</time></trkpt>
<trkpt lat="46.50769" lon="6.67777"><ele>488.8</ele><time>2023-06-07T16:42:56Z</time></trkpt>
<trkpt lat="46.50762" lon="6.67784"><ele>488.6</ele><time>2023-06-07T16:42:57Z</time></trkpt>
<trkpt lat="46.50748" lon="6.67795"><ele>487</ele><time>2023-06-07T16:42:59Z</time></trkpt>
<trkpt lat="46.50741" lon="6.678"><ele>486.4</ele><time>2023-06-07T16:43:00Z</time></trkpt>
<trkpt lat="46.50726" lon="6.6781"><ele>485.8</ele><time>2023-06-07T16:43:02Z</time></trkpt>
<trkpt lat="46.50713" lon="6.67822"><ele>484.6</ele><time>2023-06-07T16:43:04Z</time></trkpt>
<trkpt lat="46.50708" lon="6.67829"><ele>484.2</ele><time>2023-06-07T16:43:05Z</time></trkpt>
<trkpt lat="46.50705" lon="6.67838"><ele>483.8</ele><time>2023-06-07T16:43:06Z</time></trkpt>
<trkpt lat="46.50703" lon="6.67847"><ele>483.6</ele><time>2023-06-07T16:43:07Z</time></trkpt>
<trkpt lat="46.50701" lon="6.67857"><ele>483</ele><time>2023-06-07T16:43:08Z</time></trkpt>
<trkpt lat="46.50694" lon="6.67885"><ele>482.6</ele><time>2023-06-07T16:43:11Z</time></trkpt>
<trkpt lat="46.50689" lon="6.67915"><ele>482</ele><time>2023-06-07T16:43:14Z</time></trkpt>
<trkpt lat="46.50688" lon="6.67925"><ele>482</ele><time>2023-06-07T16:43:15Z</time></trkpt>
<trkpt lat="46.50688" lon="6.67968"><ele>481.4</ele><time>2023-06-07T16:43:19Z</time></trkpt>
<trkpt lat="46.50686" lon="6.67996"><ele>480.8</ele><time>2023-06-07T16:43:22Z</time></trkpt>
<trkpt lat="46.5069" lon="6.68012"><ele>480.6</ele><time>2023-06-07T16:43:24Z</time></trkpt>
<trkpt lat="46.50695" lon="6.68016"><ele>480.6</ele><time>2023-06-07T16:43:25Z</time></trkpt>
<trkpt lat="46.507" lon="6.68017"><ele>480.6</ele><time>2023-06-07T16:43:26Z</time></trkpt>
<trkpt lat="46.50707" lon="6.68016"><ele>480.6</ele><time>2023-06-07T16:43:28Z</time></trkpt>
<trkpt lat="46.50722" lon="6.68013"><ele>482.4</ele><time>2023-06-07T16:43:34Z</time></trkpt>
<trkpt lat="46.50724" lon="6.68013"><ele>482.8</ele><time>2023-06-07T16:43:35Z</time></trkpt>
<trkpt lat="46.50733" lon="6.68013"><ele>483.8</ele><time>2023-06-07T16:43:40Z</time></trkpt>
<trkpt lat="46.50736" lon="6.68013"><ele>484.4</ele><time>2023-06-07T16:43:42Z</time></trkpt>
<trkpt lat="46.50738" lon="6.68014"><ele>484.6</ele><time>2023-06-07T16:43:43Z</time></trkpt>
<trkpt lat="46.50743" lon="6.68014"><ele>485</ele><time>2023-06-07T16:43:46Z</time></trkpt>
<trkpt lat="46.50747" lon="6.68014"><ele>485.6</ele><time>2023-06-07T16:43:49Z</time></trkpt>
<trkpt lat="46.50753" lon="6.68014"><ele>486</ele><time>2023-06-07T16:43:52Z</time></trkpt>
<trkpt lat="46.50758" lon="6.68014"><ele>486.6</ele><time>2023-06-07T16:43:55Z</time></trkpt>
<trkpt lat="46.50761" lon="6.68015"><ele>486.8</ele><time>2023-06-07T16:43:57Z</time></trkpt>
<trkpt lat="46.50762" lon="6.68015"><ele>487</ele><time>2023-06-07T16:43:58Z</time></trkpt>
<trkpt lat="46.50764" lon="6.68016"><ele>487.2</ele><time>2023-06-07T16:43:59Z</time></trkpt>
<trkpt lat="46.50766" lon="6.6802"><ele>487.6</ele><time>2023-06-07T16:44:01Z</time></trkpt>
<trkpt lat="46.50769" lon="6.68026"><ele>488.2</ele><time>2023-06-07T16:44:04Z</time></trkpt>
<trkpt lat="46.5077" lon="6.68029"><ele>488.4</ele><time>2023-06-07T16:44:05Z</time></trkpt>
<trkpt lat="46.50771" lon="6.68038"><ele>489</ele><time>2023-06-07T16:44:08Z</time></trkpt>
<trkpt lat="46.50771" lon="6.68045"><ele>489.4</ele><time>2023-06-07T16:44:10Z</time></trkpt>
<trkpt lat="46.50771" lon="6.68062"><ele>489.8</ele><time>2023-06-07T16:44:14Z</time></trkpt>
<trkpt lat="46.50772" lon="6.68066"><ele>489.8</ele><time>2023-06-07T16:44:15Z</time></trkpt>
<trkpt lat="46.50774" lon="6.68107"><ele>489.8</ele><time>2023-06-07T16:44:23Z</time></trkpt>
<trkpt lat="46.50777" lon="6.68147"><ele>489</ele><time>2023-06-07T16:44:31Z</time></trkpt>
<trkpt lat="46.5078" lon="6.68187"><ele>488.6</ele><time>2023-06-07T16:44:38Z</time></trkpt>
<trkpt lat="46.50783" lon="6.68224"><ele>488.4</ele><time>2023-06-07T16:44:44Z</time></trkpt>
<trkpt lat="46.50785" lon="6.68239"><ele>488</ele><time>2023-06-07T16:44:46Z</time></trkpt>
<trkpt lat="46.50789" lon="6.6827"><ele>487.6</ele><time>2023-06-07T16:44:50Z</time></trkpt>
<trkpt lat="46.50792" lon="6.68287"><ele>487.2</ele><time>2023-06-07T16:44:52Z</time></trkpt>
<trkpt lat="46.50795" lon="6.68307"><ele>486</ele><time>2023-06-07T16:44:55Z</time></trkpt>
<trkpt lat="46.50796" lon="6.68311"><ele>485.8</ele><time>2023-06-07T16:44:56Z</time></trkpt>
<trkpt lat="46.50797" lon="6.68315"><ele>484.8</ele><time>2023-06-07T16:45:00Z</time></trkpt>
<trkpt lat="46.50798" lon="6.68323"><ele>484.6</ele><time>2023-06-07T16:45:03Z</time></trkpt>
<trkpt lat="46.50799" lon="6.68326"><ele>484.6</ele><time>2023-06-07T16:45:04Z</time></trkpt>
<trkpt lat="46.50802" lon="6.68332"><ele>484.6</ele><time>2023-06-07T16:45:06Z</time></trkpt>
<trkpt lat="46.50805" lon="6.68337"><ele>484.6</ele><time>2023-06-07T16:45:09Z</time></trkpt>
<trkpt lat="46.50806" lon="6.68336"><ele>484.8</ele><time>2023-06-07T16:45:10Z</time></trkpt>
<trkpt lat="46.50806" lon="6.68328"><ele>485</ele><time>2023-06-07T16:45:13Z</time></trkpt>
<trkpt lat="46.50809" lon="6.68324"><ele>485.2</ele><time>2023-06-07T16:45:15Z</time></trkpt>
<trkpt lat="46.50813" lon="6.68323"><ele>485.6</ele><time>2023-06-07T16:45:17Z</time></trkpt>
<trkpt lat="46.50817" lon="6.68322"><ele>486</ele><time>2023-06-07T16:45:19Z</time></trkpt>
<trkpt lat="46.50824" lon="6.6832"><ele>486.8</ele><time>2023-06-07T16:45:23Z</time></trkpt>
<trkpt lat="46.50826" lon="6.6832"><ele>487</ele><time>2023-06-07T16:45:24Z</time></trkpt>
<trkpt lat="46.50831" lon="6.68319"><ele>487.8</ele><time>2023-06-07T16:45:27Z</time></trkpt>
<trkpt lat="46.50835" lon="6.68318"><ele>488.2</ele><time>2023-06-07T16:45:29Z</time></trkpt>
<trkpt lat="46.50838" lon="6.68316"><ele>488.4</ele><time>2023-06-07T16:45:31Z</time></trkpt>
<trkpt lat="46.50843" lon="6.68314"><ele>489.4</ele><time>2023-06-07T16:45:35Z</time></trkpt>
<trkpt lat="46.50854" lon="6.68309"><ele>490.6</ele><time>2023-06-07T16:45:41Z</time></trkpt>
<trkpt lat="46.50859" lon="6.68307"><ele>491</ele><time>2023-06-07T16:45:43Z</time></trkpt>
<trkpt lat="46.50865" lon="6.68304"><ele>491.6</ele><time>2023-06-07T16:45:46Z</time></trkpt>
<trkpt lat="46.50872" lon="6.68298"><ele>492.8</ele><time>2023-06-07T16:45:51Z</time></trkpt>
<trkpt lat="46.50873" lon="6.68296"><ele>493</ele><time>2023-06-07T16:45:52Z</time></trkpt>
<trkpt lat="46.50881" lon="6.6829"><ele>494</ele><time>2023-06-07T16:45:57Z</time></trkpt>
<trkpt lat="46.50887" lon="6.68291"><ele>494.6</ele><time>2023-06-07T16:46:00Z</time></trkpt>
<trkpt lat="46.50888" lon="6.68292"><ele>495</ele><time>2023-06-07T16:46:01Z</time></trkpt>
<trkpt lat="46.50892" lon="6.68301"><ele>495.6</ele><time>2023-06-07T16:46:05Z</time></trkpt>
<trkpt lat="46.50894" lon="6.68313"><ele>496</ele><time>2023-06-07T16:46:09Z</time></trkpt>
<trkpt lat="46.50894" lon="6.68318"><ele>496.4</ele><time>2023-06-07T16:46:11Z</time></trkpt>
<trkpt lat="46.50896" lon="6.6833"><ele>497</ele><time>2023-06-07T16:46:15Z</time></trkpt>
<trkpt lat="46.50897" lon="6.68343"><ele>497.6</ele><time>2023-06-07T16:46:19Z</time></trkpt>
<trkpt lat="46.50897" lon="6.68346"><ele>497.8</ele><time>2023-06-07T16:46:20Z</time></trkpt>
<trkpt lat="46.50899" lon="6.68356"><ele>498.2</ele><time>2023-06-07T16:46:23Z</time></trkpt>
<trkpt lat="46.50902" lon="6.68376"><ele>499</ele><time>2023-06-07T16:46:29Z</time></trkpt>
<trkpt lat="46.50902" lon="6.68379"><ele>499.2</ele><time>2023-06-07T16:46:30Z</time></trkpt>
<trkpt lat="46.50906" lon="6.68403"><ele>500.4</ele><time>2023-06-07T16:46:37Z</time></trkpt>
<trkpt lat="46.50908" lon="6.6841"><ele>500.6</ele><time>2023-06-07T16:46:39Z</time></trkpt>
<trkpt lat="46.50911" lon="6.68431"><ele>501.4</ele><time>2023-06-07T16:46:45Z</time></trkpt>
<trkpt lat="46.50913" lon="6.68442"><ele>501.6</ele><time>2023-06-07T16:46:48Z</time></trkpt>
<trkpt lat="46.50918" lon="6.68464"><ele>502.4</ele><time>2023-06-07T16:46:54Z</time></trkpt>
<trkpt lat="46.5092" lon="6.6847"><ele>502.8</ele><time>2023-06-07T16:46:56Z</time></trkpt>
<trkpt lat="46.50925" lon="6.68488"><ele>503.6</ele><time>2023-06-07T16:47:01Z</time></trkpt>
<trkpt lat="46.50931" lon="6.68506"><ele>504.2</ele><time>2023-06-07T16:47:06Z</time></trkpt>
<trkpt lat="46.50937" lon="6.68525"><ele>504.8</ele><time>2023-06-07T16:47:11Z</time></trkpt>
<trkpt lat="46.50943" lon="6.68544"><ele>505.6</ele><time>2023-06-07T16:47:16Z</time></trkpt>
<trkpt lat="46.50946" lon="6.68552"><ele>506</ele><time>2023-06-07T16:47:18Z</time></trkpt>
<trkpt lat="46.50952" lon="6.68581"><ele>506.6</ele><time>2023-06-07T16:47:25Z</time></trkpt>
<trkpt lat="46.50952" lon="6.68594"><ele>507</ele><time>2023-06-07T16:47:28Z</time></trkpt>
<trkpt lat="46.5095" lon="6.68628"><ele>508</ele><time>2023-06-07T16:47:36Z</time></trkpt>
<trkpt lat="46.50954" lon="6.68661"><ele>509</ele><time>2023-06-07T16:47:44Z</time></trkpt>
<trkpt lat="46.50955" lon="6.68666"><ele>509.2</ele><time>2023-06-07T16:47:45Z</time></trkpt>
<trkpt lat="46.50965" lon="6.687"><ele>509</ele><time>2023-06-07T16:47:53Z</time></trkpt>
<trkpt lat="46.50966" lon="6.68726"><ele>509</ele><time>2023-06-07T16:47:58Z</time></trkpt>
<trkpt lat="46.50965" lon="6.68748"><ele>510.2</ele><time>2023-06-07T16:48:03Z</time></trkpt>
<trkpt lat="46.50966" lon="6.68768"><ele>511</ele><time>2023-06-07T16:48:08Z</time></trkpt>
<trkpt lat="46.50966" lon="6.68772"><ele>511.2</ele><time>2023-06-07T16:48:09Z</time></trkpt>
<trkpt lat="46.50961" lon="6.68798"><ele>512</ele><time>2023-06-07T16:48:16Z</time></trkpt>
<trkpt lat="46.50957" lon="6.68807"><ele>512.4</ele><time>2023-06-07T16:48:19Z</time></trkpt>
<trkpt lat="46.50952" lon="6.68819"><ele>513</ele><time>2023-06-07T16:48:23Z</time></trkpt>
<trkpt lat="46.5095" lon="6.6883"><ele>513.4</ele><time>2023-06-07T16:48:26Z</time></trkpt>
<trkpt lat="46.50947" lon="6.68848"><ele>514.2</ele><time>2023-06-07T16:48:31Z</time></trkpt>
<trkpt lat="46.50945" lon="6.68855"><ele>514.4</ele><time>2023-06-07T16:48:33Z</time></trkpt>
<trkpt lat="46.50941" lon="6.68876"><ele>515.2</ele><time>2023-06-07T16:48:39Z</time></trkpt>
<trkpt lat="46.50938" lon="6.6889"><ele>515.4</ele><time>2023-06-07T16:48:43Z</time></trkpt>
<trkpt lat="46.50935" lon="6.68911"><ele>516.6</ele><time>2023-06-07T16:48:49Z</time></trkpt>
<trkpt lat="46.50936" lon="6.68935"><ele>517.8</ele><time>2023-06-07T16:48:56Z</time></trkpt>
<trkpt lat="46.50948" lon="6.68952"><ele>518.8</ele><time>2023-06-07T16:49:03Z</time></trkpt>
<trkpt lat="46.50964" lon="6.68971"><ele>519.8</ele><time>2023-06-07T16:49:11Z</time></trkpt>
<trkpt lat="46.50971" lon="6.68994"><ele>520.8</ele><time>2023-06-07T16:49:18Z</time></trkpt>
<trkpt lat="46.50972" lon="6.68998"><ele>521</ele><time>2023-06-07T16:49:19Z</time></trkpt>
<trkpt lat="46.50975" lon="6.69034"><ele>521.8</ele><time>2023-06-07T16:49:27Z</time></trkpt>
<trkpt lat="46.50976" lon="6.69043"><ele>522</ele><time>2023-06-07T16:49:29Z</time></trkpt>
<trkpt lat="46.50981" lon="6.69064"><ele>522.2</ele><time>2023-06-07T16:49:34Z</time></trkpt>
<trkpt lat="46.50996" lon="6.69084"><ele>522.6</ele><time>2023-06-07T16:49:40Z</time></trkpt>
<trkpt lat="46.51003" lon="6.69092"><ele>523.2</ele><time>2023-06-07T16:49:43Z</time></trkpt>
<trkpt lat="46.51016" lon="6.69106"><ele>524.2</ele><time>2023-06-07T16:49:49Z</time></trkpt>
<trkpt lat="46.51027" lon="6.6912"><ele>525.4</ele><time>2023-06-07T16:49:56Z</time></trkpt>
<trkpt lat="46.51033" lon="6.69126"><ele>525.8</ele><time>2023-06-07T16:49:59Z</time></trkpt>
<trkpt lat="46.5104" lon="6.69133"><ele>526.4</ele><time>2023-06-07T16:50:03Z</time></trkpt>
<trkpt lat="46.51046" lon="6.69139"><ele>527</ele><time>2023-06-07T16:50:07Z</time></trkpt>
<trkpt lat="46.51052" lon="6.69146"><ele>527.6</ele><time>2023-06-07T16:50:11Z</time></trkpt>
<trkpt lat="46.5106" lon="6.69155"><ele>528.8</ele><time>2023-06-07T16:50:17Z</time></trkpt>
<trkpt lat="46.51071" lon="6.69166"><ele>529.8</ele><time>2023-06-07T16:50:24Z</time></trkpt>
<trkpt lat="46.51073" lon="6.69171"><ele>530.2</ele><time>2023-06-07T16:50:26Z</time></trkpt>
<trkpt lat="46.51075" lon="6.69181"><ele>531</ele><time>2023-06-07T16:50:30Z</time></trkpt>
<trkpt lat="46.51074" lon="6.69182"><ele>531</ele><time>2023-06-07T16:50:31Z</time></trkpt>
<trkpt lat="46.51063" lon="6.6919"><ele>530.2</ele><time>2023-06-07T16:50:37Z</time></trkpt>
<trkpt lat="46.51061" lon="6.69191"><ele>529.4</ele><time>2023-06-07T16:50:38Z</time></trkpt>
<trkpt lat="46.51055" lon="6.69193"><ele>528.4</ele><time>2023-06-07T16:50:40Z</time></trkpt>
<trkpt lat="46.5105" lon="6.69196"><ele>526.6</ele><time>2023-06-07T16:50:42Z</time></trkpt>
<trkpt lat="46.51048" lon="6.69197"><ele>526</ele><time>2023-06-07T16:50:43Z</time></trkpt>
<trkpt lat="46.51046" lon="6.69197"><ele>525.2</ele><time>2023-06-07T16:50:44Z</time></trkpt>
<trkpt lat="46.51042" lon="6.69199"><ele>524.2</ele><time>2023-06-07T16:50:46Z</time></trkpt>
<trkpt lat="46.5104" lon="6.69201"><ele>523.6</ele><time>2023-06-07T16:50:47Z</time></trkpt>
<trkpt lat="46.5104" lon="6.69203"><ele>523</ele><time>2023-06-07T16:50:48Z</time></trkpt>
<trkpt lat="46.5104" lon="6.69206"><ele>522.4</ele><time>2023-06-07T16:50:49Z</time></trkpt>
<trkpt lat="46.51041" lon="6.69209"><ele>521.8</ele><time>2023-06-07T16:50:50Z</time></trkpt>
<trkpt lat="46.51043" lon="6.69218"><ele>521</ele><time>2023-06-07T16:50:53Z</time></trkpt>
<trkpt lat="46.51042" lon="6.69227"><ele>521</ele><time>2023-06-07T16:50:56Z</time></trkpt>
<trkpt lat="46.5104" lon="6.69233"><ele>520.6</ele><time>2023-06-07T16:50:58Z</time></trkpt>
<trkpt lat="46.51039" lon="6.69236"><ele>520.4</ele><time>2023-06-07T16:50:59Z</time></trkpt>
<trkpt lat="46.51035" lon="6.69242"><ele>519.2</ele><time>2023-06-07T16:51:02Z</time></trkpt>
<trkpt lat="46.51033" lon="6.69247"><ele>518</ele><time>2023-06-07T16:51:05Z</time></trkpt>
<trkpt lat="46.51031" lon="6.69248"><ele>517.4</ele><time>2023-06-07T16:51:07Z</time></trkpt>
<trkpt lat="46.51029" lon="6.69248"><ele>516.8</ele><time>2023-06-07T16:51:09Z</time></trkpt>
<trkpt lat="46.51029" lon="6.69248"><ele>516.4</ele><time>2023-06-07T16:51:10Z</time></trkpt>
<trkpt lat="46.51028" lon="6.69249"><ele>515</ele><time>2023-06-07T16:51:12Z</time></trkpt>
<trkpt lat="46.51026" lon="6.6926"><ele>515</ele><time>2023-06-07T16:51:16Z</time></trkpt>
<trkpt lat="46.51021" lon="6.69277"><ele>514.2</ele><time>2023-06-07T16:51:20Z</time></trkpt>
<trkpt lat="46.51021" lon="6.69278"><ele>513.8</ele><time>2023-06-07T16:51:21Z</time></trkpt>
<trkpt lat="46.51018" lon="6.69279"><ele>513.4</ele><time>2023-06-07T16:51:24Z</time></trkpt>
<trkpt lat="46.51012" lon="6.69285"><ele>514.4</ele><time>2023-06-07T16:51:32Z</time></trkpt>
<trkpt lat="46.51009" lon="6.69285"><ele>515</ele><time>2023-06-07T16:51:36Z</time></trkpt>
<trkpt lat="46.51007" lon="6.69285"><ele>515.6</ele><time>2023-06-07T16:51:40Z</time></trkpt>
<trkpt lat="46.51006" lon="6.69286"><ele>516</ele><time>2023-06-07T16:51:42Z</time></trkpt>
<trkpt lat="46.51005" lon="6.69286"><ele>516</ele><time>2023-06-07T16:51:43Z</time></trkpt>
<trkpt lat="46.51004" lon="6.69287"><ele>516.6</ele><time>2023-06-07T16:51:45Z</time></trkpt>
<trkpt lat="46.51003" lon="6.69288"><ele>517.2</ele><time>2023-06-07T16:51:48Z</time></trkpt>
<trkpt lat="46.51001" lon="6.69289"><ele>517.4</ele><time>2023-06-07T16:51:50Z</time></trkpt>
<trkpt lat="46.50997" lon="6.6929"><ele>518.4</ele><time>2023-06-07T16:51:56Z</time></trkpt>
<trkpt lat="46.50997" lon="6.6929"><ele>518.8</ele><time>2023-06-07T16:51:58Z</time></trkpt>
<trkpt lat="46.50994" lon="6.6929"><ele>519.4</ele><time>2023-06-07T16:52:03Z</time></trkpt>
<trkpt lat="46.50992" lon="6.69291"><ele>520.2</ele><time>2023-06-07T16:52:07Z</time></trkpt>
<trkpt lat="46.5099" lon="6.6929"><ele>520.4</ele><time>2023-06-07T16:52:10Z</time></trkpt>
<trkpt lat="46.50988" lon="6.69289"><ele>521.2</ele><time>2023-06-07T16:52:15Z</time></trkpt>
<trkpt lat="46.50987" lon="6.69288"><ele>521.6</ele><time>2023-06-07T16:52:17Z</time></trkpt>
<trkpt lat="46.50984" lon="6.69286"><ele>522.2</ele><time>2023-06-07T16:52:24Z</time></trkpt>
<trkpt lat="46.50984" lon="6.69286"><ele>522.6</ele><time>2023-06-07T16:52:26Z</time></trkpt>
<trkpt lat="46.5098" lon="6.69285"><ele>523.6</ele><time>2023-06-07T16:52:32Z</time></trkpt>
<trkpt lat="46.50979" lon="6.69286"><ele>523.8</ele><time>2023-06-07T16:52:33Z</time></trkpt>
<trkpt lat="46.50977" lon="6.69287"><ele>524.8</ele><time>2023-06-07T16:52:38Z</time></trkpt>
<trkpt lat="46.50977" lon="6.69286"><ele>525.2</ele><time>2023-06-07T16:52:39Z</time></trkpt>
<trkpt lat="46.50975" lon="6.6928"><ele>526</ele><time>2023-06-07T16:52:44Z</time></trkpt>
<trkpt lat="46.50974" lon="6.69276"><ele>526.2</ele><time>2023-06-07T16:52:47Z</time></trkpt>
<trkpt lat="46.5097" lon="6.6927"><ele>526</ele><time>2023-06-07T16:52:53Z</time></trkpt>
<trkpt lat="46.50966" lon="6.69273"><ele>527</ele><time>2023-06-07T16:53:01Z</time></trkpt>
<trkpt lat="46.50963" lon="6.69277"><ele>528.2</ele><time>2023-06-07T16:53:06Z</time></trkpt>
<trkpt lat="46.50961" lon="6.69279"><ele>528.8</ele><time>2023-06-07T16:53:09Z</time></trkpt>
<trkpt lat="46.50957" lon="6.69281"><ele>529.2</ele><time>2023-06-07T16:53:13Z</time></trkpt>
<trkpt lat="46.50951" lon="6.69287"><ele>529.4</ele><time>2023-06-07T16:53:16Z</time></trkpt>
<trkpt lat="46.50935" lon="6.69304"><ele>529.8</ele><time>2023-06-07T16:53:24Z</time></trkpt>
<trkpt lat="46.50923" lon="6.69315"><ele>529.6</ele><time>2023-06-07T16:53:28Z</time></trkpt>
<trkpt lat="46.50919" lon="6.69318"><ele>529.6</ele><time>2023-06-07T16:53:29Z</time></trkpt>
<trkpt lat="46.50903" lon="6.69328"><ele>528.8</ele><time>2023-06-07T16:53:32Z</time></trkpt>
<trkpt lat="46.50897" lon="6.69333"><ele>528.2</ele><time>2023-06-07T16:53:33Z</time></trkpt>
<trkpt lat="46.50884" lon="6.69345"><ele>527</ele><time>2023-06-07T16:53:35Z</time></trkpt>
<trkpt lat="46.50878" lon="6.69353"><ele>526.2</ele><time>2023-06-07T16:53:36Z</time></trkpt>
<trkpt lat="46.50873" lon="6.69363"><ele>525.4</ele><time>2023-06-07T16:53:37Z</time></trkpt>
<trkpt lat="46.50864" lon="6.69385"><ele>524</ele><time>2023-06-07T16:53:39Z</time></trkpt>
<trkpt lat="46.50852" lon="6.69412"><ele>523.2</ele><time>2023-06-07T16:53:42Z</time></trkpt>
<trkpt lat="46.50839" lon="6.69443"><ele>523.4</ele><time>2023-06-07T16:53:46Z</time></trkpt>
<trkpt lat="46.50833" lon="6.69456"><ele>523.6</ele><time>2023-06-07T16:53:48Z</time></trkpt>
<trkpt lat="46.50825" lon="6.69473"><ele>524.2</ele><time>2023-06-07T16:53:51Z</time></trkpt>
<trkpt lat="46.50823" lon="6.69477"><ele>524.2</ele><time>2023-06-07T16:53:52Z</time></trkpt>
<trkpt lat="46.50821" lon="6.69482"><ele>524.4</ele><time>2023-06-07T16:53:53Z</time></trkpt>
<trkpt lat="46.50818" lon="6.69489"><ele>524.6</ele><time>2023-06-07T16:53:55Z</time></trkpt>
<trkpt lat="46.50816" lon="6.69492"><ele>524.6</ele><time>2023-06-07T16:53:57Z</time></trkpt>
<trkpt lat="46.50814" lon="6.69494"><ele>524.6</ele><time>2023-06-07T16:53:58Z</time></trkpt>
<trkpt lat="46.50807" lon="6.69495"><ele>524.6</ele><time>2023-06-07T16:54:00Z</time></trkpt>
<trkpt lat="46.50783" lon="6.69497"><ele>523.6</ele><time>2023-06-07T16:54:04Z</time></trkpt>
<trkpt lat="46.50771" lon="6.69496"><ele>522.6</ele><time>2023-06-07T16:54:06Z</time></trkpt>
<trkpt lat="46.50766" lon="6.69499"><ele>521.4</ele><time>2023-06-07T16:54:07Z</time></trkpt>
<trkpt lat="46.50761" lon="6.69503"><ele>520.8</ele><time>2023-06-07T16:54:08Z</time></trkpt>
<trkpt lat="46.50757" lon="6.69509"><ele>520.4</ele><time>2023-06-07T16:54:09Z</time></trkpt>
<trkpt lat="46.50744" lon="6.6952"><ele>519.2</ele><time>2023-06-07T16:54:12Z</time></trkpt>
<trkpt lat="46.50723" lon="6.69546"><ele>519.8</ele><time>2023-06-07T16:54:19Z</time></trkpt>
<trkpt lat="46.50706" lon="6.69572"><ele>519.6</ele><time>2023-06-07T16:54:25Z</time></trkpt>
<trkpt lat="46.50686" lon="6.69602"><ele>518.6</ele><time>2023-06-07T16:54:31Z</time></trkpt>
<trkpt lat="46.5068" lon="6.69615"><ele>518.2</ele><time>2023-06-07T16:54:33Z</time></trkpt>
<trkpt lat="46.50672" lon="6.69636"><ele>517.8</ele><time>2023-06-07T16:54:36Z</time></trkpt>
<trkpt lat="46.50668" lon="6.6965"><ele>517.6</ele><time>2023-06-07T16:54:38Z</time></trkpt>
<trkpt lat="46.50667" lon="6.69657"><ele>517.4</ele><time>2023-06-07T16:54:39Z</time></trkpt>
<trkpt lat="46.50664" lon="6.69667"><ele>517</ele><time>2023-06-07T16:54:41Z</time></trkpt>
<trkpt lat="46.50661" lon="6.69669"><ele>516.6</ele><time>2023-06-07T16:54:42Z</time></trkpt>
<trkpt lat="46.50657" lon="6.69668"><ele>516.4</ele><time>2023-06-07T16:54:43Z</time></trkpt>
<trkpt lat="46.50647" lon="6.69666"><ele>516</ele><time>2023-06-07T16:54:45Z</time></trkpt>
<trkpt lat="46.50641" lon="6.69665"><ele>515.8</ele><time>2023-06-07T16:54:46Z</time></trkpt>
<trkpt lat="46.50628" lon="6.69663"><ele>513.8</ele><time>2023-06-07T16:54:48Z</time></trkpt>
<trkpt lat="46.50622" lon="6.69661"><ele>512.6</ele><time>2023-06-07T16:54:49Z</time></trkpt>
<trkpt lat="46.50615" lon="6.69659"><ele>511.6</ele><time>2023-06-07T16:54:50Z</time></trkpt>
<trkpt lat="46.50606" lon="6.69655"><ele>510</ele><time>2023-06-07T16:54:52Z</time></trkpt>
<trkpt lat="46.50603" lon="6.69654"><ele>509.4</ele><time>2023-06-07T16:54:53Z</time></trkpt>
<trkpt lat="46.50601" lon="6.69655"><ele>508.6</ele><time>2023-06-07T16:54:54Z</time></trkpt>
<trkpt lat="46.506" lon="6.69661"><ele>507.4</ele><time>2023-06-07T16:54:56Z</time></trkpt>
<trkpt lat="46.50598" lon="6.69678"><ele>506.2</ele><time>2023-06-07T16:55:00Z</time></trkpt>
<trkpt lat="46.50597" lon="6.69686"><ele>505.6</ele><time>2023-06-07T16:55:02Z</time></trkpt>
<trkpt lat="46.50596" lon="6.69691"><ele>504.4</ele><time>2023-06-07T16:55:04Z</time></trkpt>
<trkpt lat="46.50597" lon="6.69693"><ele>503.2</ele><time>2023-06-07T16:55:07Z</time></trkpt>
<trkpt lat="46.50596" lon="6.69696"><ele>502.6</ele><time>2023-06-07T16:55:12Z</time></trkpt>
<trkpt lat="46.50596" lon="6.69701"><ele>502</ele><time>2023-06-07T16:55:17Z</time></trkpt>
<trkpt lat="46.50595" lon="6.69703"><ele>501</ele><time>2023-06-07T16:55:21Z</time></trkpt>
<trkpt lat="46.50595" lon="6.69704"><ele>500.6</ele><time>2023-06-07T16:55:22Z</time></trkpt>
<trkpt lat="46.50593" lon="6.69706"><ele>500</ele><time>2023-06-07T16:55:24Z</time></trkpt>
<trkpt lat="46.50591" lon="6.69708"><ele>499.2</ele><time>2023-06-07T16:55:26Z</time></trkpt>
<trkpt lat="46.50585" lon="6.69715"><ele>498.4</ele><time>2023-06-07T16:55:33Z</time></trkpt>
<trkpt lat="46.50578" lon="6.69719"><ele>498.6</ele><time>2023-06-07T16:55:38Z</time></trkpt>
<trkpt lat="46.50571" lon="6.69721"><ele>498.8</ele><time>2023-06-07T16:55:41Z</time></trkpt>
<trkpt lat="46.50567" lon="6.69723"><ele>498.8</ele><time>2023-06-07T16:55:43Z</time></trkpt>
<trkpt lat="46.50556" lon="6.69727"><ele>499.4</ele><time>2023-06-07T16:55:49Z</time></trkpt>
<trkpt lat="46.50548" lon="6.69724"><ele>499.6</ele><time>2023-06-07T16:55:53Z</time></trkpt>
<trkpt lat="46.50542" lon="6.69718"><ele>499.6</ele><time>2023-06-07T16:55:55Z</time></trkpt>
<trkpt lat="46.50533" lon="6.6971"><ele>499.4</ele><time>2023-06-07T16:55:58Z</time></trkpt>
<trkpt lat="46.5053" lon="6.6971"><ele>499.2</ele><time>2023-06-07T16:56:00Z</time></trkpt>
<trkpt lat="46.50523" lon="6.69724"><ele>498.4</ele><time>2023-06-07T16:56:05Z</time></trkpt>
<trkpt lat="46.50519" lon="6.69728"><ele>498.4</ele><time>2023-06-07T16:56:07Z</time></trkpt>
<trkpt lat="46.50512" lon="6.69726"><ele>498.6</ele><time>2023-06-07T16:56:09Z</time></trkpt>
<trkpt lat="46.505" lon="6.69723"><ele>498.2</ele><time>2023-06-07T16:56:13Z</time></trkpt>
<trkpt lat="46.50498" lon="6.69727"><ele>497.8</ele><time>2023-06-07T16:56:14Z</time></trkpt>
<trkpt lat="46.50497" lon="6.69737"><ele>497</ele><time>2023-06-07T16:56:16Z</time></trkpt>
<trkpt lat="46.50497" lon="6.69751"><ele>496.4</ele><time>2023-06-07T16:56:18Z</time></trkpt>
<trkpt lat="46.50492" lon="6.69781"><ele>495.8</ele><time>2023-06-07T16:56:21Z</time></trkpt>
<trkpt lat="46.50487" lon="6.69791"><ele>494.8</ele><time>2023-06-07T16:56:22Z</time></trkpt>
<trkpt lat="46.50483" lon="6.69801"><ele>493.8</ele><time>2023-06-07T16:56:23Z</time></trkpt>
<trkpt lat="46.50477" lon="6.6981"><ele>492.6</ele><time>2023-06-07T16:56:24Z</time></trkpt>
<trkpt lat="46.50472" lon="6.69818"><ele>492.2</ele><time>2023-06-07T16:56:25Z</time></trkpt>
<trkpt lat="46.50466" lon="6.69827"><ele>491.8</ele><time>2023-06-07T16:56:26Z</time></trkpt>
<trkpt lat="46.5046" lon="6.69835"><ele>491.6</ele><time>2023-06-07T16:56:27Z</time></trkpt>
<trkpt lat="46.50448" lon="6.69853"><ele>491.6</ele><time>2023-06-07T16:56:30Z</time></trkpt>
<trkpt lat="46.50441" lon="6.69858"><ele>492</ele><time>2023-06-07T16:56:32Z</time></trkpt>
<trkpt lat="46.50438" lon="6.69858"><ele>492</ele><time>2023-06-07T16:56:33Z</time></trkpt>
<trkpt lat="46.50415" lon="6.69866"><ele>491</ele><time>2023-06-07T16:56:37Z</time></trkpt>
<trkpt lat="46.504" lon="6.69869"><ele>490.4</ele><time>2023-06-07T16:56:39Z</time></trkpt>
<trkpt lat="46.50386" lon="6.69871"><ele>488.4</ele><time>2023-06-07T16:56:41Z</time></trkpt>
<trkpt lat="46.50373" lon="6.69873"><ele>486.2</ele><time>2023-06-07T16:56:43Z</time></trkpt>
<trkpt lat="46.50368" lon="6.69875"><ele>485.2</ele><time>2023-06-07T16:56:44Z</time></trkpt>
<trkpt lat="46.50357" lon="6.69878"><ele>483.4</ele><time>2023-06-07T16:56:46Z</time></trkpt>
<trkpt lat="46.50346" lon="6.69886"><ele>481.6</ele><time>2023-06-07T16:56:48Z</time></trkpt>
<trkpt lat="46.50335" lon="6.69896"><ele>480.4</ele><time>2023-06-07T16:56:50Z</time></trkpt>
<trkpt lat="46.50325" lon="6.69903"><ele>478.4</ele><time>2023-06-07T16:56:52Z</time></trkpt>
<trkpt lat="46.50315" lon="6.69908"><ele>477.2</ele><time>2023-06-07T16:56:54Z</time></trkpt>
<trkpt lat="46.5031" lon="6.69909"><ele>476.8</ele><time>2023-06-07T16:56:55Z</time></trkpt>
<trkpt lat="46.50305" lon="6.69909"><ele>476.2</ele><time>2023-06-07T16:56:56Z</time></trkpt>
<trkpt lat="46.50299" lon="6.69906"><ele>475</ele><time>2023-06-07T16:56:57Z</time></trkpt>
<trkpt lat="46.50293" lon="6.69902"><ele>474.2</ele><time>2023-06-07T16:56:58Z</time></trkpt>
<trkpt lat="46.50287" lon="6.69899"><ele>473.2</ele><time>2023-06-07T16:56:59Z</time></trkpt>
<trkpt lat="46.50281" lon="6.69895"><ele>472.4</ele><time>2023-06-07T16:57:00Z</time></trkpt>
<trkpt lat="46.50274" lon="6.69892"><ele>471.6</ele><time>2023-06-07T16:57:01Z</time></trkpt>
<trkpt lat="46.50268" lon="6.6989"><ele>470.2</ele><time>2023-06-07T16:57:02Z</time></trkpt>
<trkpt lat="46.50261" lon="6.69888"><ele>469</ele><time>2023-06-07T16:57:03Z</time></trkpt>
<trkpt lat="46.50249" lon="6.69882"><ele>466.4</ele><time>2023-06-07T16:57:05Z</time></trkpt>
<trkpt lat="46.50237" lon="6.6988"><ele>465</ele><time>2023-06-07T16:57:07Z</time></trkpt>
<trkpt lat="46.50224" lon="6.69878"><ele>464</ele><time>2023-06-07T16:57:09Z</time></trkpt>
<trkpt lat="46.50219" lon="6.69877"><ele>463.8</ele><time>2023-06-07T16:57:10Z</time></trkpt>
<trkpt lat="46.50214" lon="6.69876"><ele>463.6</ele><time>2023-06-07T16:57:11Z</time></trkpt>
<trkpt lat="46.50209" lon="6.69875"><ele>463.4</ele><time>2023-06-07T16:57:12Z</time></trkpt>
<trkpt lat="46.50203" lon="6.69867"><ele>463.4</ele><time>2023-06-07T16:57:14Z</time></trkpt>
<trkpt lat="46.502" lon="6.69863"><ele>462.6</ele><time>2023-06-07T16:57:16Z</time></trkpt>
<trkpt lat="46.502" lon="6.69862"><ele>462.2</ele><time>2023-06-07T16:57:17Z</time></trkpt>
<trkpt lat="46.50196" lon="6.69857"><ele>462</ele><time>2023-06-07T16:57:23Z</time></trkpt>
<trkpt lat="46.50194" lon="6.69858"><ele>462</ele><time>2023-06-07T16:57:24Z</time></trkpt>
<trkpt lat="46.50188" lon="6.69865"><ele>462.2</ele><time>2023-06-07T16:57:27Z</time></trkpt>
<trkpt lat="46.50178" lon="6.69884"><ele>463</ele><time>2023-06-07T16:57:33Z</time></trkpt>
<trkpt lat="46.50168" lon="6.69904"><ele>463.8</ele><time>2023-06-07T16:57:39Z</time></trkpt>
<trkpt lat="46.50164" lon="6.69911"><ele>464</ele><time>2023-06-07T16:57:41Z</time></trkpt>
<trkpt lat="46.50157" lon="6.69926"><ele>464.8</ele><time>2023-06-07T16:57:45Z</time></trkpt>
<trkpt lat="46.5015" lon="6.6994"><ele>465.2</ele><time>2023-06-07T16:57:49Z</time></trkpt>
<trkpt lat="46.50148" lon="6.69944"><ele>465.2</ele><time>2023-06-07T16:57:50Z</time></trkpt>
<trkpt lat="46.50146" lon="6.69948"><ele>465.4</ele><time>2023-06-07T16:57:51Z</time></trkpt>
<trkpt lat="46.50142" lon="6.69955"><ele>465.4</ele><time>2023-06-07T16:57:53Z</time></trkpt>
<trkpt lat="46.50138" lon="6.69962"><ele>465.6</ele><time>2023-06-07T16:57:55Z</time></trkpt>
<trkpt lat="46.50136" lon="6.69966"><ele>466</ele><time>2023-06-07T16:57:56Z</time></trkpt>
<trkpt lat="46.50132" lon="6.69975"><ele>466.2</ele><time>2023-06-07T16:57:58Z</time></trkpt>
<trkpt lat="46.50131" lon="6.69978"><ele>466.2</ele><time>2023-06-07T16:57:59Z</time></trkpt>
<trkpt lat="46.50117" lon="6.70005"><ele>466.2</ele><time>2023-06-07T16:58:05Z</time></trkpt>
<trkpt lat="46.50105" lon="6.70029"><ele>466.2</ele><time>2023-06-07T16:58:10Z</time></trkpt>
<trkpt lat="46.50096" lon="6.70046"><ele>466.2</ele><time>2023-06-07T16:58:14Z</time></trkpt>
<trkpt lat="46.5009" lon="6.70053"><ele>466.6</ele><time>2023-06-07T16:58:16Z</time></trkpt>
<trkpt lat="46.50083" lon="6.70058"><ele>466.6</ele><time>2023-06-07T16:58:18Z</time></trkpt>
<trkpt lat="46.50063" lon="6.70059"><ele>466.6</ele><time>2023-06-07T16:58:23Z</time></trkpt>
<trkpt lat="46.50059" lon="6.70058"><ele>466.6</ele><time>2023-06-07T16:58:24Z</time></trkpt>
<trkpt lat="46.50047" lon="6.70059"><ele>467</ele><time>2023-06-07T16:58:28Z</time></trkpt>
<trkpt lat="46.50044" lon="6.7006"><ele>467.4</ele><time>2023-06-07T16:58:29Z</time></trkpt>
<trkpt lat="46.50035" lon="6.70063"><ele>468.4</ele><time>2023-06-07T16:58:33Z</time></trkpt>
<trkpt lat="46.50026" lon="6.70069"><ele>468.8</ele><time>2023-06-07T16:58:37Z</time></trkpt>
<trkpt lat="46.50017" lon="6.70078"><ele>469.4</ele><time>2023-06-07T16:58:41Z</time></trkpt>
<trkpt lat="46.50012" lon="6.70082"><ele>469.8</ele><time>2023-06-07T16:58:43Z</time></trkpt>
<trkpt lat="46.50008" lon="6.70087"><ele>470.6</ele><time>2023-06-07T16:58:45Z</time></trkpt>
<trkpt lat="46.50004" lon="6.70091"><ele>470.8</ele><time>2023-06-07T16:58:47Z</time></trkpt>
<trkpt lat="46.49996" lon="6.70101"><ele>471.6</ele><time>2023-06-07T16:58:51Z</time></trkpt>
<trkpt lat="46.49986" lon="6.70116"><ele>472.6</ele><time>2023-06-07T16:58:57Z</time></trkpt>
<trkpt lat="46.49983" lon="6.70121"><ele>473</ele><time>2023-06-07T16:58:59Z</time></trkpt>
<trkpt lat="46.49977" lon="6.70131"><ele>474</ele><time>2023-06-07T16:59:03Z</time></trkpt>
<trkpt lat="46.49969" lon="6.70146"><ele>474.8</ele><time>2023-06-07T16:59:09Z</time></trkpt>
<trkpt lat="46.49966" lon="6.70151"><ele>475.2</ele><time>2023-06-07T16:59:11Z</time></trkpt>
<trkpt lat="46.49961" lon="6.70165"><ele>476.2</ele><time>2023-06-07T16:59:16Z</time></trkpt>
<trkpt lat="46.49955" lon="6.70179"><ele>477</ele><time>2023-06-07T16:59:21Z</time></trkpt>
<trkpt lat="46.49952" lon="6.70188"><ele>477.4</ele><time>2023-06-07T16:59:24Z</time></trkpt>
<trkpt lat="46.49947" lon="6.70204"><ele>478.4</ele><time>2023-06-07T16:59:29Z</time></trkpt>
<trkpt lat="46.49944" lon="6.70214"><ele>478.8</ele><time>2023-06-07T16:59:32Z</time></trkpt>
<trkpt lat="46.49943" lon="6.70227"><ele>479.6</ele><time>2023-06-07T16:59:36Z</time></trkpt>
<trkpt lat="46.49944" lon="6.70244"><ele>480.6</ele><time>2023-06-07T16:59:41Z</time></trkpt>
<trkpt lat="46.49943" lon="6.7027"><ele>481.8</ele><time>2023-06-07T16:59:49Z</time></trkpt>
<trkpt lat="46.49933" lon="6.70285"><ele>482.8</ele><time>2023-06-07T16:59:55Z</time></trkpt>
<trkpt lat="46.49932" lon="6.70287"><ele>483</ele><time>2023-06-07T16:59:56Z</time></trkpt>
<trkpt lat="46.49924" lon="6.70296"><ele>483.8</ele><time>2023-06-07T17:00:00Z</time></trkpt>
<trkpt lat="46.49919" lon="6.70309"><ele>484.2</ele><time>2023-06-07T17:00:04Z</time></trkpt>
<trkpt lat="46.49912" lon="6.70337"><ele>484.8</ele><time>2023-06-07T17:00:11Z</time></trkpt>
<trkpt lat="46.49908" lon="6.70348"><ele>485.4</ele><time>2023-06-07T17:00:14Z</time></trkpt>
<trkpt lat="46.49903" lon="6.70362"><ele>486</ele><time>2023-06-07T17:00:18Z</time></trkpt>
<trkpt lat="46.49896" lon="6.70379"><ele>486.8</ele><time>2023-06-07T17:00:23Z</time></trkpt>
<trkpt lat="46.49893" lon="6.70385"><ele>487</ele><time>2023-06-07T17:00:25Z</time></trkpt>
<trkpt lat="46.49887" lon="6.70411"><ele>488.2</ele><time>2023-06-07T17:00:32Z</time></trkpt>
<trkpt lat="46.49885" lon="6.70417"><ele>488.2</ele><time>2023-06-07T17:00:34Z</time></trkpt>
<trkpt lat="46.49882" lon="6.70435"><ele>489.2</ele><time>2023-06-07T17:00:39Z</time></trkpt>
<trkpt lat="46.49878" lon="6.70449"><ele>490.2</ele><time>2023-06-07T17:00:43Z</time></trkpt>
<trkpt lat="46.49878" lon="6.70453"><ele>490.2</ele><time>2023-06-07T17:00:44Z</time></trkpt>
<trkpt lat="46.49873" lon="6.7047"><ele>491.4</ele><time>2023-06-07T17:00:49Z</time></trkpt>
<trkpt lat="46.49866" lon="6.70483"><ele>492</ele><time>2023-06-07T17:00:53Z</time></trkpt>
<trkpt lat="46.49863" lon="6.70489"><ele>492.4</ele><time>2023-06-07T17:00:55Z</time></trkpt>
<trkpt lat="46.49852" lon="6.70504"><ele>493.6</ele><time>2023-06-07T17:01:01Z</time></trkpt>
<trkpt lat="46.49848" lon="6.70508"><ele>494</ele><time>2023-06-07T17:01:03Z</time></trkpt>
<trkpt lat="46.49844" lon="6.70512"><ele>494.8</ele><time>2023-06-07T17:01:05Z</time></trkpt>
<trkpt lat="46.4983" lon="6.70525"><ele>495.8</ele><time>2023-06-07T17:01:12Z</time></trkpt>
<trkpt lat="46.49823" lon="6.70532"><ele>496.4</ele><time>2023-06-07T17:01:16Z</time></trkpt>
<trkpt lat="46.49817" lon="6.70538"><ele>497</ele><time>2023-06-07T17:01:19Z</time></trkpt>
<trkpt lat="46.49807" lon="6.70547"><ele>498</ele><time>2023-06-07T17:01:24Z</time></trkpt>
<trkpt lat="46.49802" lon="6.70556"><ele>498.8</ele><time>2023-06-07T17:01:28Z</time></trkpt>
<trkpt lat="46.49798" lon="6.70565"><ele>499.2</ele><time>2023-06-07T17:01:31Z</time></trkpt>
<trkpt lat="46.49793" lon="6.7058"><ele>500</ele><time>2023-06-07T17:01:36Z</time></trkpt>
<trkpt lat="46.49792" lon="6.70583"><ele>500.2</ele><time>2023-06-07T17:01:37Z</time></trkpt>
<trkpt lat="46.4979" lon="6.70606"><ele>501.4</ele><time>2023-06-07T17:01:44Z</time></trkpt>
<trkpt lat="46.4979" lon="6.7061"><ele>501.4</ele><time>2023-06-07T17:01:45Z</time></trkpt>
<trkpt lat="46.49792" lon="6.70627"><ele>502.4</ele><time>2023-06-07T17:01:50Z</time></trkpt>
<trkpt lat="46.49795" lon="6.7064"><ele>503.2</ele><time>2023-06-07T17:01:54Z</time></trkpt>
<trkpt lat="46.49797" lon="6.70647"><ele>503.4</ele><time>2023-06-07T17:01:56Z</time></trkpt>
<trkpt lat="46.49805" lon="6.70664"><ele>504.6</ele><time>2023-06-07T17:02:02Z</time></trkpt>
<trkpt lat="46.49808" lon="6.70671"><ele>504.8</ele><time>2023-06-07T17:02:04Z</time></trkpt>
<trkpt lat="46.49816" lon="6.70685"><ele>505.6</ele><time>2023-06-07T17:02:09Z</time></trkpt>
<trkpt lat="46.49827" lon="6.70702"><ele>506.6</ele><time>2023-06-07T17:02:15Z</time></trkpt>
<trkpt lat="46.49828" lon="6.70704"><ele>507</ele><time>2023-06-07T17:02:16Z</time></trkpt>
<trkpt lat="46.49837" lon="6.70713"><ele>507.8</ele><time>2023-06-07T17:02:20Z</time></trkpt>
<trkpt lat="46.4985" lon="6.70726"><ele>509</ele><time>2023-06-07T17:02:26Z</time></trkpt>
<trkpt lat="46.49854" lon="6.70732"><ele>509.2</ele><time>2023-06-07T17:02:28Z</time></trkpt>
<trkpt lat="46.49867" lon="6.7076"><ele>510</ele><time>2023-06-07T17:02:36Z</time></trkpt>
<trkpt lat="46.49875" lon="6.70796"><ele>511</ele><time>2023-06-07T17:02:44Z</time></trkpt>
<trkpt lat="46.49876" lon="6.70801"><ele>511.2</ele><time>2023-06-07T17:02:45Z</time></trkpt>
<trkpt lat="46.49881" lon="6.70834"><ele>512</ele><time>2023-06-07T17:02:52Z</time></trkpt>
<trkpt lat="46.49881" lon="6.70838"><ele>512.2</ele><time>2023-06-07T17:02:53Z</time></trkpt>
<trkpt lat="46.4988" lon="6.70859"><ele>513.2</ele><time>2023-06-07T17:02:58Z</time></trkpt>
<trkpt lat="46.49879" lon="6.70871"><ele>513.8</ele><time>2023-06-07T17:03:01Z</time></trkpt>
<trkpt lat="46.49877" lon="6.70885"><ele>514.2</ele><time>2023-06-07T17:03:04Z</time></trkpt>
<trkpt lat="46.4987" lon="6.70908"><ele>514.6</ele><time>2023-06-07T17:03:09Z</time></trkpt>
<trkpt lat="46.49858" lon="6.70941"><ele>515.2</ele><time>2023-06-07T17:03:16Z</time></trkpt>
<trkpt lat="46.49856" lon="6.70946"><ele>515.2</ele><time>2023-06-07T17:03:17Z</time></trkpt>
<trkpt lat="46.4984" lon="6.70987"><ele>516.2</ele><time>2023-06-07T17:03:25Z</time></trkpt>
<trkpt lat="46.49837" lon="6.70991"><ele>516.4</ele><time>2023-06-07T17:03:26Z</time></trkpt>
<trkpt lat="46.4983" lon="6.70996"><ele>516.4</ele><time>2023-06-07T17:03:28Z</time></trkpt>
<trkpt lat="46.49828" lon="6.70996"><ele>516.4</ele><time>2023-06-07T17:03:29Z</time></trkpt>
<trkpt lat="46.49826" lon="6.70997"><ele>516.4</ele><time>2023-06-07T17:03:30Z</time></trkpt>
<trkpt lat="46.49828" lon="6.71"><ele>516.4</ele><time>2023-06-07T17:03:33Z</time></trkpt>
<trkpt lat="46.49827" lon="6.71005"><ele>516.4</ele><time>2023-06-07T17:03:35Z</time></trkpt>
<trkpt lat="46.49823" lon="6.71011"><ele>516.6</ele><time>2023-06-07T17:03:37Z</time></trkpt>
<trkpt lat="46.49818" lon="6.71017"><ele>516.8</ele><time>2023-06-07T17:03:39Z</time></trkpt>
<trkpt lat="46.49804" lon="6.71031"><ele>517.4</ele><time>2023-06-07T17:03:44Z</time></trkpt>
<trkpt lat="46.498" lon="6.71032"><ele>517.4</ele><time>2023-06-07T17:03:45Z</time></trkpt>
<trkpt lat="46.49793" lon="6.71027"><ele>517.4</ele><time>2023-06-07T17:03:47Z</time></trkpt>
<trkpt lat="46.49788" lon="6.71014"><ele>517</ele><time>2023-06-07T17:03:49Z</time></trkpt>
<trkpt lat="46.49784" lon="6.71005"><ele>516.6</ele><time>2023-06-07T17:03:50Z</time></trkpt>
<trkpt lat="46.49781" lon="6.70996"><ele>516.2</ele><time>2023-06-07T17:03:51Z</time></trkpt>
<trkpt lat="46.49771" lon="6.70968"><ele>514.8</ele><time>2023-06-07T17:03:54Z</time></trkpt>
<trkpt lat="46.49767" lon="6.70962"><ele>514.4</ele><time>2023-06-07T17:03:55Z</time></trkpt>
<trkpt lat="46.49763" lon="6.70949"><ele>514</ele><time>2023-06-07T17:03:57Z</time></trkpt>
<trkpt lat="46.49761" lon="6.70937"><ele>514.4</ele><time>2023-06-07T17:03:59Z</time></trkpt>
<trkpt lat="46.49751" lon="6.70924"><ele>515</ele><time>2023-06-07T17:04:03Z</time></trkpt>
<trkpt lat="46.49736" lon="6.70926"><ele>515.6</ele><time>2023-06-07T17:04:08Z</time></trkpt>
<trkpt lat="46.49727" lon="6.70929"><ele>515.6</ele><time>2023-06-07T17:04:12Z</time></trkpt>
<trkpt lat="46.49727" lon="6.70927"><ele>515.8</ele><time>2023-06-07T17:04:14Z</time></trkpt>
<trkpt lat="46.49728" lon="6.70927"><ele>515.8</ele><time>2023-06-07T17:04:20Z</time></trkpt>
<trkpt lat="46.49728" lon="6.70928"><ele>515.8</ele><time>2023-06-07T17:04:30Z</time></trkpt>
<trkpt lat="46.49729" lon="6.70928"><ele>515.6</ele><time>2023-06-07T17:04:35Z</time></trkpt>
<trkpt lat="46.49729" lon="6.70928"><ele>515.6</ele><time>2023-06-07T17:04:39Z</time></trkpt>
<trkpt lat="46.49729" lon="6.70928"><ele>515.4</ele><time>2023-06-07T17:04:43Z</time></trkpt>
<trkpt lat="46.49729" lon="6.70928"><ele>515.6</ele><time>2023-06-07T17:04:47Z</time></trkpt>
<trkpt lat="46.49729" lon="6.70928"><ele>515.6</ele><time>2023-06-07T17:04:50Z</time></trkpt>
<trkpt lat="46.49729" lon="6.70928"><ele>515.4</ele><time>2023-06-07T17:04:57Z</time></trkpt>
<trkpt lat="46.49729" lon="6.70928"><ele>515.4</ele><time>2023-06-07T17:04:59Z</time></trkpt>
<trkpt lat="46.49729" lon="6.70929"><ele>515.6</ele><time>2023-06-07T17:05:09Z</time></trkpt>
<trkpt lat="46.49728" lon="6.70929"><ele>516</ele><time>2023-06-07T17:05:17Z</time></trkpt>
<trkpt lat="46.49728" lon="6.70929"><ele>516</ele><time>2023-06-07T17:05:18Z</time></trkpt>
<trkpt lat="46.49728" lon="6.70929"><ele>516</ele><time>2023-06-07T17:05:23Z</time></trkpt>
<trkpt lat="46.49728" lon="6.70928"><ele>516</ele><time>2023-06-07T17:05:28Z</time></trkpt>
<trkpt lat="46.49728" lon="6.70929"><ele>516</ele><time>2023-06-07T17:05:31Z</time></trkpt>
<trkpt lat="46.49728" lon="6.70929"><ele>516</ele><time>2023-06-07T17:05:32Z</time></trkpt>
<trkpt lat="46.49728" lon="6.70929"><ele>516</ele><time>2023-06-07T17:05:34Z</time></trkpt>
<trkpt lat="46.49724" lon="6.70931"><ele>516</ele><time>2023-06-07T17:05:37Z</time></trkpt>
<trkpt lat="46.4971" lon="6.70937"><ele>515.2</ele><time>2023-06-07T17:05:41Z</time></trkpt>
<trkpt lat="46.49695" lon="6.70945"><ele>514.8</ele><time>2023-06-07T17:05:44Z</time></trkpt>
<trkpt lat="46.4969" lon="6.70949"><ele>514.6</ele><time>2023-06-07T17:05:45Z</time></trkpt>
<trkpt lat="46.49685" lon="6.70954"><ele>514.2</ele><time>2023-06-07T17:05:46Z</time></trkpt>
<trkpt lat="46.4968" lon="6.70958"><ele>513.6</ele><time>2023-06-07T17:05:47Z</time></trkpt>
<trkpt lat="46.49672" lon="6.70965"><ele>512.8</ele><time>2023-06-07T17:05:49Z</time></trkpt>
<trkpt lat="46.49668" lon="6.7097"><ele>512.4</ele><time>2023-06-07T17:05:50Z</time></trkpt>
<trkpt lat="46.49665" lon="6.70976"><ele>512.2</ele><time>2023-06-07T17:05:51Z</time></trkpt>
<trkpt lat="46.49659" lon="6.70987"><ele>512</ele><time>2023-06-07T17:05:53Z</time></trkpt>
<trkpt lat="46.49655" lon="6.70995"><ele>512.2</ele><time>2023-06-07T17:05:55Z</time></trkpt>
<trkpt lat="46.49649" lon="6.71009"><ele>513.6</ele><time>2023-06-07T17:06:00Z</time></trkpt>
<trkpt lat="46.49648" lon="6.71029"><ele>514.8</ele><time>2023-06-07T17:06:06Z</time></trkpt>
<trkpt lat="46.49649" lon="6.71052"><ele>515.8</ele><time>2023-06-07T17:06:12Z</time></trkpt>
<trkpt lat="46.49649" lon="6.71055"><ele>516</ele><time>2023-06-07T17:06:13Z</time></trkpt>
<trkpt lat="46.49654" lon="6.71073"><ele>516.6</ele><time>2023-06-07T17:06:18Z</time></trkpt>
<trkpt lat="46.49657" lon="6.7108"><ele>516.8</ele><time>2023-06-07T17:06:20Z</time></trkpt>
<trkpt lat="46.49658" lon="6.71084"><ele>516.8</ele><time>2023-06-07T17:06:21Z</time></trkpt>
<trkpt lat="46.49662" lon="6.71115"><ele>517.2</ele><time>2023-06-07T17:06:28Z</time></trkpt>
<trkpt lat="46.49661" lon="6.71139"><ele>518</ele><time>2023-06-07T17:06:34Z</time></trkpt>
<trkpt lat="46.49661" lon="6.71145"><ele>518.4</ele><time>2023-06-07T17:06:36Z</time></trkpt>
<trkpt lat="46.49659" lon="6.71154"><ele>519.2</ele><time>2023-06-07T17:06:41Z</time></trkpt>
<trkpt lat="46.49659" lon="6.71155"><ele>519.4</ele><time>2023-06-07T17:06:42Z</time></trkpt>
<trkpt lat="46.49655" lon="6.71164"><ele>520.4</ele><time>2023-06-07T17:06:46Z</time></trkpt>
<trkpt lat="46.4965" lon="6.71169"><ele>520.6</ele><time>2023-06-07T17:06:48Z</time></trkpt>
<trkpt lat="46.4964" lon="6.71176"><ele>520.2</ele><time>2023-06-07T17:06:51Z</time></trkpt>
<trkpt lat="46.49632" lon="6.71179"><ele>519.8</ele><time>2023-06-07T17:06:53Z</time></trkpt>
<trkpt lat="46.49628" lon="6.71179"><ele>519.6</ele><time>2023-06-07T17:06:54Z</time></trkpt>
<trkpt lat="46.49614" lon="6.71182"><ele>519.8</ele><time>2023-06-07T17:06:59Z</time></trkpt>
<trkpt lat="46.49599" lon="6.71188"><ele>521.6</ele><time>2023-06-07T17:07:07Z</time></trkpt>
<trkpt lat="46.49591" lon="6.7119"><ele>522.6</ele><time>2023-06-07T17:07:13Z</time></trkpt>
<trkpt lat="46.49585" lon="6.71193"><ele>523.6</ele><time>2023-06-07T17:07:18Z</time></trkpt>
<trkpt lat="46.49581" lon="6.71195"><ele>524.4</ele><time>2023-06-07T17:07:22Z</time></trkpt>
<trkpt lat="46.49577" lon="6.71196"><ele>524.8</ele><time>2023-06-07T17:07:25Z</time></trkpt>
<trkpt lat="46.49571" lon="6.71198"><ele>525.8</ele><time>2023-06-07T17:07:30Z</time></trkpt>
<trkpt lat="46.49564" lon="6.712"><ele>527</ele><time>2023-06-07T17:07:36Z</time></trkpt>
<trkpt lat="46.49561" lon="6.71203"><ele>527.4</ele><time>2023-06-07T17:07:39Z</time></trkpt>
<trkpt lat="46.49558" lon="6.71207"><ele>528</ele><time>2023-06-07T17:07:42Z</time></trkpt>
<trkpt lat="46.49553" lon="6.71211"><ele>528.6</ele><time>2023-06-07T17:07:46Z</time></trkpt>
<trkpt lat="46.4955" lon="6.71213"><ele>529</ele><time>2023-06-07T17:07:48Z</time></trkpt>
<trkpt lat="46.49544" lon="6.71222"><ele>530</ele><time>2023-06-07T17:07:54Z</time></trkpt>
<trkpt lat="46.49543" lon="6.71224"><ele>530.2</ele><time>2023-06-07T17:07:55Z</time></trkpt>
<trkpt lat="46.49534" lon="6.71236"><ele>531.2</ele><time>2023-06-07T17:08:04Z</time></trkpt>
<trkpt lat="46.49525" lon="6.71248"><ele>532.2</ele><time>2023-06-07T17:08:12Z</time></trkpt>
<trkpt lat="46.49522" lon="6.71253"><ele>532.6</ele><time>2023-06-07T17:08:15Z</time></trkpt>
<trkpt lat="46.49518" lon="6.71258"><ele>533.2</ele><time>2023-06-07T17:08:19Z</time></trkpt>
<trkpt lat="46.49513" lon="6.71265"><ele>534</ele><time>2023-06-07T17:08:23Z</time></trkpt>
<trkpt lat="46.49512" lon="6.71268"><ele>534.2</ele><time>2023-06-07T17:08:25Z</time></trkpt>
<trkpt lat="46.49508" lon="6.71278"><ele>535.4</ele><time>2023-06-07T17:08:30Z</time></trkpt>
<trkpt lat="46.49508" lon="6.71285"><ele>536</ele><time>2023-06-07T17:08:33Z</time></trkpt>
<trkpt lat="46.49507" lon="6.71295"><ele>536.4</ele><time>2023-06-07T17:08:37Z</time></trkpt>
<trkpt lat="46.49507" lon="6.71307"><ele>536.8</ele><time>2023-06-07T17:08:41Z</time></trkpt>
<trkpt lat="46.49507" lon="6.71321"><ele>537.6</ele><time>2023-06-07T17:08:46Z</time></trkpt>
<trkpt lat="46.49509" lon="6.71336"><ele>538.2</ele><time>2023-06-07T17:08:51Z</time></trkpt>
<trkpt lat="46.49509" lon="6.71345"><ele>538.6</ele><time>2023-06-07T17:08:54Z</time></trkpt>
<trkpt lat="46.4951" lon="6.71364"><ele>539.4</ele><time>2023-06-07T17:09:01Z</time></trkpt>
<trkpt lat="46.4951" lon="6.7137"><ele>539.8</ele><time>2023-06-07T17:09:03Z</time></trkpt>
<trkpt lat="46.49511" lon="6.71389"><ele>540.8</ele><time>2023-06-07T17:09:10Z</time></trkpt>
<trkpt lat="46.49512" lon="6.71394"><ele>541.2</ele><time>2023-06-07T17:09:12Z</time></trkpt>
<trkpt lat="46.49513" lon="6.71409"><ele>541.8</ele><time>2023-06-07T17:09:17Z</time></trkpt>
<trkpt lat="46.49514" lon="6.71423"><ele>542.6</ele><time>2023-06-07T17:09:22Z</time></trkpt>
<trkpt lat="46.49514" lon="6.71429"><ele>543</ele><time>2023-06-07T17:09:24Z</time></trkpt>
<trkpt lat="46.49515" lon="6.71452"><ele>544.2</ele><time>2023-06-07T17:09:32Z</time></trkpt>
<trkpt lat="46.49514" lon="6.71459"><ele>544.6</ele><time>2023-06-07T17:09:34Z</time></trkpt>
<trkpt lat="46.49513" lon="6.71475"><ele>545.2</ele><time>2023-06-07T17:09:39Z</time></trkpt>
<trkpt lat="46.49511" lon="6.71481"><ele>545.2</ele><time>2023-06-07T17:09:41Z</time></trkpt>
<trkpt lat="46.495" lon="6.71493"><ele>545.2</ele><time>2023-06-07T17:09:45Z</time></trkpt>
<trkpt lat="46.4948" lon="6.71511"><ele>544</ele><time>2023-06-07T17:09:49Z</time></trkpt>
<trkpt lat="46.4947" lon="6.71524"><ele>542.6</ele><time>2023-06-07T17:09:51Z</time></trkpt>
<trkpt lat="46.4946" lon="6.71537"><ele>541.6</ele><time>2023-06-07T17:09:53Z</time></trkpt>
<trkpt lat="46.49455" lon="6.71543"><ele>541.2</ele><time>2023-06-07T17:09:54Z</time></trkpt>
<trkpt lat="46.49451" lon="6.71549"><ele>540.4</ele><time>2023-06-07T17:09:55Z</time></trkpt>
<trkpt lat="46.49448" lon="6.71555"><ele>539.8</ele><time>2023-06-07T17:09:56Z</time></trkpt>
<trkpt lat="46.49441" lon="6.71568"><ele>539.2</ele><time>2023-06-07T17:09:58Z</time></trkpt>
<trkpt lat="46.49437" lon="6.71572"><ele>539.2</ele><time>2023-06-07T17:09:59Z</time></trkpt>
<trkpt lat="46.49422" lon="6.71584"><ele>539</ele><time>2023-06-07T17:10:03Z</time></trkpt>
<trkpt lat="46.49418" lon="6.71584"><ele>539</ele><time>2023-06-07T17:10:04Z</time></trkpt>
<trkpt lat="46.49406" lon="6.71586"><ele>538.8</ele><time>2023-06-07T17:10:07Z</time></trkpt>
<trkpt lat="46.49398" lon="6.71591"><ele>538.6</ele><time>2023-06-07T17:10:09Z</time></trkpt>
<trkpt lat="46.49386" lon="6.71601"><ele>538.6</ele><time>2023-06-07T17:10:12Z</time></trkpt>
<trkpt lat="46.49378" lon="6.7161"><ele>538.6</ele><time>2023-06-07T17:10:14Z</time></trkpt>
<trkpt lat="46.49355" lon="6.71637"><ele>538.8</ele><time>2023-06-07T17:10:19Z</time></trkpt>
<trkpt lat="46.49352" lon="6.71642"><ele>538.8</ele><time>2023-06-07T17:10:20Z</time></trkpt>
<trkpt lat="46.4935" lon="6.71647"><ele>538.8</ele><time>2023-06-07T17:10:21Z</time></trkpt>
<trkpt lat="46.49355" lon="6.71658"><ele>538.6</ele><time>2023-06-07T17:10:23Z</time></trkpt>
<trkpt lat="46.49369" lon="6.71674"><ele>538</ele><time>2023-06-07T17:10:26Z</time></trkpt>
<trkpt lat="46.49374" lon="6.71678"><ele>537.8</ele><time>2023-06-07T17:10:27Z</time></trkpt>
<trkpt lat="46.49378" lon="6.71685"><ele>537.6</ele><time>2023-06-07T17:10:28Z</time></trkpt>
<trkpt lat="46.4938" lon="6.71701"><ele>537.2</ele><time>2023-06-07T17:10:30Z</time></trkpt>
<trkpt lat="46.4938" lon="6.71735"><ele>537.2</ele><time>2023-06-07T17:10:35Z</time></trkpt>
<trkpt lat="46.49376" lon="6.71779"><ele>537.4</ele><time>2023-06-07T17:10:41Z</time></trkpt>
<trkpt lat="46.49377" lon="6.71788"><ele>537.2</ele><time>2023-06-07T17:10:42Z</time></trkpt>
<trkpt lat="46.49377" lon="6.71798"><ele>536.8</ele><time>2023-06-07T17:10:43Z</time></trkpt>
<trkpt lat="46.49378" lon="6.71824"><ele>535</ele><time>2023-06-07T17:10:46Z</time></trkpt>
<trkpt lat="46.49378" lon="6.71855"><ele>533.8</ele><time>2023-06-07T17:10:50Z</time></trkpt>
<trkpt lat="46.49377" lon="6.71863"><ele>533.8</ele><time>2023-06-07T17:10:51Z</time></trkpt>
<trkpt lat="46.49375" lon="6.71913"><ele>533</ele><time>2023-06-07T17:10:57Z</time></trkpt>
<trkpt lat="46.49375" lon="6.71927"><ele>533</ele><time>2023-06-07T17:10:59Z</time></trkpt>
<trkpt lat="46.49376" lon="6.71934"><ele>532.8</ele><time>2023-06-07T17:11:00Z</time></trkpt>
<trkpt lat="46.4938" lon="6.71952"><ele>533</ele><time>2023-06-07T17:11:03Z</time></trkpt>
<trkpt lat="46.49382" lon="6.71958"><ele>533.2</ele><time>2023-06-07T17:11:04Z</time></trkpt>
<trkpt lat="46.49389" lon="6.71977"><ele>534</ele><time>2023-06-07T17:11:08Z</time></trkpt>
<trkpt lat="46.49391" lon="6.71981"><ele>534.6</ele><time>2023-06-07T17:11:09Z</time></trkpt>
<trkpt lat="46.49394" lon="6.71988"><ele>535.2</ele><time>2023-06-07T17:11:11Z</time></trkpt>
<trkpt lat="46.49401" lon="6.72006"><ele>536.2</ele><time>2023-06-07T17:11:16Z</time></trkpt>
<trkpt lat="46.49402" lon="6.7201"><ele>536.6</ele><time>2023-06-07T17:11:17Z</time></trkpt>
<trkpt lat="46.49403" lon="6.7202"><ele>537.2</ele><time>2023-06-07T17:11:20Z</time></trkpt>
<trkpt lat="46.49403" lon="6.72024"><ele>537.4</ele><time>2023-06-07T17:11:21Z</time></trkpt>
<trkpt lat="46.49402" lon="6.72035"><ele>538</ele><time>2023-06-07T17:11:24Z</time></trkpt>
<trkpt lat="46.49401" lon="6.72046"><ele>538.6</ele><time>2023-06-07T17:11:27Z</time></trkpt>
<trkpt lat="46.49402" lon="6.72057"><ele>538.8</ele><time>2023-06-07T17:11:30Z</time></trkpt>
<trkpt lat="46.49404" lon="6.72067"><ele>539.4</ele><time>2023-06-07T17:11:33Z</time></trkpt>
<trkpt lat="46.49408" lon="6.72073"><ele>539.6</ele><time>2023-06-07T17:11:35Z</time></trkpt>
<trkpt lat="46.4941" lon="6.7209"><ele>539.8</ele><time>2023-06-07T17:11:38Z</time></trkpt>
<trkpt lat="46.49413" lon="6.72135"><ele>538.6</ele><time>2023-06-07T17:11:44Z</time></trkpt>
<trkpt lat="46.49413" lon="6.72144"><ele>538.6</ele><time>2023-06-07T17:11:45Z</time></trkpt>
<trkpt lat="46.49416" lon="6.72195"><ele>537.4</ele><time>2023-06-07T17:11:50Z</time></trkpt>
<trkpt lat="46.49417" lon="6.72216"><ele>536.6</ele><time>2023-06-07T17:11:52Z</time></trkpt>
<trkpt lat="46.4942" lon="6.72276"><ele>537.2</ele><time>2023-06-07T17:11:58Z</time></trkpt>
<trkpt lat="46.49425" lon="6.72361"><ele>537.2</ele><time>2023-06-07T17:12:07Z</time></trkpt>
<trkpt lat="46.49428" lon="6.72441"><ele>537.8</ele><time>2023-06-07T17:12:16Z</time></trkpt>
<trkpt lat="46.49429" lon="6.72448"><ele>538</ele><time>2023-06-07T17:12:17Z</time></trkpt>
<trkpt lat="46.4943" lon="6.72477"><ele>538.6</ele><time>2023-06-07T17:12:21Z</time></trkpt>
<trkpt lat="46.49432" lon="6.72502"><ele>539</ele><time>2023-06-07T17:12:25Z</time></trkpt>
<trkpt lat="46.49433" lon="6.72521"><ele>539.6</ele><time>2023-06-07T17:12:28Z</time></trkpt>
<trkpt lat="46.4944" lon="6.72541"><ele>540.2</ele><time>2023-06-07T17:12:32Z</time></trkpt>
<trkpt lat="46.49447" lon="6.72555"><ele>540.8</ele><time>2023-06-07T17:12:35Z</time></trkpt>
<trkpt lat="46.49455" lon="6.72568"><ele>541</ele><time>2023-06-07T17:12:38Z</time></trkpt>
<trkpt lat="46.49458" lon="6.72573"><ele>541.2</ele><time>2023-06-07T17:12:39Z</time></trkpt>
<trkpt lat="46.49462" lon="6.72586"><ele>541.2</ele><time>2023-06-07T17:12:41Z</time></trkpt>
<trkpt lat="46.49464" lon="6.72598"><ele>541.2</ele><time>2023-06-07T17:12:43Z</time></trkpt>
<trkpt lat="46.49462" lon="6.7262"><ele>541</ele><time>2023-06-07T17:12:46Z</time></trkpt>
<trkpt lat="46.49459" lon="6.72636"><ele>540.6</ele><time>2023-06-07T17:12:48Z</time></trkpt>
<trkpt lat="46.49453" lon="6.72651"><ele>540.2</ele><time>2023-06-07T17:12:50Z</time></trkpt>
<trkpt lat="46.49442" lon="6.72663"><ele>539.6</ele><time>2023-06-07T17:12:52Z</time></trkpt>
<trkpt lat="46.49423" lon="6.72679"><ele>538.6</ele><time>2023-06-07T17:12:55Z</time></trkpt>
<trkpt lat="46.49409" lon="6.72688"><ele>538</ele><time>2023-06-07T17:12:57Z</time></trkpt>
<trkpt lat="46.49393" lon="6.72699"><ele>537.4</ele><time>2023-06-07T17:12:59Z</time></trkpt>
<trkpt lat="46.49378" lon="6.7271"><ele>536</ele><time>2023-06-07T17:13:01Z</time></trkpt>
<trkpt lat="46.49361" lon="6.72722"><ele>534.6</ele><time>2023-06-07T17:13:03Z</time></trkpt>
<trkpt lat="46.49353" lon="6.72728"><ele>533.8</ele><time>2023-06-07T17:13:04Z</time></trkpt>
<trkpt lat="46.49344" lon="6.72735"><ele>533.4</ele><time>2023-06-07T17:13:05Z</time></trkpt>
<trkpt lat="46.49326" lon="6.72748"><ele>532.2</ele><time>2023-06-07T17:13:07Z</time></trkpt>
<trkpt lat="46.49307" lon="6.72761"><ele>530.8</ele><time>2023-06-07T17:13:09Z</time></trkpt>
<trkpt lat="46.49287" lon="6.72775"><ele>529.6</ele><time>2023-06-07T17:13:11Z</time></trkpt>
<trkpt lat="46.49267" lon="6.72788"><ele>528</ele><time>2023-06-07T17:13:13Z</time></trkpt>
<trkpt lat="46.49258" lon="6.72797"><ele>527</ele><time>2023-06-07T17:13:14Z</time></trkpt>
<trkpt lat="46.4925" lon="6.72808"><ele>526</ele><time>2023-06-07T17:13:15Z</time></trkpt>
<trkpt lat="46.49244" lon="6.7282"><ele>524.8</ele><time>2023-06-07T17:13:16Z</time></trkpt>
<trkpt lat="46.49238" lon="6.72848"><ele>523.4</ele><time>2023-06-07T17:13:18Z</time></trkpt>
<trkpt lat="46.49242" lon="6.72877"><ele>522.4</ele><time>2023-06-07T17:13:20Z</time></trkpt>
<trkpt lat="46.49249" lon="6.72905"><ele>521.2</ele><time>2023-06-07T17:13:22Z</time></trkpt>
<trkpt lat="46.49258" lon="6.72935"><ele>519.8</ele><time>2023-06-07T17:13:24Z</time></trkpt>
<trkpt lat="46.49265" lon="6.72965"><ele>518.4</ele><time>2023-06-07T17:13:26Z</time></trkpt>
<trkpt lat="46.49273" lon="6.72996"><ele>517</ele><time>2023-06-07T17:13:28Z</time></trkpt>
<trkpt lat="46.49275" lon="6.73013"><ele>516</ele><time>2023-06-07T17:13:29Z</time></trkpt>
<trkpt lat="46.49276" lon="6.7303"><ele>515.4</ele><time>2023-06-07T17:13:30Z</time></trkpt>
<trkpt lat="46.49275" lon="6.73047"><ele>514.8</ele><time>2023-06-07T17:13:31Z</time></trkpt>
<trkpt lat="46.4927" lon="6.7308"><ele>512.6</ele><time>2023-06-07T17:13:33Z</time></trkpt>
<trkpt lat="46.49268" lon="6.73096"><ele>511.4</ele><time>2023-06-07T17:13:34Z</time></trkpt>
<trkpt lat="46.49267" lon="6.73113"><ele>510.6</ele><time>2023-06-07T17:13:35Z</time></trkpt>
<trkpt lat="46.49268" lon="6.73129"><ele>510</ele><time>2023-06-07T17:13:36Z</time></trkpt>
<trkpt lat="46.4927" lon="6.73146"><ele>509.8</ele><time>2023-06-07T17:13:37Z</time></trkpt>
<trkpt lat="46.49279" lon="6.73177"><ele>509</ele><time>2023-06-07T17:13:39Z</time></trkpt>
<trkpt lat="46.49283" lon="6.73193"><ele>508</ele><time>2023-06-07T17:13:40Z</time></trkpt>
<trkpt lat="46.49288" lon="6.73209"><ele>507.2</ele><time>2023-06-07T17:13:41Z</time></trkpt>
<trkpt lat="46.49297" lon="6.73241"><ele>505.8</ele><time>2023-06-07T17:13:43Z</time></trkpt>
<trkpt lat="46.49301" lon="6.73257"><ele>504</ele><time>2023-06-07T17:13:44Z</time></trkpt>
<trkpt lat="46.49306" lon="6.73272"><ele>502.6</ele><time>2023-06-07T17:13:45Z</time></trkpt>
<trkpt lat="46.49314" lon="6.73304"><ele>501</ele><time>2023-06-07T17:13:47Z</time></trkpt>
<trkpt lat="46.49319" lon="6.7332"><ele>500</ele><time>2023-06-07T17:13:48Z</time></trkpt>
<trkpt lat="46.49326" lon="6.73333"><ele>499.2</ele><time>2023-06-07T17:13:49Z</time></trkpt>
<trkpt lat="46.49335" lon="6.73344"><ele>498.4</ele><time>2023-06-07T17:13:50Z</time></trkpt>
<trkpt lat="46.49344" lon="6.73353"><ele>497.2</ele><time>2023-06-07T17:13:51Z</time></trkpt>
<trkpt lat="46.49354" lon="6.7336"><ele>496.4</ele><time>2023-06-07T17:13:52Z</time></trkpt>
<trkpt lat="46.49364" lon="6.73366"><ele>495.6</ele><time>2023-06-07T17:13:53Z</time></trkpt>
<trkpt lat="46.49372" lon="6.73375"><ele>494.6</ele><time>2023-06-07T17:13:54Z</time></trkpt>
<trkpt lat="46.49378" lon="6.73386"><ele>493.8</ele><time>2023-06-07T17:13:55Z</time></trkpt>
<trkpt lat="46.4938" lon="6.73397"><ele>493.4</ele><time>2023-06-07T17:13:56Z</time></trkpt>
<trkpt lat="46.4938" lon="6.73407"><ele>493</ele><time>2023-06-07T17:13:57Z</time></trkpt>
<trkpt lat="46.49376" lon="6.73413"><ele>492.8</ele><time>2023-06-07T17:13:58Z</time></trkpt>
<trkpt lat="46.49371" lon="6.73416"><ele>492.2</ele><time>2023-06-07T17:13:59Z</time></trkpt>
<trkpt lat="46.49366" lon="6.73422"><ele>491.8</ele><time>2023-06-07T17:14:00Z</time></trkpt>
<trkpt lat="46.49363" lon="6.73437"><ele>491.2</ele><time>2023-06-07T17:14:02Z</time></trkpt>
<trkpt lat="46.49362" lon="6.73442"><ele>491</ele><time>2023-06-07T17:14:03Z</time></trkpt>
<trkpt lat="46.49358" lon="6.73451"><ele>491</ele><time>2023-06-07T17:14:05Z</time></trkpt>
<trkpt lat="46.49346" lon="6.73471"><ele>491.8</ele><time>2023-06-07T17:14:11Z</time></trkpt>
<trkpt lat="46.49343" lon="6.73478"><ele>492.2</ele><time>2023-06-07T17:14:13Z</time></trkpt>
<trkpt lat="46.49337" lon="6.73498"><ele>493.2</ele><time>2023-06-07T17:14:18Z</time></trkpt>
<trkpt lat="46.49337" lon="6.73503"><ele>493.2</ele><time>2023-06-07T17:14:19Z</time></trkpt>
<trkpt lat="46.49336" lon="6.73518"><ele>493.6</ele><time>2023-06-07T17:14:23Z</time></trkpt>
<trkpt lat="46.49336" lon="6.73531"><ele>494</ele><time>2023-06-07T17:14:26Z</time></trkpt>
<trkpt lat="46.49337" lon="6.73543"><ele>494.4</ele><time>2023-06-07T17:14:29Z</time></trkpt>
<trkpt lat="46.49337" lon="6.73557"><ele>495.2</ele><time>2023-06-07T17:14:32Z</time></trkpt>
<trkpt lat="46.49338" lon="6.73566"><ele>495.6</ele><time>2023-06-07T17:14:34Z</time></trkpt>
<trkpt lat="46.49337" lon="6.73591"><ele>496.4</ele><time>2023-06-07T17:14:39Z</time></trkpt>
<trkpt lat="46.49337" lon="6.73596"><ele>496.6</ele><time>2023-06-07T17:14:40Z</time></trkpt>
<trkpt lat="46.49335" lon="6.73632"><ele>496.2</ele><time>2023-06-07T17:14:45Z</time></trkpt>
<trkpt lat="46.49334" lon="6.73666"><ele>495.6</ele><time>2023-06-07T17:14:49Z</time></trkpt>
<trkpt lat="46.49334" lon="6.73674"><ele>495.8</ele><time>2023-06-07T17:14:50Z</time></trkpt>
<trkpt lat="46.49333" lon="6.73692"><ele>495.8</ele><time>2023-06-07T17:14:52Z</time></trkpt>
<trkpt lat="46.49329" lon="6.73725"><ele>496.2</ele><time>2023-06-07T17:14:56Z</time></trkpt>
<trkpt lat="46.49325" lon="6.73741"><ele>496.4</ele><time>2023-06-07T17:14:58Z</time></trkpt>
<trkpt lat="46.49308" lon="6.73792"><ele>497</ele><time>2023-06-07T17:15:05Z</time></trkpt>
<trkpt lat="46.49293" lon="6.73832"><ele>497.6</ele><time>2023-06-07T17:15:11Z</time></trkpt>
<trkpt lat="46.49291" lon="6.73839"><ele>497.6</ele><time>2023-06-07T17:15:12Z</time></trkpt>
<trkpt lat="46.49284" lon="6.73868"><ele>498.2</ele><time>2023-06-07T17:15:16Z</time></trkpt>
<trkpt lat="46.49281" lon="6.73889"><ele>498.6</ele><time>2023-06-07T17:15:19Z</time></trkpt>
<trkpt lat="46.4928" lon="6.73895"><ele>498.8</ele><time>2023-06-07T17:15:20Z</time></trkpt>
<trkpt lat="46.4928" lon="6.73927"><ele>500</ele><time>2023-06-07T17:15:25Z</time></trkpt>
<trkpt lat="46.4928" lon="6.73933"><ele>500.2</ele><time>2023-06-07T17:15:26Z</time></trkpt>
<trkpt lat="46.49281" lon="6.73956"><ele>501</ele><time>2023-06-07T17:15:30Z</time></trkpt>
<trkpt lat="46.49282" lon="6.73977"><ele>501.8</ele><time>2023-06-07T17:15:34Z</time></trkpt>
<trkpt lat="46.49284" lon="6.73999"><ele>502.2</ele><time>2023-06-07T17:15:38Z</time></trkpt>
<trkpt lat="46.49284" lon="6.74028"><ele>503</ele><time>2023-06-07T17:15:43Z</time></trkpt>
<trkpt lat="46.49284" lon="6.74039"><ele>503.2</ele><time>2023-06-07T17:15:45Z</time></trkpt>
<trkpt lat="46.49279" lon="6.74072"><ele>504.2</ele><time>2023-06-07T17:15:51Z</time></trkpt>
<trkpt lat="46.49277" lon="6.74077"><ele>504.2</ele><time>2023-06-07T17:15:52Z</time></trkpt>
<trkpt lat="46.49269" lon="6.74112"><ele>505.4</ele><time>2023-06-07T17:15:59Z</time></trkpt>
<trkpt lat="46.49264" lon="6.74139"><ele>506.2</ele><time>2023-06-07T17:16:04Z</time></trkpt>
<trkpt lat="46.49261" lon="6.74149"><ele>506.4</ele><time>2023-06-07T17:16:06Z</time></trkpt>
<trkpt lat="46.49254" lon="6.74195"><ele>507.4</ele><time>2023-06-07T17:16:15Z</time></trkpt>
<trkpt lat="46.49253" lon="6.742"><ele>507.6</ele><time>2023-06-07T17:16:16Z</time></trkpt>
<trkpt lat="46.49251" lon="6.74215"><ele>508.4</ele><time>2023-06-07T17:16:20Z</time></trkpt>
<trkpt lat="46.49251" lon="6.74219"><ele>508.6</ele><time>2023-06-07T17:16:21Z</time></trkpt>
<trkpt lat="46.49255" lon="6.74239"><ele>509.4</ele><time>2023-06-07T17:16:28Z</time></trkpt>
<trkpt lat="46.49258" lon="6.74253"><ele>509.8</ele><time>2023-06-07T17:16:33Z</time></trkpt>
<trkpt lat="46.49259" lon="6.74262"><ele>510</ele><time>2023-06-07T17:16:36Z</time></trkpt>
<trkpt lat="46.49258" lon="6.74289"><ele>510.2</ele><time>2023-06-07T17:16:45Z</time></trkpt>
<trkpt lat="46.49255" lon="6.74299"><ele>510.6</ele><time>2023-06-07T17:16:49Z</time></trkpt>
<trkpt lat="46.49253" lon="6.74307"><ele>510.6</ele><time>2023-06-07T17:16:51Z</time></trkpt>
<trkpt lat="46.49251" lon="6.74316"><ele>510.6</ele><time>2023-06-07T17:16:53Z</time></trkpt>
<trkpt lat="46.49247" lon="6.74325"><ele>511</ele><time>2023-06-07T17:16:55Z</time></trkpt>
<trkpt lat="46.49246" lon="6.74328"><ele>511.2</ele><time>2023-06-07T17:16:56Z</time></trkpt>
<trkpt lat="46.49236" lon="6.74349"><ele>512</ele><time>2023-06-07T17:17:01Z</time></trkpt>
<trkpt lat="46.49233" lon="6.74357"><ele>512.2</ele><time>2023-06-07T17:17:03Z</time></trkpt>
<trkpt lat="46.49231" lon="6.7438"><ele>512.8</ele><time>2023-06-07T17:17:07Z</time></trkpt>
<trkpt lat="46.49233" lon="6.7442"><ele>512.2</ele><time>2023-06-07T17:17:13Z</time></trkpt>
<trkpt lat="46.49235" lon="6.74428"><ele>512.2</ele><time>2023-06-07T17:17:14Z</time></trkpt>
<trkpt lat="46.49237" lon="6.74434"><ele>512</ele><time>2023-06-07T17:17:15Z</time></trkpt>
<trkpt lat="46.49244" lon="6.74448"><ele>511.8</ele><time>2023-06-07T17:17:17Z</time></trkpt>
<trkpt lat="46.49248" lon="6.74455"><ele>511.6</ele><time>2023-06-07T17:17:18Z</time></trkpt>
<trkpt lat="46.49254" lon="6.74469"><ele>511</ele><time>2023-06-07T17:17:20Z</time></trkpt>
<trkpt lat="46.49255" lon="6.74477"><ele>511</ele><time>2023-06-07T17:17:21Z</time></trkpt>
<trkpt lat="46.49255" lon="6.74485"><ele>511</ele><time>2023-06-07T17:17:22Z</time></trkpt>
<trkpt lat="46.49252" lon="6.74499"><ele>510.8</ele><time>2023-06-07T17:17:24Z</time></trkpt>
<trkpt lat="46.49247" lon="6.7451"><ele>511</ele><time>2023-06-07T17:17:26Z</time></trkpt>
<trkpt lat="46.49239" lon="6.74523"><ele>512</ele><time>2023-06-07T17:17:30Z</time></trkpt>
<trkpt lat="46.49236" lon="6.74526"><ele>512.6</ele><time>2023-06-07T17:17:31Z</time></trkpt>
<trkpt lat="46.49226" lon="6.74535"><ele>513.2</ele><time>2023-06-07T17:17:34Z</time></trkpt>
<trkpt lat="46.49218" lon="6.74542"><ele>513.2</ele><time>2023-06-07T17:17:36Z</time></trkpt>
<trkpt lat="46.49206" lon="6.74557"><ele>512.8</ele><time>2023-06-07T17:17:39Z</time></trkpt>
<trkpt lat="46.492" lon="6.74569"><ele>512.4</ele><time>2023-06-07T17:17:41Z</time></trkpt>
<trkpt lat="46.49196" lon="6.74584"><ele>512</ele><time>2023-06-07T17:17:43Z</time></trkpt>
<trkpt lat="46.49194" lon="6.746"><ele>511</ele><time>2023-06-07T17:17:45Z</time></trkpt>
<trkpt lat="46.49192" lon="6.74616"><ele>510</ele><time>2023-06-07T17:17:47Z</time></trkpt>
<trkpt lat="46.49189" lon="6.74642"><ele>509</ele><time>2023-06-07T17:17:50Z</time></trkpt>
<trkpt lat="46.49187" lon="6.74659"><ele>508.2</ele><time>2023-06-07T17:17:52Z</time></trkpt>
<trkpt lat="46.49184" lon="6.74677"><ele>507.8</ele><time>2023-06-07T17:17:54Z</time></trkpt>
<trkpt lat="46.49177" lon="6.74702"><ele>507.4</ele><time>2023-06-07T17:17:57Z</time></trkpt>
<trkpt lat="46.49174" lon="6.74709"><ele>507.8</ele><time>2023-06-07T17:17:58Z</time></trkpt>
<trkpt lat="46.49168" lon="6.74729"><ele>508.4</ele><time>2023-06-07T17:18:02Z</time></trkpt>
<trkpt lat="46.49165" lon="6.74738"><ele>508.4</ele><time>2023-06-07T17:18:05Z</time></trkpt>
<trkpt lat="46.49163" lon="6.74743"><ele>508.4</ele><time>2023-06-07T17:18:07Z</time></trkpt>
<trkpt lat="46.49163" lon="6.74744"><ele>508.6</ele><time>2023-06-07T17:18:08Z</time></trkpt>
<trkpt lat="46.49162" lon="6.74747"><ele>508.6</ele><time>2023-06-07T17:18:10Z</time></trkpt>
<trkpt lat="46.49162" lon="6.74746"><ele>508.8</ele><time>2023-06-07T17:18:13Z</time></trkpt>
<trkpt lat="46.49163" lon="6.74747"><ele>508.6</ele><time>2023-06-07T17:18:23Z</time></trkpt>
<trkpt lat="46.49163" lon="6.74747"><ele>508.6</ele><time>2023-06-07T17:18:31Z</time></trkpt>
<trkpt lat="46.49162" lon="6.74748"><ele>508.4</ele><time>2023-06-07T17:18:38Z</time></trkpt>
<trkpt lat="46.49162" lon="6.74748"><ele>508.6</ele><time>2023-06-07T17:18:41Z</time></trkpt>
<trkpt lat="46.4916" lon="6.74753"><ele>508.6</ele><time>2023-06-07T17:18:46Z</time></trkpt>
<trkpt lat="46.49156" lon="6.74761"><ele>508.6</ele><time>2023-06-07T17:18:48Z</time></trkpt>
<trkpt lat="46.4915" lon="6.7477"><ele>508.8</ele><time>2023-06-07T17:18:50Z</time></trkpt>
<trkpt lat="46.4913" lon="6.74801"><ele>508.8</ele><time>2023-06-07T17:18:55Z</time></trkpt>
<trkpt lat="46.49122" lon="6.74816"><ele>508.6</ele><time>2023-06-07T17:18:57Z</time></trkpt>
<trkpt lat="46.49115" lon="6.74827"><ele>508.8</ele><time>2023-06-07T17:18:59Z</time></trkpt>
<trkpt lat="46.49106" lon="6.74836"><ele>509.8</ele><time>2023-06-07T17:19:01Z</time></trkpt>
<trkpt lat="46.49092" lon="6.74852"><ele>510.6</ele><time>2023-06-07T17:19:04Z</time></trkpt>
<trkpt lat="46.49087" lon="6.74854"><ele>510.8</ele><time>2023-06-07T17:19:05Z</time></trkpt>
<trkpt lat="46.49082" lon="6.74856"><ele>511</ele><time>2023-06-07T17:19:06Z</time></trkpt>
<trkpt lat="46.49068" lon="6.74864"><ele>511.8</ele><time>2023-06-07T17:19:09Z</time></trkpt>
<trkpt lat="46.49061" lon="6.74868"><ele>512.2</ele><time>2023-06-07T17:19:11Z</time></trkpt>
<trkpt lat="46.49057" lon="6.74869"><ele>512.6</ele><time>2023-06-07T17:19:12Z</time></trkpt>
<trkpt lat="46.49051" lon="6.74871"><ele>513.4</ele><time>2023-06-07T17:19:14Z</time></trkpt>
<trkpt lat="46.49044" lon="6.74874"><ele>514</ele><time>2023-06-07T17:19:16Z</time></trkpt>
<trkpt lat="46.49041" lon="6.74878"><ele>514.2</ele><time>2023-06-07T17:19:17Z</time></trkpt>
<trkpt lat="46.49035" lon="6.74887"><ele>514.4</ele><time>2023-06-07T17:19:19Z</time></trkpt>
<trkpt lat="46.49026" lon="6.74902"><ele>514.6</ele><time>2023-06-07T17:19:22Z</time></trkpt>
<trkpt lat="46.49021" lon="6.74919"><ele>514.6</ele><time>2023-06-07T17:19:25Z</time></trkpt>
<trkpt lat="46.49018" lon="6.74933"><ele>514.6</ele><time>2023-06-07T17:19:27Z</time></trkpt>
<trkpt lat="46.49011" lon="6.74971"><ele>514.6</ele><time>2023-06-07T17:19:34Z</time></trkpt>
<trkpt lat="46.49008" lon="6.74982"><ele>515.6</ele><time>2023-06-07T17:19:38Z</time></trkpt>
<trkpt lat="46.49" lon="6.75"><ele>517</ele><time>2023-06-07T17:19:45Z</time></trkpt>
<trkpt lat="46.48989" lon="6.75016"><ele>518</ele><time>2023-06-07T17:19:51Z</time></trkpt>
<trkpt lat="46.48983" lon="6.75024"><ele>518.2</ele><time>2023-06-07T17:19:54Z</time></trkpt>
<trkpt lat="46.48961" lon="6.75051"><ele>519</ele><time>2023-06-07T17:20:04Z</time></trkpt>
<trkpt lat="46.4895" lon="6.75063"><ele>519.8</ele><time>2023-06-07T17:20:10Z</time></trkpt>
<trkpt lat="46.48946" lon="6.75072"><ele>520.2</ele><time>2023-06-07T17:20:14Z</time></trkpt>
<trkpt lat="46.48943" lon="6.75081"><ele>520.4</ele><time>2023-06-07T17:20:17Z</time></trkpt>
<trkpt lat="46.48943" lon="6.75107"><ele>520.6</ele><time>2023-06-07T17:20:23Z</time></trkpt>
<trkpt lat="46.48941" lon="6.75149"><ele>521.2</ele><time>2023-06-07T17:20:31Z</time></trkpt>
<trkpt lat="46.4894" lon="6.75154"><ele>521.2</ele><time>2023-06-07T17:20:32Z</time></trkpt>
<trkpt lat="46.48929" lon="6.75188"><ele>522</ele><time>2023-06-07T17:20:39Z</time></trkpt>
<trkpt lat="46.48923" lon="6.75195"><ele>522.2</ele><time>2023-06-07T17:20:41Z</time></trkpt>
<trkpt lat="46.48911" lon="6.75206"><ele>523</ele><time>2023-06-07T17:20:45Z</time></trkpt>
<trkpt lat="46.48904" lon="6.75211"><ele>523.6</ele><time>2023-06-07T17:20:47Z</time></trkpt>
<trkpt lat="46.4889" lon="6.75223"><ele>524.6</ele><time>2023-06-07T17:20:52Z</time></trkpt>
<trkpt lat="46.48881" lon="6.75231"><ele>525</ele><time>2023-06-07T17:20:55Z</time></trkpt>
<trkpt lat="46.48866" lon="6.75252"><ele>525.6</ele><time>2023-06-07T17:21:01Z</time></trkpt>
<trkpt lat="46.48858" lon="6.75258"><ele>526</ele><time>2023-06-07T17:21:05Z</time></trkpt>
<trkpt lat="46.48847" lon="6.7528"><ele>526.6</ele><time>2023-06-07T17:21:11Z</time></trkpt>
<trkpt lat="46.48838" lon="6.75297"><ele>526.8</ele><time>2023-06-07T17:21:15Z</time></trkpt>
<trkpt lat="46.48825" lon="6.75323"><ele>527.8</ele><time>2023-06-07T17:21:21Z</time></trkpt>
<trkpt lat="46.48822" lon="6.75327"><ele>527.8</ele><time>2023-06-07T17:21:22Z</time></trkpt>
<trkpt lat="46.48804" lon="6.75355"><ele>528.6</ele><time>2023-06-07T17:21:30Z</time></trkpt>
<trkpt lat="46.48802" lon="6.7536"><ele>528.8</ele><time>2023-06-07T17:21:31Z</time></trkpt>
<trkpt lat="46.48796" lon="6.75376"><ele>529.2</ele><time>2023-06-07T17:21:35Z</time></trkpt>
<trkpt lat="46.48788" lon="6.75394"><ele>529.8</ele><time>2023-06-07T17:21:40Z</time></trkpt>
<trkpt lat="46.48778" lon="6.75413"><ele>530.2</ele><time>2023-06-07T17:21:46Z</time></trkpt>
<trkpt lat="46.48761" lon="6.7544"><ele>530.8</ele><time>2023-06-07T17:21:55Z</time></trkpt>
<trkpt lat="46.48759" lon="6.75443"><ele>530.8</ele><time>2023-06-07T17:21:56Z</time></trkpt>
<trkpt lat="46.48737" lon="6.7547"><ele>531.8</ele><time>2023-06-07T17:22:06Z</time></trkpt>
<trkpt lat="46.48733" lon="6.75474"><ele>532</ele><time>2023-06-07T17:22:08Z</time></trkpt>
<trkpt lat="46.48712" lon="6.75498"><ele>532.8</ele><time>2023-06-07T17:22:18Z</time></trkpt>
<trkpt lat="46.48691" lon="6.75523"><ele>533.6</ele><time>2023-06-07T17:22:28Z</time></trkpt>
<trkpt lat="46.48682" lon="6.75536"><ele>534</ele><time>2023-06-07T17:22:33Z</time></trkpt>
<trkpt lat="46.48674" lon="6.75549"><ele>534.4</ele><time>2023-06-07T17:22:38Z</time></trkpt>
<trkpt lat="46.48667" lon="6.75558"><ele>534.8</ele><time>2023-06-07T17:22:42Z</time></trkpt>
<trkpt lat="46.48663" lon="6.75563"><ele>535</ele><time>2023-06-07T17:22:44Z</time></trkpt>
<trkpt lat="46.4866" lon="6.75567"><ele>535.2</ele><time>2023-06-07T17:22:46Z</time></trkpt>
<trkpt lat="46.48649" lon="6.75587"><ele>536</ele><time>2023-06-07T17:22:54Z</time></trkpt>
<trkpt lat="46.48642" lon="6.756"><ele>536.2</ele><time>2023-06-07T17:22:59Z</time></trkpt>
<trkpt lat="46.48633" lon="6.75612"><ele>537</ele><time>2023-06-07T17:23:05Z</time></trkpt>
<trkpt lat="46.48631" lon="6.75616"><ele>537.2</ele><time>2023-06-07T17:23:07Z</time></trkpt>
<trkpt lat="46.48622" lon="6.75635"><ele>538</ele><time>2023-06-07T17:23:15Z</time></trkpt>
<trkpt lat="46.48613" lon="6.75653"><ele>539</ele><time>2023-06-07T17:23:23Z</time></trkpt>
<trkpt lat="46.48612" lon="6.75655"><ele>539</ele><time>2023-06-07T17:23:24Z</time></trkpt>
<trkpt lat="46.48602" lon="6.75673"><ele>540.2</ele><time>2023-06-07T17:23:33Z</time></trkpt>
<trkpt lat="46.48594" lon="6.75688"><ele>540.8</ele><time>2023-06-07T17:23:39Z</time></trkpt>
<trkpt lat="46.48593" lon="6.7569"><ele>541</ele><time>2023-06-07T17:23:40Z</time></trkpt>
<trkpt lat="46.48589" lon="6.75696"><ele>541.2</ele><time>2023-06-07T17:23:43Z</time></trkpt>
<trkpt lat="46.4858" lon="6.75711"><ele>542.2</ele><time>2023-06-07T17:23:50Z</time></trkpt>
<trkpt lat="46.48579" lon="6.75714"><ele>542.4</ele><time>2023-06-07T17:23:51Z</time></trkpt>
<trkpt lat="46.4857" lon="6.75726"><ele>543.2</ele><time>2023-06-07T17:23:58Z</time></trkpt>
<trkpt lat="46.48569" lon="6.75728"><ele>543.4</ele><time>2023-06-07T17:23:59Z</time></trkpt>
<trkpt lat="46.48561" lon="6.75741"><ele>544.2</ele><time>2023-06-07T17:24:05Z</time></trkpt>
<trkpt lat="46.48556" lon="6.75749"><ele>544.6</ele><time>2023-06-07T17:24:09Z</time></trkpt>
<trkpt lat="46.48549" lon="6.75761"><ele>545.2</ele><time>2023-06-07T17:24:15Z</time></trkpt>
<trkpt lat="46.48544" lon="6.75772"><ele>545.6</ele><time>2023-06-07T17:24:20Z</time></trkpt>
<trkpt lat="46.4854" lon="6.75779"><ele>546</ele><time>2023-06-07T17:24:24Z</time></trkpt>
<trkpt lat="46.48535" lon="6.75787"><ele>546.6</ele><time>2023-06-07T17:24:28Z</time></trkpt>
<trkpt lat="46.4853" lon="6.75796"><ele>547</ele><time>2023-06-07T17:24:33Z</time></trkpt>
<trkpt lat="46.48522" lon="6.75807"><ele>547.6</ele><time>2023-06-07T17:24:39Z</time></trkpt>
<trkpt lat="46.48521" lon="6.75809"><ele>547.8</ele><time>2023-06-07T17:24:40Z</time></trkpt>
<trkpt lat="46.48513" lon="6.75823"><ele>548.8</ele><time>2023-06-07T17:24:49Z</time></trkpt>
<trkpt lat="46.48502" lon="6.75842"><ele>549.6</ele><time>2023-06-07T17:24:58Z</time></trkpt>
<trkpt lat="46.485" lon="6.75845"><ele>549.8</ele><time>2023-06-07T17:25:00Z</time></trkpt>
<trkpt lat="46.48492" lon="6.75858"><ele>550.8</ele><time>2023-06-07T17:25:08Z</time></trkpt>
<trkpt lat="46.4849" lon="6.75861"><ele>550.8</ele><time>2023-06-07T17:25:10Z</time></trkpt>
<trkpt lat="46.48486" lon="6.75869"><ele>551.2</ele><time>2023-06-07T17:25:14Z</time></trkpt>
<trkpt lat="46.48481" lon="6.75876"><ele>551.6</ele><time>2023-06-07T17:25:18Z</time></trkpt>
<trkpt lat="46.48475" lon="6.75886"><ele>552</ele><time>2023-06-07T17:25:23Z</time></trkpt>
<trkpt lat="46.48469" lon="6.75891"><ele>552.2</ele><time>2023-06-07T17:25:28Z</time></trkpt>
<trkpt lat="46.48464" lon="6.75898"><ele>553</ele><time>2023-06-07T17:25:32Z</time></trkpt>
<trkpt lat="46.48459" lon="6.75904"><ele>553.2</ele><time>2023-06-07T17:25:34Z</time></trkpt>
<trkpt lat="46.48438" lon="6.75924"><ele>554.2</ele><time>2023-06-07T17:25:41Z</time></trkpt>
<trkpt lat="46.48435" lon="6.75927"><ele>554.4</ele><time>2023-06-07T17:25:42Z</time></trkpt>
<trkpt lat="46.48425" lon="6.75938"><ele>555.2</ele><time>2023-06-07T17:25:45Z</time></trkpt>
<trkpt lat="46.48418" lon="6.75945"><ele>555.8</ele><time>2023-06-07T17:25:47Z</time></trkpt>
<trkpt lat="46.48409" lon="6.75958"><ele>556.4</ele><time>2023-06-07T17:25:50Z</time></trkpt>
<trkpt lat="46.48403" lon="6.75967"><ele>556.8</ele><time>2023-06-07T17:25:52Z</time></trkpt>
<trkpt lat="46.48394" lon="6.7598"><ele>557.4</ele><time>2023-06-07T17:25:55Z</time></trkpt>
<trkpt lat="46.4838" lon="6.76004"><ele>558.4</ele><time>2023-06-07T17:26:00Z</time></trkpt>
<trkpt lat="46.48374" lon="6.76013"><ele>558.8</ele><time>2023-06-07T17:26:02Z</time></trkpt>
<trkpt lat="46.48359" lon="6.76034"><ele>559.4</ele><time>2023-06-07T17:26:07Z</time></trkpt>
<trkpt lat="46.48349" lon="6.76045"><ele>560.2</ele><time>2023-06-07T17:26:10Z</time></trkpt>
<trkpt lat="46.48347" lon="6.76047"><ele>560.6</ele><time>2023-06-07T17:26:11Z</time></trkpt>
<trkpt lat="46.4834" lon="6.76054"><ele>561.8</ele><time>2023-06-07T17:26:15Z</time></trkpt>
<trkpt lat="46.48329" lon="6.76069"><ele>562.8</ele><time>2023-06-07T17:26:22Z</time></trkpt>
<trkpt lat="46.48317" lon="6.76089"><ele>563.8</ele><time>2023-06-07T17:26:30Z</time></trkpt>
<trkpt lat="46.48312" lon="6.761"><ele>564.2</ele><time>2023-06-07T17:26:34Z</time></trkpt>
<trkpt lat="46.483" lon="6.76121"><ele>565</ele><time>2023-06-07T17:26:43Z</time></trkpt>
<trkpt lat="46.48297" lon="6.76126"><ele>565.2</ele><time>2023-06-07T17:26:45Z</time></trkpt>
<trkpt lat="46.48288" lon="6.76142"><ele>566</ele><time>2023-06-07T17:26:52Z</time></trkpt>
<trkpt lat="46.48282" lon="6.76151"><ele>566.4</ele><time>2023-06-07T17:26:56Z</time></trkpt>
<trkpt lat="46.48273" lon="6.76165"><ele>567</ele><time>2023-06-07T17:27:03Z</time></trkpt>
<trkpt lat="46.48267" lon="6.76173"><ele>567.6</ele><time>2023-06-07T17:27:07Z</time></trkpt>
<trkpt lat="46.48259" lon="6.76185"><ele>568.2</ele><time>2023-06-07T17:27:13Z</time></trkpt>
<trkpt lat="46.48251" lon="6.76199"><ele>569</ele><time>2023-06-07T17:27:19Z</time></trkpt>
<trkpt lat="46.48247" lon="6.76204"><ele>569.2</ele><time>2023-06-07T17:27:21Z</time></trkpt>
<trkpt lat="46.4824" lon="6.76216"><ele>570</ele><time>2023-06-07T17:27:27Z</time></trkpt>
<trkpt lat="46.48236" lon="6.76222"><ele>570.4</ele><time>2023-06-07T17:27:30Z</time></trkpt>
<trkpt lat="46.48227" lon="6.76241"><ele>571.2</ele><time>2023-06-07T17:27:38Z</time></trkpt>
<trkpt lat="46.48225" lon="6.76246"><ele>571.4</ele><time>2023-06-07T17:27:40Z</time></trkpt>
<trkpt lat="46.4822" lon="6.7626"><ele>572</ele><time>2023-06-07T17:27:46Z</time></trkpt>
<trkpt lat="46.48215" lon="6.7627"><ele>572.6</ele><time>2023-06-07T17:27:50Z</time></trkpt>
<trkpt lat="46.48211" lon="6.76277"><ele>572.8</ele><time>2023-06-07T17:27:53Z</time></trkpt>
<trkpt lat="46.48201" lon="6.76295"><ele>573.4</ele><time>2023-06-07T17:28:01Z</time></trkpt>
<trkpt lat="46.482" lon="6.76297"><ele>573.6</ele><time>2023-06-07T17:28:02Z</time></trkpt>
<trkpt lat="46.48192" lon="6.76315"><ele>574.4</ele><time>2023-06-07T17:28:10Z</time></trkpt>
<trkpt lat="46.4819" lon="6.7632"><ele>574.6</ele><time>2023-06-07T17:28:12Z</time></trkpt>
<trkpt lat="46.48183" lon="6.76335"><ele>575.2</ele><time>2023-06-07T17:28:19Z</time></trkpt>
<trkpt lat="46.48176" lon="6.76347"><ele>575.8</ele><time>2023-06-07T17:28:24Z</time></trkpt>
<trkpt lat="46.48172" lon="6.76356"><ele>576.4</ele><time>2023-06-07T17:28:28Z</time></trkpt>
<trkpt lat="46.48164" lon="6.76372"><ele>577</ele><time>2023-06-07T17:28:35Z</time></trkpt>
<trkpt lat="46.48163" lon="6.76376"><ele>577.2</ele><time>2023-06-07T17:28:37Z</time></trkpt>
<trkpt lat="46.48152" lon="6.76391"><ele>578</ele><time>2023-06-07T17:28:45Z</time></trkpt>
<trkpt lat="46.48152" lon="6.76394"><ele>578.2</ele><time>2023-06-07T17:28:46Z</time></trkpt>
<trkpt lat="46.48146" lon="6.76414"><ele>578.6</ele><time>2023-06-07T17:28:51Z</time></trkpt>
<trkpt lat="46.48141" lon="6.76429"><ele>579</ele><time>2023-06-07T17:28:54Z</time></trkpt>
<trkpt lat="46.48132" lon="6.76454"><ele>580</ele><time>2023-06-07T17:28:59Z</time></trkpt>
<trkpt lat="46.4813" lon="6.7646"><ele>580.2</ele><time>2023-06-07T17:29:00Z</time></trkpt>
<trkpt lat="46.48126" lon="6.7647"><ele>580.8</ele><time>2023-06-07T17:29:02Z</time></trkpt>
<trkpt lat="46.4812" lon="6.76487"><ele>581.4</ele><time>2023-06-07T17:29:05Z</time></trkpt>
<trkpt lat="46.48111" lon="6.76515"><ele>582.6</ele><time>2023-06-07T17:29:10Z</time></trkpt>
<trkpt lat="46.48109" lon="6.76521"><ele>582.8</ele><time>2023-06-07T17:29:11Z</time></trkpt>
<trkpt lat="46.481" lon="6.76545"><ele>583.6</ele><time>2023-06-07T17:29:15Z</time></trkpt>
<trkpt lat="46.4809" lon="6.76567"><ele>584.8</ele><time>2023-06-07T17:29:19Z</time></trkpt>
<trkpt lat="46.48087" lon="6.76572"><ele>585</ele><time>2023-06-07T17:29:20Z</time></trkpt>
<trkpt lat="46.48074" lon="6.7659"><ele>586</ele><time>2023-06-07T17:29:24Z</time></trkpt>
<trkpt lat="46.48064" lon="6.76609"><ele>587.2</ele><time>2023-06-07T17:29:28Z</time></trkpt>
<trkpt lat="46.48062" lon="6.76613"><ele>587.6</ele><time>2023-06-07T17:29:29Z</time></trkpt>
<trkpt lat="46.48059" lon="6.76624"><ele>588.4</ele><time>2023-06-07T17:29:32Z</time></trkpt>
<trkpt lat="46.48057" lon="6.76634"><ele>588.8</ele><time>2023-06-07T17:29:35Z</time></trkpt>
<trkpt lat="46.48053" lon="6.76659"><ele>589.4</ele><time>2023-06-07T17:29:43Z</time></trkpt>
<trkpt lat="46.48049" lon="6.76662"><ele>589.8</ele><time>2023-06-07T17:29:46Z</time></trkpt>
<trkpt lat="46.48048" lon="6.76664"><ele>590</ele><time>2023-06-07T17:29:47Z</time></trkpt>
<trkpt lat="46.48043" lon="6.76681"><ele>590.6</ele><time>2023-06-07T17:29:53Z</time></trkpt>
<trkpt lat="46.4804" lon="6.7669"><ele>591</ele><time>2023-06-07T17:29:56Z</time></trkpt>
<trkpt lat="46.48038" lon="6.76703"><ele>591.6</ele><time>2023-06-07T17:30:00Z</time></trkpt>
<trkpt lat="46.48036" lon="6.7671"><ele>592</ele><time>2023-06-07T17:30:02Z</time></trkpt>
<trkpt lat="46.48032" lon="6.76727"><ele>592.6</ele><time>2023-06-07T17:30:07Z</time></trkpt>
<trkpt lat="46.4803" lon="6.76735"><ele>593</ele><time>2023-06-07T17:30:10Z</time></trkpt>
<trkpt lat="46.48028" lon="6.76746"><ele>593.6</ele><time>2023-06-07T17:30:15Z</time></trkpt>
<trkpt lat="46.48028" lon="6.76749"><ele>593.8</ele><time>2023-06-07T17:30:16Z</time></trkpt>
<trkpt lat="46.4803" lon="6.76774"><ele>594.6</ele><time>2023-06-07T17:30:23Z</time></trkpt>
<trkpt lat="46.48033" lon="6.76784"><ele>594.8</ele><time>2023-06-07T17:30:25Z</time></trkpt>
<trkpt lat="46.4804" lon="6.76801"><ele>595.4</ele><time>2023-06-07T17:30:29Z</time></trkpt>
<trkpt lat="46.48046" lon="6.76817"><ele>595.8</ele><time>2023-06-07T17:30:33Z</time></trkpt>
<trkpt lat="46.48052" lon="6.76837"><ele>596.8</ele><time>2023-06-07T17:30:38Z</time></trkpt>
<trkpt lat="46.48053" lon="6.76841"><ele>597</ele><time>2023-06-07T17:30:39Z</time></trkpt>
<trkpt lat="46.48053" lon="6.76865"><ele>597.8</ele><time>2023-06-07T17:30:46Z</time></trkpt>
<trkpt lat="46.48052" lon="6.76868"><ele>598</ele><time>2023-06-07T17:30:47Z</time></trkpt>
<trkpt lat="46.48047" lon="6.76888"><ele>599</ele><time>2023-06-07T17:30:54Z</time></trkpt>
<trkpt lat="46.48046" lon="6.76894"><ele>599.4</ele><time>2023-06-07T17:30:56Z</time></trkpt>
<trkpt lat="46.48044" lon="6.76909"><ele>600</ele><time>2023-06-07T17:31:01Z</time></trkpt>
<trkpt lat="46.48044" lon="6.76923"><ele>600.6</ele><time>2023-06-07T17:31:05Z</time></trkpt>
<trkpt lat="46.48045" lon="6.76934"><ele>601.2</ele><time>2023-06-07T17:31:08Z</time></trkpt>
<trkpt lat="46.48045" lon="6.76947"><ele>601.8</ele><time>2023-06-07T17:31:12Z</time></trkpt>
<trkpt lat="46.48045" lon="6.76963"><ele>602.2</ele><time>2023-06-07T17:31:17Z</time></trkpt>
<trkpt lat="46.48046" lon="6.76976"><ele>602.4</ele><time>2023-06-07T17:31:21Z</time></trkpt>
<trkpt lat="46.48046" lon="6.77007"><ele>603.4</ele><time>2023-06-07T17:31:30Z</time></trkpt>
<trkpt lat="46.48046" lon="6.77009"><ele>603.4</ele><time>2023-06-07T17:31:31Z</time></trkpt>
<trkpt lat="46.48041" lon="6.77036"><ele>604.4</ele><time>2023-06-07T17:31:40Z</time></trkpt>
<trkpt lat="46.48039" lon="6.77042"><ele>604.6</ele><time>2023-06-07T17:31:42Z</time></trkpt>
<trkpt lat="46.48035" lon="6.77057"><ele>605.4</ele><time>2023-06-07T17:31:47Z</time></trkpt>
<trkpt lat="46.4803" lon="6.77079"><ele>606.6</ele><time>2023-06-07T17:31:54Z</time></trkpt>
<trkpt lat="46.4803" lon="6.77082"><ele>606.6</ele><time>2023-06-07T17:31:55Z</time></trkpt>
<trkpt lat="46.48028" lon="6.77111"><ele>607.4</ele><time>2023-06-07T17:32:03Z</time></trkpt>
<trkpt lat="46.48027" lon="6.77118"><ele>607.6</ele><time>2023-06-07T17:32:05Z</time></trkpt>
<trkpt lat="46.48025" lon="6.77144"><ele>608.6</ele><time>2023-06-07T17:32:13Z</time></trkpt>
<trkpt lat="46.48025" lon="6.77147"><ele>608.8</ele><time>2023-06-07T17:32:14Z</time></trkpt>
<trkpt lat="46.48024" lon="6.77178"><ele>609.4</ele><time>2023-06-07T17:32:23Z</time></trkpt>
<trkpt lat="46.48022" lon="6.77188"><ele>609.8</ele><time>2023-06-07T17:32:26Z</time></trkpt>
<trkpt lat="46.48021" lon="6.77199"><ele>610.2</ele><time>2023-06-07T17:32:30Z</time></trkpt>
<trkpt lat="46.48019" lon="6.77214"><ele>610.8</ele><time>2023-06-07T17:32:35Z</time></trkpt>
<trkpt lat="46.48015" lon="6.77235"><ele>611.6</ele><time>2023-06-07T17:32:42Z</time></trkpt>
<trkpt lat="46.48015" lon="6.77241"><ele>612</ele><time>2023-06-07T17:32:44Z</time></trkpt>
<trkpt lat="46.48013" lon="6.77267"><ele>613</ele><time>2023-06-07T17:32:52Z</time></trkpt>
<trkpt lat="46.48012" lon="6.7727"><ele>613.2</ele><time>2023-06-07T17:32:53Z</time></trkpt>
<trkpt lat="46.48007" lon="6.77297"><ele>614.2</ele><time>2023-06-07T17:33:02Z</time></trkpt>
<trkpt lat="46.48007" lon="6.77304"><ele>614.4</ele><time>2023-06-07T17:33:04Z</time></trkpt>
<trkpt lat="46.48008" lon="6.77334"><ele>615.4</ele><time>2023-06-07T17:33:12Z</time></trkpt>
<trkpt lat="46.48009" lon="6.77339"><ele>615.6</ele><time>2023-06-07T17:33:13Z</time></trkpt>
<trkpt lat="46.48016" lon="6.77372"><ele>616.4</ele><time>2023-06-07T17:33:20Z</time></trkpt>
<trkpt lat="46.4802" lon="6.77381"><ele>616.4</ele><time>2023-06-07T17:33:22Z</time></trkpt>
<trkpt lat="46.48023" lon="6.77386"><ele>616.6</ele><time>2023-06-07T17:33:23Z</time></trkpt>
<trkpt lat="46.48029" lon="6.77392"><ele>616.6</ele><time>2023-06-07T17:33:25Z</time></trkpt>
<trkpt lat="46.48044" lon="6.77397"><ele>616.8</ele><time>2023-06-07T17:33:29Z</time></trkpt>
<trkpt lat="46.48048" lon="6.77396"><ele>616.8</ele><time>2023-06-07T17:33:30Z</time></trkpt>
<trkpt lat="46.48053" lon="6.77394"><ele>616.8</ele><time>2023-06-07T17:33:31Z</time></trkpt>
<trkpt lat="46.48069" lon="6.77383"><ele>616.8</ele><time>2023-06-07T17:33:35Z</time></trkpt>
<trkpt lat="46.48079" lon="6.77377"><ele>616.8</ele><time>2023-06-07T17:33:37Z</time></trkpt>
<trkpt lat="46.48088" lon="6.77372"><ele>616.8</ele><time>2023-06-07T17:33:39Z</time></trkpt>
<trkpt lat="46.48093" lon="6.77371"><ele>616.8</ele><time>2023-06-07T17:33:40Z</time></trkpt>
<trkpt lat="46.48098" lon="6.77371"><ele>616.8</ele><time>2023-06-07T17:33:41Z</time></trkpt>
<trkpt lat="46.48108" lon="6.77374"><ele>617</ele><time>2023-06-07T17:33:43Z</time></trkpt>
<trkpt lat="46.48113" lon="6.77376"><ele>617</ele><time>2023-06-07T17:33:44Z</time></trkpt>
<trkpt lat="46.48117" lon="6.7738"><ele>617</ele><time>2023-06-07T17:33:45Z</time></trkpt>
<trkpt lat="46.48124" lon="6.77388"><ele>617.2</ele><time>2023-06-07T17:33:47Z</time></trkpt>
<trkpt lat="46.48128" lon="6.77399"><ele>617.4</ele><time>2023-06-07T17:33:49Z</time></trkpt>
<trkpt lat="46.48133" lon="6.7741"><ele>617.6</ele><time>2023-06-07T17:33:51Z</time></trkpt>
<trkpt lat="46.48149" lon="6.77442"><ele>618.4</ele><time>2023-06-07T17:33:58Z</time></trkpt>
<trkpt lat="46.48154" lon="6.7745"><ele>618.6</ele><time>2023-06-07T17:34:00Z</time></trkpt>
<trkpt lat="46.48169" lon="6.77468"><ele>619.4</ele><time>2023-06-07T17:34:05Z</time></trkpt>
<trkpt lat="46.48175" lon="6.77477"><ele>619.4</ele><time>2023-06-07T17:34:07Z</time></trkpt>
<trkpt lat="46.48185" lon="6.7749"><ele>619.6</ele><time>2023-06-07T17:34:10Z</time></trkpt>
<trkpt lat="46.48194" lon="6.77508"><ele>620.2</ele><time>2023-06-07T17:34:14Z</time></trkpt>
<trkpt lat="46.48191" lon="6.77524"><ele>620.4</ele><time>2023-06-07T17:34:17Z</time></trkpt>
<trkpt lat="46.48177" lon="6.77553"><ele>619.2</ele><time>2023-06-07T17:34:21Z</time></trkpt>
<trkpt lat="46.48172" lon="6.77559"><ele>618.6</ele><time>2023-06-07T17:34:22Z</time></trkpt>
<trkpt lat="46.48163" lon="6.77567"><ele>618</ele><time>2023-06-07T17:34:24Z</time></trkpt>
<trkpt lat="46.48159" lon="6.7757"><ele>618</ele><time>2023-06-07T17:34:25Z</time></trkpt>
<trkpt lat="46.48145" lon="6.77584"><ele>618</ele><time>2023-06-07T17:34:29Z</time></trkpt>
<trkpt lat="46.48141" lon="6.7759"><ele>618</ele><time>2023-06-07T17:34:30Z</time></trkpt>
<trkpt lat="46.48129" lon="6.77607"><ele>618.2</ele><time>2023-06-07T17:34:33Z</time></trkpt>
<trkpt lat="46.48123" lon="6.77624"><ele>618</ele><time>2023-06-07T17:34:35Z</time></trkpt>
<trkpt lat="46.48118" lon="6.7764"><ele>616.8</ele><time>2023-06-07T17:34:37Z</time></trkpt>
<trkpt lat="46.48113" lon="6.77656"><ele>615.8</ele><time>2023-06-07T17:34:40Z</time></trkpt>
<trkpt lat="46.48112" lon="6.77662"><ele>615.2</ele><time>2023-06-07T17:34:43Z</time></trkpt>
<trkpt lat="46.48112" lon="6.77663"><ele>615.2</ele><time>2023-06-07T17:34:44Z</time></trkpt>
<trkpt lat="46.4811" lon="6.7767"><ele>615</ele><time>2023-06-07T17:34:49Z</time></trkpt>
<trkpt lat="46.48111" lon="6.77672"><ele>615</ele><time>2023-06-07T17:34:50Z</time></trkpt>
<trkpt lat="46.48123" lon="6.77692"><ele>615.2</ele><time>2023-06-07T17:34:56Z</time></trkpt>
<trkpt lat="46.48132" lon="6.77703"><ele>616.2</ele><time>2023-06-07T17:35:02Z</time></trkpt>
<trkpt lat="46.48138" lon="6.77712"><ele>617</ele><time>2023-06-07T17:35:07Z</time></trkpt>
<trkpt lat="46.48141" lon="6.77714"><ele>617.4</ele><time>2023-06-07T17:35:09Z</time></trkpt>
<trkpt lat="46.48145" lon="6.7772"><ele>618</ele><time>2023-06-07T17:35:13Z</time></trkpt>
<trkpt lat="46.48145" lon="6.77722"><ele>618.2</ele><time>2023-06-07T17:35:14Z</time></trkpt>
<trkpt lat="46.48147" lon="6.77723"><ele>618.2</ele><time>2023-06-07T17:35:15Z</time></trkpt>
<trkpt lat="46.48153" lon="6.77728"><ele>619.2</ele><time>2023-06-07T17:35:19Z</time></trkpt>
<trkpt lat="46.48154" lon="6.77733"><ele>619.4</ele><time>2023-06-07T17:35:20Z</time></trkpt>
<trkpt lat="46.48154" lon="6.7774"><ele>619.4</ele><time>2023-06-07T17:35:21Z</time></trkpt>
<trkpt lat="46.48154" lon="6.77761"><ele>619.4</ele><time>2023-06-07T17:35:24Z</time></trkpt>
<trkpt lat="46.48156" lon="6.77777"><ele>619</ele><time>2023-06-07T17:35:26Z</time></trkpt>
<trkpt lat="46.48161" lon="6.77802"><ele>618.6</ele><time>2023-06-07T17:35:29Z</time></trkpt>
<trkpt lat="46.48169" lon="6.77843"><ele>618</ele><time>2023-06-07T17:35:33Z</time></trkpt>
<trkpt lat="46.4817" lon="6.7785"><ele>617.8</ele><time>2023-06-07T17:35:34Z</time></trkpt>
<trkpt lat="46.48171" lon="6.77861"><ele>616.6</ele><time>2023-06-07T17:35:36Z</time></trkpt>
<trkpt lat="46.48174" lon="6.77874"><ele>615.8</ele><time>2023-06-07T17:35:38Z</time></trkpt>
<trkpt lat="46.48178" lon="6.77893"><ele>615.4</ele><time>2023-06-07T17:35:40Z</time></trkpt>
<trkpt lat="46.48181" lon="6.77915"><ele>614</ele><time>2023-06-07T17:35:42Z</time></trkpt>
<trkpt lat="46.48182" lon="6.77927"><ele>613.2</ele><time>2023-06-07T17:35:43Z</time></trkpt>
<trkpt lat="46.48181" lon="6.7794"><ele>612.6</ele><time>2023-06-07T17:35:44Z</time></trkpt>
<trkpt lat="46.4818" lon="6.77952"><ele>612.2</ele><time>2023-06-07T17:35:45Z</time></trkpt>
<trkpt lat="46.48169" lon="6.77974"><ele>611.2</ele><time>2023-06-07T17:35:47Z</time></trkpt>
<trkpt lat="46.48161" lon="6.77982"><ele>610.6</ele><time>2023-06-07T17:35:48Z</time></trkpt>
<trkpt lat="46.48153" lon="6.7799"><ele>609.4</ele><time>2023-06-07T17:35:49Z</time></trkpt>
<trkpt lat="46.48137" lon="6.78009"><ele>607.8</ele><time>2023-06-07T17:35:51Z</time></trkpt>
<trkpt lat="46.48129" lon="6.78018"><ele>606.4</ele><time>2023-06-07T17:35:52Z</time></trkpt>
<trkpt lat="46.48122" lon="6.78028"><ele>605.6</ele><time>2023-06-07T17:35:53Z</time></trkpt>
<trkpt lat="46.48115" lon="6.78038"><ele>605</ele><time>2023-06-07T17:35:54Z</time></trkpt>
<trkpt lat="46.48108" lon="6.78045"><ele>604</ele><time>2023-06-07T17:35:55Z</time></trkpt>
<trkpt lat="46.48096" lon="6.78058"><ele>602.8</ele><time>2023-06-07T17:35:57Z</time></trkpt>
<trkpt lat="46.48076" lon="6.78074"><ele>601.8</ele><time>2023-06-07T17:36:00Z</time></trkpt>
<trkpt lat="46.48065" lon="6.78086"><ele>601.2</ele><time>2023-06-07T17:36:02Z</time></trkpt>
<trkpt lat="46.4806" lon="6.78096"><ele>600.6</ele><time>2023-06-07T17:36:04Z</time></trkpt>
<trkpt lat="46.48059" lon="6.781"><ele>600.4</ele><time>2023-06-07T17:36:05Z</time></trkpt>
<trkpt lat="46.48055" lon="6.78108"><ele>599.8</ele><time>2023-06-07T17:36:08Z</time></trkpt>
<trkpt lat="46.48053" lon="6.78108"><ele>599.8</ele><time>2023-06-07T17:36:09Z</time></trkpt>
<trkpt lat="46.48051" lon="6.78105"><ele>599.8</ele><time>2023-06-07T17:36:10Z</time></trkpt>
<trkpt lat="46.48049" lon="6.78093"><ele>599.6</ele><time>2023-06-07T17:36:12Z</time></trkpt>
<trkpt lat="46.48047" lon="6.78067"><ele>598.4</ele><time>2023-06-07T17:36:15Z</time></trkpt>
<trkpt lat="46.48046" lon="6.78058"><ele>598</ele><time>2023-06-07T17:36:16Z</time></trkpt>
<trkpt lat="46.48045" lon="6.78048"><ele>597.4</ele><time>2023-06-07T17:36:17Z</time></trkpt>
<trkpt lat="46.48043" lon="6.78039"><ele>597.2</ele><time>2023-06-07T17:36:18Z</time></trkpt>
<trkpt lat="46.48039" lon="6.78021"><ele>595.6</ele><time>2023-06-07T17:36:20Z</time></trkpt>
<trkpt lat="46.48038" lon="6.78013"><ele>594.6</ele><time>2023-06-07T17:36:21Z</time></trkpt>
<trkpt lat="46.48034" lon="6.77998"><ele>593.4</ele><time>2023-06-07T17:36:23Z</time></trkpt>
<trkpt lat="46.48032" lon="6.7799"><ele>592.8</ele><time>2023-06-07T17:36:24Z</time></trkpt>
<trkpt lat="46.48028" lon="6.7798"><ele>592.2</ele><time>2023-06-07T17:36:26Z</time></trkpt>
<trkpt lat="46.48024" lon="6.7797"><ele>591</ele><time>2023-06-07T17:36:29Z</time></trkpt>
<trkpt lat="46.48021" lon="6.77965"><ele>590.4</ele><time>2023-06-07T17:36:31Z</time></trkpt>
<trkpt lat="46.4802" lon="6.77961"><ele>590</ele><time>2023-06-07T17:36:33Z</time></trkpt>
<trkpt lat="46.48014" lon="6.77948"><ele>589.6</ele><time>2023-06-07T17:36:38Z</time></trkpt>
<trkpt lat="46.4801" lon="6.77939"><ele>588.8</ele><time>2023-06-07T17:36:40Z</time></trkpt>
<trkpt lat="46.48006" lon="6.77928"><ele>588</ele><time>2023-06-07T17:36:43Z</time></trkpt>
<trkpt lat="46.48005" lon="6.77926"><ele>587.8</ele><time>2023-06-07T17:36:44Z</time></trkpt>
<trkpt lat="46.47998" lon="6.77913"><ele>586.8</ele><time>2023-06-07T17:36:48Z</time></trkpt>
<trkpt lat="46.47994" lon="6.77908"><ele>586.6</ele><time>2023-06-07T17:36:49Z</time></trkpt>
<trkpt lat="46.47987" lon="6.779"><ele>586.4</ele><time>2023-06-07T17:36:51Z</time></trkpt>
<trkpt lat="46.47982" lon="6.77897"><ele>585.8</ele><time>2023-06-07T17:36:52Z</time></trkpt>
<trkpt lat="46.47977" lon="6.77895"><ele>585.4</ele><time>2023-06-07T17:36:53Z</time></trkpt>
<trkpt lat="46.47964" lon="6.77891"><ele>584.4</ele><time>2023-06-07T17:36:56Z</time></trkpt>
<trkpt lat="46.47961" lon="6.77891"><ele>583.6</ele><time>2023-06-07T17:36:57Z</time></trkpt>
<trkpt lat="46.47959" lon="6.77891"><ele>583.2</ele><time>2023-06-07T17:36:58Z</time></trkpt>
<trkpt lat="46.47954" lon="6.77891"><ele>582</ele><time>2023-06-07T17:37:01Z</time></trkpt>
<trkpt lat="46.47954" lon="6.77891"><ele>581.6</ele><time>2023-06-07T17:37:02Z</time></trkpt>
<trkpt lat="46.47947" lon="6.77895"><ele>581</ele><time>2023-06-07T17:37:06Z</time></trkpt>
<trkpt lat="46.47944" lon="6.77899"><ele>581</ele><time>2023-06-07T17:37:07Z</time></trkpt>
<trkpt lat="46.47941" lon="6.77912"><ele>580.2</ele><time>2023-06-07T17:37:09Z</time></trkpt>
<trkpt lat="46.47941" lon="6.7792"><ele>579.6</ele><time>2023-06-07T17:37:10Z</time></trkpt>
<trkpt lat="46.47942" lon="6.77927"><ele>579.2</ele><time>2023-06-07T17:37:11Z</time></trkpt>
<trkpt lat="46.47943" lon="6.77936"><ele>578.6</ele><time>2023-06-07T17:37:12Z</time></trkpt>
<trkpt lat="46.47944" lon="6.77944"><ele>578.2</ele><time>2023-06-07T17:37:13Z</time></trkpt>
<trkpt lat="46.47945" lon="6.77953"><ele>577.2</ele><time>2023-06-07T17:37:14Z</time></trkpt>
<trkpt lat="46.47946" lon="6.77963"><ele>576</ele><time>2023-06-07T17:37:15Z</time></trkpt>
<trkpt lat="46.47947" lon="6.77975"><ele>575</ele><time>2023-06-07T17:37:16Z</time></trkpt>
<trkpt lat="46.47948" lon="6.77986"><ele>574</ele><time>2023-06-07T17:37:17Z</time></trkpt>
<trkpt lat="46.47949" lon="6.77997"><ele>572.8</ele><time>2023-06-07T17:37:18Z</time></trkpt>
<trkpt lat="46.47951" lon="6.78017"><ele>571.2</ele><time>2023-06-07T17:37:20Z</time></trkpt>
<trkpt lat="46.47953" lon="6.78027"><ele>570.6</ele><time>2023-06-07T17:37:21Z</time></trkpt>
<trkpt lat="46.47958" lon="6.78056"><ele>570</ele><time>2023-06-07T17:37:24Z</time></trkpt>
<trkpt lat="46.47967" lon="6.78098"><ele>569</ele><time>2023-06-07T17:37:28Z</time></trkpt>
<trkpt lat="46.47973" lon="6.78136"><ele>568</ele><time>2023-06-07T17:37:32Z</time></trkpt>
<trkpt lat="46.47979" lon="6.78167"><ele>569</ele><time>2023-06-07T17:37:37Z</time></trkpt>
<trkpt lat="46.47981" lon="6.78177"><ele>570.2</ele><time>2023-06-07T17:37:40Z</time></trkpt>
<trkpt lat="46.47983" lon="6.78183"><ele>570.8</ele><time>2023-06-07T17:37:42Z</time></trkpt>
<trkpt lat="46.47978" lon="6.78202"><ele>570.8</ele><time>2023-06-07T17:37:46Z</time></trkpt>
<trkpt lat="46.47967" lon="6.78222"><ele>570</ele><time>2023-06-07T17:37:49Z</time></trkpt>
<trkpt lat="46.47955" lon="6.78237"><ele>568.6</ele><time>2023-06-07T17:37:51Z</time></trkpt>
<trkpt lat="46.47941" lon="6.78249"><ele>566.8</ele><time>2023-06-07T17:37:53Z</time></trkpt>
<trkpt lat="46.47926" lon="6.78261"><ele>565.6</ele><time>2023-06-07T17:37:55Z</time></trkpt>
<trkpt lat="46.47911" lon="6.78273"><ele>565.2</ele><time>2023-06-07T17:37:57Z</time></trkpt>
<trkpt lat="46.47905" lon="6.78283"><ele>565</ele><time>2023-06-07T17:37:58Z</time></trkpt>
<trkpt lat="46.47892" lon="6.783"><ele>564.2</ele><time>2023-06-07T17:38:00Z</time></trkpt>
<trkpt lat="46.47877" lon="6.78318"><ele>562.8</ele><time>2023-06-07T17:38:02Z</time></trkpt>
<trkpt lat="46.47868" lon="6.78328"><ele>562</ele><time>2023-06-07T17:38:03Z</time></trkpt>
<trkpt lat="46.4786" lon="6.78338"><ele>561</ele><time>2023-06-07T17:38:04Z</time></trkpt>
<trkpt lat="46.47853" lon="6.78349"><ele>559.4</ele><time>2023-06-07T17:38:05Z</time></trkpt>
<trkpt lat="46.47841" lon="6.78368"><ele>558.2</ele><time>2023-06-07T17:38:07Z</time></trkpt>
<trkpt lat="46.47825" lon="6.78394"><ele>557.6</ele><time>2023-06-07T17:38:10Z</time></trkpt>
<trkpt lat="46.47821" lon="6.78402"><ele>557.6</ele><time>2023-06-07T17:38:11Z</time></trkpt>
<trkpt lat="46.47818" lon="6.7841"><ele>557.4</ele><time>2023-06-07T17:38:12Z</time></trkpt>
<trkpt lat="46.47816" lon="6.78419"><ele>557.2</ele><time>2023-06-07T17:38:13Z</time></trkpt>
<trkpt lat="46.47814" lon="6.78429"><ele>557</ele><time>2023-06-07T17:38:14Z</time></trkpt>
<trkpt lat="46.47811" lon="6.78456"><ele>556</ele><time>2023-06-07T17:38:16Z</time></trkpt>
<trkpt lat="46.47811" lon="6.78486"><ele>553.6</ele><time>2023-06-07T17:38:18Z</time></trkpt>
<trkpt lat="46.47811" lon="6.78501"><ele>552.2</ele><time>2023-06-07T17:38:19Z</time></trkpt>
<trkpt lat="46.47811" lon="6.78515"><ele>551.6</ele><time>2023-06-07T17:38:20Z</time></trkpt>
<trkpt lat="46.47811" lon="6.7853"><ele>550.6</ele><time>2023-06-07T17:38:21Z</time></trkpt>
<trkpt lat="46.4781" lon="6.78559"><ele>549.4</ele><time>2023-06-07T17:38:23Z</time></trkpt>
<trkpt lat="46.47808" lon="6.78588"><ele>548.4</ele><time>2023-06-07T17:38:25Z</time></trkpt>
<trkpt lat="46.47806" lon="6.78602"><ele>548.2</ele><time>2023-06-07T17:38:26Z</time></trkpt>
<trkpt lat="46.47799" lon="6.78637"><ele>547.6</ele><time>2023-06-07T17:38:29Z</time></trkpt>
<trkpt lat="46.47797" lon="6.78646"><ele>547.8</ele><time>2023-06-07T17:38:30Z</time></trkpt>
<trkpt lat="46.47793" lon="6.78661"><ele>548.2</ele><time>2023-06-07T17:38:32Z</time></trkpt>
<trkpt lat="46.47791" lon="6.78678"><ele>549.2</ele><time>2023-06-07T17:38:35Z</time></trkpt>
<trkpt lat="46.4779" lon="6.78683"><ele>549.4</ele><time>2023-06-07T17:38:36Z</time></trkpt>
<trkpt lat="46.47782" lon="6.78711"><ele>550.2</ele><time>2023-06-07T17:38:41Z</time></trkpt>
<trkpt lat="46.47775" lon="6.78748"><ele>549</ele><time>2023-06-07T17:38:45Z</time></trkpt>
<trkpt lat="46.47772" lon="6.78757"><ele>548.4</ele><time>2023-06-07T17:38:46Z</time></trkpt>
<trkpt lat="46.47767" lon="6.78777"><ele>546.8</ele><time>2023-06-07T17:38:48Z</time></trkpt>
<trkpt lat="46.47759" lon="6.78806"><ele>546.4</ele><time>2023-06-07T17:38:51Z</time></trkpt>
<trkpt lat="46.47755" lon="6.78814"><ele>546.4</ele><time>2023-06-07T17:38:52Z</time></trkpt>
<trkpt lat="46.47748" lon="6.78828"><ele>546.8</ele><time>2023-06-07T17:38:54Z</time></trkpt>
<trkpt lat="46.47742" lon="6.78851"><ele>547.4</ele><time>2023-06-07T17:38:57Z</time></trkpt>
<trkpt lat="46.47725" lon="6.78917"><ele>546.2</ele><time>2023-06-07T17:39:04Z</time></trkpt>
<trkpt lat="46.47721" lon="6.78926"><ele>545.8</ele><time>2023-06-07T17:39:05Z</time></trkpt>
<trkpt lat="46.47713" lon="6.78945"><ele>544.6</ele><time>2023-06-07T17:39:07Z</time></trkpt>
<trkpt lat="46.47707" lon="6.78953"><ele>544.2</ele><time>2023-06-07T17:39:08Z</time></trkpt>
<trkpt lat="46.47702" lon="6.78959"><ele>543.6</ele><time>2023-06-07T17:39:09Z</time></trkpt>
<trkpt lat="46.47697" lon="6.78966"><ele>543</ele><time>2023-06-07T17:39:10Z</time></trkpt>
<trkpt lat="46.47692" lon="6.78974"><ele>542.2</ele><time>2023-06-07T17:39:11Z</time></trkpt>
<trkpt lat="46.47688" lon="6.78983"><ele>542</ele><time>2023-06-07T17:39:12Z</time></trkpt>
<trkpt lat="46.47687" lon="6.78994"><ele>541.4</ele><time>2023-06-07T17:39:13Z</time></trkpt>
<trkpt lat="46.47686" lon="6.79005"><ele>540.8</ele><time>2023-06-07T17:39:14Z</time></trkpt>
<trkpt lat="46.47687" lon="6.79015"><ele>540.4</ele><time>2023-06-07T17:39:15Z</time></trkpt>
<trkpt lat="46.47687" lon="6.79023"><ele>540.2</ele><time>2023-06-07T17:39:16Z</time></trkpt>
<trkpt lat="46.47689" lon="6.79038"><ele>540.4</ele><time>2023-06-07T17:39:19Z</time></trkpt>
<trkpt lat="46.47685" lon="6.79047"><ele>540.8</ele><time>2023-06-07T17:39:21Z</time></trkpt>
<trkpt lat="46.47682" lon="6.79051"><ele>540.8</ele><time>2023-06-07T17:39:22Z</time></trkpt>
<trkpt lat="46.47678" lon="6.79056"><ele>541</ele><time>2023-06-07T17:39:23Z</time></trkpt>
<trkpt lat="46.47662" lon="6.79073"><ele>539.6</ele><time>2023-06-07T17:39:26Z</time></trkpt>
<trkpt lat="46.4765" lon="6.79083"><ele>538</ele><time>2023-06-07T17:39:28Z</time></trkpt>
<trkpt lat="46.47645" lon="6.79088"><ele>537.4</ele><time>2023-06-07T17:39:29Z</time></trkpt>
<trkpt lat="46.47639" lon="6.79093"><ele>536.4</ele><time>2023-06-07T17:39:30Z</time></trkpt>
<trkpt lat="46.47635" lon="6.791"><ele>535.8</ele><time>2023-06-07T17:39:31Z</time></trkpt>
<trkpt lat="46.4763" lon="6.79107"><ele>534.6</ele><time>2023-06-07T17:39:32Z</time></trkpt>
<trkpt lat="46.47626" lon="6.79116"><ele>533.6</ele><time>2023-06-07T17:39:33Z</time></trkpt>
<trkpt lat="46.47622" lon="6.79126"><ele>533</ele><time>2023-06-07T17:39:34Z</time></trkpt>
<trkpt lat="46.47612" lon="6.79145"><ele>531.4</ele><time>2023-06-07T17:39:36Z</time></trkpt>
<trkpt lat="46.47601" lon="6.79163"><ele>530.2</ele><time>2023-06-07T17:39:38Z</time></trkpt>
<trkpt lat="46.4759" lon="6.79178"><ele>529</ele><time>2023-06-07T17:39:40Z</time></trkpt>
<trkpt lat="46.47584" lon="6.79184"><ele>527.8</ele><time>2023-06-07T17:39:41Z</time></trkpt>
<trkpt lat="46.47578" lon="6.7919"><ele>527.2</ele><time>2023-06-07T17:39:42Z</time></trkpt>
<trkpt lat="46.47571" lon="6.79196"><ele>526.4</ele><time>2023-06-07T17:39:43Z</time></trkpt>
<trkpt lat="46.47565" lon="6.79202"><ele>525.2</ele><time>2023-06-07T17:39:44Z</time></trkpt>
<trkpt lat="46.47554" lon="6.79213"><ele>522.8</ele><time>2023-06-07T17:39:46Z</time></trkpt>
<trkpt lat="46.47549" lon="6.79218"><ele>521.4</ele><time>2023-06-07T17:39:47Z</time></trkpt>
<trkpt lat="46.47544" lon="6.79224"><ele>520.2</ele><time>2023-06-07T17:39:48Z</time></trkpt>
<trkpt lat="46.47538" lon="6.79229"><ele>518.8</ele><time>2023-06-07T17:39:49Z</time></trkpt>
<trkpt lat="46.47532" lon="6.79235"><ele>517.6</ele><time>2023-06-07T17:39:50Z</time></trkpt>
<trkpt lat="46.47526" lon="6.7924"><ele>516.2</ele><time>2023-06-07T17:39:51Z</time></trkpt>
<trkpt lat="46.4752" lon="6.79246"><ele>514.8</ele><time>2023-06-07T17:39:52Z</time></trkpt>
<trkpt lat="46.47513" lon="6.79252"><ele>513</ele><time>2023-06-07T17:39:53Z</time></trkpt>
<trkpt lat="46.47508" lon="6.79258"><ele>512</ele><time>2023-06-07T17:39:54Z</time></trkpt>
<trkpt lat="46.47504" lon="6.79265"><ele>511</ele><time>2023-06-07T17:39:55Z</time></trkpt>
<trkpt lat="46.47502" lon="6.79275"><ele>509.8</ele><time>2023-06-07T17:39:56Z</time></trkpt>
<trkpt lat="46.47501" lon="6.79284"><ele>508.8</ele><time>2023-06-07T17:39:57Z</time></trkpt>
<trkpt lat="46.47497" lon="6.79292"><ele>507.4</ele><time>2023-06-07T17:39:58Z</time></trkpt>
<trkpt lat="46.47493" lon="6.79299"><ele>506.4</ele><time>2023-06-07T17:39:59Z</time></trkpt>
<trkpt lat="46.47488" lon="6.79305"><ele>505.4</ele><time>2023-06-07T17:40:00Z</time></trkpt>
<trkpt lat="46.47485" lon="6.7931"><ele>504.2</ele><time>2023-06-07T17:40:01Z</time></trkpt>
<trkpt lat="46.47481" lon="6.79313"><ele>502.8</ele><time>2023-06-07T17:40:02Z</time></trkpt>
<trkpt lat="46.47478" lon="6.79313"><ele>501.6</ele><time>2023-06-07T17:40:03Z</time></trkpt>
<trkpt lat="46.47476" lon="6.79311"><ele>500.2</ele><time>2023-06-07T17:40:04Z</time></trkpt>
<trkpt lat="46.47475" lon="6.79309"><ele>499.4</ele><time>2023-06-07T17:40:05Z</time></trkpt>
<trkpt lat="46.47475" lon="6.79305"><ele>498.6</ele><time>2023-06-07T17:40:06Z</time></trkpt>
<trkpt lat="46.47477" lon="6.79298"><ele>497.6</ele><time>2023-06-07T17:40:08Z</time></trkpt>
<trkpt lat="46.47489" lon="6.79279"><ele>497</ele><time>2023-06-07T17:40:14Z</time></trkpt>
<trkpt lat="46.47496" lon="6.79262"><ele>496.8</ele><time>2023-06-07T17:40:19Z</time></trkpt>
<trkpt lat="46.475" lon="6.7924"><ele>497</ele><time>2023-06-07T17:40:25Z</time></trkpt>
<trkpt lat="46.47506" lon="6.7922"><ele>497</ele><time>2023-06-07T17:40:31Z</time></trkpt>
<trkpt lat="46.47507" lon="6.79218"><ele>497</ele><time>2023-06-07T17:40:32Z</time></trkpt>
<trkpt lat="46.47507" lon="6.79217"><ele>497.4</ele><time>2023-06-07T17:40:36Z</time></trkpt>
<trkpt lat="46.47508" lon="6.79219"><ele>497.2</ele><time>2023-06-07T17:40:42Z</time></trkpt>
<trkpt lat="46.47508" lon="6.79219"><ele>497.2</ele><time>2023-06-07T17:40:43Z</time></trkpt>
<trkpt lat="46.47507" lon="6.7922"><ele>497</ele><time>2023-06-07T17:40:50Z</time></trkpt>
<trkpt lat="46.47507" lon="6.79217"><ele>496.8</ele><time>2023-06-07T17:40:59Z</time></trkpt>
<trkpt lat="46.47507" lon="6.79219"><ele>496.8</ele><time>2023-06-07T17:41:03Z</time></trkpt>
<trkpt lat="46.47508" lon="6.79219"><ele>496.8</ele><time>2023-06-07T17:41:04Z</time></trkpt>
<trkpt lat="46.47507" lon="6.79219"><ele>496.8</ele><time>2023-06-07T17:41:10Z</time></trkpt>
<trkpt lat="46.47507" lon="6.79219"><ele>496.6</ele><time>2023-06-07T17:41:17Z</time></trkpt>
<trkpt lat="46.47506" lon="6.79219"><ele>497.2</ele><time>2023-06-07T17:41:23Z</time></trkpt>
<trkpt lat="46.47506" lon="6.79219"><ele>497</ele><time>2023-06-07T17:41:29Z</time></trkpt>
<trkpt lat="46.47507" lon="6.7922"><ele>496.8</ele><time>2023-06-07T17:41:35Z</time></trkpt>
<trkpt lat="46.47508" lon="6.79219"><ele>496.8</ele><time>2023-06-07T17:41:36Z</time></trkpt>
<trkpt lat="46.47511" lon="6.79212"><ele>496.8</ele><time>2023-06-07T17:41:40Z</time></trkpt>
<trkpt lat="46.47515" lon="6.79194"><ele>496.6</ele><time>2023-06-07T17:41:44Z</time></trkpt>
<trkpt lat="46.47523" lon="6.79153"><ele>497.2</ele><time>2023-06-07T17:41:52Z</time></trkpt>
<trkpt lat="46.47534" lon="6.79125"><ele>497.4</ele><time>2023-06-07T17:41:58Z</time></trkpt>
<trkpt lat="46.47539" lon="6.7911"><ele>497.6</ele><time>2023-06-07T17:42:01Z</time></trkpt>
<trkpt lat="46.47546" lon="6.79092"><ele>497.8</ele><time>2023-06-07T17:42:05Z</time></trkpt>
<trkpt lat="46.47555" lon="6.79072"><ele>498.6</ele><time>2023-06-07T17:42:10Z</time></trkpt>
<trkpt lat="46.47558" lon="6.79066"><ele>499</ele><time>2023-06-07T17:42:12Z</time></trkpt>
<trkpt lat="46.4756" lon="6.79062"><ele>499.2</ele><time>2023-06-07T17:42:13Z</time></trkpt>
<trkpt lat="46.47569" lon="6.7905"><ele>499.6</ele><time>2023-06-07T17:42:18Z</time></trkpt>
<trkpt lat="46.47571" lon="6.79048"><ele>499.8</ele><time>2023-06-07T17:42:19Z</time></trkpt>
<trkpt lat="46.47579" lon="6.79036"><ele>500.6</ele><time>2023-06-07T17:42:25Z</time></trkpt>
<trkpt lat="46.47582" lon="6.79031"><ele>500.8</ele><time>2023-06-07T17:42:27Z</time></trkpt>
<trkpt lat="46.47587" lon="6.7902"><ele>501</ele><time>2023-06-07T17:42:31Z</time></trkpt>
<trkpt lat="46.47596" lon="6.79006"><ele>501.8</ele><time>2023-06-07T17:42:37Z</time></trkpt>
<trkpt lat="46.47601" lon="6.78998"><ele>502.2</ele><time>2023-06-07T17:42:40Z</time></trkpt>
<trkpt lat="46.47608" lon="6.78988"><ele>503</ele><time>2023-06-07T17:42:45Z</time></trkpt>
<trkpt lat="46.47612" lon="6.78983"><ele>503.4</ele><time>2023-06-07T17:42:47Z</time></trkpt>
<trkpt lat="46.47616" lon="6.78971"><ele>503.8</ele><time>2023-06-07T17:42:51Z</time></trkpt>
<trkpt lat="46.47617" lon="6.78969"><ele>504</ele><time>2023-06-07T17:42:52Z</time></trkpt>
<trkpt lat="46.47618" lon="6.78966"><ele>504.2</ele><time>2023-06-07T17:42:53Z</time></trkpt>
<trkpt lat="46.47622" lon="6.78958"><ele>504.6</ele><time>2023-06-07T17:42:56Z</time></trkpt>
<trkpt lat="46.47626" lon="6.78951"><ele>505</ele><time>2023-06-07T17:42:59Z</time></trkpt>
<trkpt lat="46.47627" lon="6.78948"><ele>505.2</ele><time>2023-06-07T17:43:00Z</time></trkpt>
<trkpt lat="46.47631" lon="6.78943"><ele>505.4</ele><time>2023-06-07T17:43:02Z</time></trkpt>
<trkpt lat="46.47635" lon="6.78935"><ele>505.8</ele><time>2023-06-07T17:43:05Z</time></trkpt>
<trkpt lat="46.47638" lon="6.78932"><ele>506.2</ele><time>2023-06-07T17:43:07Z</time></trkpt>
<trkpt lat="46.47646" lon="6.78916"><ele>507</ele><time>2023-06-07T17:43:14Z</time></trkpt>
<trkpt lat="46.47647" lon="6.78913"><ele>507.2</ele><time>2023-06-07T17:43:15Z</time></trkpt>
<trkpt lat="46.47653" lon="6.78893"><ele>508.2</ele><time>2023-06-07T17:43:23Z</time></trkpt>
<trkpt lat="46.47658" lon="6.78873"><ele>508.8</ele><time>2023-06-07T17:43:30Z</time></trkpt>
<trkpt lat="46.4766" lon="6.7886"><ele>509.2</ele><time>2023-06-07T17:43:34Z</time></trkpt>
<trkpt lat="46.47661" lon="6.78851"><ele>509.6</ele><time>2023-06-07T17:43:37Z</time></trkpt>
<trkpt lat="46.47666" lon="6.78829"><ele>510.4</ele><time>2023-06-07T17:43:44Z</time></trkpt>
<trkpt lat="46.47669" lon="6.78818"><ele>510.8</ele><time>2023-06-07T17:43:48Z</time></trkpt>
<trkpt lat="46.47673" lon="6.78803"><ele>511.4</ele><time>2023-06-07T17:43:53Z</time></trkpt>
<trkpt lat="46.47676" lon="6.78792"><ele>511.4</ele><time>2023-06-07T17:43:57Z</time></trkpt>
<trkpt lat="46.47683" lon="6.78765"><ele>512.4</ele><time>2023-06-07T17:44:06Z</time></trkpt>
<trkpt lat="46.47688" lon="6.78741"><ele>513.4</ele><time>2023-06-07T17:44:13Z</time></trkpt>
<trkpt lat="46.47691" lon="6.78727"><ele>513.8</ele><time>2023-06-07T17:44:17Z</time></trkpt>
<trkpt lat="46.47696" lon="6.787"><ele>514.6</ele><time>2023-06-07T17:44:25Z</time></trkpt>
<trkpt lat="46.47698" lon="6.78695"><ele>514.8</ele><time>2023-06-07T17:44:27Z</time></trkpt>
<trkpt lat="46.47702" lon="6.78676"><ele>515.6</ele><time>2023-06-07T17:44:33Z</time></trkpt>
<trkpt lat="46.47704" lon="6.78664"><ele>516.4</ele><time>2023-06-07T17:44:37Z</time></trkpt>
<trkpt lat="46.47706" lon="6.78654"><ele>516.8</ele><time>2023-06-07T17:44:40Z</time></trkpt>
<trkpt lat="46.47709" lon="6.78635"><ele>517.8</ele><time>2023-06-07T17:44:46Z</time></trkpt>
<trkpt lat="46.47709" lon="6.78632"><ele>517.8</ele><time>2023-06-07T17:44:47Z</time></trkpt>
<trkpt lat="46.47714" lon="6.78606"><ele>518.8</ele><time>2023-06-07T17:44:56Z</time></trkpt>
<trkpt lat="46.47714" lon="6.78603"><ele>519</ele><time>2023-06-07T17:44:57Z</time></trkpt>
<trkpt lat="46.47717" lon="6.78585"><ele>519.8</ele><time>2023-06-07T17:45:03Z</time></trkpt>
<trkpt lat="46.47718" lon="6.78573"><ele>520.4</ele><time>2023-06-07T17:45:07Z</time></trkpt>
<trkpt lat="46.47719" lon="6.78564"><ele>521</ele><time>2023-06-07T17:45:10Z</time></trkpt>
<trkpt lat="46.47723" lon="6.78538"><ele>521.8</ele><time>2023-06-07T17:45:18Z</time></trkpt>
<trkpt lat="46.47723" lon="6.78531"><ele>522</ele><time>2023-06-07T17:45:20Z</time></trkpt>
<trkpt lat="46.47725" lon="6.78514"><ele>523</ele><time>2023-06-07T17:45:26Z</time></trkpt>
<trkpt lat="46.47725" lon="6.78511"><ele>523.2</ele><time>2023-06-07T17:45:27Z</time></trkpt>
<trkpt lat="46.47731" lon="6.78489"><ele>524.2</ele><time>2023-06-07T17:45:35Z</time></trkpt>
<trkpt lat="46.47737" lon="6.78469"><ele>525.4</ele><time>2023-06-07T17:45:42Z</time></trkpt>
<trkpt lat="46.4774" lon="6.7846"><ele>525.8</ele><time>2023-06-07T17:45:45Z</time></trkpt>
<trkpt lat="46.47743" lon="6.78451"><ele>526.4</ele><time>2023-06-07T17:45:49Z</time></trkpt>
<trkpt lat="46.47748" lon="6.78438"><ele>527</ele><time>2023-06-07T17:45:54Z</time></trkpt>
<trkpt lat="46.47751" lon="6.7843"><ele>527.4</ele><time>2023-06-07T17:45:57Z</time></trkpt>
<trkpt lat="46.47756" lon="6.78411"><ele>528.2</ele><time>2023-06-07T17:46:03Z</time></trkpt>
<trkpt lat="46.47759" lon="6.78403"><ele>528.4</ele><time>2023-06-07T17:46:06Z</time></trkpt>
<trkpt lat="46.47767" lon="6.78384"><ele>529.4</ele><time>2023-06-07T17:46:13Z</time></trkpt>
<trkpt lat="46.47769" lon="6.78381"><ele>529.6</ele><time>2023-06-07T17:46:14Z</time></trkpt>
<trkpt lat="46.47782" lon="6.78348"><ele>530.4</ele><time>2023-06-07T17:46:25Z</time></trkpt>
<trkpt lat="46.47783" lon="6.78345"><ele>530.6</ele><time>2023-06-07T17:46:26Z</time></trkpt>
<trkpt lat="46.47797" lon="6.78313"><ele>531.6</ele><time>2023-06-07T17:46:37Z</time></trkpt>
<trkpt lat="46.47813" lon="6.78278"><ele>532.6</ele><time>2023-06-07T17:46:48Z</time></trkpt>
<trkpt lat="46.47814" lon="6.78275"><ele>532.8</ele><time>2023-06-07T17:46:49Z</time></trkpt>
<trkpt lat="46.47824" lon="6.78253"><ele>534</ele><time>2023-06-07T17:46:56Z</time></trkpt>
<trkpt lat="46.47828" lon="6.78247"><ele>534.4</ele><time>2023-06-07T17:46:58Z</time></trkpt>
<trkpt lat="46.47834" lon="6.78235"><ele>535</ele><time>2023-06-07T17:47:02Z</time></trkpt>
<trkpt lat="46.47844" lon="6.78217"><ele>536</ele><time>2023-06-07T17:47:08Z</time></trkpt>
<trkpt lat="46.4785" lon="6.78198"><ele>536.8</ele><time>2023-06-07T17:47:13Z</time></trkpt>
<trkpt lat="46.47851" lon="6.7819"><ele>537</ele><time>2023-06-07T17:47:15Z</time></trkpt>
<trkpt lat="46.47846" lon="6.78164"><ele>538.2</ele><time>2023-06-07T17:47:22Z</time></trkpt>
<trkpt lat="46.47839" lon="6.78141"><ele>539.2</ele><time>2023-06-07T17:47:29Z</time></trkpt>
<trkpt lat="46.47837" lon="6.78132"><ele>540</ele><time>2023-06-07T17:47:32Z</time></trkpt>
<trkpt lat="46.47837" lon="6.78127"><ele>540.4</ele><time>2023-06-07T17:47:34Z</time></trkpt>
<trkpt lat="46.47834" lon="6.78122"><ele>540.8</ele><time>2023-06-07T17:47:37Z</time></trkpt>
<trkpt lat="46.47824" lon="6.78107"><ele>540.8</ele><time>2023-06-07T17:47:41Z</time></trkpt>
<trkpt lat="46.47809" lon="6.78084"><ele>539.6</ele><time>2023-06-07T17:47:44Z</time></trkpt>
<trkpt lat="46.47803" lon="6.78076"><ele>539.2</ele><time>2023-06-07T17:47:45Z</time></trkpt>
<trkpt lat="46.47796" lon="6.78067"><ele>537.4</ele><time>2023-06-07T17:47:46Z</time></trkpt>
<trkpt lat="46.4779" lon="6.78059"><ele>536</ele><time>2023-06-07T17:47:47Z</time></trkpt>
<trkpt lat="46.47785" lon="6.78049"><ele>535</ele><time>2023-06-07T17:47:48Z</time></trkpt>
<trkpt lat="46.47782" lon="6.78038"><ele>533</ele><time>2023-06-07T17:47:49Z</time></trkpt>
<trkpt lat="46.4778" lon="6.78028"><ele>531.8</ele><time>2023-06-07T17:47:50Z</time></trkpt>
<trkpt lat="46.47778" lon="6.78019"><ele>530.6</ele><time>2023-06-07T17:47:51Z</time></trkpt>
<trkpt lat="46.47778" lon="6.78014"><ele>529.6</ele><time>2023-06-07T17:47:52Z</time></trkpt>
<trkpt lat="46.47777" lon="6.7801"><ele>527.8</ele><time>2023-06-07T17:47:53Z</time></trkpt>
<trkpt lat="46.47777" lon="6.78007"><ele>526.2</ele><time>2023-06-07T17:47:54Z</time></trkpt>
<trkpt lat="46.47776" lon="6.78001"><ele>524.2</ele><time>2023-06-07T17:47:56Z</time></trkpt>
<trkpt lat="46.47776" lon="6.77996"><ele>523</ele><time>2023-06-07T17:47:58Z</time></trkpt>
<trkpt lat="46.47776" lon="6.77991"><ele>522</ele><time>2023-06-07T17:48:01Z</time></trkpt>
<trkpt lat="46.47776" lon="6.7799"><ele>521.6</ele><time>2023-06-07T17:48:02Z</time></trkpt>
<trkpt lat="46.47777" lon="6.7799"><ele>521</ele><time>2023-06-07T17:48:06Z</time></trkpt>
<trkpt lat="46.47777" lon="6.7799"><ele>520.6</ele><time>2023-06-07T17:48:10Z</time></trkpt>
<trkpt lat="46.47775" lon="6.77981"><ele>520.6</ele><time>2023-06-07T17:48:13Z</time></trkpt>
<trkpt lat="46.47771" lon="6.77961"><ele>519.4</ele><time>2023-06-07T17:48:17Z</time></trkpt>
<trkpt lat="46.47768" lon="6.77953"><ele>518.6</ele><time>2023-06-07T17:48:19Z</time></trkpt>
<trkpt lat="46.47767" lon="6.77951"><ele>518.2</ele><time>2023-06-07T17:48:20Z</time></trkpt>
<trkpt lat="46.47767" lon="6.7795"><ele>517.2</ele><time>2023-06-07T17:48:22Z</time></trkpt>
<trkpt lat="46.47767" lon="6.77949"><ele>517</ele><time>2023-06-07T17:48:23Z</time></trkpt>
<trkpt lat="46.47767" lon="6.77948"><ele>516.4</ele><time>2023-06-07T17:48:26Z</time></trkpt>
<trkpt lat="46.47766" lon="6.77946"><ele>516.2</ele><time>2023-06-07T17:48:28Z</time></trkpt>
<trkpt lat="46.47765" lon="6.77944"><ele>516</ele><time>2023-06-07T17:48:30Z</time></trkpt>
<trkpt lat="46.47765" lon="6.77944"><ele>515.4</ele><time>2023-06-07T17:48:36Z</time></trkpt>
<trkpt lat="46.47765" lon="6.77942"><ele>515.4</ele><time>2023-06-07T17:48:45Z</time></trkpt>
<trkpt lat="46.47765" lon="6.77942"><ele>515</ele><time>2023-06-07T17:48:53Z</time></trkpt>
<trkpt lat="46.47763" lon="6.77939"><ele>515.2</ele><time>2023-06-07T17:48:58Z</time></trkpt>
<trkpt lat="46.47762" lon="6.77934"><ele>515</ele><time>2023-06-07T17:49:02Z</time></trkpt>
<trkpt lat="46.47761" lon="6.77932"><ele>514.8</ele><time>2023-06-07T17:49:04Z</time></trkpt>
<trkpt lat="46.47755" lon="6.77926"><ele>514</ele><time>2023-06-07T17:49:08Z</time></trkpt>
<trkpt lat="46.47753" lon="6.77921"><ele>513.6</ele><time>2023-06-07T17:49:10Z</time></trkpt>
<trkpt lat="46.4775" lon="6.77915"><ele>512.8</ele><time>2023-06-07T17:49:13Z</time></trkpt>
<trkpt lat="46.47749" lon="6.77914"><ele>512.4</ele><time>2023-06-07T17:49:16Z</time></trkpt>
<trkpt lat="46.47746" lon="6.77909"><ele>512</ele><time>2023-06-07T17:49:20Z</time></trkpt>
<trkpt lat="46.47742" lon="6.77902"><ele>511.6</ele><time>2023-06-07T17:49:24Z</time></trkpt>
<trkpt lat="46.47741" lon="6.77901"><ele>511.4</ele><time>2023-06-07T17:49:25Z</time></trkpt>
<trkpt lat="46.47737" lon="6.77894"><ele>510.4</ele><time>2023-06-07T17:49:30Z</time></trkpt>
<trkpt lat="46.47733" lon="6.77889"><ele>509.6</ele><time>2023-06-07T17:49:35Z</time></trkpt>
<trkpt lat="46.4773" lon="6.77886"><ele>509.4</ele><time>2023-06-07T17:49:37Z</time></trkpt>
<trkpt lat="46.47727" lon="6.77877"><ele>508.8</ele><time>2023-06-07T17:49:42Z</time></trkpt>
<trkpt lat="46.47719" lon="6.77871"><ele>508.4</ele><time>2023-06-07T17:49:48Z</time></trkpt>
<trkpt lat="46.47717" lon="6.7787"><ele>508.4</ele><time>2023-06-07T17:49:49Z</time></trkpt>
<trkpt lat="46.47712" lon="6.77868"><ele>507</ele><time>2023-06-07T17:49:53Z</time></trkpt>
<trkpt lat="46.47702" lon="6.77869"><ele>506.2</ele><time>2023-06-07T17:49:59Z</time></trkpt>
<trkpt lat="46.477" lon="6.77868"><ele>506.2</ele><time>2023-06-07T17:50:00Z</time></trkpt>
<trkpt lat="46.47698" lon="6.77868"><ele>505.8</ele><time>2023-06-07T17:50:01Z</time></trkpt>
<trkpt lat="46.47695" lon="6.77867"><ele>505.2</ele><time>2023-06-07T17:50:04Z</time></trkpt>
<trkpt lat="46.47694" lon="6.77867"><ele>505</ele><time>2023-06-07T17:50:05Z</time></trkpt>
<trkpt lat="46.47691" lon="6.77868"><ele>504.8</ele><time>2023-06-07T17:50:07Z</time></trkpt>
<trkpt lat="46.47685" lon="6.77867"><ele>504.6</ele><time>2023-06-07T17:50:09Z</time></trkpt>
<trkpt lat="46.47676" lon="6.77867"><ele>504.2</ele><time>2023-06-07T17:50:11Z</time></trkpt>
<trkpt lat="46.47664" lon="6.77868"><ele>503.4</ele><time>2023-06-07T17:50:13Z</time></trkpt>
<trkpt lat="46.47655" lon="6.77869"><ele>502.4</ele><time>2023-06-07T17:50:15Z</time></trkpt>
<trkpt lat="46.47647" lon="6.77867"><ele>501.2</ele><time>2023-06-07T17:50:17Z</time></trkpt>
<trkpt lat="46.47643" lon="6.77862"><ele>500.8</ele><time>2023-06-07T17:50:18Z</time></trkpt>
<trkpt lat="46.47638" lon="6.77845"><ele>500.2</ele><time>2023-06-07T17:50:20Z</time></trkpt>
<trkpt lat="46.47634" lon="6.77836"><ele>499.6</ele><time>2023-06-07T17:50:21Z</time></trkpt>
<trkpt lat="46.47626" lon="6.77819"><ele>498.4</ele><time>2023-06-07T17:50:23Z</time></trkpt>
<trkpt lat="46.47622" lon="6.77812"><ele>497.6</ele><time>2023-06-07T17:50:24Z</time></trkpt>
<trkpt lat="46.47616" lon="6.77806"><ele>496.4</ele><time>2023-06-07T17:50:25Z</time></trkpt>
<trkpt lat="46.47611" lon="6.77799"><ele>495.4</ele><time>2023-06-07T17:50:26Z</time></trkpt>
<trkpt lat="46.47607" lon="6.77794"><ele>494.2</ele><time>2023-06-07T17:50:27Z</time></trkpt>
<trkpt lat="46.476" lon="6.77786"><ele>492.6</ele><time>2023-06-07T17:50:29Z</time></trkpt>
<trkpt lat="46.47599" lon="6.77775"><ele>491.8</ele><time>2023-06-07T17:50:31Z</time></trkpt>
<trkpt lat="46.47602" lon="6.77768"><ele>491.4</ele><time>2023-06-07T17:50:32Z</time></trkpt>
<trkpt lat="46.47605" lon="6.77763"><ele>491.2</ele><time>2023-06-07T17:50:33Z</time></trkpt>
<trkpt lat="46.47609" lon="6.77759"><ele>490.4</ele><time>2023-06-07T17:50:35Z</time></trkpt>
<trkpt lat="46.47612" lon="6.77754"><ele>489</ele><time>2023-06-07T17:50:37Z</time></trkpt>
<trkpt lat="46.47616" lon="6.7775"><ele>488.6</ele><time>2023-06-07T17:50:39Z</time></trkpt>
<trkpt lat="46.47623" lon="6.77745"><ele>488.6</ele><time>2023-06-07T17:50:41Z</time></trkpt>
<trkpt lat="46.4763" lon="6.7773"><ele>488.4</ele><time>2023-06-07T17:50:45Z</time></trkpt>
<trkpt lat="46.47639" lon="6.7772"><ele>488.4</ele><time>2023-06-07T17:50:49Z</time></trkpt>
<trkpt lat="46.47652" lon="6.77711"><ele>489.4</ele><time>2023-06-07T17:50:55Z</time></trkpt>
<trkpt lat="46.47663" lon="6.77695"><ele>490.2</ele><time>2023-06-07T17:51:02Z</time></trkpt>
<trkpt lat="46.47672" lon="6.77686"><ele>491</ele><time>2023-06-07T17:51:08Z</time></trkpt>
<trkpt lat="46.47677" lon="6.77683"><ele>491.2</ele><time>2023-06-07T17:51:11Z</time></trkpt>
<trkpt lat="46.47684" lon="6.77676"><ele>492.2</ele><time>2023-06-07T17:51:16Z</time></trkpt>
<trkpt lat="46.47685" lon="6.77674"><ele>492.2</ele><time>2023-06-07T17:51:17Z</time></trkpt>
<trkpt lat="46.4769" lon="6.77664"><ele>493.4</ele><time>2023-06-07T17:51:22Z</time></trkpt>
<trkpt lat="46.47692" lon="6.77659"><ele>494.2</ele><time>2023-06-07T17:51:26Z</time></trkpt>
<trkpt lat="46.47692" lon="6.77657"><ele>494.6</ele><time>2023-06-07T17:51:27Z</time></trkpt>
<trkpt lat="46.47693" lon="6.77648"><ele>495.8</ele><time>2023-06-07T17:51:32Z</time></trkpt>
<trkpt lat="46.47694" lon="6.77644"><ele>496.2</ele><time>2023-06-07T17:51:34Z</time></trkpt>
<trkpt lat="46.47694" lon="6.77635"><ele>496.8</ele><time>2023-06-07T17:51:39Z</time></trkpt>
<trkpt lat="46.47695" lon="6.77632"><ele>497.2</ele><time>2023-06-07T17:51:41Z</time></trkpt>
<trkpt lat="46.47695" lon="6.7763"><ele>497.4</ele><time>2023-06-07T17:51:42Z</time></trkpt>
<trkpt lat="46.47696" lon="6.77629"><ele>497.6</ele><time>2023-06-07T17:51:43Z</time></trkpt>
<trkpt lat="46.47697" lon="6.77625"><ele>497.8</ele><time>2023-06-07T17:51:45Z</time></trkpt>
<trkpt lat="46.47698" lon="6.77624"><ele>498.2</ele><time>2023-06-07T17:51:46Z</time></trkpt>
<trkpt lat="46.477" lon="6.77618"><ele>498.6</ele><time>2023-06-07T17:51:50Z</time></trkpt>
<trkpt lat="46.47702" lon="6.77609"><ele>499.2</ele><time>2023-06-07T17:51:55Z</time></trkpt>
<trkpt lat="46.47705" lon="6.77597"><ele>499.8</ele><time>2023-06-07T17:52:02Z</time></trkpt>
<trkpt lat="46.47708" lon="6.77591"><ele>500.2</ele><time>2023-06-07T17:52:06Z</time></trkpt>
<trkpt lat="46.4771" lon="6.77585"><ele>500.8</ele><time>2023-06-07T17:52:10Z</time></trkpt>
<trkpt lat="46.47712" lon="6.7758"><ele>501.4</ele><time>2023-06-07T17:52:13Z</time></trkpt>
<trkpt lat="46.47713" lon="6.77578"><ele>501.6</ele><time>2023-06-07T17:52:15Z</time></trkpt>
<trkpt lat="46.47714" lon="6.77574"><ele>502</ele><time>2023-06-07T17:52:17Z</time></trkpt>
<trkpt lat="46.47715" lon="6.7757"><ele>502.4</ele><time>2023-06-07T17:52:19Z</time></trkpt>
<trkpt lat="46.47717" lon="6.7756"><ele>503.4</ele><time>2023-06-07T17:52:24Z</time></trkpt>
<trkpt lat="46.47718" lon="6.77557"><ele>504</ele><time>2023-06-07T17:52:26Z</time></trkpt>
<trkpt lat="46.47719" lon="6.77552"><ele>504.6</ele><time>2023-06-07T17:52:30Z</time></trkpt>
<trkpt lat="46.47721" lon="6.77548"><ele>505</ele><time>2023-06-07T17:52:33Z</time></trkpt>
<trkpt lat="46.47721" lon="6.77542"><ele>505.8</ele><time>2023-06-07T17:52:37Z</time></trkpt>
<trkpt lat="46.47723" lon="6.77541"><ele>506</ele><time>2023-06-07T17:52:39Z</time></trkpt>
<trkpt lat="46.47724" lon="6.77533"><ele>506.6</ele><time>2023-06-07T17:52:44Z</time></trkpt>
<trkpt lat="46.47724" lon="6.77531"><ele>506.8</ele><time>2023-06-07T17:52:45Z</time></trkpt>
<trkpt lat="46.47724" lon="6.77523"><ele>507.8</ele><time>2023-06-07T17:52:50Z</time></trkpt>
<trkpt lat="46.47724" lon="6.77522"><ele>507.8</ele><time>2023-06-07T17:52:51Z</time></trkpt>
<trkpt lat="46.47725" lon="6.77516"><ele>508.4</ele><time>2023-06-07T17:52:55Z</time></trkpt>
<trkpt lat="46.47725" lon="6.77513"><ele>508.8</ele><time>2023-06-07T17:52:57Z</time></trkpt>
<trkpt lat="46.47725" lon="6.77512"><ele>509</ele><time>2023-06-07T17:52:58Z</time></trkpt>
<trkpt lat="46.47726" lon="6.77501"><ele>509.8</ele><time>2023-06-07T17:53:03Z</time></trkpt>
<trkpt lat="46.47725" lon="6.77498"><ele>510</ele><time>2023-06-07T17:53:04Z</time></trkpt>
<trkpt lat="46.47722" lon="6.77492"><ele>511</ele><time>2023-06-07T17:53:07Z</time></trkpt>
<trkpt lat="46.4772" lon="6.77491"><ele>511.4</ele><time>2023-06-07T17:53:08Z</time></trkpt>
<trkpt lat="46.47713" lon="6.77488"><ele>512.4</ele><time>2023-06-07T17:53:12Z</time></trkpt>
<trkpt lat="46.47708" lon="6.77487"><ele>512.8</ele><time>2023-06-07T17:53:14Z</time></trkpt>
<trkpt lat="46.47701" lon="6.77487"><ele>513.4</ele><time>2023-06-07T17:53:17Z</time></trkpt>
<trkpt lat="46.47688" lon="6.77484"><ele>514.4</ele><time>2023-06-07T17:53:22Z</time></trkpt>
<trkpt lat="46.47685" lon="6.77483"><ele>514.6</ele><time>2023-06-07T17:53:23Z</time></trkpt>
<trkpt lat="46.47675" lon="6.77481"><ele>515.6</ele><time>2023-06-07T17:53:28Z</time></trkpt>
<trkpt lat="46.47664" lon="6.77477"><ele>516.4</ele><time>2023-06-07T17:53:33Z</time></trkpt>
<trkpt lat="46.4766" lon="6.77476"><ele>516.8</ele><time>2023-06-07T17:53:35Z</time></trkpt>
<trkpt lat="46.47653" lon="6.77467"><ele>517.6</ele><time>2023-06-07T17:53:40Z</time></trkpt>
<trkpt lat="46.47652" lon="6.77463"><ele>517.8</ele><time>2023-06-07T17:53:41Z</time></trkpt>
<trkpt lat="46.47655" lon="6.77456"><ele>517.8</ele><time>2023-06-07T17:53:43Z</time></trkpt>
<trkpt lat="46.47667" lon="6.77415"><ele>517</ele><time>2023-06-07T17:53:52Z</time></trkpt>
<trkpt lat="46.47669" lon="6.77404"><ele>516.6</ele><time>2023-06-07T17:53:54Z</time></trkpt>
<trkpt lat="46.47675" lon="6.77382"><ele>516</ele><time>2023-06-07T17:53:58Z</time></trkpt>
<trkpt lat="46.47679" lon="6.7737"><ele>515</ele><time>2023-06-07T17:54:00Z</time></trkpt>
<trkpt lat="46.47689" lon="6.77348"><ele>513.8</ele><time>2023-06-07T17:54:04Z</time></trkpt>
<trkpt lat="46.47692" lon="6.77342"><ele>513.6</ele><time>2023-06-07T17:54:05Z</time></trkpt>
<trkpt lat="46.47705" lon="6.77314"><ele>513.2</ele><time>2023-06-07T17:54:09Z</time></trkpt>
<trkpt lat="46.47707" lon="6.77304"><ele>513</ele><time>2023-06-07T17:54:10Z</time></trkpt>
<trkpt lat="46.47711" lon="6.77284"><ele>512.2</ele><time>2023-06-07T17:54:12Z</time></trkpt>
<trkpt lat="46.47717" lon="6.77258"><ele>511.2</ele><time>2023-06-07T17:54:14Z</time></trkpt>
<trkpt lat="46.4772" lon="6.77246"><ele>510.8</ele><time>2023-06-07T17:54:15Z</time></trkpt>
<trkpt lat="46.47724" lon="6.77233"><ele>509.4</ele><time>2023-06-07T17:54:16Z</time></trkpt>
<trkpt lat="46.47728" lon="6.77222"><ele>508.6</ele><time>2023-06-07T17:54:17Z</time></trkpt>
<trkpt lat="46.47731" lon="6.7721"><ele>507.4</ele><time>2023-06-07T17:54:18Z</time></trkpt>
<trkpt lat="46.47734" lon="6.772"><ele>506.4</ele><time>2023-06-07T17:54:19Z</time></trkpt>
<trkpt lat="46.47739" lon="6.77181"><ele>505.4</ele><time>2023-06-07T17:54:21Z</time></trkpt>
<trkpt lat="46.47744" lon="6.77164"><ele>504.2</ele><time>2023-06-07T17:54:23Z</time></trkpt>
<trkpt lat="46.47747" lon="6.77156"><ele>504</ele><time>2023-06-07T17:54:24Z</time></trkpt>
<trkpt lat="46.47751" lon="6.7715"><ele>503.4</ele><time>2023-06-07T17:54:25Z</time></trkpt>
<trkpt lat="46.47755" lon="6.77144"><ele>503</ele><time>2023-06-07T17:54:26Z</time></trkpt>
<trkpt lat="46.47762" lon="6.77132"><ele>502.8</ele><time>2023-06-07T17:54:28Z</time></trkpt>
<trkpt lat="46.47765" lon="6.77127"><ele>503</ele><time>2023-06-07T17:54:29Z</time></trkpt>
<trkpt lat="46.47771" lon="6.77116"><ele>503.4</ele><time>2023-06-07T17:54:31Z</time></trkpt>
<trkpt lat="46.47776" lon="6.77107"><ele>504</ele><time>2023-06-07T17:54:33Z</time></trkpt>
<trkpt lat="46.47778" lon="6.77102"><ele>504.4</ele><time>2023-06-07T17:54:34Z</time></trkpt>
<trkpt lat="46.47781" lon="6.77091"><ele>504.6</ele><time>2023-06-07T17:54:36Z</time></trkpt>
<trkpt lat="46.47787" lon="6.77073"><ele>504.8</ele><time>2023-06-07T17:54:39Z</time></trkpt>
<trkpt lat="46.47789" lon="6.77066"><ele>504.8</ele><time>2023-06-07T17:54:40Z</time></trkpt>
<trkpt lat="46.47793" lon="6.77053"><ele>504.4</ele><time>2023-06-07T17:54:42Z</time></trkpt>
<trkpt lat="46.47795" lon="6.77046"><ele>504.4</ele><time>2023-06-07T17:54:43Z</time></trkpt>
<trkpt lat="46.47802" lon="6.77016"><ele>503.8</ele><time>2023-06-07T17:54:47Z</time></trkpt>
<trkpt lat="46.47804" lon="6.77008"><ele>503.6</ele><time>2023-06-07T17:54:48Z</time></trkpt>
<trkpt lat="46.4781" lon="6.76991"><ele>503.2</ele><time>2023-06-07T17:54:50Z</time></trkpt>
<trkpt lat="46.47813" lon="6.76983"><ele>503</ele><time>2023-06-07T17:54:51Z</time></trkpt>
<trkpt lat="46.47824" lon="6.76956"><ele>501.8</ele><time>2023-06-07T17:54:54Z</time></trkpt>
<trkpt lat="46.47832" lon="6.76924"><ele>500.6</ele><time>2023-06-07T17:54:57Z</time></trkpt>
<trkpt lat="46.47837" lon="6.76902"><ele>499.4</ele><time>2023-06-07T17:54:59Z</time></trkpt>
<trkpt lat="46.47842" lon="6.76877"><ele>498.2</ele><time>2023-06-07T17:55:01Z</time></trkpt>
<trkpt lat="46.47848" lon="6.76852"><ele>497.6</ele><time>2023-06-07T17:55:03Z</time></trkpt>
<trkpt lat="46.47851" lon="6.76838"><ele>496.8</ele><time>2023-06-07T17:55:04Z</time></trkpt>
<trkpt lat="46.47857" lon="6.7681"><ele>495</ele><time>2023-06-07T17:55:06Z</time></trkpt>
<trkpt lat="46.47864" lon="6.76782"><ele>493.6</ele><time>2023-06-07T17:55:08Z</time></trkpt>
<trkpt lat="46.47868" lon="6.76768"><ele>493.2</ele><time>2023-06-07T17:55:09Z</time></trkpt>
<trkpt lat="46.47872" lon="6.76754"><ele>492.4</ele><time>2023-06-07T17:55:10Z</time></trkpt>
<trkpt lat="46.47881" lon="6.76728"><ele>489.8</ele><time>2023-06-07T17:55:12Z</time></trkpt>
<trkpt lat="46.4789" lon="6.76706"><ele>488.6</ele><time>2023-06-07T17:55:14Z</time></trkpt>
<trkpt lat="46.47905" lon="6.76674"><ele>488.2</ele><time>2023-06-07T17:55:18Z</time></trkpt>
<trkpt lat="46.47917" lon="6.76647"><ele>489.6</ele><time>2023-06-07T17:55:22Z</time></trkpt>
<trkpt lat="46.47921" lon="6.76634"><ele>488.8</ele><time>2023-06-07T17:55:24Z</time></trkpt>
<trkpt lat="46.47924" lon="6.76627"><ele>488.4</ele><time>2023-06-07T17:55:25Z</time></trkpt>
<trkpt lat="46.47933" lon="6.76602"><ele>487.8</ele><time>2023-06-07T17:55:29Z</time></trkpt>
<trkpt lat="46.47937" lon="6.76588"><ele>487.6</ele><time>2023-06-07T17:55:31Z</time></trkpt>
<trkpt lat="46.47943" lon="6.76573"><ele>487.4</ele><time>2023-06-07T17:55:33Z</time></trkpt>
<trkpt lat="46.47955" lon="6.76546"><ele>486.8</ele><time>2023-06-07T17:55:36Z</time></trkpt>
<trkpt lat="46.47963" lon="6.76514"><ele>486.2</ele><time>2023-06-07T17:55:39Z</time></trkpt>
<trkpt lat="46.47967" lon="6.76495"><ele>486.2</ele><time>2023-06-07T17:55:41Z</time></trkpt>
<trkpt lat="46.47973" lon="6.76471"><ele>487.2</ele><time>2023-06-07T17:55:44Z</time></trkpt>
<trkpt lat="46.47978" lon="6.76456"><ele>487.4</ele><time>2023-06-07T17:55:46Z</time></trkpt>
<trkpt lat="46.47998" lon="6.76408"><ele>486.4</ele><time>2023-06-07T17:55:52Z</time></trkpt>
<trkpt lat="46.48001" lon="6.76401"><ele>486.2</ele><time>2023-06-07T17:55:53Z</time></trkpt>
<trkpt lat="46.48003" lon="6.76396"><ele>486.2</ele><time>2023-06-07T17:55:54Z</time></trkpt>
<trkpt lat="46.48011" lon="6.76383"><ele>487.4</ele><time>2023-06-07T17:55:58Z</time></trkpt>
<trkpt lat="46.48014" lon="6.76379"><ele>488.2</ele><time>2023-06-07T17:56:00Z</time></trkpt>
<trkpt lat="46.48021" lon="6.7637"><ele>489.2</ele><time>2023-06-07T17:56:05Z</time></trkpt>
<trkpt lat="46.48022" lon="6.76368"><ele>489.4</ele><time>2023-06-07T17:56:06Z</time></trkpt>
<trkpt lat="46.4803" lon="6.76358"><ele>490.6</ele><time>2023-06-07T17:56:11Z</time></trkpt>
<trkpt lat="46.48033" lon="6.76354"><ele>491</ele><time>2023-06-07T17:56:13Z</time></trkpt>
<trkpt lat="46.48038" lon="6.76348"><ele>491.8</ele><time>2023-06-07T17:56:17Z</time></trkpt>
<trkpt lat="46.48043" lon="6.7634"><ele>492.4</ele><time>2023-06-07T17:56:21Z</time></trkpt>
<trkpt lat="46.48046" lon="6.76336"><ele>493</ele><time>2023-06-07T17:56:23Z</time></trkpt>
<trkpt lat="46.48054" lon="6.76322"><ele>494.2</ele><time>2023-06-07T17:56:29Z</time></trkpt>
<trkpt lat="46.48055" lon="6.7632"><ele>494.4</ele><time>2023-06-07T17:56:30Z</time></trkpt>
<trkpt lat="46.48059" lon="6.76311"><ele>495.4</ele><time>2023-06-07T17:56:33Z</time></trkpt>
<trkpt lat="46.48065" lon="6.76296"><ele>495.8</ele><time>2023-06-07T17:56:37Z</time></trkpt>
<trkpt lat="46.48067" lon="6.76291"><ele>495.8</ele><time>2023-06-07T17:56:38Z</time></trkpt>
<trkpt lat="46.48081" lon="6.7626"><ele>495.4</ele><time>2023-06-07T17:56:44Z</time></trkpt>
<trkpt lat="46.48107" lon="6.76207"><ele>495</ele><time>2023-06-07T17:56:53Z</time></trkpt>
<trkpt lat="46.48127" lon="6.76177"><ele>495.8</ele><time>2023-06-07T17:57:00Z</time></trkpt>
<trkpt lat="46.48136" lon="6.76162"><ele>496.4</ele><time>2023-06-07T17:57:04Z</time></trkpt>
<trkpt lat="46.48147" lon="6.76138"><ele>497.4</ele><time>2023-06-07T17:57:10Z</time></trkpt>
<trkpt lat="46.48166" lon="6.76095"><ele>498.4</ele><time>2023-06-07T17:57:19Z</time></trkpt>
<trkpt lat="46.48173" lon="6.7608"><ele>498</ele><time>2023-06-07T17:57:21Z</time></trkpt>
<trkpt lat="46.48182" lon="6.76065"><ele>497.4</ele><time>2023-06-07T17:57:23Z</time></trkpt>
<trkpt lat="46.48195" lon="6.76046"><ele>496.4</ele><time>2023-06-07T17:57:26Z</time></trkpt>
<trkpt lat="46.48199" lon="6.76041"><ele>496.4</ele><time>2023-06-07T17:57:27Z</time></trkpt>
<trkpt lat="46.48212" lon="6.76026"><ele>497.2</ele><time>2023-06-07T17:57:32Z</time></trkpt>
<trkpt lat="46.48226" lon="6.76013"><ele>497.4</ele><time>2023-06-07T17:57:36Z</time></trkpt>
<trkpt lat="46.48232" lon="6.76005"><ele>498.2</ele><time>2023-06-07T17:57:38Z</time></trkpt>
<trkpt lat="46.48242" lon="6.75994"><ele>498.6</ele><time>2023-06-07T17:57:41Z</time></trkpt>
<trkpt lat="46.48268" lon="6.75965"><ele>499.6</ele><time>2023-06-07T17:57:49Z</time></trkpt>
<trkpt lat="46.48297" lon="6.75929"><ele>500</ele><time>2023-06-07T17:57:58Z</time></trkpt>
<trkpt lat="46.48328" lon="6.75893"><ele>499.2</ele><time>2023-06-07T17:58:06Z</time></trkpt>
<trkpt lat="46.4837" lon="6.75842"><ele>498.8</ele><time>2023-06-07T17:58:16Z</time></trkpt>
<trkpt lat="46.48374" lon="6.75835"><ele>498.6</ele><time>2023-06-07T17:58:17Z</time></trkpt>
<trkpt lat="46.48378" lon="6.75827"><ele>498.6</ele><time>2023-06-07T17:58:18Z</time></trkpt>
<trkpt lat="46.48388" lon="6.75814"><ele>498</ele><time>2023-06-07T17:58:20Z</time></trkpt>
<trkpt lat="46.484" lon="6.75804"><ele>497.6</ele><time>2023-06-07T17:58:22Z</time></trkpt>
<trkpt lat="46.48417" lon="6.75791"><ele>498</ele><time>2023-06-07T17:58:26Z</time></trkpt>
<trkpt lat="46.48424" lon="6.75784"><ele>499</ele><time>2023-06-07T17:58:29Z</time></trkpt>
<trkpt lat="46.48427" lon="6.75778"><ele>499.4</ele><time>2023-06-07T17:58:31Z</time></trkpt>
<trkpt lat="46.48438" lon="6.75765"><ele>500</ele><time>2023-06-07T17:58:35Z</time></trkpt>
<trkpt lat="46.48447" lon="6.75753"><ele>500</ele><time>2023-06-07T17:58:38Z</time></trkpt>
<trkpt lat="46.48453" lon="6.75745"><ele>499.6</ele><time>2023-06-07T17:58:40Z</time></trkpt>
<trkpt lat="46.48464" lon="6.75731"><ele>499</ele><time>2023-06-07T17:58:43Z</time></trkpt>
<trkpt lat="46.48467" lon="6.75725"><ele>499</ele><time>2023-06-07T17:58:44Z</time></trkpt>
<trkpt lat="46.48474" lon="6.75714"><ele>498.8</ele><time>2023-06-07T17:58:46Z</time></trkpt>
<trkpt lat="46.48479" lon="6.75702"><ele>498.8</ele><time>2023-06-07T17:58:48Z</time></trkpt>
<trkpt lat="46.48484" lon="6.75691"><ele>499</ele><time>2023-06-07T17:58:50Z</time></trkpt>
<trkpt lat="46.48495" lon="6.75671"><ele>499</ele><time>2023-06-07T17:58:54Z</time></trkpt>
<trkpt lat="46.48516" lon="6.75647"><ele>499</ele><time>2023-06-07T17:58:59Z</time></trkpt>
<trkpt lat="46.48537" lon="6.75608"><ele>498.6</ele><time>2023-06-07T17:59:05Z</time></trkpt>
<trkpt lat="46.48548" lon="6.75584"><ele>497.6</ele><time>2023-06-07T17:59:08Z</time></trkpt>
<trkpt lat="46.48566" lon="6.75548"><ele>496.2</ele><time>2023-06-07T17:59:12Z</time></trkpt>
<trkpt lat="46.48576" lon="6.75525"><ele>494.8</ele><time>2023-06-07T17:59:14Z</time></trkpt>
<trkpt lat="46.48589" lon="6.75504"><ele>493</ele><time>2023-06-07T17:59:16Z</time></trkpt>
<trkpt lat="46.4861" lon="6.75483"><ele>491.4</ele><time>2023-06-07T17:59:19Z</time></trkpt>
<trkpt lat="46.4864" lon="6.75457"><ele>491.6</ele><time>2023-06-07T17:59:24Z</time></trkpt>
<trkpt lat="46.48658" lon="6.75437"><ele>493</ele><time>2023-06-07T17:59:29Z</time></trkpt>
<trkpt lat="46.48684" lon="6.75408"><ele>493.4</ele><time>2023-06-07T17:59:35Z</time></trkpt>
<trkpt lat="46.48701" lon="6.75374"><ele>491.6</ele><time>2023-06-07T17:59:39Z</time></trkpt>
<trkpt lat="46.48713" lon="6.75354"><ele>490.2</ele><time>2023-06-07T17:59:41Z</time></trkpt>
<trkpt lat="46.48719" lon="6.75344"><ele>489.2</ele><time>2023-06-07T17:59:42Z</time></trkpt>
<trkpt lat="46.48724" lon="6.75335"><ele>488.6</ele><time>2023-06-07T17:59:43Z</time></trkpt>
<trkpt lat="46.48733" lon="6.7532"><ele>488</ele><time>2023-06-07T17:59:45Z</time></trkpt>
<trkpt lat="46.48739" lon="6.75309"><ele>488.2</ele><time>2023-06-07T17:59:47Z</time></trkpt>
<trkpt lat="46.48744" lon="6.75302"><ele>489.4</ele><time>2023-06-07T17:59:49Z</time></trkpt>
<trkpt lat="46.48747" lon="6.75296"><ele>490.6</ele><time>2023-06-07T17:59:51Z</time></trkpt>
<trkpt lat="46.48749" lon="6.75293"><ele>490.8</ele><time>2023-06-07T17:59:52Z</time></trkpt>
<trkpt lat="46.48755" lon="6.7528"><ele>491.8</ele><time>2023-06-07T17:59:56Z</time></trkpt>
<trkpt lat="46.48765" lon="6.75259"><ele>492.4</ele><time>2023-06-07T18:00:02Z</time></trkpt>
<trkpt lat="46.48773" lon="6.75247"><ele>492.8</ele><time>2023-06-07T18:00:06Z</time></trkpt>
<trkpt lat="46.48782" lon="6.75235"><ele>493.2</ele><time>2023-06-07T18:00:10Z</time></trkpt>
<trkpt lat="46.48791" lon="6.75219"><ele>493.6</ele><time>2023-06-07T18:00:15Z</time></trkpt>
<trkpt lat="46.48793" lon="6.75216"><ele>493.8</ele><time>2023-06-07T18:00:16Z</time></trkpt>
<trkpt lat="46.48805" lon="6.75203"><ele>494.4</ele><time>2023-06-07T18:00:22Z</time></trkpt>
<trkpt lat="46.48807" lon="6.75201"><ele>494.6</ele><time>2023-06-07T18:00:23Z</time></trkpt>
<trkpt lat="46.48814" lon="6.75194"><ele>494.8</ele><time>2023-06-07T18:00:27Z</time></trkpt>
<trkpt lat="46.4882" lon="6.75189"><ele>495.2</ele><time>2023-06-07T18:00:31Z</time></trkpt>
<trkpt lat="46.48826" lon="6.75184"><ele>496</ele><time>2023-06-07T18:00:36Z</time></trkpt>
<trkpt lat="46.48828" lon="6.75183"><ele>496.4</ele><time>2023-06-07T18:00:38Z</time></trkpt>
<trkpt lat="46.48834" lon="6.75181"><ele>497</ele><time>2023-06-07T18:00:43Z</time></trkpt>
<trkpt lat="46.48837" lon="6.75179"><ele>497.4</ele><time>2023-06-07T18:00:45Z</time></trkpt>
<trkpt lat="46.48845" lon="6.75177"><ele>498.2</ele><time>2023-06-07T18:00:50Z</time></trkpt>
<trkpt lat="46.48853" lon="6.75174"><ele>499.2</ele><time>2023-06-07T18:00:55Z</time></trkpt>
<trkpt lat="46.48858" lon="6.75169"><ele>499.8</ele><time>2023-06-07T18:00:59Z</time></trkpt>
<trkpt lat="46.48861" lon="6.75167"><ele>500.2</ele><time>2023-06-07T18:01:01Z</time></trkpt>
<trkpt lat="46.48864" lon="6.75163"><ele>500.8</ele><time>2023-06-07T18:01:04Z</time></trkpt>
<trkpt lat="46.48868" lon="6.75157"><ele>501.4</ele><time>2023-06-07T18:01:08Z</time></trkpt>
<trkpt lat="46.48869" lon="6.75155"><ele>501.6</ele><time>2023-06-07T18:01:10Z</time></trkpt>
<trkpt lat="46.48873" lon="6.75148"><ele>502.4</ele><time>2023-06-07T18:01:15Z</time></trkpt>
<trkpt lat="46.48874" lon="6.75144"><ele>502.6</ele><time>2023-06-07T18:01:17Z</time></trkpt>
<trkpt lat="46.48876" lon="6.75139"><ele>503</ele><time>2023-06-07T18:01:20Z</time></trkpt>
<trkpt lat="46.48877" lon="6.75135"><ele>503.2</ele><time>2023-06-07T18:01:23Z</time></trkpt>
<trkpt lat="46.48877" lon="6.75134"><ele>503.4</ele><time>2023-06-07T18:01:24Z</time></trkpt>
<trkpt lat="46.4888" lon="6.75124"><ele>504.4</ele><time>2023-06-07T18:01:30Z</time></trkpt>
<trkpt lat="46.48881" lon="6.75121"><ele>504.6</ele><time>2023-06-07T18:01:32Z</time></trkpt>
<trkpt lat="46.48883" lon="6.75113"><ele>505.2</ele><time>2023-06-07T18:01:37Z</time></trkpt>
<trkpt lat="46.48884" lon="6.75107"><ele>505.6</ele><time>2023-06-07T18:01:41Z</time></trkpt>
<trkpt lat="46.48885" lon="6.75103"><ele>506.2</ele><time>2023-06-07T18:01:44Z</time></trkpt>
<trkpt lat="46.48885" lon="6.75099"><ele>506.4</ele><time>2023-06-07T18:01:46Z</time></trkpt>
<trkpt lat="46.48886" lon="6.75098"><ele>506.8</ele><time>2023-06-07T18:01:47Z</time></trkpt>
<trkpt lat="46.48887" lon="6.75097"><ele>506.8</ele><time>2023-06-07T18:01:48Z</time></trkpt>
<trkpt lat="46.48892" lon="6.7509"><ele>507.6</ele><time>2023-06-07T18:01:54Z</time></trkpt>
<trkpt lat="46.48893" lon="6.75089"><ele>507.8</ele><time>2023-06-07T18:01:55Z</time></trkpt>
<trkpt lat="46.48897" lon="6.75083"><ele>508.6</ele><time>2023-06-07T18:02:00Z</time></trkpt>
<trkpt lat="46.48897" lon="6.75082"><ele>508.8</ele><time>2023-06-07T18:02:01Z</time></trkpt>
<trkpt lat="46.48898" lon="6.75082"><ele>508.8</ele><time>2023-06-07T18:02:02Z</time></trkpt>
<trkpt lat="46.48902" lon="6.75077"><ele>509.6</ele><time>2023-06-07T18:02:07Z</time></trkpt>
<trkpt lat="46.48903" lon="6.75076"><ele>509.8</ele><time>2023-06-07T18:02:08Z</time></trkpt>
<trkpt lat="46.48908" lon="6.7507"><ele>511</ele><time>2023-06-07T18:02:14Z</time></trkpt>
<trkpt lat="46.48909" lon="6.75069"><ele>511.2</ele><time>2023-06-07T18:02:15Z</time></trkpt>
<trkpt lat="46.48913" lon="6.75067"><ele>512</ele><time>2023-06-07T18:02:20Z</time></trkpt>
<trkpt lat="46.48914" lon="6.75067"><ele>512.2</ele><time>2023-06-07T18:02:21Z</time></trkpt>
<trkpt lat="46.4892" lon="6.75064"><ele>513</ele><time>2023-06-07T18:02:26Z</time></trkpt>
<trkpt lat="46.4892" lon="6.75063"><ele>513.2</ele><time>2023-06-07T18:02:27Z</time></trkpt>
<trkpt lat="46.48925" lon="6.75064"><ele>514</ele><time>2023-06-07T18:02:33Z</time></trkpt>
<trkpt lat="46.48927" lon="6.75064"><ele>514.2</ele><time>2023-06-07T18:02:34Z</time></trkpt>
<trkpt lat="46.48932" lon="6.75062"><ele>515.2</ele><time>2023-06-07T18:02:40Z</time></trkpt>
<trkpt lat="46.48938" lon="6.75057"><ele>516.2</ele><time>2023-06-07T18:02:46Z</time></trkpt>
<trkpt lat="46.48939" lon="6.75057"><ele>516.4</ele><time>2023-06-07T18:02:47Z</time></trkpt>
<trkpt lat="46.48943" lon="6.75055"><ele>517.4</ele><time>2023-06-07T18:02:52Z</time></trkpt>
<trkpt lat="46.48943" lon="6.75055"><ele>517.4</ele><time>2023-06-07T18:02:53Z</time></trkpt>
<trkpt lat="46.48948" lon="6.75052"><ele>518.4</ele><time>2023-06-07T18:02:58Z</time></trkpt>
<trkpt lat="46.48949" lon="6.75052"><ele>518.6</ele><time>2023-06-07T18:02:59Z</time></trkpt>
<trkpt lat="46.48953" lon="6.75048"><ele>519.4</ele><time>2023-06-07T18:03:03Z</time></trkpt>
<trkpt lat="46.48955" lon="6.75047"><ele>520</ele><time>2023-06-07T18:03:06Z</time></trkpt>
<trkpt lat="46.48958" lon="6.75047"><ele>520.6</ele><time>2023-06-07T18:03:08Z</time></trkpt>
<trkpt lat="46.48963" lon="6.75047"><ele>521</ele><time>2023-06-07T18:03:11Z</time></trkpt>
<trkpt lat="46.48976" lon="6.75037"><ele>521</ele><time>2023-06-07T18:03:15Z</time></trkpt>
<trkpt lat="46.48998" lon="6.75012"><ele>520.6</ele><time>2023-06-07T18:03:21Z</time></trkpt>
<trkpt lat="46.49008" lon="6.74996"><ele>520.2</ele><time>2023-06-07T18:03:24Z</time></trkpt>
<trkpt lat="46.49013" lon="6.74979"><ele>519.8</ele><time>2023-06-07T18:03:26Z</time></trkpt>
<trkpt lat="46.49017" lon="6.74959"><ele>519.4</ele><time>2023-06-07T18:03:28Z</time></trkpt>
<trkpt lat="46.49023" lon="6.74938"><ele>518.4</ele><time>2023-06-07T18:03:30Z</time></trkpt>
<trkpt lat="46.49025" lon="6.74928"><ele>517.8</ele><time>2023-06-07T18:03:31Z</time></trkpt>
<trkpt lat="46.49029" lon="6.74908"><ele>517.4</ele><time>2023-06-07T18:03:34Z</time></trkpt>
<trkpt lat="46.49027" lon="6.74897"><ele>517.4</ele><time>2023-06-07T18:03:37Z</time></trkpt>
<trkpt lat="46.49026" lon="6.74895"><ele>517.4</ele><time>2023-06-07T18:03:38Z</time></trkpt>
<trkpt lat="46.49026" lon="6.74888"><ele>517.2</ele><time>2023-06-07T18:03:42Z</time></trkpt>
<trkpt lat="46.49026" lon="6.74886"><ele>517.2</ele><time>2023-06-07T18:03:43Z</time></trkpt>
<trkpt lat="46.49026" lon="6.74884"><ele>517</ele><time>2023-06-07T18:03:47Z</time></trkpt>
<trkpt lat="46.49026" lon="6.74883"><ele>517</ele><time>2023-06-07T18:03:55Z</time></trkpt>
<trkpt lat="46.49026" lon="6.74883"><ele>517</ele><time>2023-06-07T18:03:56Z</time></trkpt>
<trkpt lat="46.49026" lon="6.74884"><ele>517</ele><time>2023-06-07T18:03:58Z</time></trkpt>
<trkpt lat="46.49026" lon="6.74884"><ele>517</ele><time>2023-06-07T18:03:59Z</time></trkpt>
<trkpt lat="46.49026" lon="6.74885"><ele>517</ele><time>2023-06-07T18:04:03Z</time></trkpt>
<trkpt lat="46.49027" lon="6.74884"><ele>517</ele><time>2023-06-07T18:04:12Z</time></trkpt>
<trkpt lat="46.49025" lon="6.74884"><ele>517</ele><time>2023-06-07T18:04:20Z</time></trkpt>
<trkpt lat="46.49025" lon="6.74883"><ele>517</ele><time>2023-06-07T18:04:27Z</time></trkpt>
<trkpt lat="46.49025" lon="6.74883"><ele>517</ele><time>2023-06-07T18:04:31Z</time></trkpt>
<trkpt lat="46.49024" lon="6.74883"><ele>517</ele><time>2023-06-07T18:04:38Z</time></trkpt>
<trkpt lat="46.49025" lon="6.74883"><ele>517</ele><time>2023-06-07T18:04:41Z</time></trkpt>
<trkpt lat="46.49024" lon="6.74882"><ele>517</ele><time>2023-06-07T18:04:49Z</time></trkpt>
<trkpt lat="46.49025" lon="6.74882"><ele>517</ele><time>2023-06-07T18:04:57Z</time></trkpt>
<trkpt lat="46.49025" lon="6.74884"><ele>517</ele><time>2023-06-07T18:05:03Z</time></trkpt>
<trkpt lat="46.49029" lon="6.74877"><ele>517</ele><time>2023-06-07T18:05:08Z</time></trkpt>
<trkpt lat="46.49034" lon="6.7487"><ele>516.8</ele><time>2023-06-07T18:05:13Z</time></trkpt>
<trkpt lat="46.4904" lon="6.74871"><ele>516.8</ele><time>2023-06-07T18:05:19Z</time></trkpt>
<trkpt lat="46.49041" lon="6.74874"><ele>517</ele><time>2023-06-07T18:05:25Z</time></trkpt>
<trkpt lat="46.49039" lon="6.74876"><ele>517.2</ele><time>2023-06-07T18:05:28Z</time></trkpt>
<trkpt lat="46.4904" lon="6.74876"><ele>517.2</ele><time>2023-06-07T18:05:30Z</time></trkpt>
<trkpt lat="46.4904" lon="6.74877"><ele>517.2</ele><time>2023-06-07T18:05:31Z</time></trkpt>
<trkpt lat="46.49042" lon="6.74877"><ele>517.2</ele><time>2023-06-07T18:05:37Z</time></trkpt>
<trkpt lat="46.49042" lon="6.74877"><ele>517.2</ele><time>2023-06-07T18:05:38Z</time></trkpt>
<trkpt lat="46.49049" lon="6.74876"><ele>517</ele><time>2023-06-07T18:05:43Z</time></trkpt>
<trkpt lat="46.49067" lon="6.74872"><ele>516.8</ele><time>2023-06-07T18:05:47Z</time></trkpt>
<trkpt lat="46.49078" lon="6.74863"><ele>516.2</ele><time>2023-06-07T18:05:49Z</time></trkpt>
<trkpt lat="46.49082" lon="6.7486"><ele>515.8</ele><time>2023-06-07T18:05:50Z</time></trkpt>
<trkpt lat="46.49087" lon="6.74856"><ele>515.2</ele><time>2023-06-07T18:05:51Z</time></trkpt>
<trkpt lat="46.49091" lon="6.74852"><ele>515</ele><time>2023-06-07T18:05:52Z</time></trkpt>
<trkpt lat="46.49099" lon="6.74841"><ele>514.4</ele><time>2023-06-07T18:05:54Z</time></trkpt>
<trkpt lat="46.49104" lon="6.74837"><ele>514.2</ele><time>2023-06-07T18:05:55Z</time></trkpt>
<trkpt lat="46.49126" lon="6.74807"><ele>513.4</ele><time>2023-06-07T18:06:01Z</time></trkpt>
<trkpt lat="46.49129" lon="6.748"><ele>513.2</ele><time>2023-06-07T18:06:02Z</time></trkpt>
<trkpt lat="46.49132" lon="6.74792"><ele>513</ele><time>2023-06-07T18:06:03Z</time></trkpt>
<trkpt lat="46.49137" lon="6.74789"><ele>512.6</ele><time>2023-06-07T18:06:04Z</time></trkpt>
<trkpt lat="46.49144" lon="6.74779"><ele>512</ele><time>2023-06-07T18:06:06Z</time></trkpt>
<trkpt lat="46.49151" lon="6.74763"><ele>511.6</ele><time>2023-06-07T18:06:09Z</time></trkpt>
<trkpt lat="46.49158" lon="6.74754"><ele>511.6</ele><time>2023-06-07T18:06:11Z</time></trkpt>
<trkpt lat="46.49168" lon="6.74733"><ele>511.4</ele><time>2023-06-07T18:06:15Z</time></trkpt>
<trkpt lat="46.49173" lon="6.74715"><ele>511.4</ele><time>2023-06-07T18:06:18Z</time></trkpt>
<trkpt lat="46.49178" lon="6.7468"><ele>511.2</ele><time>2023-06-07T18:06:24Z</time></trkpt>
<trkpt lat="46.49181" lon="6.74668"><ele>511.2</ele><time>2023-06-07T18:06:26Z</time></trkpt>
<trkpt lat="46.49186" lon="6.7465"><ele>511.6</ele><time>2023-06-07T18:06:29Z</time></trkpt>
<trkpt lat="46.49194" lon="6.74602"><ele>512.6</ele><time>2023-06-07T18:06:38Z</time></trkpt>
<trkpt lat="46.49199" lon="6.7458"><ele>513</ele><time>2023-06-07T18:06:42Z</time></trkpt>
<trkpt lat="46.49207" lon="6.7456"><ele>513.6</ele><time>2023-06-07T18:06:46Z</time></trkpt>
<trkpt lat="46.49214" lon="6.74549"><ele>514</ele><time>2023-06-07T18:06:49Z</time></trkpt>
<trkpt lat="46.49222" lon="6.74542"><ele>514.8</ele><time>2023-06-07T18:06:52Z</time></trkpt>
<trkpt lat="46.49228" lon="6.74537"><ele>515.2</ele><time>2023-06-07T18:06:54Z</time></trkpt>
<trkpt lat="46.49232" lon="6.74533"><ele>515.2</ele><time>2023-06-07T18:06:55Z</time></trkpt>
<trkpt lat="46.49239" lon="6.74524"><ele>515.4</ele><time>2023-06-07T18:06:57Z</time></trkpt>
<trkpt lat="46.49251" lon="6.74508"><ele>515.4</ele><time>2023-06-07T18:07:00Z</time></trkpt>
<trkpt lat="46.49255" lon="6.74492"><ele>515.4</ele><time>2023-06-07T18:07:02Z</time></trkpt>
<trkpt lat="46.49254" lon="6.74474"><ele>515.2</ele><time>2023-06-07T18:07:04Z</time></trkpt>
<trkpt lat="46.49251" lon="6.74465"><ele>514.8</ele><time>2023-06-07T18:07:05Z</time></trkpt>
<trkpt lat="46.49248" lon="6.74457"><ele>514.2</ele><time>2023-06-07T18:07:06Z</time></trkpt>
<trkpt lat="46.49244" lon="6.7445"><ele>513.8</ele><time>2023-06-07T18:07:07Z</time></trkpt>
<trkpt lat="46.49238" lon="6.74437"><ele>513.6</ele><time>2023-06-07T18:07:09Z</time></trkpt>
<trkpt lat="46.49236" lon="6.7443"><ele>513.6</ele><time>2023-06-07T18:07:10Z</time></trkpt>
<trkpt lat="46.49233" lon="6.74412"><ele>514</ele><time>2023-06-07T18:07:13Z</time></trkpt>
<trkpt lat="46.49233" lon="6.74407"><ele>514.2</ele><time>2023-06-07T18:07:14Z</time></trkpt>
<trkpt lat="46.49232" lon="6.74384"><ele>515.2</ele><time>2023-06-07T18:07:18Z</time></trkpt>
<trkpt lat="46.49233" lon="6.74378"><ele>515.4</ele><time>2023-06-07T18:07:19Z</time></trkpt>
<trkpt lat="46.49234" lon="6.74372"><ele>515.4</ele><time>2023-06-07T18:07:20Z</time></trkpt>
<trkpt lat="46.49242" lon="6.74346"><ele>515.8</ele><time>2023-06-07T18:07:24Z</time></trkpt>
<trkpt lat="46.4926" lon="6.74308"><ele>515.2</ele><time>2023-06-07T18:07:29Z</time></trkpt>
<trkpt lat="46.49265" lon="6.74279"><ele>514.8</ele><time>2023-06-07T18:07:32Z</time></trkpt>
<trkpt lat="46.49265" lon="6.74269"><ele>514.8</ele><time>2023-06-07T18:07:33Z</time></trkpt>
<trkpt lat="46.49264" lon="6.74258"><ele>514.4</ele><time>2023-06-07T18:07:34Z</time></trkpt>
<trkpt lat="46.49262" lon="6.74247"><ele>514</ele><time>2023-06-07T18:07:35Z</time></trkpt>
<trkpt lat="46.49258" lon="6.74225"><ele>513.4</ele><time>2023-06-07T18:07:37Z</time></trkpt>
<trkpt lat="46.49257" lon="6.74214"><ele>513.4</ele><time>2023-06-07T18:07:38Z</time></trkpt>
<trkpt lat="46.49257" lon="6.74203"><ele>511.6</ele><time>2023-06-07T18:07:39Z</time></trkpt>
<trkpt lat="46.49258" lon="6.74192"><ele>510.8</ele><time>2023-06-07T18:07:40Z</time></trkpt>
<trkpt lat="46.4926" lon="6.74181"><ele>510.2</ele><time>2023-06-07T18:07:41Z</time></trkpt>
<trkpt lat="46.49269" lon="6.74137"><ele>509.2</ele><time>2023-06-07T18:07:45Z</time></trkpt>
<trkpt lat="46.49273" lon="6.74115"><ele>509.2</ele><time>2023-06-07T18:07:47Z</time></trkpt>
<trkpt lat="46.49288" lon="6.74043"><ele>508.2</ele><time>2023-06-07T18:07:53Z</time></trkpt>
<trkpt lat="46.49288" lon="6.74017"><ele>507.8</ele><time>2023-06-07T18:07:55Z</time></trkpt>
<trkpt lat="46.49286" lon="6.7399"><ele>507.2</ele><time>2023-06-07T18:07:57Z</time></trkpt>
<trkpt lat="46.49283" lon="6.7395"><ele>506</ele><time>2023-06-07T18:08:00Z</time></trkpt>
<trkpt lat="46.49282" lon="6.73909"><ele>505</ele><time>2023-06-07T18:08:03Z</time></trkpt>
<trkpt lat="46.49282" lon="6.73895"><ele>504.6</ele><time>2023-06-07T18:08:04Z</time></trkpt>
<trkpt lat="46.49286" lon="6.73868"><ele>503.8</ele><time>2023-06-07T18:08:06Z</time></trkpt>
<trkpt lat="46.49292" lon="6.73841"><ele>502.8</ele><time>2023-06-07T18:08:08Z</time></trkpt>
<trkpt lat="46.49308" lon="6.73795"><ele>502</ele><time>2023-06-07T18:08:12Z</time></trkpt>
<trkpt lat="46.49313" lon="6.73784"><ele>501.8</ele><time>2023-06-07T18:08:13Z</time></trkpt>
<trkpt lat="46.49317" lon="6.73774"><ele>501.6</ele><time>2023-06-07T18:08:14Z</time></trkpt>
<trkpt lat="46.4933" lon="6.7373"><ele>500.4</ele><time>2023-06-07T18:08:18Z</time></trkpt>
<trkpt lat="46.49336" lon="6.73672"><ele>499.6</ele><time>2023-06-07T18:08:23Z</time></trkpt>
<trkpt lat="46.49337" lon="6.73649"><ele>499.4</ele><time>2023-06-07T18:08:25Z</time></trkpt>
<trkpt lat="46.49339" lon="6.73609"><ele>499.6</ele><time>2023-06-07T18:08:29Z</time></trkpt>
<trkpt lat="46.4934" lon="6.73571"><ele>500.2</ele><time>2023-06-07T18:08:34Z</time></trkpt>
<trkpt lat="46.49339" lon="6.73528"><ele>499.8</ele><time>2023-06-07T18:08:39Z</time></trkpt>
<trkpt lat="46.49339" lon="6.73517"><ele>499.4</ele><time>2023-06-07T18:08:40Z</time></trkpt>
<trkpt lat="46.4934" lon="6.73506"><ele>499</ele><time>2023-06-07T18:08:41Z</time></trkpt>
<trkpt lat="46.49345" lon="6.73483"><ele>498.4</ele><time>2023-06-07T18:08:43Z</time></trkpt>
<trkpt lat="46.49348" lon="6.73473"><ele>498.2</ele><time>2023-06-07T18:08:44Z</time></trkpt>
<trkpt lat="46.49352" lon="6.73464"><ele>497.4</ele><time>2023-06-07T18:08:45Z</time></trkpt>
<trkpt lat="46.49357" lon="6.73455"><ele>497</ele><time>2023-06-07T18:08:46Z</time></trkpt>
<trkpt lat="46.49367" lon="6.73441"><ele>495.8</ele><time>2023-06-07T18:08:48Z</time></trkpt>
<trkpt lat="46.49381" lon="6.73437"><ele>495.2</ele><time>2023-06-07T18:08:50Z</time></trkpt>
<trkpt lat="46.49387" lon="6.73441"><ele>495</ele><time>2023-06-07T18:08:51Z</time></trkpt>
<trkpt lat="46.49391" lon="6.73445"><ele>495</ele><time>2023-06-07T18:08:52Z</time></trkpt>
<trkpt lat="46.49395" lon="6.7345"><ele>495</ele><time>2023-06-07T18:08:54Z</time></trkpt>
<trkpt lat="46.49401" lon="6.73459"><ele>495.8</ele><time>2023-06-07T18:08:59Z</time></trkpt>
<trkpt lat="46.49408" lon="6.73466"><ele>496.6</ele><time>2023-06-07T18:09:04Z</time></trkpt>
<trkpt lat="46.4941" lon="6.73467"><ele>496.8</ele><time>2023-06-07T18:09:05Z</time></trkpt>
<trkpt lat="46.49418" lon="6.73471"><ele>498</ele><time>2023-06-07T18:09:12Z</time></trkpt>
<trkpt lat="46.49424" lon="6.73473"><ele>499</ele><time>2023-06-07T18:09:17Z</time></trkpt>
<trkpt lat="46.49429" lon="6.73473"><ele>500.2</ele><time>2023-06-07T18:09:22Z</time></trkpt>
<trkpt lat="46.4943" lon="6.73471"><ele>500.8</ele><time>2023-06-07T18:09:27Z</time></trkpt>
<trkpt lat="46.49431" lon="6.7347"><ele>500.8</ele><time>2023-06-07T18:09:29Z</time></trkpt>
<trkpt lat="46.49433" lon="6.73471"><ele>500.8</ele><time>2023-06-07T18:09:31Z</time></trkpt>
<trkpt lat="46.49434" lon="6.73472"><ele>501</ele><time>2023-06-07T18:09:32Z</time></trkpt>
<trkpt lat="46.49436" lon="6.73473"><ele>501.2</ele><time>2023-06-07T18:09:34Z</time></trkpt>
<trkpt lat="46.49441" lon="6.73474"><ele>502</ele><time>2023-06-07T18:09:39Z</time></trkpt>
<trkpt lat="46.49443" lon="6.73474"><ele>502.2</ele><time>2023-06-07T18:09:41Z</time></trkpt>
<trkpt lat="46.49447" lon="6.73476"><ele>503</ele><time>2023-06-07T18:09:46Z</time></trkpt>
<trkpt lat="46.49448" lon="6.73476"><ele>503.4</ele><time>2023-06-07T18:09:48Z</time></trkpt>
<trkpt lat="46.49451" lon="6.73476"><ele>504</ele><time>2023-06-07T18:09:52Z</time></trkpt>
<trkpt lat="46.49453" lon="6.73476"><ele>504.2</ele><time>2023-06-07T18:09:54Z</time></trkpt>
<trkpt lat="46.49454" lon="6.73476"><ele>504.4</ele><time>2023-06-07T18:09:56Z</time></trkpt>
<trkpt lat="46.49458" lon="6.73476"><ele>505.2</ele><time>2023-06-07T18:10:00Z</time></trkpt>
<trkpt lat="46.4946" lon="6.73476"><ele>505.6</ele><time>2023-06-07T18:10:03Z</time></trkpt>
<trkpt lat="46.49463" lon="6.73476"><ele>506.2</ele><time>2023-06-07T18:10:07Z</time></trkpt>
<trkpt lat="46.49467" lon="6.73475"><ele>506.6</ele><time>2023-06-07T18:10:11Z</time></trkpt>
<trkpt lat="46.49472" lon="6.73474"><ele>507.6</ele><time>2023-06-07T18:10:17Z</time></trkpt>
<trkpt lat="46.49474" lon="6.73473"><ele>508</ele><time>2023-06-07T18:10:20Z</time></trkpt>
<trkpt lat="46.49475" lon="6.7347"><ele>508.4</ele><time>2023-06-07T18:10:23Z</time></trkpt>
<trkpt lat="46.49477" lon="6.7347"><ele>508.8</ele><time>2023-06-07T18:10:25Z</time></trkpt>
<trkpt lat="46.49479" lon="6.7347"><ele>509.4</ele><time>2023-06-07T18:10:28Z</time></trkpt>
<trkpt lat="46.49483" lon="6.73469"><ele>510</ele><time>2023-06-07T18:10:33Z</time></trkpt>
<trkpt lat="46.49486" lon="6.73468"><ele>510.6</ele><time>2023-06-07T18:10:36Z</time></trkpt>
<trkpt lat="46.49489" lon="6.73467"><ele>511.2</ele><time>2023-06-07T18:10:40Z</time></trkpt>
<trkpt lat="46.4949" lon="6.73467"><ele>511.4</ele><time>2023-06-07T18:10:42Z</time></trkpt>
<trkpt lat="46.49493" lon="6.73465"><ele>512.2</ele><time>2023-06-07T18:10:47Z</time></trkpt>
<trkpt lat="46.49497" lon="6.73463"><ele>512.8</ele><time>2023-06-07T18:10:52Z</time></trkpt>
<trkpt lat="46.49498" lon="6.73463"><ele>513.2</ele><time>2023-06-07T18:10:54Z</time></trkpt>
<trkpt lat="46.49501" lon="6.73462"><ele>513.8</ele><time>2023-06-07T18:10:58Z</time></trkpt>
<trkpt lat="46.49504" lon="6.73459"><ele>514.2</ele><time>2023-06-07T18:11:02Z</time></trkpt>
<trkpt lat="46.49506" lon="6.73459"><ele>514.6</ele><time>2023-06-07T18:11:04Z</time></trkpt>
<trkpt lat="46.4951" lon="6.73457"><ele>515.4</ele><time>2023-06-07T18:11:10Z</time></trkpt>
<trkpt lat="46.49516" lon="6.73454"><ele>516.2</ele><time>2023-06-07T18:11:18Z</time></trkpt>
<trkpt lat="46.49517" lon="6.73455"><ele>516.4</ele><time>2023-06-07T18:11:19Z</time></trkpt>
<trkpt lat="46.4952" lon="6.73453"><ele>517</ele><time>2023-06-07T18:11:25Z</time></trkpt>
<trkpt lat="46.49522" lon="6.73451"><ele>517.2</ele><time>2023-06-07T18:11:27Z</time></trkpt>
<trkpt lat="46.49524" lon="6.73451"><ele>517.6</ele><time>2023-06-07T18:11:29Z</time></trkpt>
<trkpt lat="46.49524" lon="6.73452"><ele>517.8</ele><time>2023-06-07T18:11:30Z</time></trkpt>
<trkpt lat="46.49529" lon="6.7345"><ele>518.2</ele><time>2023-06-07T18:11:36Z</time></trkpt>
<trkpt lat="46.49532" lon="6.73449"><ele>518.6</ele><time>2023-06-07T18:11:39Z</time></trkpt>
<trkpt lat="46.49534" lon="6.7345"><ele>519</ele><time>2023-06-07T18:11:42Z</time></trkpt>
<trkpt lat="46.49539" lon="6.73451"><ele>519.6</ele><time>2023-06-07T18:11:48Z</time></trkpt>
<trkpt lat="46.49541" lon="6.73451"><ele>519.8</ele><time>2023-06-07T18:11:50Z</time></trkpt>
<trkpt lat="46.49546" lon="6.73449"><ele>520.8</ele><time>2023-06-07T18:11:57Z</time></trkpt>
<trkpt lat="46.49551" lon="6.73449"><ele>521.4</ele><time>2023-06-07T18:12:03Z</time></trkpt>
<trkpt lat="46.49555" lon="6.73448"><ele>521.8</ele><time>2023-06-07T18:12:08Z</time></trkpt>
<trkpt lat="46.49558" lon="6.73447"><ele>522.2</ele><time>2023-06-07T18:12:11Z</time></trkpt>
<trkpt lat="46.49563" lon="6.73445"><ele>522.8</ele><time>2023-06-07T18:12:17Z</time></trkpt>
<trkpt lat="46.49564" lon="6.73445"><ele>523</ele><time>2023-06-07T18:12:18Z</time></trkpt>
<trkpt lat="46.49567" lon="6.73444"><ele>523.4</ele><time>2023-06-07T18:12:21Z</time></trkpt>
<trkpt lat="46.49569" lon="6.73443"><ele>523.8</ele><time>2023-06-07T18:12:24Z</time></trkpt>
<trkpt lat="46.4957" lon="6.73444"><ele>524</ele><time>2023-06-07T18:12:25Z</time></trkpt>
<trkpt lat="46.49574" lon="6.73443"><ele>524.6</ele><time>2023-06-07T18:12:31Z</time></trkpt>
<trkpt lat="46.49576" lon="6.73443"><ele>525</ele><time>2023-06-07T18:12:34Z</time></trkpt>
<trkpt lat="46.49579" lon="6.73442"><ele>525.4</ele><time>2023-06-07T18:12:37Z</time></trkpt>
<trkpt lat="46.49583" lon="6.73442"><ele>526.2</ele><time>2023-06-07T18:12:43Z</time></trkpt>
<trkpt lat="46.49588" lon="6.73439"><ele>527</ele><time>2023-06-07T18:12:50Z</time></trkpt>
<trkpt lat="46.49589" lon="6.73439"><ele>527</ele><time>2023-06-07T18:12:51Z</time></trkpt>
<trkpt lat="46.4959" lon="6.73439"><ele>527.2</ele><time>2023-06-07T18:12:52Z</time></trkpt>
<trkpt lat="46.49592" lon="6.7344"><ele>527.8</ele><time>2023-06-07T18:12:56Z</time></trkpt>
<trkpt lat="46.49594" lon="6.7344"><ele>528.4</ele><time>2023-06-07T18:13:00Z</time></trkpt>
<trkpt lat="46.49597" lon="6.7344"><ele>529</ele><time>2023-06-07T18:13:03Z</time></trkpt>
<trkpt lat="46.496" lon="6.7344"><ele>529.4</ele><time>2023-06-07T18:13:07Z</time></trkpt>
<trkpt lat="46.49602" lon="6.73441"><ele>529.8</ele><time>2023-06-07T18:13:10Z</time></trkpt>
<trkpt lat="46.49604" lon="6.73442"><ele>530.6</ele><time>2023-06-07T18:13:14Z</time></trkpt>
<trkpt lat="46.49606" lon="6.73443"><ele>530.8</ele><time>2023-06-07T18:13:16Z</time></trkpt>
<trkpt lat="46.4961" lon="6.73442"><ele>531.4</ele><time>2023-06-07T18:13:22Z</time></trkpt>
<trkpt lat="46.49611" lon="6.73442"><ele>531.6</ele><time>2023-06-07T18:13:24Z</time></trkpt>
<trkpt lat="46.49613" lon="6.73443"><ele>532.2</ele><time>2023-06-07T18:13:28Z</time></trkpt>
<trkpt lat="46.49616" lon="6.73444"><ele>532.8</ele><time>2023-06-07T18:13:33Z</time></trkpt>
<trkpt lat="46.49617" lon="6.73444"><ele>533</ele><time>2023-06-07T18:13:34Z</time></trkpt>
<trkpt lat="46.4962" lon="6.73445"><ele>533.6</ele><time>2023-06-07T18:13:39Z</time></trkpt>
<trkpt lat="46.49621" lon="6.73445"><ele>533.8</ele><time>2023-06-07T18:13:41Z</time></trkpt>
<trkpt lat="46.49622" lon="6.73445"><ele>534.2</ele><time>2023-06-07T18:13:44Z</time></trkpt>
<trkpt lat="46.49625" lon="6.73447"><ele>535</ele><time>2023-06-07T18:13:50Z</time></trkpt>
<trkpt lat="46.4963" lon="6.73448"><ele>535.8</ele><time>2023-06-07T18:13:57Z</time></trkpt>
<trkpt lat="46.49631" lon="6.73448"><ele>536</ele><time>2023-06-07T18:13:59Z</time></trkpt>
<trkpt lat="46.49633" lon="6.73449"><ele>536.6</ele><time>2023-06-07T18:14:03Z</time></trkpt>
<trkpt lat="46.49636" lon="6.73451"><ele>537.2</ele><time>2023-06-07T18:14:09Z</time></trkpt>
<trkpt lat="46.49637" lon="6.73451"><ele>537.2</ele><time>2023-06-07T18:14:10Z</time></trkpt>
<trkpt lat="46.49641" lon="6.73451"><ele>538.2</ele><time>2023-06-07T18:14:17Z</time></trkpt>
<trkpt lat="46.49645" lon="6.73452"><ele>539.2</ele><time>2023-06-07T18:14:24Z</time></trkpt>
<trkpt lat="46.49645" lon="6.73453"><ele>539.4</ele><time>2023-06-07T18:14:25Z</time></trkpt>
<trkpt lat="46.49648" lon="6.73454"><ele>540</ele><time>2023-06-07T18:14:30Z</time></trkpt>
<trkpt lat="46.49651" lon="6.73455"><ele>540.6</ele><time>2023-06-07T18:14:34Z</time></trkpt>
<trkpt lat="46.49653" lon="6.73456"><ele>540.8</ele><time>2023-06-07T18:14:36Z</time></trkpt>
<trkpt lat="46.49657" lon="6.73456"><ele>541.6</ele><time>2023-06-07T18:14:42Z</time></trkpt>
<trkpt lat="46.49657" lon="6.73456"><ele>541.6</ele><time>2023-06-07T18:14:43Z</time></trkpt>
<trkpt lat="46.49659" lon="6.73456"><ele>542.2</ele><time>2023-06-07T18:14:48Z</time></trkpt>
<trkpt lat="46.49662" lon="6.73457"><ele>542.8</ele><time>2023-06-07T18:14:52Z</time></trkpt>
<trkpt lat="46.49664" lon="6.73458"><ele>543</ele><time>2023-06-07T18:14:55Z</time></trkpt>
<trkpt lat="46.49667" lon="6.73458"><ele>543.8</ele><time>2023-06-07T18:14:59Z</time></trkpt>
<trkpt lat="46.49667" lon="6.73458"><ele>544</ele><time>2023-06-07T18:15:00Z</time></trkpt>
<trkpt lat="46.49672" lon="6.73455"><ele>544.8</ele><time>2023-06-07T18:15:07Z</time></trkpt>
<trkpt lat="46.49674" lon="6.73454"><ele>545.2</ele><time>2023-06-07T18:15:09Z</time></trkpt>
<trkpt lat="46.49675" lon="6.7345"><ele>545.8</ele><time>2023-06-07T18:15:11Z</time></trkpt>
<trkpt lat="46.49675" lon="6.73448"><ele>546</ele><time>2023-06-07T18:15:12Z</time></trkpt>
<trkpt lat="46.49672" lon="6.73441"><ele>546.8</ele><time>2023-06-07T18:15:16Z</time></trkpt>
<trkpt lat="46.4967" lon="6.73438"><ele>547</ele><time>2023-06-07T18:15:18Z</time></trkpt>
<trkpt lat="46.49664" lon="6.73429"><ele>548.2</ele><time>2023-06-07T18:15:24Z</time></trkpt>
<trkpt lat="46.49657" lon="6.73417"><ele>549</ele><time>2023-06-07T18:15:30Z</time></trkpt>
<trkpt lat="46.49644" lon="6.73398"><ele>549.2</ele><time>2023-06-07T18:15:38Z</time></trkpt>
<trkpt lat="46.4964" lon="6.73393"><ele>549.2</ele><time>2023-06-07T18:15:40Z</time></trkpt>
<trkpt lat="46.49626" lon="6.73374"><ele>549.6</ele><time>2023-06-07T18:15:47Z</time></trkpt>
<trkpt lat="46.49606" lon="6.73348"><ele>550.2</ele><time>2023-06-07T18:15:56Z</time></trkpt>
<trkpt lat="46.49603" lon="6.73347"><ele>550.4</ele><time>2023-06-07T18:15:57Z</time></trkpt>
<trkpt lat="46.4959" lon="6.73342"><ele>551.4</ele><time>2023-06-07T18:16:03Z</time></trkpt>
<trkpt lat="46.49587" lon="6.73342"><ele>551.4</ele><time>2023-06-07T18:16:04Z</time></trkpt>
<trkpt lat="46.49571" lon="6.73338"><ele>551.2</ele><time>2023-06-07T18:16:08Z</time></trkpt>
<trkpt lat="46.49567" lon="6.73336"><ele>551.2</ele><time>2023-06-07T18:16:09Z</time></trkpt>
<trkpt lat="46.49559" lon="6.7333"><ele>550.8</ele><time>2023-06-07T18:16:11Z</time></trkpt>
<trkpt lat="46.49545" lon="6.73315"><ele>550.4</ele><time>2023-06-07T18:16:15Z</time></trkpt>
<trkpt lat="46.49538" lon="6.73305"><ele>550.4</ele><time>2023-06-07T18:16:17Z</time></trkpt>
<trkpt lat="46.4953" lon="6.73287"><ele>550.6</ele><time>2023-06-07T18:16:20Z</time></trkpt>
<trkpt lat="46.49522" lon="6.73269"><ele>551.6</ele><time>2023-06-07T18:16:25Z</time></trkpt>
<trkpt lat="46.49516" lon="6.73258"><ele>552.4</ele><time>2023-06-07T18:16:29Z</time></trkpt>
<trkpt lat="46.49512" lon="6.7325"><ele>553</ele><time>2023-06-07T18:16:32Z</time></trkpt>
<trkpt lat="46.49507" lon="6.73244"><ele>553.6</ele><time>2023-06-07T18:16:34Z</time></trkpt>
<trkpt lat="46.49498" lon="6.7323"><ele>555</ele><time>2023-06-07T18:16:39Z</time></trkpt>
<trkpt lat="46.49486" lon="6.73214"><ele>556</ele><time>2023-06-07T18:16:45Z</time></trkpt>
<trkpt lat="46.49479" lon="6.73204"><ele>556.2</ele><time>2023-06-07T18:16:48Z</time></trkpt>
<trkpt lat="46.49456" lon="6.7317"><ele>556.6</ele><time>2023-06-07T18:16:58Z</time></trkpt>
<trkpt lat="46.49427" lon="6.73127"><ele>556.6</ele><time>2023-06-07T18:17:09Z</time></trkpt>
<trkpt lat="46.49415" lon="6.73105"><ele>557.2</ele><time>2023-06-07T18:17:14Z</time></trkpt>
<trkpt lat="46.49412" lon="6.73094"><ele>557.2</ele><time>2023-06-07T18:17:16Z</time></trkpt>
<trkpt lat="46.4941" lon="6.73089"><ele>557.2</ele><time>2023-06-07T18:17:17Z</time></trkpt>
<trkpt lat="46.49408" lon="6.7306"><ele>557.4</ele><time>2023-06-07T18:17:22Z</time></trkpt>
<trkpt lat="46.49411" lon="6.73009"><ele>558</ele><time>2023-06-07T18:17:30Z</time></trkpt>
<trkpt lat="46.49411" lon="6.72997"><ele>557.8</ele><time>2023-06-07T18:17:32Z</time></trkpt>
<trkpt lat="46.49408" lon="6.72981"><ele>557.8</ele><time>2023-06-07T18:17:35Z</time></trkpt>
<trkpt lat="46.49403" lon="6.72958"><ele>558.2</ele><time>2023-06-07T18:17:40Z</time></trkpt>
<trkpt lat="46.49402" lon="6.72951"><ele>558.4</ele><time>2023-06-07T18:17:42Z</time></trkpt>
<trkpt lat="46.49401" lon="6.72934"><ele>559.2</ele><time>2023-06-07T18:17:47Z</time></trkpt>
<trkpt lat="46.494" lon="6.72928"><ele>559.4</ele><time>2023-06-07T18:17:49Z</time></trkpt>
<trkpt lat="46.49397" lon="6.72916"><ele>560.4</ele><time>2023-06-07T18:17:54Z</time></trkpt>
<trkpt lat="46.49396" lon="6.72914"><ele>560.6</ele><time>2023-06-07T18:17:55Z</time></trkpt>
<trkpt lat="46.49394" lon="6.72898"><ele>561.4</ele><time>2023-06-07T18:18:02Z</time></trkpt>
<trkpt lat="46.49391" lon="6.72889"><ele>562.4</ele><time>2023-06-07T18:18:06Z</time></trkpt>
<trkpt lat="46.49392" lon="6.72886"><ele>562.6</ele><time>2023-06-07T18:18:07Z</time></trkpt>
<trkpt lat="46.4939" lon="6.72863"><ele>563.6</ele><time>2023-06-07T18:18:15Z</time></trkpt>
<trkpt lat="46.49391" lon="6.7286"><ele>563.6</ele><time>2023-06-07T18:18:16Z</time></trkpt>
<trkpt lat="46.49394" lon="6.72853"><ele>563.8</ele><time>2023-06-07T18:18:19Z</time></trkpt>
<trkpt lat="46.49396" lon="6.72853"><ele>564</ele><time>2023-06-07T18:18:20Z</time></trkpt>
<trkpt lat="46.49406" lon="6.72852"><ele>564.8</ele><time>2023-06-07T18:18:25Z</time></trkpt>
<trkpt lat="46.49409" lon="6.72851"><ele>565.2</ele><time>2023-06-07T18:18:27Z</time></trkpt>
<trkpt lat="46.49421" lon="6.72838"><ele>565.8</ele><time>2023-06-07T18:18:34Z</time></trkpt>
<trkpt lat="46.49433" lon="6.72821"><ele>567</ele><time>2023-06-07T18:18:42Z</time></trkpt>
<trkpt lat="46.49443" lon="6.72808"><ele>568.2</ele><time>2023-06-07T18:18:48Z</time></trkpt>
<trkpt lat="46.49452" lon="6.72794"><ele>569.4</ele><time>2023-06-07T18:18:55Z</time></trkpt>
<trkpt lat="46.49455" lon="6.72791"><ele>569.6</ele><time>2023-06-07T18:18:57Z</time></trkpt>
<trkpt lat="46.49463" lon="6.72777"><ele>570.4</ele><time>2023-06-07T18:19:03Z</time></trkpt>
<trkpt lat="46.49466" lon="6.72774"><ele>570.6</ele><time>2023-06-07T18:19:05Z</time></trkpt>
<trkpt lat="46.49478" lon="6.72764"><ele>571</ele><time>2023-06-07T18:19:10Z</time></trkpt>
<trkpt lat="46.49498" lon="6.7275"><ele>570.8</ele><time>2023-06-07T18:19:18Z</time></trkpt>
<trkpt lat="46.4951" lon="6.72743"><ele>571.4</ele><time>2023-06-07T18:19:24Z</time></trkpt>
<trkpt lat="46.49514" lon="6.72738"><ele>571.8</ele><time>2023-06-07T18:19:27Z</time></trkpt>
<trkpt lat="46.49522" lon="6.72732"><ele>572.6</ele><time>2023-06-07T18:19:32Z</time></trkpt>
<trkpt lat="46.49525" lon="6.72729"><ele>573</ele><time>2023-06-07T18:19:34Z</time></trkpt>
<trkpt lat="46.49531" lon="6.72726"><ele>573.6</ele><time>2023-06-07T18:19:37Z</time></trkpt>
<trkpt lat="46.49539" lon="6.72717"><ele>574.6</ele><time>2023-06-07T18:19:42Z</time></trkpt>
<trkpt lat="46.49549" lon="6.72708"><ele>575.8</ele><time>2023-06-07T18:19:48Z</time></trkpt>
<trkpt lat="46.49554" lon="6.727"><ele>576</ele><time>2023-06-07T18:19:51Z</time></trkpt>
<trkpt lat="46.49557" lon="6.72689"><ele>576</ele><time>2023-06-07T18:19:53Z</time></trkpt>
<trkpt lat="46.49559" lon="6.72675"><ele>575.4</ele><time>2023-06-07T18:19:55Z</time></trkpt>
<trkpt lat="46.49562" lon="6.72655"><ele>574.6</ele><time>2023-06-07T18:19:57Z</time></trkpt>
<trkpt lat="46.49566" lon="6.72632"><ele>573.8</ele><time>2023-06-07T18:19:59Z</time></trkpt>
<trkpt lat="46.49568" lon="6.7262"><ele>572.2</ele><time>2023-06-07T18:20:00Z</time></trkpt>
<trkpt lat="46.49571" lon="6.72592"><ele>570.8</ele><time>2023-06-07T18:20:02Z</time></trkpt>
<trkpt lat="46.49572" lon="6.72577"><ele>570.2</ele><time>2023-06-07T18:20:03Z</time></trkpt>
<trkpt lat="46.49571" lon="6.72562"><ele>569</ele><time>2023-06-07T18:20:04Z</time></trkpt>
<trkpt lat="46.49567" lon="6.72538"><ele>567.6</ele><time>2023-06-07T18:20:06Z</time></trkpt>
<trkpt lat="46.49559" lon="6.72499"><ele>567.2</ele><time>2023-06-07T18:20:10Z</time></trkpt>
<trkpt lat="46.49538" lon="6.72457"><ele>567.2</ele><time>2023-06-07T18:20:15Z</time></trkpt>
<trkpt lat="46.49534" lon="6.72448"><ele>566.8</ele><time>2023-06-07T18:20:16Z</time></trkpt>
<trkpt lat="46.49531" lon="6.72438"><ele>566.6</ele><time>2023-06-07T18:20:17Z</time></trkpt>
<trkpt lat="46.49528" lon="6.72428"><ele>566.2</ele><time>2023-06-07T18:20:18Z</time></trkpt>
<trkpt lat="46.49527" lon="6.72419"><ele>565.8</ele><time>2023-06-07T18:20:19Z</time></trkpt>
<trkpt lat="46.49525" lon="6.72403"><ele>565.6</ele><time>2023-06-07T18:20:21Z</time></trkpt>
<trkpt lat="46.49523" lon="6.72381"><ele>565.4</ele><time>2023-06-07T18:20:24Z</time></trkpt>
<trkpt lat="46.49523" lon="6.72368"><ele>566</ele><time>2023-06-07T18:20:26Z</time></trkpt>
<trkpt lat="46.49523" lon="6.72359"><ele>566.2</ele><time>2023-06-07T18:20:28Z</time></trkpt>
<trkpt lat="46.49523" lon="6.72355"><ele>566.6</ele><time>2023-06-07T18:20:29Z</time></trkpt>
<trkpt lat="46.49523" lon="6.72343"><ele>567.8</ele><time>2023-06-07T18:20:33Z</time></trkpt>
<trkpt lat="46.49523" lon="6.7234"><ele>568</ele><time>2023-06-07T18:20:34Z</time></trkpt>
<trkpt lat="46.49523" lon="6.72325"><ele>568.8</ele><time>2023-06-07T18:20:39Z</time></trkpt>
<trkpt lat="46.49523" lon="6.72315"><ele>569.2</ele><time>2023-06-07T18:20:42Z</time></trkpt>
<trkpt lat="46.49524" lon="6.72308"><ele>570</ele><time>2023-06-07T18:20:45Z</time></trkpt>
<trkpt lat="46.49526" lon="6.72294"><ele>570.8</ele><time>2023-06-07T18:20:50Z</time></trkpt>
<trkpt lat="46.49526" lon="6.72291"><ele>571.2</ele><time>2023-06-07T18:20:51Z</time></trkpt>
<trkpt lat="46.49526" lon="6.72276"><ele>572.2</ele><time>2023-06-07T18:20:56Z</time></trkpt>
<trkpt lat="46.49526" lon="6.72272"><ele>572.2</ele><time>2023-06-07T18:20:57Z</time></trkpt>
<trkpt lat="46.49521" lon="6.72247"><ele>572</ele><time>2023-06-07T18:21:01Z</time></trkpt>
<trkpt lat="46.49519" lon="6.72219"><ele>570.4</ele><time>2023-06-07T18:21:04Z</time></trkpt>
<trkpt lat="46.49518" lon="6.7221"><ele>569.8</ele><time>2023-06-07T18:21:05Z</time></trkpt>
<trkpt lat="46.49517" lon="6.72199"><ele>569.2</ele><time>2023-06-07T18:21:06Z</time></trkpt>
<trkpt lat="46.49515" lon="6.72179"><ele>567.8</ele><time>2023-06-07T18:21:08Z</time></trkpt>
<trkpt lat="46.49514" lon="6.72169"><ele>567.6</ele><time>2023-06-07T18:21:09Z</time></trkpt>
<trkpt lat="46.49514" lon="6.72158"><ele>567.2</ele><time>2023-06-07T18:21:10Z</time></trkpt>
<trkpt lat="46.49515" lon="6.72139"><ele>566.8</ele><time>2023-06-07T18:21:12Z</time></trkpt>
<trkpt lat="46.49514" lon="6.7213"><ele>566.6</ele><time>2023-06-07T18:21:13Z</time></trkpt>
<trkpt lat="46.49507" lon="6.7211"><ele>567.2</ele><time>2023-06-07T18:21:16Z</time></trkpt>
<trkpt lat="46.49505" lon="6.72104"><ele>567.4</ele><time>2023-06-07T18:21:17Z</time></trkpt>
<trkpt lat="46.49502" lon="6.72093"><ele>567.8</ele><time>2023-06-07T18:21:19Z</time></trkpt>
<trkpt lat="46.49497" lon="6.72072"><ele>568</ele><time>2023-06-07T18:21:22Z</time></trkpt>
<trkpt lat="46.49496" lon="6.72065"><ele>568.2</ele><time>2023-06-07T18:21:23Z</time></trkpt>
<trkpt lat="46.49495" lon="6.72056"><ele>567.8</ele><time>2023-06-07T18:21:24Z</time></trkpt>
<trkpt lat="46.49498" lon="6.72034"><ele>567.4</ele><time>2023-06-07T18:21:27Z</time></trkpt>
<trkpt lat="46.495" lon="6.72005"><ele>567.2</ele><time>2023-06-07T18:21:32Z</time></trkpt>
<trkpt lat="46.49499" lon="6.71975"><ele>567.4</ele><time>2023-06-07T18:21:37Z</time></trkpt>
<trkpt lat="46.49497" lon="6.71968"><ele>567.4</ele><time>2023-06-07T18:21:38Z</time></trkpt>
<trkpt lat="46.49495" lon="6.71963"><ele>567.6</ele><time>2023-06-07T18:21:39Z</time></trkpt>
<trkpt lat="46.49485" lon="6.71946"><ele>567.2</ele><time>2023-06-07T18:21:42Z</time></trkpt>
<trkpt lat="46.49483" lon="6.7194"><ele>567</ele><time>2023-06-07T18:21:43Z</time></trkpt>
<trkpt lat="46.49479" lon="6.71924"><ele>566.4</ele><time>2023-06-07T18:21:45Z</time></trkpt>
<trkpt lat="46.49477" lon="6.71917"><ele>566.2</ele><time>2023-06-07T18:21:46Z</time></trkpt>
<trkpt lat="46.49475" lon="6.71903"><ele>566</ele><time>2023-06-07T18:21:48Z</time></trkpt>
<trkpt lat="46.49472" lon="6.71877"><ele>566</ele><time>2023-06-07T18:21:52Z</time></trkpt>
<trkpt lat="46.49467" lon="6.71825"><ele>566.6</ele><time>2023-06-07T18:22:01Z</time></trkpt>
<trkpt lat="46.49466" lon="6.71815"><ele>566.6</ele><time>2023-06-07T18:22:03Z</time></trkpt>
<trkpt lat="46.49466" lon="6.71795"><ele>566.6</ele><time>2023-06-07T18:22:06Z</time></trkpt>
<trkpt lat="46.49466" lon="6.71789"><ele>566.4</ele><time>2023-06-07T18:22:07Z</time></trkpt>
<trkpt lat="46.4946" lon="6.71777"><ele>565.8</ele><time>2023-06-07T18:22:09Z</time></trkpt>
<trkpt lat="46.49451" lon="6.71767"><ele>565</ele><time>2023-06-07T18:22:11Z</time></trkpt>
<trkpt lat="46.49442" lon="6.71757"><ele>563.8</ele><time>2023-06-07T18:22:13Z</time></trkpt>
<trkpt lat="46.49439" lon="6.71752"><ele>563.2</ele><time>2023-06-07T18:22:14Z</time></trkpt>
<trkpt lat="46.49437" lon="6.71746"><ele>562.6</ele><time>2023-06-07T18:22:15Z</time></trkpt>
<trkpt lat="46.49434" lon="6.71734"><ele>561.4</ele><time>2023-06-07T18:22:17Z</time></trkpt>
<trkpt lat="46.49433" lon="6.71729"><ele>560.8</ele><time>2023-06-07T18:22:18Z</time></trkpt>
<trkpt lat="46.49433" lon="6.71724"><ele>560.2</ele><time>2023-06-07T18:22:19Z</time></trkpt>
<trkpt lat="46.49434" lon="6.71714"><ele>558.6</ele><time>2023-06-07T18:22:21Z</time></trkpt>
<trkpt lat="46.49435" lon="6.71709"><ele>558.2</ele><time>2023-06-07T18:22:22Z</time></trkpt>
<trkpt lat="46.49437" lon="6.71704"><ele>557.4</ele><time>2023-06-07T18:22:23Z</time></trkpt>
<trkpt lat="46.4944" lon="6.71694"><ele>556.4</ele><time>2023-06-07T18:22:25Z</time></trkpt>
<trkpt lat="46.49444" lon="6.71685"><ele>556</ele><time>2023-06-07T18:22:27Z</time></trkpt>
<trkpt lat="46.4946" lon="6.71653"><ele>556.4</ele><time>2023-06-07T18:22:33Z</time></trkpt>
<trkpt lat="46.49486" lon="6.71599"><ele>556.6</ele><time>2023-06-07T18:22:43Z</time></trkpt>
<trkpt lat="46.49489" lon="6.71594"><ele>556.6</ele><time>2023-06-07T18:22:44Z</time></trkpt>
<trkpt lat="46.49507" lon="6.71558"><ele>556</ele><time>2023-06-07T18:22:50Z</time></trkpt>
<trkpt lat="46.4951" lon="6.71551"><ele>555.4</ele><time>2023-06-07T18:22:51Z</time></trkpt>
<trkpt lat="46.49515" lon="6.71535"><ele>554.6</ele><time>2023-06-07T18:22:53Z</time></trkpt>
<trkpt lat="46.49517" lon="6.71527"><ele>554</ele><time>2023-06-07T18:22:54Z</time></trkpt>
<trkpt lat="46.49519" lon="6.7152"><ele>553.6</ele><time>2023-06-07T18:22:55Z</time></trkpt>
<trkpt lat="46.49524" lon="6.71509"><ele>553.2</ele><time>2023-06-07T18:22:58Z</time></trkpt>
<trkpt lat="46.49526" lon="6.715"><ele>553</ele><time>2023-06-07T18:23:00Z</time></trkpt>
<trkpt lat="46.49525" lon="6.71494"><ele>552.8</ele><time>2023-06-07T18:23:01Z</time></trkpt>
<trkpt lat="46.49523" lon="6.71488"><ele>552.8</ele><time>2023-06-07T18:23:02Z</time></trkpt>
<trkpt lat="46.49519" lon="6.71464"><ele>551.6</ele><time>2023-06-07T18:23:05Z</time></trkpt>
<trkpt lat="46.49518" lon="6.71454"><ele>551.4</ele><time>2023-06-07T18:23:06Z</time></trkpt>
<trkpt lat="46.49517" lon="6.71435"><ele>550.2</ele><time>2023-06-07T18:23:08Z</time></trkpt>
<trkpt lat="46.49515" lon="6.714"><ele>549.2</ele><time>2023-06-07T18:23:11Z</time></trkpt>
<trkpt lat="46.49514" lon="6.71388"><ele>548.8</ele><time>2023-06-07T18:23:12Z</time></trkpt>
<trkpt lat="46.49513" lon="6.71363"><ele>547.6</ele><time>2023-06-07T18:23:14Z</time></trkpt>
<trkpt lat="46.49511" lon="6.71336"><ele>546.2</ele><time>2023-06-07T18:23:16Z</time></trkpt>
<trkpt lat="46.49511" lon="6.71322"><ele>545.2</ele><time>2023-06-07T18:23:17Z</time></trkpt>
<trkpt lat="46.49512" lon="6.71293"><ele>543.8</ele><time>2023-06-07T18:23:19Z</time></trkpt>
<trkpt lat="46.49515" lon="6.7128"><ele>543.4</ele><time>2023-06-07T18:23:20Z</time></trkpt>
<trkpt lat="46.4952" lon="6.71267"><ele>542.6</ele><time>2023-06-07T18:23:21Z</time></trkpt>
<trkpt lat="46.49532" lon="6.71246"><ele>541.4</ele><time>2023-06-07T18:23:23Z</time></trkpt>
<trkpt lat="46.49546" lon="6.71228"><ele>540</ele><time>2023-06-07T18:23:25Z</time></trkpt>
<trkpt lat="46.49555" lon="6.7122"><ele>539.6</ele><time>2023-06-07T18:23:26Z</time></trkpt>
<trkpt lat="46.49564" lon="6.71215"><ele>539</ele><time>2023-06-07T18:23:27Z</time></trkpt>
<trkpt lat="46.49573" lon="6.71212"><ele>538.8</ele><time>2023-06-07T18:23:28Z</time></trkpt>
<trkpt lat="46.49582" lon="6.7121"><ele>538.2</ele><time>2023-06-07T18:23:29Z</time></trkpt>
<trkpt lat="46.49591" lon="6.7121"><ele>538</ele><time>2023-06-07T18:23:30Z</time></trkpt>
<trkpt lat="46.49609" lon="6.71212"><ele>536.6</ele><time>2023-06-07T18:23:32Z</time></trkpt>
<trkpt lat="46.49618" lon="6.71212"><ele>536</ele><time>2023-06-07T18:23:33Z</time></trkpt>
<trkpt lat="46.49627" lon="6.71212"><ele>535.4</ele><time>2023-06-07T18:23:34Z</time></trkpt>
<trkpt lat="46.49637" lon="6.7121"><ele>534.8</ele><time>2023-06-07T18:23:35Z</time></trkpt>
<trkpt lat="46.49646" lon="6.71206"><ele>534.2</ele><time>2023-06-07T18:23:36Z</time></trkpt>
<trkpt lat="46.49655" lon="6.712"><ele>533.6</ele><time>2023-06-07T18:23:37Z</time></trkpt>
<trkpt lat="46.49664" lon="6.71192"><ele>532.6</ele><time>2023-06-07T18:23:38Z</time></trkpt>
<trkpt lat="46.49672" lon="6.71184"><ele>532</ele><time>2023-06-07T18:23:39Z</time></trkpt>
<trkpt lat="46.49679" lon="6.71174"><ele>531.4</ele><time>2023-06-07T18:23:40Z</time></trkpt>
<trkpt lat="46.49686" lon="6.71165"><ele>530.8</ele><time>2023-06-07T18:23:41Z</time></trkpt>
<trkpt lat="46.49694" lon="6.71156"><ele>530.2</ele><time>2023-06-07T18:23:42Z</time></trkpt>
<trkpt lat="46.4971" lon="6.71138"><ele>529</ele><time>2023-06-07T18:23:44Z</time></trkpt>
<trkpt lat="46.49725" lon="6.71121"><ele>528</ele><time>2023-06-07T18:23:46Z</time></trkpt>
<trkpt lat="46.49733" lon="6.71112"><ele>527.6</ele><time>2023-06-07T18:23:47Z</time></trkpt>
<trkpt lat="46.49755" lon="6.71088"><ele>526.6</ele><time>2023-06-07T18:23:50Z</time></trkpt>
<trkpt lat="46.49762" lon="6.7108"><ele>526</ele><time>2023-06-07T18:23:51Z</time></trkpt>
<trkpt lat="46.49769" lon="6.71071"><ele>525</ele><time>2023-06-07T18:23:52Z</time></trkpt>
<trkpt lat="46.49782" lon="6.71055"><ele>523.8</ele><time>2023-06-07T18:23:54Z</time></trkpt>
<trkpt lat="46.49803" lon="6.71034"><ele>522.6</ele><time>2023-06-07T18:23:57Z</time></trkpt>
<trkpt lat="46.49809" lon="6.71027"><ele>522.4</ele><time>2023-06-07T18:23:58Z</time></trkpt>
<trkpt lat="46.49828" lon="6.71005"><ele>522</ele><time>2023-06-07T18:24:01Z</time></trkpt>
<trkpt lat="46.49839" lon="6.70989"><ele>521.8</ele><time>2023-06-07T18:24:03Z</time></trkpt>
<trkpt lat="46.49844" lon="6.70982"><ele>521.6</ele><time>2023-06-07T18:24:04Z</time></trkpt>
<trkpt lat="46.49849" lon="6.70973"><ele>521.2</ele><time>2023-06-07T18:24:05Z</time></trkpt>
<trkpt lat="46.49853" lon="6.70964"><ele>521</ele><time>2023-06-07T18:24:06Z</time></trkpt>
<trkpt lat="46.49856" lon="6.70954"><ele>520.8</ele><time>2023-06-07T18:24:07Z</time></trkpt>
<trkpt lat="46.49859" lon="6.70945"><ele>520.4</ele><time>2023-06-07T18:24:08Z</time></trkpt>
<trkpt lat="46.49865" lon="6.70927"><ele>520</ele><time>2023-06-07T18:24:10Z</time></trkpt>
<trkpt lat="46.49879" lon="6.70885"><ele>520</ele><time>2023-06-07T18:24:15Z</time></trkpt>
<trkpt lat="46.49883" lon="6.70869"><ele>520</ele><time>2023-06-07T18:24:17Z</time></trkpt>
<trkpt lat="46.49884" lon="6.70861"><ele>520</ele><time>2023-06-07T18:24:18Z</time></trkpt>
<trkpt lat="46.49885" lon="6.70843"><ele>519.6</ele><time>2023-06-07T18:24:20Z</time></trkpt>
<trkpt lat="46.49884" lon="6.70833"><ele>519.2</ele><time>2023-06-07T18:24:21Z</time></trkpt>
<trkpt lat="46.49883" lon="6.70824"><ele>518.8</ele><time>2023-06-07T18:24:22Z</time></trkpt>
<trkpt lat="46.49879" lon="6.70803"><ele>518.2</ele><time>2023-06-07T18:24:24Z</time></trkpt>
<trkpt lat="46.49877" lon="6.70793"><ele>517.6</ele><time>2023-06-07T18:24:25Z</time></trkpt>
<trkpt lat="46.49875" lon="6.70782"><ele>517</ele><time>2023-06-07T18:24:26Z</time></trkpt>
<trkpt lat="46.49866" lon="6.70742"><ele>515.8</ele><time>2023-06-07T18:24:30Z</time></trkpt>
<trkpt lat="46.49858" lon="6.70707"><ele>515.6</ele><time>2023-06-07T18:24:34Z</time></trkpt>
<trkpt lat="46.49853" lon="6.70688"><ele>516.6</ele><time>2023-06-07T18:24:38Z</time></trkpt>
<trkpt lat="46.49853" lon="6.70685"><ele>517</ele><time>2023-06-07T18:24:39Z</time></trkpt>
<trkpt lat="46.49854" lon="6.70675"><ele>518.2</ele><time>2023-06-07T18:24:43Z</time></trkpt>
<trkpt lat="46.49858" lon="6.70665"><ele>519.4</ele><time>2023-06-07T18:24:48Z</time></trkpt>
<trkpt lat="46.49859" lon="6.70662"><ele>519.6</ele><time>2023-06-07T18:24:50Z</time></trkpt>
<trkpt lat="46.49863" lon="6.70653"><ele>520.4</ele><time>2023-06-07T18:24:55Z</time></trkpt>
<trkpt lat="46.49866" lon="6.70648"><ele>520.8</ele><time>2023-06-07T18:24:58Z</time></trkpt>
<trkpt lat="46.49868" lon="6.70644"><ele>521.4</ele><time>2023-06-07T18:25:00Z</time></trkpt>
<trkpt lat="46.49873" lon="6.70637"><ele>522</ele><time>2023-06-07T18:25:04Z</time></trkpt>
<trkpt lat="46.49874" lon="6.70636"><ele>522.2</ele><time>2023-06-07T18:25:05Z</time></trkpt>
<trkpt lat="46.49876" lon="6.70632"><ele>522.4</ele><time>2023-06-07T18:25:07Z</time></trkpt>
<trkpt lat="46.4988" lon="6.70626"><ele>523</ele><time>2023-06-07T18:25:11Z</time></trkpt>
<trkpt lat="46.49884" lon="6.70616"><ele>523.6</ele><time>2023-06-07T18:25:15Z</time></trkpt>
<trkpt lat="46.49888" lon="6.70609"><ele>524</ele><time>2023-06-07T18:25:17Z</time></trkpt>
<trkpt lat="46.49893" lon="6.706"><ele>524.6</ele><time>2023-06-07T18:25:21Z</time></trkpt>
<trkpt lat="46.49896" lon="6.70593"><ele>524.8</ele><time>2023-06-07T18:25:23Z</time></trkpt>
<trkpt lat="46.49902" lon="6.7058"><ele>524.8</ele><time>2023-06-07T18:25:25Z</time></trkpt>
<trkpt lat="46.4991" lon="6.70564"><ele>524.6</ele><time>2023-06-07T18:25:28Z</time></trkpt>
<trkpt lat="46.49917" lon="6.70551"><ele>524.4</ele><time>2023-06-07T18:25:30Z</time></trkpt>
<trkpt lat="46.49925" lon="6.70537"><ele>523.4</ele><time>2023-06-07T18:25:32Z</time></trkpt>
<trkpt lat="46.49932" lon="6.70522"><ele>522.4</ele><time>2023-06-07T18:25:34Z</time></trkpt>
<trkpt lat="46.49936" lon="6.70513"><ele>522</ele><time>2023-06-07T18:25:35Z</time></trkpt>
<trkpt lat="46.49942" lon="6.70495"><ele>521.2</ele><time>2023-06-07T18:25:37Z</time></trkpt>
<trkpt lat="46.49946" lon="6.70486"><ele>520.6</ele><time>2023-06-07T18:25:38Z</time></trkpt>
<trkpt lat="46.4995" lon="6.70479"><ele>520.2</ele><time>2023-06-07T18:25:39Z</time></trkpt>
<trkpt lat="46.49955" lon="6.70473"><ele>520.2</ele><time>2023-06-07T18:25:40Z</time></trkpt>
<trkpt lat="46.49959" lon="6.70468"><ele>520</ele><time>2023-06-07T18:25:41Z</time></trkpt>
<trkpt lat="46.49968" lon="6.70458"><ele>520.2</ele><time>2023-06-07T18:25:43Z</time></trkpt>
<trkpt lat="46.49983" lon="6.70436"><ele>520.2</ele><time>2023-06-07T18:25:47Z</time></trkpt>
<trkpt lat="46.49992" lon="6.70411"><ele>519.6</ele><time>2023-06-07T18:25:50Z</time></trkpt>
<trkpt lat="46.49993" lon="6.70401"><ele>519.4</ele><time>2023-06-07T18:25:51Z</time></trkpt>
<trkpt lat="46.49992" lon="6.7039"><ele>518.8</ele><time>2023-06-07T18:25:52Z</time></trkpt>
<trkpt lat="46.4999" lon="6.70381"><ele>518.6</ele><time>2023-06-07T18:25:53Z</time></trkpt>
<trkpt lat="46.49988" lon="6.70363"><ele>518.4</ele><time>2023-06-07T18:25:55Z</time></trkpt>
<trkpt lat="46.49988" lon="6.70342"><ele>518.4</ele><time>2023-06-07T18:25:58Z</time></trkpt>
<trkpt lat="46.49988" lon="6.70337"><ele>518.4</ele><time>2023-06-07T18:25:59Z</time></trkpt>
<trkpt lat="46.49993" lon="6.70325"><ele>519.2</ele><time>2023-06-07T18:26:03Z</time></trkpt>
<trkpt lat="46.49994" lon="6.70322"><ele>519.8</ele><time>2023-06-07T18:26:05Z</time></trkpt>
<trkpt lat="46.49997" lon="6.70317"><ele>520.8</ele><time>2023-06-07T18:26:09Z</time></trkpt>
<trkpt lat="46.49999" lon="6.70316"><ele>521</ele><time>2023-06-07T18:26:10Z</time></trkpt>
<trkpt lat="46.50005" lon="6.70313"><ele>522.2</ele><time>2023-06-07T18:26:14Z</time></trkpt>
<trkpt lat="46.50013" lon="6.70316"><ele>523.2</ele><time>2023-06-07T18:26:20Z</time></trkpt>
<trkpt lat="46.50014" lon="6.70318"><ele>523.4</ele><time>2023-06-07T18:26:21Z</time></trkpt>
<trkpt lat="46.50018" lon="6.70321"><ele>524</ele><time>2023-06-07T18:26:24Z</time></trkpt>
<trkpt lat="46.5002" lon="6.70322"><ele>524.2</ele><time>2023-06-07T18:26:25Z</time></trkpt>
<trkpt lat="46.50025" lon="6.70322"><ele>525</ele><time>2023-06-07T18:26:28Z</time></trkpt>
<trkpt lat="46.50029" lon="6.70319"><ele>525.4</ele><time>2023-06-07T18:26:30Z</time></trkpt>
<trkpt lat="46.50036" lon="6.70312"><ele>526.2</ele><time>2023-06-07T18:26:34Z</time></trkpt>
<trkpt lat="46.50038" lon="6.70309"><ele>526.4</ele><time>2023-06-07T18:26:35Z</time></trkpt>
<trkpt lat="46.50048" lon="6.70288"><ele>527.2</ele><time>2023-06-07T18:26:42Z</time></trkpt>
<trkpt lat="46.50054" lon="6.70279"><ele>527</ele><time>2023-06-07T18:26:45Z</time></trkpt>
<trkpt lat="46.50064" lon="6.7027"><ele>526.8</ele><time>2023-06-07T18:26:49Z</time></trkpt>
<trkpt lat="46.50087" lon="6.70248"><ele>526.8</ele><time>2023-06-07T18:26:58Z</time></trkpt>
<trkpt lat="46.50099" lon="6.70237"><ele>527</ele><time>2023-06-07T18:27:03Z</time></trkpt>
<trkpt lat="46.50102" lon="6.70235"><ele>527</ele><time>2023-06-07T18:27:04Z</time></trkpt>
<trkpt lat="46.50109" lon="6.70232"><ele>527.2</ele><time>2023-06-07T18:27:07Z</time></trkpt>
<trkpt lat="46.50111" lon="6.70234"><ele>527.2</ele><time>2023-06-07T18:27:08Z</time></trkpt>
<trkpt lat="46.50114" lon="6.70237"><ele>527.6</ele><time>2023-06-07T18:27:10Z</time></trkpt>
<trkpt lat="46.50117" lon="6.70242"><ele>528.2</ele><time>2023-06-07T18:27:14Z</time></trkpt>
<trkpt lat="46.50118" lon="6.70242"><ele>528.4</ele><time>2023-06-07T18:27:15Z</time></trkpt>
<trkpt lat="46.50125" lon="6.70237"><ele>528.4</ele><time>2023-06-07T18:27:18Z</time></trkpt>
<trkpt lat="46.50135" lon="6.7022"><ele>527.8</ele><time>2023-06-07T18:27:22Z</time></trkpt>
<trkpt lat="46.50149" lon="6.70199"><ele>526.8</ele><time>2023-06-07T18:27:26Z</time></trkpt>
<trkpt lat="46.50156" lon="6.70195"><ele>526.6</ele><time>2023-06-07T18:27:28Z</time></trkpt>
<trkpt lat="46.50161" lon="6.7019"><ele>526.4</ele><time>2023-06-07T18:27:29Z</time></trkpt>
<trkpt lat="46.5017" lon="6.70179"><ele>525.8</ele><time>2023-06-07T18:27:31Z</time></trkpt>
<trkpt lat="46.50175" lon="6.70172"><ele>525.6</ele><time>2023-06-07T18:27:32Z</time></trkpt>
<trkpt lat="46.50179" lon="6.70164"><ele>524.4</ele><time>2023-06-07T18:27:33Z</time></trkpt>
<trkpt lat="46.50183" lon="6.70155"><ele>524</ele><time>2023-06-07T18:27:34Z</time></trkpt>
<trkpt lat="46.50186" lon="6.70146"><ele>522.6</ele><time>2023-06-07T18:27:35Z</time></trkpt>
<trkpt lat="46.5019" lon="6.70137"><ele>521.6</ele><time>2023-06-07T18:27:36Z</time></trkpt>
<trkpt lat="46.50195" lon="6.70128"><ele>520.6</ele><time>2023-06-07T18:27:37Z</time></trkpt>
<trkpt lat="46.502" lon="6.70119"><ele>519</ele><time>2023-06-07T18:27:38Z</time></trkpt>
<trkpt lat="46.50211" lon="6.70102"><ele>516.8</ele><time>2023-06-07T18:27:40Z</time></trkpt>
<trkpt lat="46.50217" lon="6.70094"><ele>515.4</ele><time>2023-06-07T18:27:41Z</time></trkpt>
<trkpt lat="46.50224" lon="6.70087"><ele>514.2</ele><time>2023-06-07T18:27:42Z</time></trkpt>
<trkpt lat="46.50231" lon="6.70079"><ele>512.6</ele><time>2023-06-07T18:27:43Z</time></trkpt>
<trkpt lat="46.50246" lon="6.70066"><ele>510.2</ele><time>2023-06-07T18:27:45Z</time></trkpt>
<trkpt lat="46.50253" lon="6.70059"><ele>507.8</ele><time>2023-06-07T18:27:46Z</time></trkpt>
<trkpt lat="46.50257" lon="6.70051"><ele>506</ele><time>2023-06-07T18:27:47Z</time></trkpt>
<trkpt lat="46.50261" lon="6.70042"><ele>504.4</ele><time>2023-06-07T18:27:48Z</time></trkpt>
<trkpt lat="46.50265" lon="6.70034"><ele>503</ele><time>2023-06-07T18:27:49Z</time></trkpt>
<trkpt lat="46.50269" lon="6.70025"><ele>501.8</ele><time>2023-06-07T18:27:50Z</time></trkpt>
<trkpt lat="46.50273" lon="6.70018"><ele>501</ele><time>2023-06-07T18:27:51Z</time></trkpt>
<trkpt lat="46.50277" lon="6.70013"><ele>500</ele><time>2023-06-07T18:27:52Z</time></trkpt>
<trkpt lat="46.50281" lon="6.70007"><ele>499.2</ele><time>2023-06-07T18:27:53Z</time></trkpt>
<trkpt lat="46.50284" lon="6.70003"><ele>498.4</ele><time>2023-06-07T18:27:54Z</time></trkpt>
<trkpt lat="46.50288" lon="6.70001"><ele>497.2</ele><time>2023-06-07T18:27:55Z</time></trkpt>
<trkpt lat="46.50292" lon="6.7"><ele>495.8</ele><time>2023-06-07T18:27:56Z</time></trkpt>
<trkpt lat="46.50297" lon="6.70004"><ele>494.6</ele><time>2023-06-07T18:27:57Z</time></trkpt>
<trkpt lat="46.50302" lon="6.70008"><ele>493.6</ele><time>2023-06-07T18:27:58Z</time></trkpt>
<trkpt lat="46.50306" lon="6.70014"><ele>492.4</ele><time>2023-06-07T18:27:59Z</time></trkpt>
<trkpt lat="46.50311" lon="6.70016"><ele>491.2</ele><time>2023-06-07T18:28:00Z</time></trkpt>
<trkpt lat="46.50316" lon="6.70015"><ele>490</ele><time>2023-06-07T18:28:01Z</time></trkpt>
<trkpt lat="46.5032" lon="6.70011"><ele>488.6</ele><time>2023-06-07T18:28:03Z</time></trkpt>
<trkpt lat="46.50322" lon="6.70005"><ele>488.4</ele><time>2023-06-07T18:28:04Z</time></trkpt>
<trkpt lat="46.50323" lon="6.69993"><ele>487.2</ele><time>2023-06-07T18:28:05Z</time></trkpt>
<trkpt lat="46.5032" lon="6.69985"><ele>486.6</ele><time>2023-06-07T18:28:06Z</time></trkpt>
<trkpt lat="46.50318" lon="6.69977"><ele>486</ele><time>2023-06-07T18:28:07Z</time></trkpt>
<trkpt lat="46.50315" lon="6.69961"><ele>485.2</ele><time>2023-06-07T18:28:09Z</time></trkpt>
<trkpt lat="46.50314" lon="6.69952"><ele>484.6</ele><time>2023-06-07T18:28:10Z</time></trkpt>
<trkpt lat="46.50316" lon="6.69937"><ele>483.2</ele><time>2023-06-07T18:28:12Z</time></trkpt>
<trkpt lat="46.50317" lon="6.69932"><ele>482.4</ele><time>2023-06-07T18:28:13Z</time></trkpt>
<trkpt lat="46.50317" lon="6.69928"><ele>481.6</ele><time>2023-06-07T18:28:14Z</time></trkpt>
<trkpt lat="46.50317" lon="6.69923"><ele>480</ele><time>2023-06-07T18:28:16Z</time></trkpt>
<trkpt lat="46.50317" lon="6.69922"><ele>479.4</ele><time>2023-06-07T18:28:17Z</time></trkpt>
<trkpt lat="46.50316" lon="6.6992"><ele>478.6</ele><time>2023-06-07T18:28:19Z</time></trkpt>
<trkpt lat="46.50316" lon="6.69915"><ele>478</ele><time>2023-06-07T18:28:23Z</time></trkpt>
<trkpt lat="46.5032" lon="6.69908"><ele>478.2</ele><time>2023-06-07T18:28:28Z</time></trkpt>
<trkpt lat="46.50321" lon="6.69908"><ele>478.2</ele><time>2023-06-07T18:28:29Z</time></trkpt>
<trkpt lat="46.50326" lon="6.69901"><ele>478.8</ele><time>2023-06-07T18:28:34Z</time></trkpt>
<trkpt lat="46.50335" lon="6.69895"><ele>479.8</ele><time>2023-06-07T18:28:41Z</time></trkpt>
<trkpt lat="46.50338" lon="6.69892"><ele>480.4</ele><time>2023-06-07T18:28:44Z</time></trkpt>
<trkpt lat="46.50341" lon="6.69888"><ele>481</ele><time>2023-06-07T18:28:48Z</time></trkpt>
<trkpt lat="46.50343" lon="6.69885"><ele>481.2</ele><time>2023-06-07T18:28:50Z</time></trkpt>
<trkpt lat="46.50349" lon="6.6988"><ele>482</ele><time>2023-06-07T18:28:54Z</time></trkpt>
<trkpt lat="46.50359" lon="6.69876"><ele>483</ele><time>2023-06-07T18:28:59Z</time></trkpt>
<trkpt lat="46.50361" lon="6.69875"><ele>483.2</ele><time>2023-06-07T18:29:00Z</time></trkpt>
<trkpt lat="46.50368" lon="6.69872"><ele>484.4</ele><time>2023-06-07T18:29:04Z</time></trkpt>
<trkpt lat="46.50371" lon="6.6987"><ele>485.2</ele><time>2023-06-07T18:29:07Z</time></trkpt>
<trkpt lat="46.50372" lon="6.6987"><ele>485.4</ele><time>2023-06-07T18:29:08Z</time></trkpt>
<trkpt lat="46.50379" lon="6.69867"><ele>486.2</ele><time>2023-06-07T18:29:15Z</time></trkpt>
<trkpt lat="46.5038" lon="6.69867"><ele>486.6</ele><time>2023-06-07T18:29:17Z</time></trkpt>
<trkpt lat="46.50384" lon="6.69868"><ele>487.2</ele><time>2023-06-07T18:29:21Z</time></trkpt>
<trkpt lat="46.50386" lon="6.69868"><ele>487.4</ele><time>2023-06-07T18:29:23Z</time></trkpt>
<trkpt lat="46.50389" lon="6.69867"><ele>487.6</ele><time>2023-06-07T18:29:26Z</time></trkpt>
<trkpt lat="46.50395" lon="6.69867"><ele>488.2</ele><time>2023-06-07T18:29:30Z</time></trkpt>
<trkpt lat="46.50399" lon="6.69867"><ele>488.8</ele><time>2023-06-07T18:29:33Z</time></trkpt>
<trkpt lat="46.50404" lon="6.69866"><ele>489.4</ele><time>2023-06-07T18:29:37Z</time></trkpt>
<trkpt lat="46.50409" lon="6.69865"><ele>490</ele><time>2023-06-07T18:29:41Z</time></trkpt>
<trkpt lat="46.50411" lon="6.69864"><ele>490.4</ele><time>2023-06-07T18:29:43Z</time></trkpt>
<trkpt lat="46.50413" lon="6.69865"><ele>490.6</ele><time>2023-06-07T18:29:44Z</time></trkpt>
<trkpt lat="46.50415" lon="6.69864"><ele>490.8</ele><time>2023-06-07T18:29:46Z</time></trkpt>
<trkpt lat="46.50416" lon="6.69864"><ele>491</ele><time>2023-06-07T18:29:47Z</time></trkpt>
<trkpt lat="46.50419" lon="6.69862"><ele>491.4</ele><time>2023-06-07T18:29:49Z</time></trkpt>
<trkpt lat="46.50423" lon="6.69861"><ele>492</ele><time>2023-06-07T18:29:52Z</time></trkpt>
<trkpt lat="46.50427" lon="6.69861"><ele>492.6</ele><time>2023-06-07T18:29:55Z</time></trkpt>
<trkpt lat="46.5043" lon="6.69859"><ele>493</ele><time>2023-06-07T18:29:58Z</time></trkpt>
<trkpt lat="46.50434" lon="6.69858"><ele>493.6</ele><time>2023-06-07T18:30:02Z</time></trkpt>
<trkpt lat="46.50437" lon="6.69858"><ele>494.2</ele><time>2023-06-07T18:30:05Z</time></trkpt>
<trkpt lat="46.50443" lon="6.69854"><ele>495</ele><time>2023-06-07T18:30:11Z</time></trkpt>
<trkpt lat="46.50445" lon="6.69852"><ele>495.2</ele><time>2023-06-07T18:30:13Z</time></trkpt>
<trkpt lat="46.50449" lon="6.6985"><ele>495.4</ele><time>2023-06-07T18:30:16Z</time></trkpt>
<trkpt lat="46.50458" lon="6.69837"><ele>495.2</ele><time>2023-06-07T18:30:21Z</time></trkpt>
<trkpt lat="46.50475" lon="6.6981"><ele>494.6</ele><time>2023-06-07T18:30:29Z</time></trkpt>
<trkpt lat="46.50486" lon="6.69791"><ele>495</ele><time>2023-06-07T18:30:36Z</time></trkpt>
<trkpt lat="46.50493" lon="6.69775"><ele>495.4</ele><time>2023-06-07T18:30:42Z</time></trkpt>
<trkpt lat="46.50495" lon="6.69771"><ele>496.2</ele><time>2023-06-07T18:30:45Z</time></trkpt>
<trkpt lat="46.50496" lon="6.6977"><ele>496.2</ele><time>2023-06-07T18:30:46Z</time></trkpt>
<trkpt lat="46.50496" lon="6.69768"><ele>496.4</ele><time>2023-06-07T18:30:47Z</time></trkpt>
<trkpt lat="46.50497" lon="6.6976"><ele>497.2</ele><time>2023-06-07T18:30:52Z</time></trkpt>
<trkpt lat="46.50497" lon="6.69757"><ele>497.4</ele><time>2023-06-07T18:30:54Z</time></trkpt>
<trkpt lat="46.50497" lon="6.69755"><ele>497.6</ele><time>2023-06-07T18:30:55Z</time></trkpt>
<trkpt lat="46.50497" lon="6.69745"><ele>498.6</ele><time>2023-06-07T18:31:01Z</time></trkpt>
<trkpt lat="46.50497" lon="6.69743"><ele>498.6</ele><time>2023-06-07T18:31:02Z</time></trkpt>
<trkpt lat="46.50497" lon="6.69738"><ele>499</ele><time>2023-06-07T18:31:05Z</time></trkpt>
<trkpt lat="46.50498" lon="6.69735"><ele>499.4</ele><time>2023-06-07T18:31:07Z</time></trkpt>
<trkpt lat="46.50499" lon="6.69731"><ele>499.6</ele><time>2023-06-07T18:31:09Z</time></trkpt>
<trkpt lat="46.50502" lon="6.69721"><ele>499.8</ele><time>2023-06-07T18:31:13Z</time></trkpt>
<trkpt lat="46.50505" lon="6.69721"><ele>500</ele><time>2023-06-07T18:31:15Z</time></trkpt>
<trkpt lat="46.50508" lon="6.69723"><ele>500.4</ele><time>2023-06-07T18:31:17Z</time></trkpt>
<trkpt lat="46.5051" lon="6.69725"><ele>500.6</ele><time>2023-06-07T18:31:19Z</time></trkpt>
<trkpt lat="46.50518" lon="6.69727"><ele>501.4</ele><time>2023-06-07T18:31:25Z</time></trkpt>
<trkpt lat="46.50521" lon="6.69724"><ele>501.6</ele><time>2023-06-07T18:31:27Z</time></trkpt>
<trkpt lat="46.50525" lon="6.69713"><ele>501.8</ele><time>2023-06-07T18:31:31Z</time></trkpt>
<trkpt lat="46.50527" lon="6.69712"><ele>501.8</ele><time>2023-06-07T18:31:32Z</time></trkpt>
<trkpt lat="46.50531" lon="6.69714"><ele>501.8</ele><time>2023-06-07T18:31:34Z</time></trkpt>
<trkpt lat="46.50541" lon="6.6972"><ele>502</ele><time>2023-06-07T18:31:40Z</time></trkpt>
<trkpt lat="46.50552" lon="6.69724"><ele>502.6</ele><time>2023-06-07T18:31:46Z</time></trkpt>
<trkpt lat="46.50553" lon="6.69724"><ele>502.8</ele><time>2023-06-07T18:31:47Z</time></trkpt>
<trkpt lat="46.50567" lon="6.6972"><ele>502.8</ele><time>2023-06-07T18:31:53Z</time></trkpt>
<trkpt lat="46.50581" lon="6.69714"><ele>502</ele><time>2023-06-07T18:31:58Z</time></trkpt>
<trkpt lat="46.50584" lon="6.69712"><ele>502</ele><time>2023-06-07T18:31:59Z</time></trkpt>
<trkpt lat="46.50587" lon="6.6971"><ele>501.6</ele><time>2023-06-07T18:32:03Z</time></trkpt>
<trkpt lat="46.50588" lon="6.6971"><ele>501.6</ele><time>2023-06-07T18:32:04Z</time></trkpt>
<trkpt lat="46.50592" lon="6.69706"><ele>501.4</ele><time>2023-06-07T18:32:10Z</time></trkpt>
<trkpt lat="46.50595" lon="6.69703"><ele>502.4</ele><time>2023-06-07T18:32:17Z</time></trkpt>
<trkpt lat="46.50595" lon="6.69701"><ele>502.6</ele><time>2023-06-07T18:32:20Z</time></trkpt>
<trkpt lat="46.50595" lon="6.69697"><ele>503.8</ele><time>2023-06-07T18:32:26Z</time></trkpt>
<trkpt lat="46.50595" lon="6.69693"><ele>504.8</ele><time>2023-06-07T18:32:31Z</time></trkpt>
<trkpt lat="46.50596" lon="6.6969"><ele>505.2</ele><time>2023-06-07T18:32:34Z</time></trkpt>
<trkpt lat="46.50596" lon="6.69688"><ele>505.8</ele><time>2023-06-07T18:32:38Z</time></trkpt>
<trkpt lat="46.50596" lon="6.69685"><ele>506.2</ele><time>2023-06-07T18:32:41Z</time></trkpt>
<trkpt lat="46.50597" lon="6.69682"><ele>506.8</ele><time>2023-06-07T18:32:46Z</time></trkpt>
<trkpt lat="46.50597" lon="6.6968"><ele>507</ele><time>2023-06-07T18:32:47Z</time></trkpt>
<trkpt lat="46.50598" lon="6.69678"><ele>507</ele><time>2023-06-07T18:32:49Z</time></trkpt>
<trkpt lat="46.50599" lon="6.69671"><ele>508</ele><time>2023-06-07T18:32:56Z</time></trkpt>
<trkpt lat="46.50599" lon="6.69669"><ele>508.2</ele><time>2023-06-07T18:32:58Z</time></trkpt>
<trkpt lat="46.506" lon="6.6966"><ele>509.2</ele><time>2023-06-07T18:33:06Z</time></trkpt>
<trkpt lat="46.506" lon="6.69658"><ele>509.6</ele><time>2023-06-07T18:33:09Z</time></trkpt>
<trkpt lat="46.50601" lon="6.69657"><ele>509.8</ele><time>2023-06-07T18:33:10Z</time></trkpt>
<trkpt lat="46.50603" lon="6.69657"><ele>510</ele><time>2023-06-07T18:33:14Z</time></trkpt>
<trkpt lat="46.50603" lon="6.69657"><ele>510.2</ele><time>2023-06-07T18:33:18Z</time></trkpt>
<trkpt lat="46.50603" lon="6.69656"><ele>510.2</ele><time>2023-06-07T18:33:22Z</time></trkpt>
<trkpt lat="46.50604" lon="6.69657"><ele>510.4</ele><time>2023-06-07T18:33:32Z</time></trkpt>
<trkpt lat="46.50607" lon="6.69657"><ele>510.4</ele><time>2023-06-07T18:33:34Z</time></trkpt>
<trkpt lat="46.5061" lon="6.69658"><ele>510.6</ele><time>2023-06-07T18:33:37Z</time></trkpt>
<trkpt lat="46.50615" lon="6.69658"><ele>511.2</ele><time>2023-06-07T18:33:41Z</time></trkpt>
<trkpt lat="46.50622" lon="6.69661"><ele>511.8</ele><time>2023-06-07T18:33:47Z</time></trkpt>
<trkpt lat="46.50625" lon="6.69662"><ele>512.4</ele><time>2023-06-07T18:33:50Z</time></trkpt>
<trkpt lat="46.50629" lon="6.69662"><ele>512.8</ele><time>2023-06-07T18:33:53Z</time></trkpt>
<trkpt lat="46.50632" lon="6.69663"><ele>513</ele><time>2023-06-07T18:33:56Z</time></trkpt>
<trkpt lat="46.50635" lon="6.69663"><ele>513.4</ele><time>2023-06-07T18:33:59Z</time></trkpt>
<trkpt lat="46.50635" lon="6.69663"><ele>513.4</ele><time>2023-06-07T18:34:00Z</time></trkpt>
<trkpt lat="46.50635" lon="6.69662"><ele>514</ele><time>2023-06-07T18:34:07Z</time></trkpt>
<trkpt lat="46.50635" lon="6.69663"><ele>513.8</ele><time>2023-06-07T18:34:14Z</time></trkpt>
<trkpt lat="46.50634" lon="6.69662"><ele>513.8</ele><time>2023-06-07T18:34:16Z</time></trkpt>
<trkpt lat="46.50635" lon="6.69663"><ele>513.8</ele><time>2023-06-07T18:34:26Z</time></trkpt>
<trkpt lat="46.50635" lon="6.69663"><ele>513.8</ele><time>2023-06-07T18:34:37Z</time></trkpt>
<trkpt lat="46.50635" lon="6.69663"><ele>513.8</ele><time>2023-06-07T18:34:45Z</time></trkpt>
<trkpt lat="46.50633" lon="6.69664"><ele>513.8</ele><time>2023-06-07T18:34:52Z</time></trkpt>
<trkpt lat="46.50633" lon="6.69664"><ele>513.8</ele><time>2023-06-07T18:35:03Z</time></trkpt>
<trkpt lat="46.50633" lon="6.69664"><ele>513.8</ele><time>2023-06-07T18:35:05Z</time></trkpt>
<trkpt lat="46.50633" lon="6.69664"><ele>513.8</ele><time>2023-06-07T18:35:13Z</time></trkpt>
<trkpt lat="46.50633" lon="6.69663"><ele>513.8</ele><time>2023-06-07T18:35:26Z</time></trkpt>
<trkpt lat="46.50633" lon="6.69664"><ele>513.8</ele><time>2023-06-07T18:35:33Z</time></trkpt>
<trkpt lat="46.50635" lon="6.69662"><ele>513.8</ele><time>2023-06-07T18:35:44Z</time></trkpt>
<trkpt lat="46.50635" lon="6.69662"><ele>513.8</ele><time>2023-06-07T18:35:52Z</time></trkpt>
<trkpt lat="46.50635" lon="6.69662"><ele>513.8</ele><time>2023-06-07T18:35:58Z</time></trkpt>
<trkpt lat="46.50635" lon="6.69662"><ele>513.8</ele><time>2023-06-07T18:36:00Z</time></trkpt>
<trkpt lat="46.50635" lon="6.69662"><ele>513.8</ele><time>2023-06-07T18:36:04Z</time></trkpt>
<trkpt lat="46.50635" lon="6.69662"><ele>513.8</ele><time>2023-06-07T18:36:13Z</time></trkpt>
<trkpt lat="46.50635" lon="6.69662"><ele>513.8</ele><time>2023-06-07T18:36:14Z</time></trkpt>
<trkpt lat="46.50635" lon="6.69662"><ele>513.8</ele><time>2023-06-07T18:36:26Z</time></trkpt>
<trkpt lat="46.50635" lon="6.69662"><ele>513.8</ele><time>2023-06-07T18:36:35Z</time></trkpt>
<trkpt lat="46.50634" lon="6.69663"><ele>513.8</ele><time>2023-06-07T18:36:40Z</time></trkpt>
<trkpt lat="46.50634" lon="6.69663"><ele>513.8</ele><time>2023-06-07T18:36:42Z</time></trkpt>
<trkpt lat="46.50634" lon="6.69663"><ele>513.8</ele><time>2023-06-07T18:36:51Z</time></trkpt>
<trkpt lat="46.50634" lon="6.69662"><ele>513.8</ele><time>2023-06-07T18:36:57Z</time></trkpt>
<trkpt lat="46.50634" lon="6.69661"><ele>513.8</ele><time>2023-06-07T18:37:02Z</time></trkpt>
<trkpt lat="46.50634" lon="6.69661"><ele>513.8</ele><time>2023-06-07T18:37:03Z</time></trkpt>
<trkpt lat="46.50634" lon="6.69661"><ele>513.8</ele><time>2023-06-07T18:37:11Z</time></trkpt>
<trkpt lat="46.50634" lon="6.6966"><ele>513.8</ele><time>2023-06-07T18:37:19Z</time></trkpt>
<trkpt lat="46.50635" lon="6.6966"><ele>513.8</ele><time>2023-06-07T18:37:28Z</time></trkpt>
<trkpt lat="46.50635" lon="6.6966"><ele>513.8</ele><time>2023-06-07T18:37:32Z</time></trkpt>
<trkpt lat="46.50635" lon="6.6966"><ele>513.8</ele><time>2023-06-07T18:37:35Z</time></trkpt>
<trkpt lat="46.50635" lon="6.6966"><ele>513.8</ele><time>2023-06-07T18:37:42Z</time></trkpt>
<trkpt lat="46.50635" lon="6.69664"><ele>513.8</ele><time>2023-06-07T18:37:53Z</time></trkpt>
<trkpt lat="46.50635" lon="6.69663"><ele>513.8</ele><time>2023-06-07T18:38:05Z</time></trkpt>
<trkpt lat="46.50635" lon="6.69661"><ele>513.8</ele><time>2023-06-07T18:38:14Z</time></trkpt>
<trkpt lat="46.50635" lon="6.69662"><ele>513.8</ele><time>2023-06-07T18:38:15Z</time></trkpt>
<trkpt lat="46.50637" lon="6.69662"><ele>513.8</ele><time>2023-06-07T18:38:18Z</time></trkpt>
<trkpt lat="46.50645" lon="6.69664"><ele>514.2</ele><time>2023-06-07T18:38:27Z</time></trkpt>
<trkpt lat="46.50646" lon="6.69664"><ele>514.4</ele><time>2023-06-07T18:38:29Z</time></trkpt>
<trkpt lat="46.50649" lon="6.69664"><ele>515</ele><time>2023-06-07T18:38:32Z</time></trkpt>
<trkpt lat="46.50652" lon="6.69666"><ele>515.4</ele><time>2023-06-07T18:38:35Z</time></trkpt>
<trkpt lat="46.50653" lon="6.69666"><ele>515.6</ele><time>2023-06-07T18:38:36Z</time></trkpt>
<trkpt lat="46.50657" lon="6.69668"><ele>516.4</ele><time>2023-06-07T18:38:41Z</time></trkpt>
<trkpt lat="46.50658" lon="6.69668"><ele>516.6</ele><time>2023-06-07T18:38:42Z</time></trkpt>
<trkpt lat="46.50659" lon="6.69668"><ele>517</ele><time>2023-06-07T18:38:43Z</time></trkpt>
<trkpt lat="46.50662" lon="6.69667"><ele>517.6</ele><time>2023-06-07T18:38:47Z</time></trkpt>
<trkpt lat="46.50662" lon="6.69667"><ele>517.8</ele><time>2023-06-07T18:38:48Z</time></trkpt>
<trkpt lat="46.50663" lon="6.69665"><ele>518</ele><time>2023-06-07T18:38:50Z</time></trkpt>
<trkpt lat="46.50665" lon="6.69662"><ele>518.6</ele><time>2023-06-07T18:38:54Z</time></trkpt>
<trkpt lat="46.50667" lon="6.69655"><ele>518.8</ele><time>2023-06-07T18:38:57Z</time></trkpt>
<trkpt lat="46.50667" lon="6.69649"><ele>519</ele><time>2023-06-07T18:38:59Z</time></trkpt>
<trkpt lat="46.50668" lon="6.69642"><ele>519.2</ele><time>2023-06-07T18:39:02Z</time></trkpt>
<trkpt lat="46.5067" lon="6.69636"><ele>519.4</ele><time>2023-06-07T18:39:05Z</time></trkpt>
<trkpt lat="46.50672" lon="6.69629"><ele>519.6</ele><time>2023-06-07T18:39:08Z</time></trkpt>
<trkpt lat="46.50676" lon="6.69621"><ele>520</ele><time>2023-06-07T18:39:12Z</time></trkpt>
<trkpt lat="46.5068" lon="6.69616"><ele>520.2</ele><time>2023-06-07T18:39:15Z</time></trkpt>
<trkpt lat="46.50688" lon="6.69598"><ele>521</ele><time>2023-06-07T18:39:23Z</time></trkpt>
<trkpt lat="46.50703" lon="6.69574"><ele>521.6</ele><time>2023-06-07T18:39:34Z</time></trkpt>
<trkpt lat="46.50716" lon="6.69558"><ele>521.8</ele><time>2023-06-07T18:39:42Z</time></trkpt>
<trkpt lat="46.50718" lon="6.69556"><ele>522</ele><time>2023-06-07T18:39:43Z</time></trkpt>
<trkpt lat="46.5073" lon="6.69539"><ele>522.4</ele><time>2023-06-07T18:39:50Z</time></trkpt>
<trkpt lat="46.50744" lon="6.69521"><ele>522.2</ele><time>2023-06-07T18:39:58Z</time></trkpt>
<trkpt lat="46.50756" lon="6.69509"><ele>521.8</ele><time>2023-06-07T18:40:04Z</time></trkpt>
<trkpt lat="46.50757" lon="6.69508"><ele>521.6</ele><time>2023-06-07T18:40:05Z</time></trkpt>
<trkpt lat="46.50768" lon="6.69502"><ele>521.6</ele><time>2023-06-07T18:40:10Z</time></trkpt>
<trkpt lat="46.50776" lon="6.695"><ele>522</ele><time>2023-06-07T18:40:14Z</time></trkpt>
<trkpt lat="46.50779" lon="6.695"><ele>522.2</ele><time>2023-06-07T18:40:16Z</time></trkpt>
<trkpt lat="46.50788" lon="6.69498"><ele>523</ele><time>2023-06-07T18:40:20Z</time></trkpt>
<trkpt lat="46.50798" lon="6.695"><ele>523.8</ele><time>2023-06-07T18:40:26Z</time></trkpt>
<trkpt lat="46.508" lon="6.695"><ele>524.2</ele><time>2023-06-07T18:40:28Z</time></trkpt>
<trkpt lat="46.50808" lon="6.69499"><ele>525.2</ele><time>2023-06-07T18:40:33Z</time></trkpt>
<trkpt lat="46.50812" lon="6.69499"><ele>525.8</ele><time>2023-06-07T18:40:35Z</time></trkpt>
<trkpt lat="46.50814" lon="6.69497"><ele>526</ele><time>2023-06-07T18:40:36Z</time></trkpt>
<trkpt lat="46.50815" lon="6.69491"><ele>526.4</ele><time>2023-06-07T18:40:39Z</time></trkpt>
<trkpt lat="46.50823" lon="6.69471"><ele>527</ele><time>2023-06-07T18:40:46Z</time></trkpt>
<trkpt lat="46.50837" lon="6.69442"><ele>526.6</ele><time>2023-06-07T18:40:53Z</time></trkpt>
<trkpt lat="46.5084" lon="6.69435"><ele>526.4</ele><time>2023-06-07T18:40:55Z</time></trkpt>
<trkpt lat="46.5085" lon="6.69413"><ele>525.8</ele><time>2023-06-07T18:41:00Z</time></trkpt>
<trkpt lat="46.50861" lon="6.6939"><ele>525.4</ele><time>2023-06-07T18:41:05Z</time></trkpt>
<trkpt lat="46.50876" lon="6.6936"><ele>525.6</ele><time>2023-06-07T18:41:12Z</time></trkpt>
<trkpt lat="46.50884" lon="6.69346"><ele>526.6</ele><time>2023-06-07T18:41:17Z</time></trkpt>
<trkpt lat="46.50887" lon="6.69343"><ele>527</ele><time>2023-06-07T18:41:18Z</time></trkpt>
<trkpt lat="46.50896" lon="6.69335"><ele>527.8</ele><time>2023-06-07T18:41:21Z</time></trkpt>
<trkpt lat="46.50911" lon="6.69323"><ele>528.8</ele><time>2023-06-07T18:41:26Z</time></trkpt>
<trkpt lat="46.5092" lon="6.69317"><ele>530</ele><time>2023-06-07T18:41:29Z</time></trkpt>
<trkpt lat="46.50928" lon="6.6931"><ele>531.2</ele><time>2023-06-07T18:41:32Z</time></trkpt>
<trkpt lat="46.50932" lon="6.69304"><ele>531.4</ele><time>2023-06-07T18:41:33Z</time></trkpt>
<trkpt lat="46.50938" lon="6.69297"><ele>532.2</ele><time>2023-06-07T18:41:36Z</time></trkpt>
<trkpt lat="46.50944" lon="6.69291"><ele>532.6</ele><time>2023-06-07T18:41:40Z</time></trkpt>
<trkpt lat="46.5096" lon="6.69277"><ele>532</ele><time>2023-06-07T18:41:46Z</time></trkpt>
<trkpt lat="46.50965" lon="6.69274"><ele>531.2</ele><time>2023-06-07T18:41:51Z</time></trkpt>
<trkpt lat="46.50966" lon="6.69274"><ele>531.2</ele><time>2023-06-07T18:41:52Z</time></trkpt>
<trkpt lat="46.5097" lon="6.69272"><ele>530.2</ele><time>2023-06-07T18:41:59Z</time></trkpt>
<trkpt lat="46.50973" lon="6.69275"><ele>529</ele><time>2023-06-07T18:42:03Z</time></trkpt>
<trkpt lat="46.50974" lon="6.69277"><ele>528.8</ele><time>2023-06-07T18:42:05Z</time></trkpt>
<trkpt lat="46.50977" lon="6.69284"><ele>528.6</ele><time>2023-06-07T18:42:10Z</time></trkpt>
<trkpt lat="46.50978" lon="6.69285"><ele>528.6</ele><time>2023-06-07T18:42:11Z</time></trkpt>
<trkpt lat="46.50979" lon="6.69284"><ele>528</ele><time>2023-06-07T18:42:14Z</time></trkpt>
<trkpt lat="46.50982" lon="6.69284"><ele>526.8</ele><time>2023-06-07T18:42:18Z</time></trkpt>
<trkpt lat="46.50983" lon="6.69284"><ele>526.2</ele><time>2023-06-07T18:42:19Z</time></trkpt>
<trkpt lat="46.50985" lon="6.69284"><ele>525.6</ele><time>2023-06-07T18:42:21Z</time></trkpt>
<trkpt lat="46.50988" lon="6.69283"><ele>524.4</ele><time>2023-06-07T18:42:25Z</time></trkpt>
<trkpt lat="46.50993" lon="6.69284"><ele>523.4</ele><time>2023-06-07T18:42:30Z</time></trkpt>
<trkpt lat="46.50997" lon="6.69284"><ele>522.2</ele><time>2023-06-07T18:42:34Z</time></trkpt>
<trkpt lat="46.51002" lon="6.69284"><ele>521.2</ele><time>2023-06-07T18:42:38Z</time></trkpt>
<trkpt lat="46.51005" lon="6.69284"><ele>519.8</ele><time>2023-06-07T18:42:41Z</time></trkpt>
<trkpt lat="46.51009" lon="6.69285"><ele>518.4</ele><time>2023-06-07T18:42:45Z</time></trkpt>
<trkpt lat="46.51012" lon="6.69285"><ele>517.4</ele><time>2023-06-07T18:42:48Z</time></trkpt>
<trkpt lat="46.51014" lon="6.69284"><ele>517.4</ele><time>2023-06-07T18:42:49Z</time></trkpt>
<trkpt lat="46.51016" lon="6.69282"><ele>516.4</ele><time>2023-06-07T18:42:52Z</time></trkpt>
<trkpt lat="46.51019" lon="6.69277"><ele>515.8</ele><time>2023-06-07T18:42:55Z</time></trkpt>
<trkpt lat="46.5102" lon="6.69276"><ele>515.4</ele><time>2023-06-07T18:42:56Z</time></trkpt>
<trkpt lat="46.51021" lon="6.69274"><ele>515.2</ele><time>2023-06-07T18:42:57Z</time></trkpt>
<trkpt lat="46.51022" lon="6.69271"><ele>515.2</ele><time>2023-06-07T18:42:59Z</time></trkpt>
<trkpt lat="46.51023" lon="6.69267"><ele>515.2</ele><time>2023-06-07T18:43:02Z</time></trkpt>
<trkpt lat="46.51024" lon="6.69257"><ele>516.4</ele><time>2023-06-07T18:43:09Z</time></trkpt>
<trkpt lat="46.51027" lon="6.6925"><ele>517.2</ele><time>2023-06-07T18:43:16Z</time></trkpt>
<trkpt lat="46.51029" lon="6.6925"><ele>517.4</ele><time>2023-06-07T18:43:18Z</time></trkpt>
<trkpt lat="46.51032" lon="6.6925"><ele>518</ele><time>2023-06-07T18:43:22Z</time></trkpt>
<trkpt lat="46.51032" lon="6.6925"><ele>518</ele><time>2023-06-07T18:43:23Z</time></trkpt>
<trkpt lat="46.51032" lon="6.69248"><ele>518.4</ele><time>2023-06-07T18:43:25Z</time></trkpt>
<trkpt lat="46.51033" lon="6.69245"><ele>519.4</ele><time>2023-06-07T18:43:29Z</time></trkpt>
<trkpt lat="46.51035" lon="6.69241"><ele>520</ele><time>2023-06-07T18:43:33Z</time></trkpt>
<trkpt lat="46.51036" lon="6.69238"><ele>520.6</ele><time>2023-06-07T18:43:36Z</time></trkpt>
<trkpt lat="46.51038" lon="6.6923"><ele>521.4</ele><time>2023-06-07T18:43:43Z</time></trkpt>
<trkpt lat="46.51038" lon="6.69228"><ele>521.8</ele><time>2023-06-07T18:43:45Z</time></trkpt>
<trkpt lat="46.51039" lon="6.69221"><ele>522.8</ele><time>2023-06-07T18:43:51Z</time></trkpt>
<trkpt lat="46.51039" lon="6.69221"><ele>522.8</ele><time>2023-06-07T18:43:52Z</time></trkpt>
<trkpt lat="46.51039" lon="6.69209"><ele>523</ele><time>2023-06-07T18:44:01Z</time></trkpt>
<trkpt lat="46.51037" lon="6.69204"><ele>523</ele><time>2023-06-07T18:44:07Z</time></trkpt>
<trkpt lat="46.51037" lon="6.69203"><ele>522.8</ele><time>2023-06-07T18:44:08Z</time></trkpt>
<trkpt lat="46.51039" lon="6.692"><ele>523</ele><time>2023-06-07T18:44:12Z</time></trkpt>
<trkpt lat="46.51042" lon="6.69198"><ele>523.8</ele><time>2023-06-07T18:44:17Z</time></trkpt>
<trkpt lat="46.51045" lon="6.69194"><ele>524.8</ele><time>2023-06-07T18:44:23Z</time></trkpt>
<trkpt lat="46.51046" lon="6.69193"><ele>525</ele><time>2023-06-07T18:44:24Z</time></trkpt>
<trkpt lat="46.51048" lon="6.69194"><ele>526</ele><time>2023-06-07T18:44:30Z</time></trkpt>
<trkpt lat="46.5105" lon="6.69193"><ele>526.4</ele><time>2023-06-07T18:44:32Z</time></trkpt>
<trkpt lat="46.51053" lon="6.69191"><ele>527.2</ele><time>2023-06-07T18:44:37Z</time></trkpt>
<trkpt lat="46.51055" lon="6.69188"><ele>528.2</ele><time>2023-06-07T18:44:43Z</time></trkpt>
<trkpt lat="46.51056" lon="6.69188"><ele>528.2</ele><time>2023-06-07T18:44:44Z</time></trkpt>
<trkpt lat="46.51059" lon="6.69187"><ele>529.2</ele><time>2023-06-07T18:44:52Z</time></trkpt>
<trkpt lat="46.5106" lon="6.69187"><ele>529.4</ele><time>2023-06-07T18:44:53Z</time></trkpt>
<trkpt lat="46.51063" lon="6.69186"><ele>530.4</ele><time>2023-06-07T18:44:59Z</time></trkpt>
<trkpt lat="46.51067" lon="6.69186"><ele>531</ele><time>2023-06-07T18:45:04Z</time></trkpt>
<trkpt lat="46.51068" lon="6.69186"><ele>531.4</ele><time>2023-06-07T18:45:06Z</time></trkpt>
<trkpt lat="46.51071" lon="6.69183"><ele>532.4</ele><time>2023-06-07T18:45:13Z</time></trkpt>
<trkpt lat="46.51071" lon="6.69182"><ele>532.6</ele><time>2023-06-07T18:45:14Z</time></trkpt>
<trkpt lat="46.51074" lon="6.69179"><ele>533.6</ele><time>2023-06-07T18:45:21Z</time></trkpt>
<trkpt lat="46.51075" lon="6.69178"><ele>534</ele><time>2023-06-07T18:45:26Z</time></trkpt>
<trkpt lat="46.51075" lon="6.69176"><ele>534</ele><time>2023-06-07T18:45:29Z</time></trkpt>
<trkpt lat="46.51076" lon="6.69171"><ele>534</ele><time>2023-06-07T18:45:31Z</time></trkpt>
<trkpt lat="46.51077" lon="6.69168"><ele>534</ele><time>2023-06-07T18:45:32Z</time></trkpt>
<trkpt lat="46.51073" lon="6.69161"><ele>533.8</ele><time>2023-06-07T18:45:34Z</time></trkpt>
<trkpt lat="46.5106" lon="6.69148"><ele>532.2</ele><time>2023-06-07T18:45:37Z</time></trkpt>
<trkpt lat="46.51055" lon="6.69142"><ele>532</ele><time>2023-06-07T18:45:38Z</time></trkpt>
<trkpt lat="46.51043" lon="6.69131"><ele>530.8</ele><time>2023-06-07T18:45:40Z</time></trkpt>
<trkpt lat="46.51025" lon="6.6911"><ele>529.2</ele><time>2023-06-07T18:45:43Z</time></trkpt>
<trkpt lat="46.51004" lon="6.69087"><ele>527.8</ele><time>2023-06-07T18:45:46Z</time></trkpt>
<trkpt lat="46.5099" lon="6.69072"><ele>526.6</ele><time>2023-06-07T18:45:48Z</time></trkpt>
<trkpt lat="46.50983" lon="6.69065"><ele>526</ele><time>2023-06-07T18:45:49Z</time></trkpt>
<trkpt lat="46.50979" lon="6.69054"><ele>525.2</ele><time>2023-06-07T18:45:50Z</time></trkpt>
<trkpt lat="46.50977" lon="6.69043"><ele>524.8</ele><time>2023-06-07T18:45:51Z</time></trkpt>
<trkpt lat="46.50974" lon="6.69022"><ele>524.6</ele><time>2023-06-07T18:45:53Z</time></trkpt>
<trkpt lat="46.50974" lon="6.68993"><ele>524.4</ele><time>2023-06-07T18:45:56Z</time></trkpt>
<trkpt lat="46.50972" lon="6.68984"><ele>524.4</ele><time>2023-06-07T18:45:57Z</time></trkpt>
<trkpt lat="46.50969" lon="6.68975"><ele>524.2</ele><time>2023-06-07T18:45:58Z</time></trkpt>
<trkpt lat="46.50958" lon="6.68961"><ele>523.4</ele><time>2023-06-07T18:46:00Z</time></trkpt>
<trkpt lat="46.50952" lon="6.68955"><ele>523</ele><time>2023-06-07T18:46:01Z</time></trkpt>
<trkpt lat="46.50941" lon="6.68944"><ele>522.4</ele><time>2023-06-07T18:46:03Z</time></trkpt>
<trkpt lat="46.50935" lon="6.68929"><ele>521.8</ele><time>2023-06-07T18:46:05Z</time></trkpt>
<trkpt lat="46.50936" lon="6.68912"><ele>521.2</ele><time>2023-06-07T18:46:07Z</time></trkpt>
<trkpt lat="46.50937" lon="6.68904"><ele>520.6</ele><time>2023-06-07T18:46:08Z</time></trkpt>
<trkpt lat="46.50942" lon="6.68877"><ele>519.4</ele><time>2023-06-07T18:46:11Z</time></trkpt>
<trkpt lat="46.50948" lon="6.68847"><ele>518.4</ele><time>2023-06-07T18:46:14Z</time></trkpt>
<trkpt lat="46.50949" lon="6.68836"><ele>518</ele><time>2023-06-07T18:46:15Z</time></trkpt>
<trkpt lat="46.50952" lon="6.68826"><ele>517.6</ele><time>2023-06-07T18:46:16Z</time></trkpt>
<trkpt lat="46.50961" lon="6.68807"><ele>516.8</ele><time>2023-06-07T18:46:18Z</time></trkpt>
<trkpt lat="46.50967" lon="6.68786"><ele>516.4</ele><time>2023-06-07T18:46:20Z</time></trkpt>
<trkpt lat="46.50966" lon="6.68774"><ele>515.8</ele><time>2023-06-07T18:46:21Z</time></trkpt>
<trkpt lat="46.50966" lon="6.68761"><ele>515.4</ele><time>2023-06-07T18:46:22Z</time></trkpt>
<trkpt lat="46.50966" lon="6.68728"><ele>514.2</ele><time>2023-06-07T18:46:25Z</time></trkpt>
<trkpt lat="46.50967" lon="6.68719"><ele>513.8</ele><time>2023-06-07T18:46:26Z</time></trkpt>
<trkpt lat="46.50966" lon="6.68705"><ele>513</ele><time>2023-06-07T18:46:28Z</time></trkpt>
<trkpt lat="46.50966" lon="6.68698"><ele>512.6</ele><time>2023-06-07T18:46:30Z</time></trkpt>
<trkpt lat="46.50957" lon="6.68674"><ele>512.4</ele><time>2023-06-07T18:46:36Z</time></trkpt>
<trkpt lat="46.50953" lon="6.68657"><ele>512.2</ele><time>2023-06-07T18:46:39Z</time></trkpt>
<trkpt lat="46.50951" lon="6.68646"><ele>512.2</ele><time>2023-06-07T18:46:41Z</time></trkpt>
<trkpt lat="46.50951" lon="6.68639"><ele>512</ele><time>2023-06-07T18:46:42Z</time></trkpt>
<trkpt lat="46.50951" lon="6.68618"><ele>511.8</ele><time>2023-06-07T18:46:45Z</time></trkpt>
<trkpt lat="46.50951" lon="6.68611"><ele>511.8</ele><time>2023-06-07T18:46:46Z</time></trkpt>
<trkpt lat="46.50952" lon="6.68579"><ele>510.6</ele><time>2023-06-07T18:46:50Z</time></trkpt>
<trkpt lat="46.50951" lon="6.6857"><ele>510.6</ele><time>2023-06-07T18:46:51Z</time></trkpt>
<trkpt lat="46.50949" lon="6.68562"><ele>510.4</ele><time>2023-06-07T18:46:52Z</time></trkpt>
<trkpt lat="46.50941" lon="6.68539"><ele>509.8</ele><time>2023-06-07T18:46:55Z</time></trkpt>
<trkpt lat="46.50938" lon="6.68531"><ele>509.4</ele><time>2023-06-07T18:46:56Z</time></trkpt>
<trkpt lat="46.50925" lon="6.68487"><ele>508.2</ele><time>2023-06-07T18:47:01Z</time></trkpt>
<trkpt lat="46.5092" lon="6.68468"><ele>507.6</ele><time>2023-06-07T18:47:03Z</time></trkpt>
<trkpt lat="46.50915" lon="6.68447"><ele>507.2</ele><time>2023-06-07T18:47:05Z</time></trkpt>
<trkpt lat="46.50911" lon="6.68426"><ele>506</ele><time>2023-06-07T18:47:07Z</time></trkpt>
<trkpt lat="46.50906" lon="6.68404"><ele>505.4</ele><time>2023-06-07T18:47:09Z</time></trkpt>
<trkpt lat="46.50904" lon="6.68392"><ele>505</ele><time>2023-06-07T18:47:10Z</time></trkpt>
<trkpt lat="46.509" lon="6.68359"><ele>503.8</ele><time>2023-06-07T18:47:13Z</time></trkpt>
<trkpt lat="46.50897" lon="6.68337"><ele>502.6</ele><time>2023-06-07T18:47:15Z</time></trkpt>
<trkpt lat="46.50894" lon="6.68307"><ele>501.4</ele><time>2023-06-07T18:47:18Z</time></trkpt>
<trkpt lat="46.50893" lon="6.683"><ele>500.8</ele><time>2023-06-07T18:47:19Z</time></trkpt>
<trkpt lat="46.50893" lon="6.68297"><ele>500.4</ele><time>2023-06-07T18:47:20Z</time></trkpt>
<trkpt lat="46.50893" lon="6.68294"><ele>500</ele><time>2023-06-07T18:47:21Z</time></trkpt>
<trkpt lat="46.50892" lon="6.68293"><ele>499.8</ele><time>2023-06-07T18:47:22Z</time></trkpt>
<trkpt lat="46.50891" lon="6.68291"><ele>499.6</ele><time>2023-06-07T18:47:28Z</time></trkpt>
<trkpt lat="46.5089" lon="6.6829"><ele>499.4</ele><time>2023-06-07T18:47:32Z</time></trkpt>
<trkpt lat="46.5089" lon="6.6829"><ele>499.4</ele><time>2023-06-07T18:47:36Z</time></trkpt>
<trkpt lat="46.5089" lon="6.68289"><ele>499.6</ele><time>2023-06-07T18:47:39Z</time></trkpt>
<trkpt lat="46.50891" lon="6.68287"><ele>499.6</ele><time>2023-06-07T18:47:40Z</time></trkpt>
<trkpt lat="46.5089" lon="6.68282"><ele>499.6</ele><time>2023-06-07T18:47:42Z</time></trkpt>
<trkpt lat="46.50888" lon="6.68279"><ele>499.4</ele><time>2023-06-07T18:47:43Z</time></trkpt>
<trkpt lat="46.50879" lon="6.68282"><ele>499.2</ele><time>2023-06-07T18:47:45Z</time></trkpt>
<trkpt lat="46.50868" lon="6.68291"><ele>498.4</ele><time>2023-06-07T18:47:47Z</time></trkpt>
<trkpt lat="46.50861" lon="6.68296"><ele>498</ele><time>2023-06-07T18:47:48Z</time></trkpt>
<trkpt lat="46.50846" lon="6.68305"><ele>496.8</ele><time>2023-06-07T18:47:50Z</time></trkpt>
<trkpt lat="46.50828" lon="6.68311"><ele>494.8</ele><time>2023-06-07T18:47:52Z</time></trkpt>
<trkpt lat="46.50811" lon="6.68316"><ele>493</ele><time>2023-06-07T18:47:54Z</time></trkpt>
<trkpt lat="46.50804" lon="6.68316"><ele>492</ele><time>2023-06-07T18:47:55Z</time></trkpt>
<trkpt lat="46.50799" lon="6.68312"><ele>491.2</ele><time>2023-06-07T18:47:56Z</time></trkpt>
<trkpt lat="46.50796" lon="6.68305"><ele>490.4</ele><time>2023-06-07T18:47:57Z</time></trkpt>
<trkpt lat="46.50794" lon="6.68298"><ele>489.8</ele><time>2023-06-07T18:47:58Z</time></trkpt>
<trkpt lat="46.50793" lon="6.68292"><ele>489.6</ele><time>2023-06-07T18:47:59Z</time></trkpt>
<trkpt lat="46.50791" lon="6.68277"><ele>489.4</ele><time>2023-06-07T18:48:02Z</time></trkpt>
<trkpt lat="46.50788" lon="6.68252"><ele>490.8</ele><time>2023-06-07T18:48:08Z</time></trkpt>
<trkpt lat="46.50787" lon="6.6824"><ele>491.4</ele><time>2023-06-07T18:48:12Z</time></trkpt>
<trkpt lat="46.50785" lon="6.68227"><ele>492</ele><time>2023-06-07T18:48:16Z</time></trkpt>
<trkpt lat="46.50782" lon="6.682"><ele>492.4</ele><time>2023-06-07T18:48:23Z</time></trkpt>
<trkpt lat="46.50782" lon="6.68192"><ele>492.8</ele><time>2023-06-07T18:48:25Z</time></trkpt>
<trkpt lat="46.50779" lon="6.68152"><ele>493.2</ele><time>2023-06-07T18:48:34Z</time></trkpt>
<trkpt lat="46.50775" lon="6.68116"><ele>493.2</ele><time>2023-06-07T18:48:41Z</time></trkpt>
<trkpt lat="46.50773" lon="6.68076"><ele>493.2</ele><time>2023-06-07T18:48:48Z</time></trkpt>
<trkpt lat="46.50773" lon="6.6806"><ele>493.6</ele><time>2023-06-07T18:48:51Z</time></trkpt>
<trkpt lat="46.50773" lon="6.6804"><ele>493.6</ele><time>2023-06-07T18:48:55Z</time></trkpt>
<trkpt lat="46.5077" lon="6.68019"><ele>493.4</ele><time>2023-06-07T18:48:59Z</time></trkpt>
<trkpt lat="46.50766" lon="6.68016"><ele>493.2</ele><time>2023-06-07T18:49:00Z</time></trkpt>
<trkpt lat="46.50762" lon="6.68014"><ele>492.8</ele><time>2023-06-07T18:49:01Z</time></trkpt>
<trkpt lat="46.50748" lon="6.68013"><ele>492</ele><time>2023-06-07T18:49:03Z</time></trkpt>
<trkpt lat="46.50733" lon="6.68014"><ele>490.6</ele><time>2023-06-07T18:49:05Z</time></trkpt>
<trkpt lat="46.50716" lon="6.68015"><ele>488.6</ele><time>2023-06-07T18:49:07Z</time></trkpt>
<trkpt lat="46.50702" lon="6.68016"><ele>487.2</ele><time>2023-06-07T18:49:09Z</time></trkpt>
<trkpt lat="46.50696" lon="6.68014"><ele>486.6</ele><time>2023-06-07T18:49:10Z</time></trkpt>
<trkpt lat="46.50692" lon="6.68011"><ele>486</ele><time>2023-06-07T18:49:11Z</time></trkpt>
<trkpt lat="46.50689" lon="6.68004"><ele>485.4</ele><time>2023-06-07T18:49:12Z</time></trkpt>
<trkpt lat="46.50688" lon="6.67997"><ele>485</ele><time>2023-06-07T18:49:13Z</time></trkpt>
<trkpt lat="46.50688" lon="6.67991"><ele>484.6</ele><time>2023-06-07T18:49:14Z</time></trkpt>
<trkpt lat="46.50689" lon="6.67967"><ele>484.4</ele><time>2023-06-07T18:49:18Z</time></trkpt>
<trkpt lat="46.50691" lon="6.67926"><ele>484.8</ele><time>2023-06-07T18:49:25Z</time></trkpt>
<trkpt lat="46.50695" lon="6.67893"><ele>485.6</ele><time>2023-06-07T18:49:31Z</time></trkpt>
<trkpt lat="46.50696" lon="6.67888"><ele>485.8</ele><time>2023-06-07T18:49:32Z</time></trkpt>
<trkpt lat="46.50697" lon="6.67884"><ele>486</ele><time>2023-06-07T18:49:33Z</time></trkpt>
<trkpt lat="46.50705" lon="6.67846"><ele>486.8</ele><time>2023-06-07T18:49:41Z</time></trkpt>
<trkpt lat="46.50706" lon="6.67841"><ele>487</ele><time>2023-06-07T18:49:42Z</time></trkpt>
<trkpt lat="46.50717" lon="6.67821"><ele>487.2</ele><time>2023-06-07T18:49:47Z</time></trkpt>
<trkpt lat="46.5073" lon="6.67809"><ele>488.2</ele><time>2023-06-07T18:49:52Z</time></trkpt>
<trkpt lat="46.50734" lon="6.67805"><ele>488.4</ele><time>2023-06-07T18:49:54Z</time></trkpt>
<trkpt lat="46.50747" lon="6.67796"><ele>489</ele><time>2023-06-07T18:49:59Z</time></trkpt>
<trkpt lat="46.50752" lon="6.67793"><ele>489.2</ele><time>2023-06-07T18:50:01Z</time></trkpt>
<trkpt lat="46.50754" lon="6.67791"><ele>489.4</ele><time>2023-06-07T18:50:02Z</time></trkpt>
<trkpt lat="46.50767" lon="6.67778"><ele>490.4</ele><time>2023-06-07T18:50:08Z</time></trkpt>
<trkpt lat="46.50775" lon="6.67767"><ele>490.8</ele><time>2023-06-07T18:50:12Z</time></trkpt>
<trkpt lat="46.50783" lon="6.67754"><ele>491.6</ele><time>2023-06-07T18:50:16Z</time></trkpt>
<trkpt lat="46.50788" lon="6.67746"><ele>492</ele><time>2023-06-07T18:50:20Z</time></trkpt>
<trkpt lat="46.5079" lon="6.67743"><ele>492.4</ele><time>2023-06-07T18:50:23Z</time></trkpt>
<trkpt lat="46.50791" lon="6.67734"><ele>492.4</ele><time>2023-06-07T18:50:26Z</time></trkpt>
<trkpt lat="46.50793" lon="6.67731"><ele>492.6</ele><time>2023-06-07T18:50:27Z</time></trkpt>
<trkpt lat="46.50806" lon="6.67705"><ele>493.6</ele><time>2023-06-07T18:50:35Z</time></trkpt>
<trkpt lat="46.50818" lon="6.6768"><ele>494.6</ele><time>2023-06-07T18:50:43Z</time></trkpt>
<trkpt lat="46.50822" lon="6.67671"><ele>495</ele><time>2023-06-07T18:50:46Z</time></trkpt>
<trkpt lat="46.50831" lon="6.67654"><ele>495.8</ele><time>2023-06-07T18:50:52Z</time></trkpt>
<trkpt lat="46.50837" lon="6.67641"><ele>496.2</ele><time>2023-06-07T18:50:56Z</time></trkpt>
<trkpt lat="46.50846" lon="6.67627"><ele>496.8</ele><time>2023-06-07T18:51:01Z</time></trkpt>
<trkpt lat="46.5085" lon="6.67621"><ele>497.2</ele><time>2023-06-07T18:51:04Z</time></trkpt>
<trkpt lat="46.50858" lon="6.67614"><ele>498</ele><time>2023-06-07T18:51:08Z</time></trkpt>
<trkpt lat="46.50862" lon="6.6761"><ele>498.2</ele><time>2023-06-07T18:51:10Z</time></trkpt>
<trkpt lat="46.50875" lon="6.67604"><ele>499</ele><time>2023-06-07T18:51:15Z</time></trkpt>
<trkpt lat="46.50882" lon="6.67603"><ele>499.4</ele><time>2023-06-07T18:51:18Z</time></trkpt>
<trkpt lat="46.50891" lon="6.67603"><ele>500</ele><time>2023-06-07T18:51:22Z</time></trkpt>
<trkpt lat="46.50898" lon="6.67604"><ele>500.4</ele><time>2023-06-07T18:51:25Z</time></trkpt>
<trkpt lat="46.50913" lon="6.67604"><ele>501</ele><time>2023-06-07T18:51:31Z</time></trkpt>
<trkpt lat="46.50915" lon="6.67602"><ele>501.2</ele><time>2023-06-07T18:51:32Z</time></trkpt>
<trkpt lat="46.50922" lon="6.67586"><ele>501.2</ele><time>2023-06-07T18:51:36Z</time></trkpt>
<trkpt lat="46.50924" lon="6.67554"><ele>501.8</ele><time>2023-06-07T18:51:43Z</time></trkpt>
<trkpt lat="46.50925" lon="6.6754"><ele>502.2</ele><time>2023-06-07T18:51:46Z</time></trkpt>
<trkpt lat="46.50931" lon="6.67513"><ele>503.2</ele><time>2023-06-07T18:51:52Z</time></trkpt>
<trkpt lat="46.50941" lon="6.67503"><ele>504.2</ele><time>2023-06-07T18:51:57Z</time></trkpt>
<trkpt lat="46.50951" lon="6.67498"><ele>505.4</ele><time>2023-06-07T18:52:02Z</time></trkpt>
<trkpt lat="46.50958" lon="6.67492"><ele>506</ele><time>2023-06-07T18:52:06Z</time></trkpt>
<trkpt lat="46.50967" lon="6.67477"><ele>506.4</ele><time>2023-06-07T18:52:12Z</time></trkpt>
<trkpt lat="46.50968" lon="6.67475"><ele>506.4</ele><time>2023-06-07T18:52:13Z</time></trkpt>
<trkpt lat="46.50978" lon="6.67454"><ele>507</ele><time>2023-06-07T18:52:20Z</time></trkpt>
<trkpt lat="46.50994" lon="6.67428"><ele>506.8</ele><time>2023-06-07T18:52:27Z</time></trkpt>
<trkpt lat="46.51006" lon="6.67403"><ele>506.2</ele><time>2023-06-07T18:52:32Z</time></trkpt>
<trkpt lat="46.51009" lon="6.67398"><ele>506.2</ele><time>2023-06-07T18:52:33Z</time></trkpt>
<trkpt lat="46.51012" lon="6.67393"><ele>505.4</ele><time>2023-06-07T18:52:34Z</time></trkpt>
<trkpt lat="46.51018" lon="6.67382"><ele>504.6</ele><time>2023-06-07T18:52:36Z</time></trkpt>
<trkpt lat="46.51024" lon="6.6737"><ele>504.4</ele><time>2023-06-07T18:52:38Z</time></trkpt>
<trkpt lat="46.51026" lon="6.67364"><ele>504.2</ele><time>2023-06-07T18:52:39Z</time></trkpt>
<trkpt lat="46.5104" lon="6.67336"><ele>504.2</ele><time>2023-06-07T18:52:44Z</time></trkpt>
<trkpt lat="46.51051" lon="6.67315"><ele>504.6</ele><time>2023-06-07T18:52:48Z</time></trkpt>
<trkpt lat="46.51057" lon="6.67304"><ele>504.6</ele><time>2023-06-07T18:52:50Z</time></trkpt>
<trkpt lat="46.51065" lon="6.67298"><ele>504.6</ele><time>2023-06-07T18:52:53Z</time></trkpt>
<trkpt lat="46.51072" lon="6.67301"><ele>505</ele><time>2023-06-07T18:52:57Z</time></trkpt>
<trkpt lat="46.51074" lon="6.67303"><ele>505.4</ele><time>2023-06-07T18:52:59Z</time></trkpt>
<trkpt lat="46.51081" lon="6.67306"><ele>506.4</ele><time>2023-06-07T18:53:04Z</time></trkpt>
<trkpt lat="46.51084" lon="6.67307"><ele>506.6</ele><time>2023-06-07T18:53:06Z</time></trkpt>
<trkpt lat="46.51092" lon="6.6731"><ele>507.8</ele><time>2023-06-07T18:53:11Z</time></trkpt>
<trkpt lat="46.51095" lon="6.67312"><ele>508.2</ele><time>2023-06-07T18:53:13Z</time></trkpt>
<trkpt lat="46.51101" lon="6.67316"><ele>508.6</ele><time>2023-06-07T18:53:16Z</time></trkpt>
<trkpt lat="46.51103" lon="6.67317"><ele>508.8</ele><time>2023-06-07T18:53:17Z</time></trkpt>
<trkpt lat="46.5111" lon="6.67322"><ele>509.6</ele><time>2023-06-07T18:53:21Z</time></trkpt>
<trkpt lat="46.51113" lon="6.67324"><ele>510</ele><time>2023-06-07T18:53:23Z</time></trkpt>
<trkpt lat="46.51124" lon="6.67331"><ele>511</ele><time>2023-06-07T18:53:29Z</time></trkpt>
<trkpt lat="46.51133" lon="6.67342"><ele>512.4</ele><time>2023-06-07T18:53:34Z</time></trkpt>
<trkpt lat="46.51138" lon="6.67348"><ele>513.2</ele><time>2023-06-07T18:53:37Z</time></trkpt>
<trkpt lat="46.5114" lon="6.67351"><ele>513.6</ele><time>2023-06-07T18:53:38Z</time></trkpt>
<trkpt lat="46.51141" lon="6.67354"><ele>513.8</ele><time>2023-06-07T18:53:39Z</time></trkpt>
<trkpt lat="46.51143" lon="6.67363"><ele>514.6</ele><time>2023-06-07T18:53:42Z</time></trkpt>
<trkpt lat="46.51143" lon="6.67366"><ele>514.8</ele><time>2023-06-07T18:53:43Z</time></trkpt>
<trkpt lat="46.51142" lon="6.67375"><ele>516</ele><time>2023-06-07T18:53:46Z</time></trkpt>
<trkpt lat="46.51143" lon="6.67385"><ele>517</ele><time>2023-06-07T18:53:50Z</time></trkpt>
<trkpt lat="46.51144" lon="6.67396"><ele>518</ele><time>2023-06-07T18:53:54Z</time></trkpt>
<trkpt lat="46.51146" lon="6.67403"><ele>518.4</ele><time>2023-06-07T18:53:57Z</time></trkpt>
<trkpt lat="46.51148" lon="6.67404"><ele>518.6</ele><time>2023-06-07T18:53:58Z</time></trkpt>
<trkpt lat="46.51155" lon="6.67407"><ele>519</ele><time>2023-06-07T18:54:02Z</time></trkpt>
<trkpt lat="46.51162" lon="6.67409"><ele>519.2</ele><time>2023-06-07T18:54:05Z</time></trkpt>
<trkpt lat="46.5117" lon="6.67407"><ele>517.8</ele><time>2023-06-07T18:54:08Z</time></trkpt>
<trkpt lat="46.51176" lon="6.67404"><ele>516.2</ele><time>2023-06-07T18:54:10Z</time></trkpt>
<trkpt lat="46.5118" lon="6.67403"><ele>515.6</ele><time>2023-06-07T18:54:11Z</time></trkpt>
<trkpt lat="46.51184" lon="6.67402"><ele>514.6</ele><time>2023-06-07T18:54:12Z</time></trkpt>
<trkpt lat="46.51196" lon="6.67401"><ele>513.4</ele><time>2023-06-07T18:54:14Z</time></trkpt>
<trkpt lat="46.51202" lon="6.67402"><ele>512.6</ele><time>2023-06-07T18:54:15Z</time></trkpt>
<trkpt lat="46.51208" lon="6.67402"><ele>511.2</ele><time>2023-06-07T18:54:16Z</time></trkpt>
<trkpt lat="46.51218" lon="6.67401"><ele>509.4</ele><time>2023-06-07T18:54:18Z</time></trkpt>
<trkpt lat="46.51226" lon="6.674"><ele>508</ele><time>2023-06-07T18:54:20Z</time></trkpt>
<trkpt lat="46.51234" lon="6.67397"><ele>506.8</ele><time>2023-06-07T18:54:22Z</time></trkpt>
<trkpt lat="46.51244" lon="6.67394"><ele>505.8</ele><time>2023-06-07T18:54:24Z</time></trkpt>
<trkpt lat="46.51253" lon="6.67392"><ele>504.6</ele><time>2023-06-07T18:54:26Z</time></trkpt>
<trkpt lat="46.51257" lon="6.67393"><ele>503.8</ele><time>2023-06-07T18:54:27Z</time></trkpt>
<trkpt lat="46.51261" lon="6.67394"><ele>503.4</ele><time>2023-06-07T18:54:28Z</time></trkpt>
<trkpt lat="46.51269" lon="6.67397"><ele>502.2</ele><time>2023-06-07T18:54:30Z</time></trkpt>
<trkpt lat="46.51278" lon="6.674"><ele>501.2</ele><time>2023-06-07T18:54:32Z</time></trkpt>
<trkpt lat="46.51283" lon="6.67403"><ele>500.8</ele><time>2023-06-07T18:54:33Z</time></trkpt>
<trkpt lat="46.51295" lon="6.67407"><ele>500</ele><time>2023-06-07T18:54:35Z</time></trkpt>
<trkpt lat="46.51308" lon="6.67412"><ele>499.4</ele><time>2023-06-07T18:54:37Z</time></trkpt>
<trkpt lat="46.51317" lon="6.67422"><ele>499.2</ele><time>2023-06-07T18:54:39Z</time></trkpt>
<trkpt lat="46.5132" lon="6.67427"><ele>499.2</ele><time>2023-06-07T18:54:40Z</time></trkpt>
<trkpt lat="46.51323" lon="6.67432"><ele>499.2</ele><time>2023-06-07T18:54:41Z</time></trkpt>
<trkpt lat="46.51327" lon="6.6744"><ele>499.4</ele><time>2023-06-07T18:54:43Z</time></trkpt>
<trkpt lat="46.5133" lon="6.67442"><ele>499.6</ele><time>2023-06-07T18:54:44Z</time></trkpt>
<trkpt lat="46.51345" lon="6.67438"><ele>500.4</ele><time>2023-06-07T18:54:49Z</time></trkpt>
<trkpt lat="46.51349" lon="6.67437"><ele>500.6</ele><time>2023-06-07T18:54:50Z</time></trkpt>
<trkpt lat="46.51368" lon="6.67422"><ele>500.8</ele><time>2023-06-07T18:54:55Z</time></trkpt>
<trkpt lat="46.51384" lon="6.67409"><ele>500.6</ele><time>2023-06-07T18:54:59Z</time></trkpt>
<trkpt lat="46.5139" lon="6.674"><ele>500.4</ele><time>2023-06-07T18:55:01Z</time></trkpt>
<trkpt lat="46.51391" lon="6.67393"><ele>500</ele><time>2023-06-07T18:55:02Z</time></trkpt>
<trkpt lat="46.5139" lon="6.67386"><ele>499.6</ele><time>2023-06-07T18:55:03Z</time></trkpt>
<trkpt lat="46.51389" lon="6.67379"><ele>499.4</ele><time>2023-06-07T18:55:04Z</time></trkpt>
<trkpt lat="46.51387" lon="6.67373"><ele>499</ele><time>2023-06-07T18:55:05Z</time></trkpt>
<trkpt lat="46.5138" lon="6.67361"><ele>498.4</ele><time>2023-06-07T18:55:07Z</time></trkpt>
<trkpt lat="46.51375" lon="6.67355"><ele>498.4</ele><time>2023-06-07T18:55:08Z</time></trkpt>
<trkpt lat="46.5137" lon="6.67351"><ele>497.8</ele><time>2023-06-07T18:55:09Z</time></trkpt>
<trkpt lat="46.51359" lon="6.6734"><ele>497.4</ele><time>2023-06-07T18:55:11Z</time></trkpt>
<trkpt lat="46.51351" lon="6.6733"><ele>497.4</ele><time>2023-06-07T18:55:13Z</time></trkpt>
<trkpt lat="46.51341" lon="6.67317"><ele>497.8</ele><time>2023-06-07T18:55:16Z</time></trkpt>
<trkpt lat="46.51336" lon="6.67307"><ele>498.2</ele><time>2023-06-07T18:55:18Z</time></trkpt>
<trkpt lat="46.51332" lon="6.67293"><ele>499.2</ele><time>2023-06-07T18:55:21Z</time></trkpt>
<trkpt lat="46.51327" lon="6.67274"><ele>499.8</ele><time>2023-06-07T18:55:25Z</time></trkpt>
<trkpt lat="46.51326" lon="6.67265"><ele>500.2</ele><time>2023-06-07T18:55:27Z</time></trkpt>
<trkpt lat="46.51322" lon="6.6724"><ele>501.2</ele><time>2023-06-07T18:55:32Z</time></trkpt>
<trkpt lat="46.51316" lon="6.67217"><ele>502.2</ele><time>2023-06-07T18:55:37Z</time></trkpt>
<trkpt lat="46.5131" lon="6.672"><ele>503</ele><time>2023-06-07T18:55:41Z</time></trkpt>
<trkpt lat="46.51306" lon="6.67191"><ele>503.2</ele><time>2023-06-07T18:55:43Z</time></trkpt>
<trkpt lat="46.51294" lon="6.67156"><ele>504.2</ele><time>2023-06-07T18:55:51Z</time></trkpt>
<trkpt lat="46.5129" lon="6.67147"><ele>504.4</ele><time>2023-06-07T18:55:53Z</time></trkpt>
<trkpt lat="46.51273" lon="6.67125"><ele>504.8</ele><time>2023-06-07T18:55:59Z</time></trkpt>
<trkpt lat="46.51269" lon="6.67122"><ele>504.8</ele><time>2023-06-07T18:56:00Z</time></trkpt>
<trkpt lat="46.51244" lon="6.67107"><ele>505</ele><time>2023-06-07T18:56:07Z</time></trkpt>
<trkpt lat="46.51216" lon="6.67088"><ele>505.2</ele><time>2023-06-07T18:56:14Z</time></trkpt>
<trkpt lat="46.51212" lon="6.67083"><ele>505.2</ele><time>2023-06-07T18:56:15Z</time></trkpt>
<trkpt lat="46.51197" lon="6.67058"><ele>505.2</ele><time>2023-06-07T18:56:20Z</time></trkpt>
<trkpt lat="46.51183" lon="6.67016"><ele>504.8</ele><time>2023-06-07T18:56:26Z</time></trkpt>
<trkpt lat="46.51177" lon="6.66967"><ele>505.2</ele><time>2023-06-07T18:56:33Z</time></trkpt>
<trkpt lat="46.51176" lon="6.6696"><ele>505.4</ele><time>2023-06-07T18:56:34Z</time></trkpt>
<trkpt lat="46.51175" lon="6.66935"><ele>506</ele><time>2023-06-07T18:56:38Z</time></trkpt>
<trkpt lat="46.51175" lon="6.66918"><ele>506.4</ele><time>2023-06-07T18:56:41Z</time></trkpt>
<trkpt lat="46.51175" lon="6.66912"><ele>506.6</ele><time>2023-06-07T18:56:42Z</time></trkpt>
<trkpt lat="46.51176" lon="6.66899"><ele>506.8</ele><time>2023-06-07T18:56:44Z</time></trkpt>
<trkpt lat="46.51177" lon="6.66865"><ele>507.6</ele><time>2023-06-07T18:56:50Z</time></trkpt>
<trkpt lat="46.51178" lon="6.66859"><ele>507.6</ele><time>2023-06-07T18:56:51Z</time></trkpt>
<trkpt lat="46.5118" lon="6.6679"><ele>508.4</ele><time>2023-06-07T18:57:02Z</time></trkpt>
<trkpt lat="46.51182" lon="6.66736"><ele>508</ele><time>2023-06-07T18:57:09Z</time></trkpt>
<trkpt lat="46.5119" lon="6.66683"><ele>506.6</ele><time>2023-06-07T18:57:15Z</time></trkpt>
<trkpt lat="46.51192" lon="6.66673"><ele>506.4</ele><time>2023-06-07T18:57:16Z</time></trkpt>
<trkpt lat="46.51199" lon="6.66644"><ele>506</ele><time>2023-06-07T18:57:19Z</time></trkpt>
<trkpt lat="46.51209" lon="6.66616"><ele>505.4</ele><time>2023-06-07T18:57:22Z</time></trkpt>
<trkpt lat="46.51212" lon="6.66608"><ele>505.4</ele><time>2023-06-07T18:57:23Z</time></trkpt>
<trkpt lat="46.51232" lon="6.6657"><ele>505.4</ele><time>2023-06-07T18:57:28Z</time></trkpt>
<trkpt lat="46.51265" lon="6.66505"><ele>505.8</ele><time>2023-06-07T18:57:37Z</time></trkpt>
<trkpt lat="46.5127" lon="6.66493"><ele>506.2</ele><time>2023-06-07T18:57:39Z</time></trkpt>
<trkpt lat="46.51277" lon="6.66477"><ele>506.4</ele><time>2023-06-07T18:57:42Z</time></trkpt>
<trkpt lat="46.51283" lon="6.66465"><ele>507.2</ele><time>2023-06-07T18:57:45Z</time></trkpt>
<trkpt lat="46.51287" lon="6.66451"><ele>507.6</ele><time>2023-06-07T18:57:48Z</time></trkpt>
<trkpt lat="46.51294" lon="6.66425"><ele>507.6</ele><time>2023-06-07T18:57:53Z</time></trkpt>
<trkpt lat="46.51303" lon="6.664"><ele>507.4</ele><time>2023-06-07T18:57:57Z</time></trkpt>
<trkpt lat="46.51305" lon="6.66397"><ele>507.4</ele><time>2023-06-07T18:57:58Z</time></trkpt>
<trkpt lat="46.51309" lon="6.6639"><ele>507.6</ele><time>2023-06-07T18:58:03Z</time></trkpt>
<trkpt lat="46.51313" lon="6.66379"><ele>507.6</ele><time>2023-06-07T18:58:06Z</time></trkpt>
<trkpt lat="46.51315" lon="6.66367"><ele>507.6</ele><time>2023-06-07T18:58:08Z</time></trkpt>
<trkpt lat="46.51315" lon="6.66351"><ele>508.6</ele><time>2023-06-07T18:58:11Z</time></trkpt>
<trkpt lat="46.51315" lon="6.66346"><ele>508.8</ele><time>2023-06-07T18:58:12Z</time></trkpt>
<trkpt lat="46.51315" lon="6.6633"><ele>509.8</ele><time>2023-06-07T18:58:16Z</time></trkpt>
<trkpt lat="46.51315" lon="6.66321"><ele>510.2</ele><time>2023-06-07T18:58:18Z</time></trkpt>
<trkpt lat="46.51316" lon="6.6631"><ele>510.4</ele><time>2023-06-07T18:58:20Z</time></trkpt>
<trkpt lat="46.51316" lon="6.66286"><ele>510.2</ele><time>2023-06-07T18:58:24Z</time></trkpt>
<trkpt lat="46.51315" lon="6.66227"><ele>509.8</ele><time>2023-06-07T18:58:32Z</time></trkpt>
<trkpt lat="46.51315" lon="6.66166"><ele>509.2</ele><time>2023-06-07T18:58:40Z</time></trkpt>
<trkpt lat="46.51318" lon="6.66131"><ele>508.8</ele><time>2023-06-07T18:58:44Z</time></trkpt>
<trkpt lat="46.51319" lon="6.66122"><ele>508.6</ele><time>2023-06-07T18:58:45Z</time></trkpt>
<trkpt lat="46.51321" lon="6.66113"><ele>508.6</ele><time>2023-06-07T18:58:46Z</time></trkpt>
<trkpt lat="46.51325" lon="6.66096"><ele>507</ele><time>2023-06-07T18:58:48Z</time></trkpt>
<trkpt lat="46.51329" lon="6.66082"><ele>506.2</ele><time>2023-06-07T18:58:50Z</time></trkpt>
<trkpt lat="46.51336" lon="6.66044"><ele>507</ele><time>2023-06-07T18:58:55Z</time></trkpt>
<trkpt lat="46.51338" lon="6.65999"><ele>508</ele><time>2023-06-07T18:59:01Z</time></trkpt>
<trkpt lat="46.51337" lon="6.6599"><ele>508.2</ele><time>2023-06-07T18:59:02Z</time></trkpt>
<trkpt lat="46.51335" lon="6.65956"><ele>509.2</ele><time>2023-06-07T18:59:07Z</time></trkpt>
<trkpt lat="46.51334" lon="6.65943"><ele>509.4</ele><time>2023-06-07T18:59:09Z</time></trkpt>
<trkpt lat="46.51331" lon="6.65883"><ele>508.6</ele><time>2023-06-07T18:59:18Z</time></trkpt>
<trkpt lat="46.51331" lon="6.65865"><ele>508.2</ele><time>2023-06-07T18:59:21Z</time></trkpt>
<trkpt lat="46.51331" lon="6.65852"><ele>507.8</ele><time>2023-06-07T18:59:23Z</time></trkpt>
<trkpt lat="46.51332" lon="6.65809"><ele>507.8</ele><time>2023-06-07T18:59:29Z</time></trkpt>
<trkpt lat="46.51327" lon="6.65776"><ele>509</ele><time>2023-06-07T18:59:35Z</time></trkpt>
<trkpt lat="46.51326" lon="6.65772"><ele>509.4</ele><time>2023-06-07T18:59:36Z</time></trkpt>
<trkpt lat="46.51327" lon="6.65752"><ele>510.2</ele><time>2023-06-07T18:59:40Z</time></trkpt>
<trkpt lat="46.51331" lon="6.65745"><ele>510.4</ele><time>2023-06-07T18:59:42Z</time></trkpt>
<trkpt lat="46.51335" lon="6.65738"><ele>510.8</ele><time>2023-06-07T18:59:45Z</time></trkpt>
<trkpt lat="46.5134" lon="6.6573"><ele>511.6</ele><time>2023-06-07T18:59:49Z</time></trkpt>
<trkpt lat="46.51343" lon="6.65726"><ele>512</ele><time>2023-06-07T18:59:52Z</time></trkpt>
<trkpt lat="46.51348" lon="6.65719"><ele>512.6</ele><time>2023-06-07T18:59:56Z</time></trkpt>
<trkpt lat="46.51354" lon="6.6571"><ele>513.2</ele><time>2023-06-07T19:00:01Z</time></trkpt>
<trkpt lat="46.51356" lon="6.65706"><ele>513.6</ele><time>2023-06-07T19:00:03Z</time></trkpt>
<trkpt lat="46.51364" lon="6.65697"><ele>514.8</ele><time>2023-06-07T19:00:09Z</time></trkpt>
<trkpt lat="46.51373" lon="6.65686"><ele>516</ele><time>2023-06-07T19:00:15Z</time></trkpt>
<trkpt lat="46.51373" lon="6.6568"><ele>516.8</ele><time>2023-06-07T19:00:17Z</time></trkpt>
<trkpt lat="46.51372" lon="6.65674"><ele>517.2</ele><time>2023-06-07T19:00:19Z</time></trkpt>
<trkpt lat="46.51369" lon="6.65659"><ele>518.2</ele><time>2023-06-07T19:00:24Z</time></trkpt>
<trkpt lat="46.51369" lon="6.65656"><ele>518.4</ele><time>2023-06-07T19:00:25Z</time></trkpt>
<trkpt lat="46.51371" lon="6.6564"><ele>519.2</ele><time>2023-06-07T19:00:30Z</time></trkpt>
<trkpt lat="46.51371" lon="6.65637"><ele>519.4</ele><time>2023-06-07T19:00:31Z</time></trkpt>
<trkpt lat="46.51371" lon="6.65627"><ele>519.8</ele><time>2023-06-07T19:00:34Z</time></trkpt>
<trkpt lat="46.51371" lon="6.65618"><ele>520.4</ele><time>2023-06-07T19:00:37Z</time></trkpt>
<trkpt lat="46.51371" lon="6.65599"><ele>520.4</ele><time>2023-06-07T19:00:42Z</time></trkpt>
<trkpt lat="46.51374" lon="6.65559"><ele>519.8</ele><time>2023-06-07T19:00:51Z</time></trkpt>
<trkpt lat="46.51374" lon="6.65528"><ele>519.4</ele><time>2023-06-07T19:00:57Z</time></trkpt>
<trkpt lat="46.51375" lon="6.65513"><ele>518.8</ele><time>2023-06-07T19:00:59Z</time></trkpt>
<trkpt lat="46.51376" lon="6.6549"><ele>518.2</ele><time>2023-06-07T19:01:02Z</time></trkpt>
<trkpt lat="46.51378" lon="6.6548"><ele>517.6</ele><time>2023-06-07T19:01:04Z</time></trkpt>
<trkpt lat="46.51381" lon="6.65471"><ele>517</ele><time>2023-06-07T19:01:06Z</time></trkpt>
<trkpt lat="46.51381" lon="6.65458"><ele>516.8</ele><time>2023-06-07T19:01:08Z</time></trkpt>
<trkpt lat="46.51378" lon="6.65453"><ele>516.8</ele><time>2023-06-07T19:01:09Z</time></trkpt>
<trkpt lat="46.51375" lon="6.65447"><ele>516.6</ele><time>2023-06-07T19:01:10Z</time></trkpt>
<trkpt lat="46.5136" lon="6.65424"><ele>516.4</ele><time>2023-06-07T19:01:14Z</time></trkpt>
<trkpt lat="46.51345" lon="6.65409"><ele>516.6</ele><time>2023-06-07T19:01:18Z</time></trkpt>
<trkpt lat="46.51332" lon="6.65402"><ele>516.8</ele><time>2023-06-07T19:01:21Z</time></trkpt>
<trkpt lat="46.51314" lon="6.65389"><ele>516.8</ele><time>2023-06-07T19:01:25Z</time></trkpt>
<trkpt lat="46.51307" lon="6.65379"><ele>516.8</ele><time>2023-06-07T19:01:27Z</time></trkpt>
<trkpt lat="46.51302" lon="6.65367"><ele>516.8</ele><time>2023-06-07T19:01:29Z</time></trkpt>
<trkpt lat="46.513" lon="6.65356"><ele>516.8</ele><time>2023-06-07T19:01:31Z</time></trkpt>
<trkpt lat="46.51299" lon="6.65325"><ele>516</ele><time>2023-06-07T19:01:36Z</time></trkpt>
<trkpt lat="46.51299" lon="6.6531"><ele>516</ele><time>2023-06-07T19:01:38Z</time></trkpt>
<trkpt lat="46.513" lon="6.6529"><ele>516.2</ele><time>2023-06-07T19:01:41Z</time></trkpt>
<trkpt lat="46.51298" lon="6.65262"><ele>516</ele><time>2023-06-07T19:01:45Z</time></trkpt>
<trkpt lat="46.51296" lon="6.65245"><ele>516</ele><time>2023-06-07T19:01:47Z</time></trkpt>
<trkpt lat="46.51292" lon="6.65183"><ele>515.2</ele><time>2023-06-07T19:01:54Z</time></trkpt>
<trkpt lat="46.51287" lon="6.65138"><ele>515.2</ele><time>2023-06-07T19:02:00Z</time></trkpt>
<trkpt lat="46.51285" lon="6.6513"><ele>515.2</ele><time>2023-06-07T19:02:01Z</time></trkpt>
<trkpt lat="46.51278" lon="6.65075"><ele>515.8</ele><time>2023-06-07T19:02:08Z</time></trkpt>
<trkpt lat="46.51276" lon="6.65066"><ele>515.8</ele><time>2023-06-07T19:02:09Z</time></trkpt>
<trkpt lat="46.51266" lon="6.65031"><ele>514.4</ele><time>2023-06-07T19:02:13Z</time></trkpt>
<trkpt lat="46.51257" lon="6.64999"><ele>512.8</ele><time>2023-06-07T19:02:16Z</time></trkpt>
<trkpt lat="46.51256" lon="6.64987"><ele>512.4</ele><time>2023-06-07T19:02:17Z</time></trkpt>
<trkpt lat="46.51255" lon="6.64974"><ele>511.4</ele><time>2023-06-07T19:02:18Z</time></trkpt>
<trkpt lat="46.51252" lon="6.6495"><ele>510.4</ele><time>2023-06-07T19:02:20Z</time></trkpt>
<trkpt lat="46.51247" lon="6.64928"><ele>509.6</ele><time>2023-06-07T19:02:22Z</time></trkpt>
<trkpt lat="46.51242" lon="6.64895"><ele>509.2</ele><time>2023-06-07T19:02:25Z</time></trkpt>
<trkpt lat="46.51242" lon="6.64874"><ele>509.4</ele><time>2023-06-07T19:02:27Z</time></trkpt>
<trkpt lat="46.51235" lon="6.64818"><ele>508.8</ele><time>2023-06-07T19:02:33Z</time></trkpt>
<trkpt lat="46.51224" lon="6.64791"><ele>508.2</ele><time>2023-06-07T19:02:36Z</time></trkpt>
<trkpt lat="46.51221" lon="6.64781"><ele>507.8</ele><time>2023-06-07T19:02:37Z</time></trkpt>
<trkpt lat="46.51219" lon="6.6477"><ele>507.4</ele><time>2023-06-07T19:02:38Z</time></trkpt>
<trkpt lat="46.51216" lon="6.64746"><ele>507.2</ele><time>2023-06-07T19:02:40Z</time></trkpt>
<trkpt lat="46.51217" lon="6.64734"><ele>506.2</ele><time>2023-06-07T19:02:41Z</time></trkpt>
<trkpt lat="46.51218" lon="6.64723"><ele>505</ele><time>2023-06-07T19:02:42Z</time></trkpt>
<trkpt lat="46.51219" lon="6.64712"><ele>503.6</ele><time>2023-06-07T19:02:43Z</time></trkpt>
<trkpt lat="46.5122" lon="6.64703"><ele>502.4</ele><time>2023-06-07T19:02:44Z</time></trkpt>
<trkpt lat="46.51221" lon="6.64692"><ele>501.4</ele><time>2023-06-07T19:02:45Z</time></trkpt>
<trkpt lat="46.51223" lon="6.64681"><ele>500.4</ele><time>2023-06-07T19:02:46Z</time></trkpt>
<trkpt lat="46.51225" lon="6.64657"><ele>498.4</ele><time>2023-06-07T19:02:48Z</time></trkpt>
<trkpt lat="46.51226" lon="6.64644"><ele>497.2</ele><time>2023-06-07T19:02:49Z</time></trkpt>
<trkpt lat="46.51228" lon="6.64631"><ele>496.2</ele><time>2023-06-07T19:02:50Z</time></trkpt>
<trkpt lat="46.51235" lon="6.64594"><ele>494.4</ele><time>2023-06-07T19:02:53Z</time></trkpt>
<trkpt lat="46.51239" lon="6.64572"><ele>493.8</ele><time>2023-06-07T19:02:55Z</time></trkpt>
<trkpt lat="46.51242" lon="6.64562"><ele>492.8</ele><time>2023-06-07T19:02:56Z</time></trkpt>
<trkpt lat="46.51245" lon="6.64553"><ele>492.2</ele><time>2023-06-07T19:02:57Z</time></trkpt>
<trkpt lat="46.51251" lon="6.64539"><ele>491.4</ele><time>2023-06-07T19:02:59Z</time></trkpt>
<trkpt lat="46.51254" lon="6.64534"><ele>491.2</ele><time>2023-06-07T19:03:00Z</time></trkpt>
<trkpt lat="46.5126" lon="6.64531"><ele>490.4</ele><time>2023-06-07T19:03:02Z</time></trkpt>
<trkpt lat="46.51263" lon="6.6453"><ele>490</ele><time>2023-06-07T19:03:05Z</time></trkpt>
<trkpt lat="46.51266" lon="6.64528"><ele>489.6</ele><time>2023-06-07T19:03:12Z</time></trkpt>
<trkpt lat="46.51267" lon="6.64523"><ele>489.4</ele><time>2023-06-07T19:03:14Z</time></trkpt>
<trkpt lat="46.51264" lon="6.64516"><ele>489.2</ele><time>2023-06-07T19:03:16Z</time></trkpt>
<trkpt lat="46.51257" lon="6.64498"><ele>489</ele><time>2023-06-07T19:03:19Z</time></trkpt>
<trkpt lat="46.51253" lon="6.64495"><ele>488.8</ele><time>2023-06-07T19:03:20Z</time></trkpt>
<trkpt lat="46.51242" lon="6.64486"><ele>489</ele><time>2023-06-07T19:03:24Z</time></trkpt>
<trkpt lat="46.51239" lon="6.64487"><ele>489.2</ele><time>2023-06-07T19:03:25Z</time></trkpt>
<trkpt lat="46.51233" lon="6.64487"><ele>489.8</ele><time>2023-06-07T19:03:28Z</time></trkpt>
<trkpt lat="46.51233" lon="6.64482"><ele>490.2</ele><time>2023-06-07T19:03:31Z</time></trkpt>
<trkpt lat="46.51234" lon="6.64478"><ele>490.2</ele><time>2023-06-07T19:03:33Z</time></trkpt>
<trkpt lat="46.51236" lon="6.64471"><ele>490.2</ele><time>2023-06-07T19:03:38Z</time></trkpt>
<trkpt lat="46.51236" lon="6.64469"><ele>490.2</ele><time>2023-06-07T19:03:39Z</time></trkpt>
<trkpt lat="46.51239" lon="6.64453"><ele>489.4</ele><time>2023-06-07T19:03:44Z</time></trkpt>
<trkpt lat="46.51243" lon="6.64429"><ele>488.2</ele><time>2023-06-07T19:03:49Z</time></trkpt>
<trkpt lat="46.51243" lon="6.64422"><ele>488</ele><time>2023-06-07T19:03:50Z</time></trkpt>
<trkpt lat="46.51245" lon="6.64409"><ele>487.8</ele><time>2023-06-07T19:03:52Z</time></trkpt>
<trkpt lat="46.51246" lon="6.64389"><ele>487.6</ele><time>2023-06-07T19:03:56Z</time></trkpt>
<trkpt lat="46.51241" lon="6.64378"><ele>487.2</ele><time>2023-06-07T19:03:58Z</time></trkpt>
<trkpt lat="46.51236" lon="6.64372"><ele>486.6</ele><time>2023-06-07T19:04:00Z</time></trkpt>
<trkpt lat="46.51233" lon="6.64361"><ele>486</ele><time>2023-06-07T19:04:02Z</time></trkpt>
<trkpt lat="46.51228" lon="6.64344"><ele>485.4</ele><time>2023-06-07T19:04:05Z</time></trkpt>
<trkpt lat="46.51227" lon="6.6432"><ele>485</ele><time>2023-06-07T19:04:09Z</time></trkpt>
<trkpt lat="46.51227" lon="6.64313"><ele>485</ele><time>2023-06-07T19:04:10Z</time></trkpt>
<trkpt lat="46.51227" lon="6.643"><ele>484.8</ele><time>2023-06-07T19:04:12Z</time></trkpt>
<trkpt lat="46.51226" lon="6.64287"><ele>484.6</ele><time>2023-06-07T19:04:14Z</time></trkpt>
<trkpt lat="46.51225" lon="6.6425"><ele>484.4</ele><time>2023-06-07T19:04:20Z</time></trkpt>
<trkpt lat="46.51224" lon="6.64243"><ele>484.4</ele><time>2023-06-07T19:04:21Z</time></trkpt>
<trkpt lat="46.51224" lon="6.64219"><ele>484.6</ele><time>2023-06-07T19:04:25Z</time></trkpt>
<trkpt lat="46.51226" lon="6.64193"><ele>485</ele><time>2023-06-07T19:04:29Z</time></trkpt>
<trkpt lat="46.51224" lon="6.6418"><ele>485.2</ele><time>2023-06-07T19:04:31Z</time></trkpt>
<trkpt lat="46.51224" lon="6.64121"><ele>485.8</ele><time>2023-06-07T19:04:40Z</time></trkpt>
<trkpt lat="46.51225" lon="6.64108"><ele>486</ele><time>2023-06-07T19:04:42Z</time></trkpt>
<trkpt lat="46.51226" lon="6.64073"><ele>486.4</ele><time>2023-06-07T19:04:47Z</time></trkpt>
<trkpt lat="46.51228" lon="6.64051"><ele>486.6</ele><time>2023-06-07T19:04:50Z</time></trkpt>
<trkpt lat="46.51232" lon="6.63998"><ele>487.2</ele><time>2023-06-07T19:04:58Z</time></trkpt>
<trkpt lat="46.51236" lon="6.63957"><ele>487.8</ele><time>2023-06-07T19:05:05Z</time></trkpt>
<trkpt lat="46.51239" lon="6.63946"><ele>488.2</ele><time>2023-06-07T19:05:08Z</time></trkpt>
<trkpt lat="46.51241" lon="6.63933"><ele>488.6</ele><time>2023-06-07T19:05:11Z</time></trkpt>
<trkpt lat="46.51241" lon="6.63921"><ele>488.8</ele><time>2023-06-07T19:05:14Z</time></trkpt>
<trkpt lat="46.51238" lon="6.63919"><ele>488.8</ele><time>2023-06-07T19:05:15Z</time></trkpt>
<trkpt lat="46.51227" lon="6.63907"><ele>488.6</ele><time>2023-06-07T19:05:18Z</time></trkpt>
<trkpt lat="46.51223" lon="6.63901"><ele>488</ele><time>2023-06-07T19:05:19Z</time></trkpt>
<trkpt lat="46.5122" lon="6.63892"><ele>487.6</ele><time>2023-06-07T19:05:20Z</time></trkpt>
<trkpt lat="46.51215" lon="6.63883"><ele>487</ele><time>2023-06-07T19:05:21Z</time></trkpt>
<trkpt lat="46.51205" lon="6.63866"><ele>485.4</ele><time>2023-06-07T19:05:23Z</time></trkpt>
<trkpt lat="46.51195" lon="6.63852"><ele>484.2</ele><time>2023-06-07T19:05:25Z</time></trkpt>
<trkpt lat="46.51186" lon="6.63842"><ele>483.6</ele><time>2023-06-07T19:05:27Z</time></trkpt>
<trkpt lat="46.51181" lon="6.63837"><ele>483.2</ele><time>2023-06-07T19:05:28Z</time></trkpt>
<trkpt lat="46.51158" lon="6.63813"><ele>482.2</ele><time>2023-06-07T19:05:33Z</time></trkpt>
<trkpt lat="46.51149" lon="6.63804"><ele>481.8</ele><time>2023-06-07T19:05:35Z</time></trkpt>
<trkpt lat="46.51124" lon="6.63764"><ele>481.4</ele><time>2023-06-07T19:05:42Z</time></trkpt>
<trkpt lat="46.51122" lon="6.63758"><ele>481.4</ele><time>2023-06-07T19:05:43Z</time></trkpt>
<trkpt lat="46.51116" lon="6.63738"><ele>481.2</ele><time>2023-06-07T19:05:47Z</time></trkpt>
<trkpt lat="46.51116" lon="6.63713"><ele>481.4</ele><time>2023-06-07T19:05:52Z</time></trkpt>
<trkpt lat="46.51115" lon="6.63698"><ele>481</ele><time>2023-06-07T19:05:54Z</time></trkpt>
<trkpt lat="46.51116" lon="6.6369"><ele>480.8</ele><time>2023-06-07T19:05:55Z</time></trkpt>
<trkpt lat="46.51119" lon="6.63681"><ele>480.6</ele><time>2023-06-07T19:05:56Z</time></trkpt>
<trkpt lat="46.51122" lon="6.63674"><ele>480.4</ele><time>2023-06-07T19:05:57Z</time></trkpt>
<trkpt lat="46.5113" lon="6.63661"><ele>479.8</ele><time>2023-06-07T19:05:59Z</time></trkpt>
<trkpt lat="46.51133" lon="6.63654"><ele>479.6</ele><time>2023-06-07T19:06:00Z</time></trkpt>
<trkpt lat="46.51158" lon="6.63607"><ele>480.2</ele><time>2023-06-07T19:06:08Z</time></trkpt>
<trkpt lat="46.51183" lon="6.63559"><ele>480.4</ele><time>2023-06-07T19:06:16Z</time></trkpt>
<trkpt lat="46.51199" lon="6.63529"><ele>480.8</ele><time>2023-06-07T19:06:21Z</time></trkpt>
<trkpt lat="46.51211" lon="6.63507"><ele>481.4</ele><time>2023-06-07T19:06:25Z</time></trkpt>
<trkpt lat="46.51223" lon="6.63487"><ele>481.8</ele><time>2023-06-07T19:06:29Z</time></trkpt>
<trkpt lat="46.51226" lon="6.63482"><ele>482</ele><time>2023-06-07T19:06:30Z</time></trkpt>
<trkpt lat="46.51235" lon="6.6347"><ele>482.4</ele><time>2023-06-07T19:06:33Z</time></trkpt>
<trkpt lat="46.51249" lon="6.63446"><ele>483</ele><time>2023-06-07T19:06:39Z</time></trkpt>
<trkpt lat="46.51263" lon="6.63422"><ele>484.4</ele><time>2023-06-07T19:06:46Z</time></trkpt>
<trkpt lat="46.51265" lon="6.63419"><ele>484.6</ele><time>2023-06-07T19:06:47Z</time></trkpt>
<trkpt lat="46.51277" lon="6.63404"><ele>485.4</ele><time>2023-06-07T19:06:52Z</time></trkpt>
<trkpt lat="46.51284" lon="6.63396"><ele>485.6</ele><time>2023-06-07T19:06:55Z</time></trkpt>
<trkpt lat="46.51298" lon="6.63382"><ele>486.4</ele><time>2023-06-07T19:07:01Z</time></trkpt>
<trkpt lat="46.51304" lon="6.63378"><ele>486.8</ele><time>2023-06-07T19:07:03Z</time></trkpt>
<trkpt lat="46.51321" lon="6.63366"><ele>487.4</ele><time>2023-06-07T19:07:09Z</time></trkpt>
<trkpt lat="46.51324" lon="6.63364"><ele>487.6</ele><time>2023-06-07T19:07:10Z</time></trkpt>
<trkpt lat="46.51336" lon="6.63353"><ele>488.4</ele><time>2023-06-07T19:07:15Z</time></trkpt>
<trkpt lat="46.51338" lon="6.63352"><ele>488.4</ele><time>2023-06-07T19:07:16Z</time></trkpt>
<trkpt lat="46.51358" lon="6.63342"><ele>489.6</ele><time>2023-06-07T19:07:23Z</time></trkpt>
<trkpt lat="46.51361" lon="6.6334"><ele>489.6</ele><time>2023-06-07T19:07:24Z</time></trkpt>
<trkpt lat="46.51367" lon="6.63334"><ele>490</ele><time>2023-06-07T19:07:28Z</time></trkpt>
<trkpt lat="46.51367" lon="6.6333"><ele>490</ele><time>2023-06-07T19:07:29Z</time></trkpt>
<trkpt lat="46.51356" lon="6.63315"><ele>489.8</ele><time>2023-06-07T19:07:33Z</time></trkpt>
<trkpt lat="46.51342" lon="6.63304"><ele>489.2</ele><time>2023-06-07T19:07:36Z</time></trkpt>
<trkpt lat="46.51339" lon="6.6329"><ele>488.6</ele><time>2023-06-07T19:07:38Z</time></trkpt>
<trkpt lat="46.51342" lon="6.63281"><ele>488.2</ele><time>2023-06-07T19:07:39Z</time></trkpt>
<trkpt lat="46.51348" lon="6.63266"><ele>487</ele><time>2023-06-07T19:07:41Z</time></trkpt>
<trkpt lat="46.51362" lon="6.63235"><ele>486</ele><time>2023-06-07T19:07:45Z</time></trkpt>
<trkpt lat="46.51375" lon="6.63203"><ele>485.4</ele><time>2023-06-07T19:07:49Z</time></trkpt>
<trkpt lat="46.51382" lon="6.63181"><ele>484.6</ele><time>2023-06-07T19:07:52Z</time></trkpt>
<trkpt lat="46.51387" lon="6.6317"><ele>484</ele><time>2023-06-07T19:07:54Z</time></trkpt>
<trkpt lat="46.51393" lon="6.63159"><ele>483.8</ele><time>2023-06-07T19:07:56Z</time></trkpt>
<trkpt lat="46.51396" lon="6.63153"><ele>483.6</ele><time>2023-06-07T19:07:57Z</time></trkpt>
<trkpt lat="46.514" lon="6.63143"><ele>483.2</ele><time>2023-06-07T19:07:59Z</time></trkpt>
<trkpt lat="46.51404" lon="6.63134"><ele>482.6</ele><time>2023-06-07T19:08:02Z</time></trkpt>
<trkpt lat="46.51404" lon="6.63134"><ele>482.4</ele><time>2023-06-07T19:08:03Z</time></trkpt>
<trkpt lat="46.51405" lon="6.63135"><ele>482.2</ele><time>2023-06-07T19:08:13Z</time></trkpt>
<trkpt lat="46.51407" lon="6.63127"><ele>482.2</ele><time>2023-06-07T19:08:17Z</time></trkpt>
<trkpt lat="46.51405" lon="6.63123"><ele>482</ele><time>2023-06-07T19:08:18Z</time></trkpt>
<trkpt lat="46.51398" lon="6.63118"><ele>481.8</ele><time>2023-06-07T19:08:20Z</time></trkpt>
<trkpt lat="46.51394" lon="6.63114"><ele>481.4</ele><time>2023-06-07T19:08:21Z</time></trkpt>
<trkpt lat="46.5138" lon="6.63096"><ele>480.2</ele><time>2023-06-07T19:08:24Z</time></trkpt>
<trkpt lat="46.5138" lon="6.63086"><ele>479.8</ele><time>2023-06-07T19:08:25Z</time></trkpt>
<trkpt lat="46.51382" lon="6.63077"><ele>479.6</ele><time>2023-06-07T19:08:26Z</time></trkpt>
<trkpt lat="46.51385" lon="6.63061"><ele>479</ele><time>2023-06-07T19:08:28Z</time></trkpt>
<trkpt lat="46.51387" lon="6.63052"><ele>478.8</ele><time>2023-06-07T19:08:29Z</time></trkpt>
<trkpt lat="46.5139" lon="6.63038"><ele>478.6</ele><time>2023-06-07T19:08:31Z</time></trkpt>
<trkpt lat="46.51393" lon="6.63025"><ele>478.6</ele><time>2023-06-07T19:08:33Z</time></trkpt>
<trkpt lat="46.51401" lon="6.62981"><ele>478.4</ele><time>2023-06-07T19:08:39Z</time></trkpt>
<trkpt lat="46.51402" lon="6.62971"><ele>478.2</ele><time>2023-06-07T19:08:40Z</time></trkpt>
<trkpt lat="46.51407" lon="6.62943"><ele>477.8</ele><time>2023-06-07T19:08:43Z</time></trkpt>
<trkpt lat="46.5141" lon="6.62934"><ele>477.6</ele><time>2023-06-07T19:08:44Z</time></trkpt>
<trkpt lat="46.51418" lon="6.62904"><ele>476.8</ele><time>2023-06-07T19:08:47Z</time></trkpt>
<trkpt lat="46.51422" lon="6.62883"><ele>475.8</ele><time>2023-06-07T19:08:49Z</time></trkpt>
<trkpt lat="46.51424" lon="6.62872"><ele>475.4</ele><time>2023-06-07T19:08:50Z</time></trkpt>
<trkpt lat="46.51432" lon="6.62839"><ele>474.8</ele><time>2023-06-07T19:08:53Z</time></trkpt>
<trkpt lat="46.51438" lon="6.62818"><ele>474.6</ele><time>2023-06-07T19:08:55Z</time></trkpt>
<trkpt lat="46.51444" lon="6.62789"><ele>475.2</ele><time>2023-06-07T19:08:58Z</time></trkpt>
<trkpt lat="46.51447" lon="6.62771"><ele>475.6</ele><time>2023-06-07T19:09:00Z</time></trkpt>
<trkpt lat="46.51452" lon="6.62758"><ele>475.8</ele><time>2023-06-07T19:09:02Z</time></trkpt>
<trkpt lat="46.51463" lon="6.62742"><ele>476.2</ele><time>2023-06-07T19:09:05Z</time></trkpt>
<trkpt lat="46.51468" lon="6.62738"><ele>476.4</ele><time>2023-06-07T19:09:07Z</time></trkpt>
<trkpt lat="46.51472" lon="6.62732"><ele>476.8</ele><time>2023-06-07T19:09:09Z</time></trkpt>
<trkpt lat="46.51481" lon="6.62712"><ele>477.6</ele><time>2023-06-07T19:09:14Z</time></trkpt>
<trkpt lat="46.51485" lon="6.62709"><ele>477.8</ele><time>2023-06-07T19:09:16Z</time></trkpt>
<trkpt lat="46.51494" lon="6.62712"><ele>478.2</ele><time>2023-06-07T19:09:20Z</time></trkpt>
<trkpt lat="46.51501" lon="6.62715"><ele>478.8</ele><time>2023-06-07T19:09:24Z</time></trkpt>
<trkpt lat="46.51504" lon="6.62719"><ele>479.2</ele><time>2023-06-07T19:09:26Z</time></trkpt>
<trkpt lat="46.51505" lon="6.62723"><ele>479.4</ele><time>2023-06-07T19:09:28Z</time></trkpt>
<trkpt lat="46.51506" lon="6.62727"><ele>479.8</ele><time>2023-06-07T19:09:31Z</time></trkpt>
<trkpt lat="46.51507" lon="6.62728"><ele>479.8</ele><time>2023-06-07T19:09:32Z</time></trkpt>
</trkseg></trk></gpx>